<?xml version="1.0" encoding="UTF-8" standalone="no" ?>
<gpx xmlns="http://www.topografix.com/GPX/1/1" xmlns:xsi="http://www.w3.org/2001/XMLSchema-instance" xsi:schemaLocation="http://www.topografix.com/GPX/1/1 http://www.topografix.com/GPX/1/1/gpx.xsd" version="1.1" creator="VisuGPX - https://www.visugpx.com">
  <metadata>
    <name>CENS 15km</name>
  </metadata>
  <trk>
    <name><![CDATA[CENS 15km_1]]></name>
    <trkseg>
      <trkpt lat="47.27021" lon="-1.63427">
        <ele>52</ele>
        <time>2019-09-30T12:38:43.000Z</time>
      </trkpt>
      <trkpt lat="47.27021" lon="-1.63427">
        <ele>52</ele>
        <time>2019-09-30T12:38:44.000Z</time>
      </trkpt>
      <trkpt lat="47.27021" lon="-1.63427">
        <ele>52</ele>
        <time>2019-09-30T12:38:45.000Z</time>
      </trkpt>
      <trkpt lat="47.2702" lon="-1.63427">
        <ele>52</ele>
        <time>2019-09-30T12:38:46.000Z</time>
      </trkpt>
      <trkpt lat="47.2702" lon="-1.63425">
        <ele>52</ele>
        <time>2019-09-30T12:38:47.000Z</time>
      </trkpt>
      <trkpt lat="47.2702" lon="-1.63424">
        <ele>52</ele>
        <time>2019-09-30T12:38:48.000Z</time>
      </trkpt>
      <trkpt lat="47.27021" lon="-1.63422">
        <ele>52</ele>
        <time>2019-09-30T12:38:49.000Z</time>
      </trkpt>
      <trkpt lat="47.27022" lon="-1.63419">
        <ele>52</ele>
        <time>2019-09-30T12:38:50.000Z</time>
      </trkpt>
      <trkpt lat="47.27024" lon="-1.63418">
        <ele>52</ele>
        <time>2019-09-30T12:38:51.000Z</time>
      </trkpt>
      <trkpt lat="47.27026" lon="-1.63417">
        <ele>51</ele>
        <time>2019-09-30T12:38:52.000Z</time>
      </trkpt>
      <trkpt lat="47.27028" lon="-1.63417">
        <ele>51</ele>
        <time>2019-09-30T12:38:53.000Z</time>
      </trkpt>
      <trkpt lat="47.27031" lon="-1.63417">
        <ele>51</ele>
        <time>2019-09-30T12:38:54.000Z</time>
      </trkpt>
      <trkpt lat="47.27033" lon="-1.63417">
        <ele>51</ele>
        <time>2019-09-30T12:38:55.000Z</time>
      </trkpt>
      <trkpt lat="47.27036" lon="-1.63418">
        <ele>50</ele>
        <time>2019-09-30T12:38:56.000Z</time>
      </trkpt>
      <trkpt lat="47.27038" lon="-1.6342">
        <ele>50</ele>
        <time>2019-09-30T12:38:57.000Z</time>
      </trkpt>
      <trkpt lat="47.27041" lon="-1.63421">
        <ele>50</ele>
        <time>2019-09-30T12:38:58.000Z</time>
      </trkpt>
      <trkpt lat="47.27043" lon="-1.63421">
        <ele>50</ele>
        <time>2019-09-30T12:38:59.000Z</time>
      </trkpt>
      <trkpt lat="47.27044" lon="-1.63419">
        <ele>49</ele>
        <time>2019-09-30T12:39:00.000Z</time>
      </trkpt>
      <trkpt lat="47.27044" lon="-1.63416">
        <ele>49</ele>
        <time>2019-09-30T12:39:01.000Z</time>
      </trkpt>
      <trkpt lat="47.27043" lon="-1.63413">
        <ele>49</ele>
        <time>2019-09-30T12:39:02.000Z</time>
      </trkpt>
      <trkpt lat="47.27043" lon="-1.63409">
        <ele>48</ele>
        <time>2019-09-30T12:39:03.000Z</time>
      </trkpt>
      <trkpt lat="47.27042" lon="-1.63405">
        <ele>48</ele>
        <time>2019-09-30T12:39:04.000Z</time>
      </trkpt>
      <trkpt lat="47.27042" lon="-1.634">
        <ele>48</ele>
        <time>2019-09-30T12:39:05.000Z</time>
      </trkpt>
      <trkpt lat="47.27041" lon="-1.63395">
        <ele>48</ele>
        <time>2019-09-30T12:39:06.000Z</time>
      </trkpt>
      <trkpt lat="47.27041" lon="-1.6339">
        <ele>47</ele>
        <time>2019-09-30T12:39:07.000Z</time>
      </trkpt>
      <trkpt lat="47.2704" lon="-1.63385">
        <ele>47</ele>
        <time>2019-09-30T12:39:08.000Z</time>
      </trkpt>
      <trkpt lat="47.2704" lon="-1.63379">
        <ele>47</ele>
        <time>2019-09-30T12:39:09.000Z</time>
      </trkpt>
      <trkpt lat="47.2704" lon="-1.63373">
        <ele>47</ele>
        <time>2019-09-30T12:39:10.000Z</time>
      </trkpt>
      <trkpt lat="47.27039" lon="-1.63368">
        <ele>47</ele>
        <time>2019-09-30T12:39:11.000Z</time>
      </trkpt>
      <trkpt lat="47.27039" lon="-1.63362">
        <ele>46</ele>
        <time>2019-09-30T12:39:12.000Z</time>
      </trkpt>
      <trkpt lat="47.27039" lon="-1.63357">
        <ele>46</ele>
        <time>2019-09-30T12:39:13.000Z</time>
      </trkpt>
      <trkpt lat="47.27038" lon="-1.63353">
        <ele>46</ele>
        <time>2019-09-30T12:39:14.000Z</time>
      </trkpt>
      <trkpt lat="47.27038" lon="-1.63349">
        <ele>46</ele>
        <time>2019-09-30T12:39:15.000Z</time>
      </trkpt>
      <trkpt lat="47.27038" lon="-1.63345">
        <ele>46</ele>
        <time>2019-09-30T12:39:16.000Z</time>
      </trkpt>
      <trkpt lat="47.27039" lon="-1.63342">
        <ele>46</ele>
        <time>2019-09-30T12:39:17.000Z</time>
      </trkpt>
      <trkpt lat="47.27038" lon="-1.6334">
        <ele>46</ele>
        <time>2019-09-30T12:39:18.000Z</time>
      </trkpt>
      <trkpt lat="47.27038" lon="-1.63337">
        <ele>46</ele>
        <time>2019-09-30T12:39:19.000Z</time>
      </trkpt>
      <trkpt lat="47.27038" lon="-1.63334">
        <ele>46</ele>
        <time>2019-09-30T12:39:20.000Z</time>
      </trkpt>
      <trkpt lat="47.27038" lon="-1.63331">
        <ele>46</ele>
        <time>2019-09-30T12:39:21.000Z</time>
      </trkpt>
      <trkpt lat="47.27038" lon="-1.63327">
        <ele>46</ele>
        <time>2019-09-30T12:39:22.000Z</time>
      </trkpt>
      <trkpt lat="47.27039" lon="-1.63323">
        <ele>46</ele>
        <time>2019-09-30T12:39:23.000Z</time>
      </trkpt>
      <trkpt lat="47.27039" lon="-1.63318">
        <ele>46</ele>
        <time>2019-09-30T12:39:24.000Z</time>
      </trkpt>
      <trkpt lat="47.27039" lon="-1.63312">
        <ele>46</ele>
        <time>2019-09-30T12:39:25.000Z</time>
      </trkpt>
      <trkpt lat="47.27038" lon="-1.63306">
        <ele>46</ele>
        <time>2019-09-30T12:39:26.000Z</time>
      </trkpt>
      <trkpt lat="47.27037" lon="-1.633">
        <ele>46</ele>
        <time>2019-09-30T12:39:27.000Z</time>
      </trkpt>
      <trkpt lat="47.27036" lon="-1.63293">
        <ele>45</ele>
        <time>2019-09-30T12:39:28.000Z</time>
      </trkpt>
      <trkpt lat="47.27033" lon="-1.63287">
        <ele>45</ele>
        <time>2019-09-30T12:39:29.000Z</time>
      </trkpt>
      <trkpt lat="47.2703" lon="-1.63284">
        <ele>45</ele>
        <time>2019-09-30T12:39:30.000Z</time>
      </trkpt>
      <trkpt lat="47.27026" lon="-1.63282">
        <ele>44</ele>
        <time>2019-09-30T12:39:31.000Z</time>
      </trkpt>
      <trkpt lat="47.27023" lon="-1.63282">
        <ele>44</ele>
        <time>2019-09-30T12:39:32.000Z</time>
      </trkpt>
      <trkpt lat="47.27021" lon="-1.63283">
        <ele>43</ele>
        <time>2019-09-30T12:39:33.000Z</time>
      </trkpt>
      <trkpt lat="47.27017" lon="-1.63283">
        <ele>43</ele>
        <time>2019-09-30T12:39:34.000Z</time>
      </trkpt>
      <trkpt lat="47.27012" lon="-1.63283">
        <ele>42</ele>
        <time>2019-09-30T12:39:35.000Z</time>
      </trkpt>
      <trkpt lat="47.27007" lon="-1.63282">
        <ele>41</ele>
        <time>2019-09-30T12:39:36.000Z</time>
      </trkpt>
      <trkpt lat="47.27001" lon="-1.63281">
        <ele>40</ele>
        <time>2019-09-30T12:39:37.000Z</time>
      </trkpt>
      <trkpt lat="47.26995" lon="-1.6328">
        <ele>39</ele>
        <time>2019-09-30T12:39:38.000Z</time>
      </trkpt>
      <trkpt lat="47.26989" lon="-1.6328">
        <ele>38</ele>
        <time>2019-09-30T12:39:39.000Z</time>
      </trkpt>
      <trkpt lat="47.26982" lon="-1.63279">
        <ele>37</ele>
        <time>2019-09-30T12:39:40.000Z</time>
      </trkpt>
      <trkpt lat="47.26975" lon="-1.63277">
        <ele>36</ele>
        <time>2019-09-30T12:39:41.000Z</time>
      </trkpt>
      <trkpt lat="47.26969" lon="-1.63276">
        <ele>35</ele>
        <time>2019-09-30T12:39:42.000Z</time>
      </trkpt>
      <trkpt lat="47.26962" lon="-1.63273">
        <ele>35</ele>
        <time>2019-09-30T12:39:43.000Z</time>
      </trkpt>
      <trkpt lat="47.26956" lon="-1.63271">
        <ele>34</ele>
        <time>2019-09-30T12:39:44.000Z</time>
      </trkpt>
      <trkpt lat="47.26949" lon="-1.63268">
        <ele>34</ele>
        <time>2019-09-30T12:39:45.000Z</time>
      </trkpt>
      <trkpt lat="47.26942" lon="-1.63265">
        <ele>33</ele>
        <time>2019-09-30T12:39:46.000Z</time>
      </trkpt>
      <trkpt lat="47.26934" lon="-1.63262">
        <ele>33</ele>
        <time>2019-09-30T12:39:47.000Z</time>
      </trkpt>
      <trkpt lat="47.26926" lon="-1.63258">
        <ele>32</ele>
        <time>2019-09-30T12:39:48.000Z</time>
      </trkpt>
      <trkpt lat="47.26918" lon="-1.63253">
        <ele>30</ele>
        <time>2019-09-30T12:39:49.000Z</time>
      </trkpt>
      <trkpt lat="47.2691" lon="-1.63248">
        <ele>29</ele>
        <time>2019-09-30T12:39:50.000Z</time>
      </trkpt>
      <trkpt lat="47.26903" lon="-1.63241">
        <ele>28</ele>
        <time>2019-09-30T12:39:51.000Z</time>
      </trkpt>
      <trkpt lat="47.26899" lon="-1.63235">
        <ele>27</ele>
        <time>2019-09-30T12:39:52.000Z</time>
      </trkpt>
      <trkpt lat="47.26896" lon="-1.63228">
        <ele>26</ele>
        <time>2019-09-30T12:39:53.000Z</time>
      </trkpt>
      <trkpt lat="47.26893" lon="-1.63221">
        <ele>25</ele>
        <time>2019-09-30T12:39:54.000Z</time>
      </trkpt>
      <trkpt lat="47.26891" lon="-1.63215">
        <ele>25</ele>
        <time>2019-09-30T12:39:55.000Z</time>
      </trkpt>
      <trkpt lat="47.26888" lon="-1.63209">
        <ele>25</ele>
        <time>2019-09-30T12:39:56.000Z</time>
      </trkpt>
      <trkpt lat="47.26884" lon="-1.63204">
        <ele>25</ele>
        <time>2019-09-30T12:39:57.000Z</time>
      </trkpt>
      <trkpt lat="47.26881" lon="-1.632">
        <ele>24</ele>
        <time>2019-09-30T12:39:58.000Z</time>
      </trkpt>
      <trkpt lat="47.26877" lon="-1.63198">
        <ele>24</ele>
        <time>2019-09-30T12:39:59.000Z</time>
      </trkpt>
      <trkpt lat="47.26875" lon="-1.63197">
        <ele>24</ele>
        <time>2019-09-30T12:40:00.000Z</time>
      </trkpt>
      <trkpt lat="47.26874" lon="-1.63195">
        <ele>24</ele>
        <time>2019-09-30T12:40:01.000Z</time>
      </trkpt>
      <trkpt lat="47.26874" lon="-1.63193">
        <ele>24</ele>
        <time>2019-09-30T12:40:02.000Z</time>
      </trkpt>
      <trkpt lat="47.26873" lon="-1.63192">
        <ele>24</ele>
        <time>2019-09-30T12:40:03.000Z</time>
      </trkpt>
      <trkpt lat="47.26872" lon="-1.63191">
        <ele>24</ele>
        <time>2019-09-30T12:40:04.000Z</time>
      </trkpt>
      <trkpt lat="47.26871" lon="-1.6319">
        <ele>25</ele>
        <time>2019-09-30T12:40:05.000Z</time>
      </trkpt>
      <trkpt lat="47.2687" lon="-1.63189">
        <ele>25</ele>
        <time>2019-09-30T12:40:06.000Z</time>
      </trkpt>
      <trkpt lat="47.26869" lon="-1.63189">
        <ele>25</ele>
        <time>2019-09-30T12:40:07.000Z</time>
      </trkpt>
      <trkpt lat="47.26867" lon="-1.63189">
        <ele>25</ele>
        <time>2019-09-30T12:40:08.000Z</time>
      </trkpt>
      <trkpt lat="47.26864" lon="-1.63188">
        <ele>25</ele>
        <time>2019-09-30T12:40:09.000Z</time>
      </trkpt>
      <trkpt lat="47.26861" lon="-1.63187">
        <ele>25</ele>
        <time>2019-09-30T12:40:10.000Z</time>
      </trkpt>
      <trkpt lat="47.26857" lon="-1.63185">
        <ele>25</ele>
        <time>2019-09-30T12:40:11.000Z</time>
      </trkpt>
      <trkpt lat="47.26853" lon="-1.63184">
        <ele>25</ele>
        <time>2019-09-30T12:40:12.000Z</time>
      </trkpt>
      <trkpt lat="47.2685" lon="-1.63183">
        <ele>24</ele>
        <time>2019-09-30T12:40:13.000Z</time>
      </trkpt>
      <trkpt lat="47.26847" lon="-1.63183">
        <ele>24</ele>
        <time>2019-09-30T12:40:14.000Z</time>
      </trkpt>
      <trkpt lat="47.26843" lon="-1.63182">
        <ele>25</ele>
        <time>2019-09-30T12:40:15.000Z</time>
      </trkpt>
      <trkpt lat="47.2684" lon="-1.6318">
        <ele>25</ele>
        <time>2019-09-30T12:40:16.000Z</time>
      </trkpt>
      <trkpt lat="47.26836" lon="-1.63179">
        <ele>25</ele>
        <time>2019-09-30T12:40:17.000Z</time>
      </trkpt>
      <trkpt lat="47.26833" lon="-1.63177">
        <ele>25</ele>
        <time>2019-09-30T12:40:18.000Z</time>
      </trkpt>
      <trkpt lat="47.2683" lon="-1.63176">
        <ele>25</ele>
        <time>2019-09-30T12:40:19.000Z</time>
      </trkpt>
      <trkpt lat="47.26827" lon="-1.63174">
        <ele>25</ele>
        <time>2019-09-30T12:40:20.000Z</time>
      </trkpt>
      <trkpt lat="47.26825" lon="-1.63173">
        <ele>25</ele>
        <time>2019-09-30T12:40:21.000Z</time>
      </trkpt>
      <trkpt lat="47.26823" lon="-1.63172">
        <ele>25</ele>
        <time>2019-09-30T12:40:22.000Z</time>
      </trkpt>
      <trkpt lat="47.26821" lon="-1.63171">
        <ele>25</ele>
        <time>2019-09-30T12:40:23.000Z</time>
      </trkpt>
      <trkpt lat="47.26818" lon="-1.63171">
        <ele>26</ele>
        <time>2019-09-30T12:40:24.000Z</time>
      </trkpt>
      <trkpt lat="47.26817" lon="-1.63171">
        <ele>26</ele>
        <time>2019-09-30T12:40:25.000Z</time>
      </trkpt>
      <trkpt lat="47.26814" lon="-1.63171">
        <ele>26</ele>
        <time>2019-09-30T12:40:26.000Z</time>
      </trkpt>
      <trkpt lat="47.26812" lon="-1.63169">
        <ele>26</ele>
        <time>2019-09-30T12:40:27.000Z</time>
      </trkpt>
      <trkpt lat="47.2681" lon="-1.63168">
        <ele>26</ele>
        <time>2019-09-30T12:40:28.000Z</time>
      </trkpt>
      <trkpt lat="47.26807" lon="-1.63167">
        <ele>26</ele>
        <time>2019-09-30T12:40:29.000Z</time>
      </trkpt>
      <trkpt lat="47.26805" lon="-1.63166">
        <ele>26</ele>
        <time>2019-09-30T12:40:30.000Z</time>
      </trkpt>
      <trkpt lat="47.26801" lon="-1.63165">
        <ele>26</ele>
        <time>2019-09-30T12:40:31.000Z</time>
      </trkpt>
      <trkpt lat="47.26798" lon="-1.63164">
        <ele>25</ele>
        <time>2019-09-30T12:40:32.000Z</time>
      </trkpt>
      <trkpt lat="47.26795" lon="-1.63163">
        <ele>25</ele>
        <time>2019-09-30T12:40:33.000Z</time>
      </trkpt>
      <trkpt lat="47.26793" lon="-1.63161">
        <ele>25</ele>
        <time>2019-09-30T12:40:34.000Z</time>
      </trkpt>
      <trkpt lat="47.26791" lon="-1.6316">
        <ele>25</ele>
        <time>2019-09-30T12:40:35.000Z</time>
      </trkpt>
      <trkpt lat="47.26788" lon="-1.63159">
        <ele>25</ele>
        <time>2019-09-30T12:40:36.000Z</time>
      </trkpt>
      <trkpt lat="47.26786" lon="-1.63158">
        <ele>25</ele>
        <time>2019-09-30T12:40:37.000Z</time>
      </trkpt>
      <trkpt lat="47.26783" lon="-1.63157">
        <ele>25</ele>
        <time>2019-09-30T12:40:38.000Z</time>
      </trkpt>
      <trkpt lat="47.26781" lon="-1.63157">
        <ele>25</ele>
        <time>2019-09-30T12:40:39.000Z</time>
      </trkpt>
      <trkpt lat="47.26778" lon="-1.63156">
        <ele>25</ele>
        <time>2019-09-30T12:40:40.000Z</time>
      </trkpt>
      <trkpt lat="47.26776" lon="-1.63155">
        <ele>25</ele>
        <time>2019-09-30T12:40:41.000Z</time>
      </trkpt>
      <trkpt lat="47.26773" lon="-1.63154">
        <ele>25</ele>
        <time>2019-09-30T12:40:42.000Z</time>
      </trkpt>
      <trkpt lat="47.26771" lon="-1.63153">
        <ele>25</ele>
        <time>2019-09-30T12:40:43.000Z</time>
      </trkpt>
      <trkpt lat="47.26769" lon="-1.63151">
        <ele>25</ele>
        <time>2019-09-30T12:40:44.000Z</time>
      </trkpt>
      <trkpt lat="47.26767" lon="-1.6315">
        <ele>26</ele>
        <time>2019-09-30T12:40:45.000Z</time>
      </trkpt>
      <trkpt lat="47.26765" lon="-1.63149">
        <ele>26</ele>
        <time>2019-09-30T12:40:46.000Z</time>
      </trkpt>
      <trkpt lat="47.26763" lon="-1.63147">
        <ele>26</ele>
        <time>2019-09-30T12:40:47.000Z</time>
      </trkpt>
      <trkpt lat="47.2676" lon="-1.63146">
        <ele>26</ele>
        <time>2019-09-30T12:40:48.000Z</time>
      </trkpt>
      <trkpt lat="47.26758" lon="-1.63143">
        <ele>26</ele>
        <time>2019-09-30T12:40:49.000Z</time>
      </trkpt>
      <trkpt lat="47.26756" lon="-1.63141">
        <ele>26</ele>
        <time>2019-09-30T12:40:50.000Z</time>
      </trkpt>
      <trkpt lat="47.26754" lon="-1.6314">
        <ele>26</ele>
        <time>2019-09-30T12:40:51.000Z</time>
      </trkpt>
      <trkpt lat="47.26753" lon="-1.63139">
        <ele>26</ele>
        <time>2019-09-30T12:40:52.000Z</time>
      </trkpt>
      <trkpt lat="47.26751" lon="-1.63137">
        <ele>26</ele>
        <time>2019-09-30T12:40:53.000Z</time>
      </trkpt>
      <trkpt lat="47.26749" lon="-1.63135">
        <ele>26</ele>
        <time>2019-09-30T12:40:54.000Z</time>
      </trkpt>
      <trkpt lat="47.26748" lon="-1.63132">
        <ele>26</ele>
        <time>2019-09-30T12:40:55.000Z</time>
      </trkpt>
      <trkpt lat="47.26747" lon="-1.6313">
        <ele>26</ele>
        <time>2019-09-30T12:40:56.000Z</time>
      </trkpt>
      <trkpt lat="47.26745" lon="-1.63127">
        <ele>26</ele>
        <time>2019-09-30T12:40:57.000Z</time>
      </trkpt>
      <trkpt lat="47.26743" lon="-1.63125">
        <ele>27</ele>
        <time>2019-09-30T12:40:58.000Z</time>
      </trkpt>
      <trkpt lat="47.26742" lon="-1.63122">
        <ele>27</ele>
        <time>2019-09-30T12:40:59.000Z</time>
      </trkpt>
      <trkpt lat="47.26741" lon="-1.6312">
        <ele>27</ele>
        <time>2019-09-30T12:41:00.000Z</time>
      </trkpt>
      <trkpt lat="47.2674" lon="-1.63117">
        <ele>27</ele>
        <time>2019-09-30T12:41:01.000Z</time>
      </trkpt>
      <trkpt lat="47.26738" lon="-1.63115">
        <ele>27</ele>
        <time>2019-09-30T12:41:02.000Z</time>
      </trkpt>
      <trkpt lat="47.26737" lon="-1.63113">
        <ele>28</ele>
        <time>2019-09-30T12:41:03.000Z</time>
      </trkpt>
      <trkpt lat="47.26735" lon="-1.63111">
        <ele>28</ele>
        <time>2019-09-30T12:41:04.000Z</time>
      </trkpt>
      <trkpt lat="47.26733" lon="-1.63109">
        <ele>28</ele>
        <time>2019-09-30T12:41:05.000Z</time>
      </trkpt>
      <trkpt lat="47.26731" lon="-1.63107">
        <ele>28</ele>
        <time>2019-09-30T12:41:06.000Z</time>
      </trkpt>
      <trkpt lat="47.2673" lon="-1.63106">
        <ele>29</ele>
        <time>2019-09-30T12:41:07.000Z</time>
      </trkpt>
      <trkpt lat="47.26728" lon="-1.63104">
        <ele>29</ele>
        <time>2019-09-30T12:41:08.000Z</time>
      </trkpt>
      <trkpt lat="47.26726" lon="-1.63102">
        <ele>29</ele>
        <time>2019-09-30T12:41:09.000Z</time>
      </trkpt>
      <trkpt lat="47.26724" lon="-1.63102">
        <ele>29</ele>
        <time>2019-09-30T12:41:10.000Z</time>
      </trkpt>
      <trkpt lat="47.26722" lon="-1.63101">
        <ele>29</ele>
        <time>2019-09-30T12:41:11.000Z</time>
      </trkpt>
      <trkpt lat="47.2672" lon="-1.631">
        <ele>29</ele>
        <time>2019-09-30T12:41:12.000Z</time>
      </trkpt>
      <trkpt lat="47.26719" lon="-1.63099">
        <ele>30</ele>
        <time>2019-09-30T12:41:13.000Z</time>
      </trkpt>
      <trkpt lat="47.26719" lon="-1.63098">
        <ele>30</ele>
        <time>2019-09-30T12:41:14.000Z</time>
      </trkpt>
      <trkpt lat="47.26718" lon="-1.63098">
        <ele>30</ele>
        <time>2019-09-30T12:41:15.000Z</time>
      </trkpt>
      <trkpt lat="47.26717" lon="-1.63098">
        <ele>30</ele>
        <time>2019-09-30T12:41:16.000Z</time>
      </trkpt>
      <trkpt lat="47.26716" lon="-1.63098">
        <ele>30</ele>
        <time>2019-09-30T12:41:17.000Z</time>
      </trkpt>
      <trkpt lat="47.26715" lon="-1.63098">
        <ele>31</ele>
        <time>2019-09-30T12:41:18.000Z</time>
      </trkpt>
      <trkpt lat="47.26714" lon="-1.63097">
        <ele>31</ele>
        <time>2019-09-30T12:41:19.000Z</time>
      </trkpt>
      <trkpt lat="47.26712" lon="-1.63096">
        <ele>31</ele>
        <time>2019-09-30T12:41:20.000Z</time>
      </trkpt>
      <trkpt lat="47.26711" lon="-1.63094">
        <ele>31</ele>
        <time>2019-09-30T12:41:21.000Z</time>
      </trkpt>
      <trkpt lat="47.2671" lon="-1.63093">
        <ele>31</ele>
        <time>2019-09-30T12:41:22.000Z</time>
      </trkpt>
      <trkpt lat="47.26709" lon="-1.63091">
        <ele>32</ele>
        <time>2019-09-30T12:41:23.000Z</time>
      </trkpt>
      <trkpt lat="47.26707" lon="-1.6309">
        <ele>32</ele>
        <time>2019-09-30T12:41:24.000Z</time>
      </trkpt>
      <trkpt lat="47.26705" lon="-1.63088">
        <ele>32</ele>
        <time>2019-09-30T12:41:25.000Z</time>
      </trkpt>
      <trkpt lat="47.26704" lon="-1.63086">
        <ele>32</ele>
        <time>2019-09-30T12:41:26.000Z</time>
      </trkpt>
      <trkpt lat="47.26702" lon="-1.63083">
        <ele>32</ele>
        <time>2019-09-30T12:41:27.000Z</time>
      </trkpt>
      <trkpt lat="47.26701" lon="-1.6308">
        <ele>32</ele>
        <time>2019-09-30T12:41:28.000Z</time>
      </trkpt>
      <trkpt lat="47.267" lon="-1.63078">
        <ele>33</ele>
        <time>2019-09-30T12:41:29.000Z</time>
      </trkpt>
      <trkpt lat="47.267" lon="-1.63076">
        <ele>33</ele>
        <time>2019-09-30T12:41:30.000Z</time>
      </trkpt>
      <trkpt lat="47.26698" lon="-1.63074">
        <ele>33</ele>
        <time>2019-09-30T12:41:31.000Z</time>
      </trkpt>
      <trkpt lat="47.26697" lon="-1.63072">
        <ele>33</ele>
        <time>2019-09-30T12:41:32.000Z</time>
      </trkpt>
      <trkpt lat="47.26695" lon="-1.63071">
        <ele>33</ele>
        <time>2019-09-30T12:41:33.000Z</time>
      </trkpt>
      <trkpt lat="47.26694" lon="-1.63068">
        <ele>34</ele>
        <time>2019-09-30T12:41:34.000Z</time>
      </trkpt>
      <trkpt lat="47.26693" lon="-1.63065">
        <ele>34</ele>
        <time>2019-09-30T12:41:35.000Z</time>
      </trkpt>
      <trkpt lat="47.26692" lon="-1.63061">
        <ele>34</ele>
        <time>2019-09-30T12:41:36.000Z</time>
      </trkpt>
      <trkpt lat="47.26691" lon="-1.63058">
        <ele>34</ele>
        <time>2019-09-30T12:41:37.000Z</time>
      </trkpt>
      <trkpt lat="47.26691" lon="-1.63056">
        <ele>35</ele>
        <time>2019-09-30T12:41:38.000Z</time>
      </trkpt>
      <trkpt lat="47.26692" lon="-1.63053">
        <ele>35</ele>
        <time>2019-09-30T12:41:39.000Z</time>
      </trkpt>
      <trkpt lat="47.26693" lon="-1.63049">
        <ele>35</ele>
        <time>2019-09-30T12:41:40.000Z</time>
      </trkpt>
      <trkpt lat="47.26694" lon="-1.63046">
        <ele>35</ele>
        <time>2019-09-30T12:41:41.000Z</time>
      </trkpt>
      <trkpt lat="47.26695" lon="-1.63044">
        <ele>36</ele>
        <time>2019-09-30T12:41:42.000Z</time>
      </trkpt>
      <trkpt lat="47.26696" lon="-1.63041">
        <ele>36</ele>
        <time>2019-09-30T12:41:43.000Z</time>
      </trkpt>
      <trkpt lat="47.26696" lon="-1.63038">
        <ele>36</ele>
        <time>2019-09-30T12:41:44.000Z</time>
      </trkpt>
      <trkpt lat="47.26696" lon="-1.63035">
        <ele>36</ele>
        <time>2019-09-30T12:41:45.000Z</time>
      </trkpt>
      <trkpt lat="47.26696" lon="-1.63032">
        <ele>37</ele>
        <time>2019-09-30T12:41:46.000Z</time>
      </trkpt>
      <trkpt lat="47.26697" lon="-1.63029">
        <ele>37</ele>
        <time>2019-09-30T12:41:47.000Z</time>
      </trkpt>
      <trkpt lat="47.26698" lon="-1.63027">
        <ele>37</ele>
        <time>2019-09-30T12:41:48.000Z</time>
      </trkpt>
      <trkpt lat="47.26699" lon="-1.63025">
        <ele>37</ele>
        <time>2019-09-30T12:41:49.000Z</time>
      </trkpt>
      <trkpt lat="47.267" lon="-1.63023">
        <ele>38</ele>
        <time>2019-09-30T12:41:50.000Z</time>
      </trkpt>
      <trkpt lat="47.26702" lon="-1.63022">
        <ele>38</ele>
        <time>2019-09-30T12:41:51.000Z</time>
      </trkpt>
      <trkpt lat="47.26702" lon="-1.63022">
        <ele>38</ele>
        <time>2019-09-30T12:41:52.000Z</time>
      </trkpt>
      <trkpt lat="47.26703" lon="-1.6302">
        <ele>38</ele>
        <time>2019-09-30T12:41:53.000Z</time>
      </trkpt>
      <trkpt lat="47.26704" lon="-1.63019">
        <ele>38</ele>
        <time>2019-09-30T12:41:54.000Z</time>
      </trkpt>
      <trkpt lat="47.26705" lon="-1.63017">
        <ele>38</ele>
        <time>2019-09-30T12:41:55.000Z</time>
      </trkpt>
      <trkpt lat="47.26706" lon="-1.63014">
        <ele>38</ele>
        <time>2019-09-30T12:41:56.000Z</time>
      </trkpt>
      <trkpt lat="47.26707" lon="-1.63011">
        <ele>38</ele>
        <time>2019-09-30T12:41:57.000Z</time>
      </trkpt>
      <trkpt lat="47.26709" lon="-1.63008">
        <ele>38</ele>
        <time>2019-09-30T12:41:58.000Z</time>
      </trkpt>
      <trkpt lat="47.26711" lon="-1.63004">
        <ele>38</ele>
        <time>2019-09-30T12:41:59.000Z</time>
      </trkpt>
      <trkpt lat="47.26712" lon="-1.63001">
        <ele>38</ele>
        <time>2019-09-30T12:42:00.000Z</time>
      </trkpt>
      <trkpt lat="47.26712" lon="-1.62999">
        <ele>37</ele>
        <time>2019-09-30T12:42:01.000Z</time>
      </trkpt>
      <trkpt lat="47.26713" lon="-1.62996">
        <ele>37</ele>
        <time>2019-09-30T12:42:02.000Z</time>
      </trkpt>
      <trkpt lat="47.26713" lon="-1.62994">
        <ele>37</ele>
        <time>2019-09-30T12:42:03.000Z</time>
      </trkpt>
      <trkpt lat="47.26714" lon="-1.62994">
        <ele>37</ele>
        <time>2019-09-30T12:42:04.000Z</time>
      </trkpt>
      <trkpt lat="47.26715" lon="-1.62995">
        <ele>37</ele>
        <time>2019-09-30T12:42:05.000Z</time>
      </trkpt>
      <trkpt lat="47.26717" lon="-1.62997">
        <ele>37</ele>
        <time>2019-09-30T12:42:06.000Z</time>
      </trkpt>
      <trkpt lat="47.26719" lon="-1.62998">
        <ele>37</ele>
        <time>2019-09-30T12:42:07.000Z</time>
      </trkpt>
      <trkpt lat="47.26721" lon="-1.62997">
        <ele>37</ele>
        <time>2019-09-30T12:42:08.000Z</time>
      </trkpt>
      <trkpt lat="47.26723" lon="-1.62996">
        <ele>37</ele>
        <time>2019-09-30T12:42:09.000Z</time>
      </trkpt>
      <trkpt lat="47.26726" lon="-1.62995">
        <ele>37</ele>
        <time>2019-09-30T12:42:10.000Z</time>
      </trkpt>
      <trkpt lat="47.26728" lon="-1.62995">
        <ele>37</ele>
        <time>2019-09-30T12:42:11.000Z</time>
      </trkpt>
      <trkpt lat="47.2673" lon="-1.62995">
        <ele>37</ele>
        <time>2019-09-30T12:42:12.000Z</time>
      </trkpt>
      <trkpt lat="47.26732" lon="-1.62992">
        <ele>37</ele>
        <time>2019-09-30T12:42:13.000Z</time>
      </trkpt>
      <trkpt lat="47.26734" lon="-1.62989">
        <ele>37</ele>
        <time>2019-09-30T12:42:14.000Z</time>
      </trkpt>
      <trkpt lat="47.26735" lon="-1.62986">
        <ele>36</ele>
        <time>2019-09-30T12:42:15.000Z</time>
      </trkpt>
      <trkpt lat="47.26736" lon="-1.62983">
        <ele>36</ele>
        <time>2019-09-30T12:42:16.000Z</time>
      </trkpt>
      <trkpt lat="47.26736" lon="-1.6298">
        <ele>36</ele>
        <time>2019-09-30T12:42:17.000Z</time>
      </trkpt>
      <trkpt lat="47.26737" lon="-1.62978">
        <ele>36</ele>
        <time>2019-09-30T12:42:18.000Z</time>
      </trkpt>
      <trkpt lat="47.26738" lon="-1.62975">
        <ele>35</ele>
        <time>2019-09-30T12:42:19.000Z</time>
      </trkpt>
      <trkpt lat="47.26738" lon="-1.62973">
        <ele>35</ele>
        <time>2019-09-30T12:42:20.000Z</time>
      </trkpt>
      <trkpt lat="47.26738" lon="-1.62969">
        <ele>35</ele>
        <time>2019-09-30T12:42:21.000Z</time>
      </trkpt>
      <trkpt lat="47.26739" lon="-1.62964">
        <ele>35</ele>
        <time>2019-09-30T12:42:22.000Z</time>
      </trkpt>
      <trkpt lat="47.26739" lon="-1.62959">
        <ele>34</ele>
        <time>2019-09-30T12:42:23.000Z</time>
      </trkpt>
      <trkpt lat="47.2674" lon="-1.62954">
        <ele>34</ele>
        <time>2019-09-30T12:42:24.000Z</time>
      </trkpt>
      <trkpt lat="47.26741" lon="-1.6295">
        <ele>34</ele>
        <time>2019-09-30T12:42:25.000Z</time>
      </trkpt>
      <trkpt lat="47.26742" lon="-1.62946">
        <ele>34</ele>
        <time>2019-09-30T12:42:26.000Z</time>
      </trkpt>
      <trkpt lat="47.26744" lon="-1.6294">
        <ele>34</ele>
        <time>2019-09-30T12:42:27.000Z</time>
      </trkpt>
      <trkpt lat="47.26746" lon="-1.62935">
        <ele>33</ele>
        <time>2019-09-30T12:42:28.000Z</time>
      </trkpt>
      <trkpt lat="47.26748" lon="-1.62929">
        <ele>33</ele>
        <time>2019-09-30T12:42:29.000Z</time>
      </trkpt>
      <trkpt lat="47.2675" lon="-1.62923">
        <ele>33</ele>
        <time>2019-09-30T12:42:30.000Z</time>
      </trkpt>
      <trkpt lat="47.26751" lon="-1.62918">
        <ele>33</ele>
        <time>2019-09-30T12:42:31.000Z</time>
      </trkpt>
      <trkpt lat="47.26752" lon="-1.62912">
        <ele>32</ele>
        <time>2019-09-30T12:42:32.000Z</time>
      </trkpt>
      <trkpt lat="47.26753" lon="-1.62907">
        <ele>32</ele>
        <time>2019-09-30T12:42:33.000Z</time>
      </trkpt>
      <trkpt lat="47.26754" lon="-1.62901">
        <ele>32</ele>
        <time>2019-09-30T12:42:34.000Z</time>
      </trkpt>
      <trkpt lat="47.26754" lon="-1.62897">
        <ele>32</ele>
        <time>2019-09-30T12:42:35.000Z</time>
      </trkpt>
      <trkpt lat="47.26754" lon="-1.62893">
        <ele>31</ele>
        <time>2019-09-30T12:42:36.000Z</time>
      </trkpt>
      <trkpt lat="47.26755" lon="-1.62889">
        <ele>31</ele>
        <time>2019-09-30T12:42:37.000Z</time>
      </trkpt>
      <trkpt lat="47.26756" lon="-1.62884">
        <ele>31</ele>
        <time>2019-09-30T12:42:38.000Z</time>
      </trkpt>
      <trkpt lat="47.26757" lon="-1.62879">
        <ele>31</ele>
        <time>2019-09-30T12:42:39.000Z</time>
      </trkpt>
      <trkpt lat="47.26757" lon="-1.62874">
        <ele>31</ele>
        <time>2019-09-30T12:42:40.000Z</time>
      </trkpt>
      <trkpt lat="47.26758" lon="-1.62869">
        <ele>31</ele>
        <time>2019-09-30T12:42:41.000Z</time>
      </trkpt>
      <trkpt lat="47.26758" lon="-1.62863">
        <ele>31</ele>
        <time>2019-09-30T12:42:42.000Z</time>
      </trkpt>
      <trkpt lat="47.26757" lon="-1.62858">
        <ele>31</ele>
        <time>2019-09-30T12:42:43.000Z</time>
      </trkpt>
      <trkpt lat="47.26756" lon="-1.62855">
        <ele>31</ele>
        <time>2019-09-30T12:42:44.000Z</time>
      </trkpt>
      <trkpt lat="47.26755" lon="-1.62853">
        <ele>31</ele>
        <time>2019-09-30T12:42:45.000Z</time>
      </trkpt>
      <trkpt lat="47.26754" lon="-1.62851">
        <ele>31</ele>
        <time>2019-09-30T12:42:46.000Z</time>
      </trkpt>
      <trkpt lat="47.26754" lon="-1.62847">
        <ele>31</ele>
        <time>2019-09-30T12:42:47.000Z</time>
      </trkpt>
      <trkpt lat="47.26754" lon="-1.62844">
        <ele>31</ele>
        <time>2019-09-30T12:42:48.000Z</time>
      </trkpt>
      <trkpt lat="47.26754" lon="-1.62839">
        <ele>31</ele>
        <time>2019-09-30T12:42:49.000Z</time>
      </trkpt>
      <trkpt lat="47.26754" lon="-1.62834">
        <ele>31</ele>
        <time>2019-09-30T12:42:50.000Z</time>
      </trkpt>
      <trkpt lat="47.26754" lon="-1.62829">
        <ele>31</ele>
        <time>2019-09-30T12:42:51.000Z</time>
      </trkpt>
      <trkpt lat="47.26755" lon="-1.62824">
        <ele>31</ele>
        <time>2019-09-30T12:42:52.000Z</time>
      </trkpt>
      <trkpt lat="47.26755" lon="-1.62819">
        <ele>32</ele>
        <time>2019-09-30T12:42:53.000Z</time>
      </trkpt>
      <trkpt lat="47.26757" lon="-1.62814">
        <ele>32</ele>
        <time>2019-09-30T12:42:54.000Z</time>
      </trkpt>
      <trkpt lat="47.26758" lon="-1.62809">
        <ele>32</ele>
        <time>2019-09-30T12:42:55.000Z</time>
      </trkpt>
      <trkpt lat="47.26758" lon="-1.62802">
        <ele>32</ele>
        <time>2019-09-30T12:42:56.000Z</time>
      </trkpt>
      <trkpt lat="47.26758" lon="-1.62797">
        <ele>32</ele>
        <time>2019-09-30T12:42:57.000Z</time>
      </trkpt>
      <trkpt lat="47.26757" lon="-1.62791">
        <ele>32</ele>
        <time>2019-09-30T12:42:58.000Z</time>
      </trkpt>
      <trkpt lat="47.26757" lon="-1.62786">
        <ele>32</ele>
        <time>2019-09-30T12:42:59.000Z</time>
      </trkpt>
      <trkpt lat="47.26757" lon="-1.62781">
        <ele>32</ele>
        <time>2019-09-30T12:43:00.000Z</time>
      </trkpt>
      <trkpt lat="47.26757" lon="-1.62777">
        <ele>32</ele>
        <time>2019-09-30T12:43:01.000Z</time>
      </trkpt>
      <trkpt lat="47.26757" lon="-1.62773">
        <ele>32</ele>
        <time>2019-09-30T12:43:02.000Z</time>
      </trkpt>
      <trkpt lat="47.26757" lon="-1.62767">
        <ele>32</ele>
        <time>2019-09-30T12:43:03.000Z</time>
      </trkpt>
      <trkpt lat="47.26757" lon="-1.62763">
        <ele>32</ele>
        <time>2019-09-30T12:43:04.000Z</time>
      </trkpt>
      <trkpt lat="47.26756" lon="-1.62758">
        <ele>32</ele>
        <time>2019-09-30T12:43:05.000Z</time>
      </trkpt>
      <trkpt lat="47.26756" lon="-1.62753">
        <ele>33</ele>
        <time>2019-09-30T12:43:06.000Z</time>
      </trkpt>
      <trkpt lat="47.26756" lon="-1.62748">
        <ele>33</ele>
        <time>2019-09-30T12:43:07.000Z</time>
      </trkpt>
      <trkpt lat="47.26755" lon="-1.62742">
        <ele>33</ele>
        <time>2019-09-30T12:43:08.000Z</time>
      </trkpt>
      <trkpt lat="47.26754" lon="-1.62736">
        <ele>33</ele>
        <time>2019-09-30T12:43:09.000Z</time>
      </trkpt>
      <trkpt lat="47.26753" lon="-1.62731">
        <ele>33</ele>
        <time>2019-09-30T12:43:10.000Z</time>
      </trkpt>
      <trkpt lat="47.26753" lon="-1.62728">
        <ele>33</ele>
        <time>2019-09-30T12:43:11.000Z</time>
      </trkpt>
      <trkpt lat="47.26753" lon="-1.62724">
        <ele>33</ele>
        <time>2019-09-30T12:43:12.000Z</time>
      </trkpt>
      <trkpt lat="47.26753" lon="-1.6272">
        <ele>33</ele>
        <time>2019-09-30T12:43:13.000Z</time>
      </trkpt>
      <trkpt lat="47.26753" lon="-1.62717">
        <ele>33</ele>
        <time>2019-09-30T12:43:14.000Z</time>
      </trkpt>
      <trkpt lat="47.26753" lon="-1.62714">
        <ele>33</ele>
        <time>2019-09-30T12:43:15.000Z</time>
      </trkpt>
      <trkpt lat="47.26753" lon="-1.62709">
        <ele>33</ele>
        <time>2019-09-30T12:43:16.000Z</time>
      </trkpt>
      <trkpt lat="47.26754" lon="-1.62704">
        <ele>33</ele>
        <time>2019-09-30T12:43:17.000Z</time>
      </trkpt>
      <trkpt lat="47.26754" lon="-1.62699">
        <ele>33</ele>
        <time>2019-09-30T12:43:18.000Z</time>
      </trkpt>
      <trkpt lat="47.26753" lon="-1.62694">
        <ele>33</ele>
        <time>2019-09-30T12:43:19.000Z</time>
      </trkpt>
      <trkpt lat="47.26753" lon="-1.6269">
        <ele>33</ele>
        <time>2019-09-30T12:43:20.000Z</time>
      </trkpt>
      <trkpt lat="47.26753" lon="-1.62686">
        <ele>33</ele>
        <time>2019-09-30T12:43:21.000Z</time>
      </trkpt>
      <trkpt lat="47.26753" lon="-1.62681">
        <ele>33</ele>
        <time>2019-09-30T12:43:22.000Z</time>
      </trkpt>
      <trkpt lat="47.26753" lon="-1.62675">
        <ele>33</ele>
        <time>2019-09-30T12:43:23.000Z</time>
      </trkpt>
      <trkpt lat="47.26753" lon="-1.62668">
        <ele>33</ele>
        <time>2019-09-30T12:43:24.000Z</time>
      </trkpt>
      <trkpt lat="47.26752" lon="-1.62662">
        <ele>32</ele>
        <time>2019-09-30T12:43:25.000Z</time>
      </trkpt>
      <trkpt lat="47.26751" lon="-1.62657">
        <ele>32</ele>
        <time>2019-09-30T12:43:26.000Z</time>
      </trkpt>
      <trkpt lat="47.2675" lon="-1.62653">
        <ele>32</ele>
        <time>2019-09-30T12:43:27.000Z</time>
      </trkpt>
      <trkpt lat="47.2675" lon="-1.62649">
        <ele>32</ele>
        <time>2019-09-30T12:43:28.000Z</time>
      </trkpt>
      <trkpt lat="47.26749" lon="-1.62645">
        <ele>32</ele>
        <time>2019-09-30T12:43:29.000Z</time>
      </trkpt>
      <trkpt lat="47.26749" lon="-1.6264">
        <ele>32</ele>
        <time>2019-09-30T12:43:30.000Z</time>
      </trkpt>
      <trkpt lat="47.26749" lon="-1.62635">
        <ele>32</ele>
        <time>2019-09-30T12:43:31.000Z</time>
      </trkpt>
      <trkpt lat="47.26749" lon="-1.6263">
        <ele>32</ele>
        <time>2019-09-30T12:43:32.000Z</time>
      </trkpt>
      <trkpt lat="47.26749" lon="-1.62624">
        <ele>33</ele>
        <time>2019-09-30T12:43:33.000Z</time>
      </trkpt>
      <trkpt lat="47.26749" lon="-1.62619">
        <ele>33</ele>
        <time>2019-09-30T12:43:34.000Z</time>
      </trkpt>
      <trkpt lat="47.2675" lon="-1.62614">
        <ele>33</ele>
        <time>2019-09-30T12:43:35.000Z</time>
      </trkpt>
      <trkpt lat="47.26751" lon="-1.62608">
        <ele>33</ele>
        <time>2019-09-30T12:43:36.000Z</time>
      </trkpt>
      <trkpt lat="47.26752" lon="-1.62602">
        <ele>33</ele>
        <time>2019-09-30T12:43:37.000Z</time>
      </trkpt>
      <trkpt lat="47.26753" lon="-1.62595">
        <ele>33</ele>
        <time>2019-09-30T12:43:38.000Z</time>
      </trkpt>
      <trkpt lat="47.26752" lon="-1.62589">
        <ele>33</ele>
        <time>2019-09-30T12:43:39.000Z</time>
      </trkpt>
      <trkpt lat="47.26752" lon="-1.62584">
        <ele>33</ele>
        <time>2019-09-30T12:43:40.000Z</time>
      </trkpt>
      <trkpt lat="47.26751" lon="-1.62578">
        <ele>33</ele>
        <time>2019-09-30T12:43:41.000Z</time>
      </trkpt>
      <trkpt lat="47.26751" lon="-1.62572">
        <ele>33</ele>
        <time>2019-09-30T12:43:42.000Z</time>
      </trkpt>
      <trkpt lat="47.2675" lon="-1.62565">
        <ele>33</ele>
        <time>2019-09-30T12:43:43.000Z</time>
      </trkpt>
      <trkpt lat="47.26749" lon="-1.6256">
        <ele>33</ele>
        <time>2019-09-30T12:43:44.000Z</time>
      </trkpt>
      <trkpt lat="47.26749" lon="-1.62555">
        <ele>33</ele>
        <time>2019-09-30T12:43:45.000Z</time>
      </trkpt>
      <trkpt lat="47.26748" lon="-1.6255">
        <ele>33</ele>
        <time>2019-09-30T12:43:46.000Z</time>
      </trkpt>
      <trkpt lat="47.26748" lon="-1.62545">
        <ele>33</ele>
        <time>2019-09-30T12:43:47.000Z</time>
      </trkpt>
      <trkpt lat="47.26748" lon="-1.6254">
        <ele>33</ele>
        <time>2019-09-30T12:43:48.000Z</time>
      </trkpt>
      <trkpt lat="47.26747" lon="-1.62536">
        <ele>33</ele>
        <time>2019-09-30T12:43:49.000Z</time>
      </trkpt>
      <trkpt lat="47.26746" lon="-1.62532">
        <ele>33</ele>
        <time>2019-09-30T12:43:50.000Z</time>
      </trkpt>
      <trkpt lat="47.26746" lon="-1.62529">
        <ele>33</ele>
        <time>2019-09-30T12:43:51.000Z</time>
      </trkpt>
      <trkpt lat="47.26746" lon="-1.62525">
        <ele>33</ele>
        <time>2019-09-30T12:43:52.000Z</time>
      </trkpt>
      <trkpt lat="47.26746" lon="-1.6252">
        <ele>33</ele>
        <time>2019-09-30T12:43:53.000Z</time>
      </trkpt>
      <trkpt lat="47.26746" lon="-1.62514">
        <ele>33</ele>
        <time>2019-09-30T12:43:54.000Z</time>
      </trkpt>
      <trkpt lat="47.26746" lon="-1.62508">
        <ele>33</ele>
        <time>2019-09-30T12:43:55.000Z</time>
      </trkpt>
      <trkpt lat="47.26747" lon="-1.62502">
        <ele>33</ele>
        <time>2019-09-30T12:43:56.000Z</time>
      </trkpt>
      <trkpt lat="47.26748" lon="-1.62497">
        <ele>33</ele>
        <time>2019-09-30T12:43:57.000Z</time>
      </trkpt>
      <trkpt lat="47.26747" lon="-1.62491">
        <ele>32</ele>
        <time>2019-09-30T12:43:58.000Z</time>
      </trkpt>
      <trkpt lat="47.26746" lon="-1.62485">
        <ele>32</ele>
        <time>2019-09-30T12:43:59.000Z</time>
      </trkpt>
      <trkpt lat="47.26746" lon="-1.6248">
        <ele>32</ele>
        <time>2019-09-30T12:44:00.000Z</time>
      </trkpt>
      <trkpt lat="47.26746" lon="-1.62474">
        <ele>33</ele>
        <time>2019-09-30T12:44:01.000Z</time>
      </trkpt>
      <trkpt lat="47.26746" lon="-1.62468">
        <ele>33</ele>
        <time>2019-09-30T12:44:02.000Z</time>
      </trkpt>
      <trkpt lat="47.26746" lon="-1.62463">
        <ele>33</ele>
        <time>2019-09-30T12:44:03.000Z</time>
      </trkpt>
      <trkpt lat="47.26746" lon="-1.6246">
        <ele>33</ele>
        <time>2019-09-30T12:44:04.000Z</time>
      </trkpt>
      <trkpt lat="47.26746" lon="-1.62457">
        <ele>33</ele>
        <time>2019-09-30T12:44:05.000Z</time>
      </trkpt>
      <trkpt lat="47.26745" lon="-1.62454">
        <ele>33</ele>
        <time>2019-09-30T12:44:06.000Z</time>
      </trkpt>
      <trkpt lat="47.26745" lon="-1.62453">
        <ele>33</ele>
        <time>2019-09-30T12:44:07.000Z</time>
      </trkpt>
      <trkpt lat="47.26744" lon="-1.62452">
        <ele>32</ele>
        <time>2019-09-30T12:44:08.000Z</time>
      </trkpt>
      <trkpt lat="47.26744" lon="-1.6245">
        <ele>32</ele>
        <time>2019-09-30T12:44:09.000Z</time>
      </trkpt>
      <trkpt lat="47.26744" lon="-1.62449">
        <ele>32</ele>
        <time>2019-09-30T12:44:10.000Z</time>
      </trkpt>
      <trkpt lat="47.26744" lon="-1.62447">
        <ele>32</ele>
        <time>2019-09-30T12:44:11.000Z</time>
      </trkpt>
      <trkpt lat="47.26744" lon="-1.62445">
        <ele>32</ele>
        <time>2019-09-30T12:44:12.000Z</time>
      </trkpt>
      <trkpt lat="47.26744" lon="-1.62443">
        <ele>32</ele>
        <time>2019-09-30T12:44:13.000Z</time>
      </trkpt>
      <trkpt lat="47.26745" lon="-1.62441">
        <ele>31</ele>
        <time>2019-09-30T12:44:14.000Z</time>
      </trkpt>
      <trkpt lat="47.26747" lon="-1.62438">
        <ele>31</ele>
        <time>2019-09-30T12:44:15.000Z</time>
      </trkpt>
      <trkpt lat="47.26749" lon="-1.62435">
        <ele>31</ele>
        <time>2019-09-30T12:44:16.000Z</time>
      </trkpt>
      <trkpt lat="47.2675" lon="-1.62431">
        <ele>30</ele>
        <time>2019-09-30T12:44:17.000Z</time>
      </trkpt>
      <trkpt lat="47.2675" lon="-1.62427">
        <ele>30</ele>
        <time>2019-09-30T12:44:18.000Z</time>
      </trkpt>
      <trkpt lat="47.26751" lon="-1.62423">
        <ele>30</ele>
        <time>2019-09-30T12:44:19.000Z</time>
      </trkpt>
      <trkpt lat="47.26753" lon="-1.62421">
        <ele>30</ele>
        <time>2019-09-30T12:44:20.000Z</time>
      </trkpt>
      <trkpt lat="47.26753" lon="-1.62418">
        <ele>30</ele>
        <time>2019-09-30T12:44:21.000Z</time>
      </trkpt>
      <trkpt lat="47.26753" lon="-1.62414">
        <ele>30</ele>
        <time>2019-09-30T12:44:22.000Z</time>
      </trkpt>
      <trkpt lat="47.26753" lon="-1.62412">
        <ele>30</ele>
        <time>2019-09-30T12:44:23.000Z</time>
      </trkpt>
      <trkpt lat="47.26753" lon="-1.6241">
        <ele>30</ele>
        <time>2019-09-30T12:44:24.000Z</time>
      </trkpt>
      <trkpt lat="47.26753" lon="-1.62408">
        <ele>30</ele>
        <time>2019-09-30T12:44:25.000Z</time>
      </trkpt>
      <trkpt lat="47.26753" lon="-1.62405">
        <ele>30</ele>
        <time>2019-09-30T12:44:26.000Z</time>
      </trkpt>
      <trkpt lat="47.26753" lon="-1.62401">
        <ele>30</ele>
        <time>2019-09-30T12:44:27.000Z</time>
      </trkpt>
      <trkpt lat="47.26753" lon="-1.62398">
        <ele>29</ele>
        <time>2019-09-30T12:44:28.000Z</time>
      </trkpt>
      <trkpt lat="47.26752" lon="-1.62395">
        <ele>29</ele>
        <time>2019-09-30T12:44:29.000Z</time>
      </trkpt>
      <trkpt lat="47.26751" lon="-1.62393">
        <ele>29</ele>
        <time>2019-09-30T12:44:30.000Z</time>
      </trkpt>
      <trkpt lat="47.2675" lon="-1.62393">
        <ele>29</ele>
        <time>2019-09-30T12:44:31.000Z</time>
      </trkpt>
      <trkpt lat="47.2675" lon="-1.62393">
        <ele>29</ele>
        <time>2019-09-30T12:44:32.000Z</time>
      </trkpt>
      <trkpt lat="47.26749" lon="-1.62393">
        <ele>29</ele>
        <time>2019-09-30T12:44:33.000Z</time>
      </trkpt>
      <trkpt lat="47.26748" lon="-1.62393">
        <ele>29</ele>
        <time>2019-09-30T12:44:34.000Z</time>
      </trkpt>
      <trkpt lat="47.26747" lon="-1.62394">
        <ele>28</ele>
        <time>2019-09-30T12:44:35.000Z</time>
      </trkpt>
      <trkpt lat="47.26747" lon="-1.62395">
        <ele>28</ele>
        <time>2019-09-30T12:44:36.000Z</time>
      </trkpt>
      <trkpt lat="47.26747" lon="-1.62397">
        <ele>28</ele>
        <time>2019-09-30T12:44:37.000Z</time>
      </trkpt>
      <trkpt lat="47.26746" lon="-1.62399">
        <ele>28</ele>
        <time>2019-09-30T12:44:38.000Z</time>
      </trkpt>
      <trkpt lat="47.26745" lon="-1.62401">
        <ele>28</ele>
        <time>2019-09-30T12:44:39.000Z</time>
      </trkpt>
      <trkpt lat="47.26745" lon="-1.62402">
        <ele>28</ele>
        <time>2019-09-30T12:44:40.000Z</time>
      </trkpt>
      <trkpt lat="47.26744" lon="-1.62404">
        <ele>28</ele>
        <time>2019-09-30T12:44:41.000Z</time>
      </trkpt>
      <trkpt lat="47.26743" lon="-1.62404">
        <ele>28</ele>
        <time>2019-09-30T12:44:42.000Z</time>
      </trkpt>
      <trkpt lat="47.26741" lon="-1.62405">
        <ele>28</ele>
        <time>2019-09-30T12:44:43.000Z</time>
      </trkpt>
      <trkpt lat="47.2674" lon="-1.62405">
        <ele>28</ele>
        <time>2019-09-30T12:44:44.000Z</time>
      </trkpt>
      <trkpt lat="47.26738" lon="-1.62406">
        <ele>28</ele>
        <time>2019-09-30T12:44:45.000Z</time>
      </trkpt>
      <trkpt lat="47.26737" lon="-1.62407">
        <ele>28</ele>
        <time>2019-09-30T12:44:46.000Z</time>
      </trkpt>
      <trkpt lat="47.26736" lon="-1.62407">
        <ele>28</ele>
        <time>2019-09-30T12:44:47.000Z</time>
      </trkpt>
      <trkpt lat="47.26735" lon="-1.62408">
        <ele>28</ele>
        <time>2019-09-30T12:44:48.000Z</time>
      </trkpt>
      <trkpt lat="47.26734" lon="-1.62408">
        <ele>29</ele>
        <time>2019-09-30T12:44:49.000Z</time>
      </trkpt>
      <trkpt lat="47.26734" lon="-1.62408">
        <ele>29</ele>
        <time>2019-09-30T12:44:50.000Z</time>
      </trkpt>
      <trkpt lat="47.26733" lon="-1.62408">
        <ele>29</ele>
        <time>2019-09-30T12:44:51.000Z</time>
      </trkpt>
      <trkpt lat="47.26733" lon="-1.62408">
        <ele>29</ele>
        <time>2019-09-30T12:44:52.000Z</time>
      </trkpt>
      <trkpt lat="47.26727" lon="-1.62409">
        <ele>30</ele>
        <time>2019-09-30T12:44:53.000Z</time>
      </trkpt>
      <trkpt lat="47.26726" lon="-1.62409">
        <ele>30</ele>
        <time>2019-09-30T12:44:54.000Z</time>
      </trkpt>
      <trkpt lat="47.26719" lon="-1.62412">
        <ele>32</ele>
        <time>2019-09-30T12:44:55.000Z</time>
      </trkpt>
      <trkpt lat="47.26718" lon="-1.62412">
        <ele>33</ele>
        <time>2019-09-30T12:44:56.000Z</time>
      </trkpt>
      <trkpt lat="47.26716" lon="-1.62413">
        <ele>33</ele>
        <time>2019-09-30T12:44:57.000Z</time>
      </trkpt>
      <trkpt lat="47.26715" lon="-1.62413">
        <ele>33</ele>
        <time>2019-09-30T12:44:58.000Z</time>
      </trkpt>
      <trkpt lat="47.26714" lon="-1.62413">
        <ele>33</ele>
        <time>2019-09-30T12:44:59.000Z</time>
      </trkpt>
      <trkpt lat="47.26712" lon="-1.62414">
        <ele>33</ele>
        <time>2019-09-30T12:45:00.000Z</time>
      </trkpt>
      <trkpt lat="47.26711" lon="-1.62414">
        <ele>34</ele>
        <time>2019-09-30T12:45:01.000Z</time>
      </trkpt>
      <trkpt lat="47.2671" lon="-1.62414">
        <ele>34</ele>
        <time>2019-09-30T12:45:02.000Z</time>
      </trkpt>
      <trkpt lat="47.26708" lon="-1.62414">
        <ele>34</ele>
        <time>2019-09-30T12:45:03.000Z</time>
      </trkpt>
      <trkpt lat="47.26706" lon="-1.62414">
        <ele>34</ele>
        <time>2019-09-30T12:45:04.000Z</time>
      </trkpt>
      <trkpt lat="47.26704" lon="-1.62414">
        <ele>35</ele>
        <time>2019-09-30T12:45:05.000Z</time>
      </trkpt>
      <trkpt lat="47.26702" lon="-1.62414">
        <ele>35</ele>
        <time>2019-09-30T12:45:06.000Z</time>
      </trkpt>
      <trkpt lat="47.26701" lon="-1.62413">
        <ele>35</ele>
        <time>2019-09-30T12:45:07.000Z</time>
      </trkpt>
      <trkpt lat="47.26699" lon="-1.62413">
        <ele>35</ele>
        <time>2019-09-30T12:45:08.000Z</time>
      </trkpt>
      <trkpt lat="47.26698" lon="-1.62413">
        <ele>35</ele>
        <time>2019-09-30T12:45:09.000Z</time>
      </trkpt>
      <trkpt lat="47.26696" lon="-1.62413">
        <ele>35</ele>
        <time>2019-09-30T12:45:10.000Z</time>
      </trkpt>
      <trkpt lat="47.26694" lon="-1.62413">
        <ele>35</ele>
        <time>2019-09-30T12:45:11.000Z</time>
      </trkpt>
      <trkpt lat="47.26692" lon="-1.62414">
        <ele>36</ele>
        <time>2019-09-30T12:45:12.000Z</time>
      </trkpt>
      <trkpt lat="47.2669" lon="-1.62414">
        <ele>36</ele>
        <time>2019-09-30T12:45:13.000Z</time>
      </trkpt>
      <trkpt lat="47.26688" lon="-1.62414">
        <ele>36</ele>
        <time>2019-09-30T12:45:14.000Z</time>
      </trkpt>
      <trkpt lat="47.26687" lon="-1.62413">
        <ele>36</ele>
        <time>2019-09-30T12:45:15.000Z</time>
      </trkpt>
      <trkpt lat="47.26685" lon="-1.62413">
        <ele>36</ele>
        <time>2019-09-30T12:45:16.000Z</time>
      </trkpt>
      <trkpt lat="47.26683" lon="-1.62412">
        <ele>36</ele>
        <time>2019-09-30T12:45:17.000Z</time>
      </trkpt>
      <trkpt lat="47.26682" lon="-1.62412">
        <ele>36</ele>
        <time>2019-09-30T12:45:18.000Z</time>
      </trkpt>
      <trkpt lat="47.26681" lon="-1.62411">
        <ele>36</ele>
        <time>2019-09-30T12:45:19.000Z</time>
      </trkpt>
      <trkpt lat="47.26679" lon="-1.62411">
        <ele>36</ele>
        <time>2019-09-30T12:45:20.000Z</time>
      </trkpt>
      <trkpt lat="47.26678" lon="-1.6241">
        <ele>36</ele>
        <time>2019-09-30T12:45:21.000Z</time>
      </trkpt>
      <trkpt lat="47.26677" lon="-1.6241">
        <ele>36</ele>
        <time>2019-09-30T12:45:22.000Z</time>
      </trkpt>
      <trkpt lat="47.26676" lon="-1.62409">
        <ele>36</ele>
        <time>2019-09-30T12:45:23.000Z</time>
      </trkpt>
      <trkpt lat="47.26676" lon="-1.62408">
        <ele>36</ele>
        <time>2019-09-30T12:45:24.000Z</time>
      </trkpt>
      <trkpt lat="47.26675" lon="-1.62407">
        <ele>36</ele>
        <time>2019-09-30T12:45:25.000Z</time>
      </trkpt>
      <trkpt lat="47.26674" lon="-1.62407">
        <ele>36</ele>
        <time>2019-09-30T12:45:26.000Z</time>
      </trkpt>
      <trkpt lat="47.26673" lon="-1.62406">
        <ele>35</ele>
        <time>2019-09-30T12:45:27.000Z</time>
      </trkpt>
      <trkpt lat="47.26672" lon="-1.62405">
        <ele>35</ele>
        <time>2019-09-30T12:45:28.000Z</time>
      </trkpt>
      <trkpt lat="47.26672" lon="-1.62404">
        <ele>35</ele>
        <time>2019-09-30T12:45:29.000Z</time>
      </trkpt>
      <trkpt lat="47.26671" lon="-1.62403">
        <ele>35</ele>
        <time>2019-09-30T12:45:30.000Z</time>
      </trkpt>
      <trkpt lat="47.26669" lon="-1.62402">
        <ele>35</ele>
        <time>2019-09-30T12:45:31.000Z</time>
      </trkpt>
      <trkpt lat="47.26668" lon="-1.62401">
        <ele>35</ele>
        <time>2019-09-30T12:45:32.000Z</time>
      </trkpt>
      <trkpt lat="47.26666" lon="-1.624">
        <ele>35</ele>
        <time>2019-09-30T12:45:33.000Z</time>
      </trkpt>
      <trkpt lat="47.26665" lon="-1.62399">
        <ele>35</ele>
        <time>2019-09-30T12:45:34.000Z</time>
      </trkpt>
      <trkpt lat="47.26663" lon="-1.62398">
        <ele>35</ele>
        <time>2019-09-30T12:45:35.000Z</time>
      </trkpt>
      <trkpt lat="47.26661" lon="-1.62398">
        <ele>35</ele>
        <time>2019-09-30T12:45:36.000Z</time>
      </trkpt>
      <trkpt lat="47.2666" lon="-1.62396">
        <ele>36</ele>
        <time>2019-09-30T12:45:37.000Z</time>
      </trkpt>
      <trkpt lat="47.26658" lon="-1.62396">
        <ele>36</ele>
        <time>2019-09-30T12:45:38.000Z</time>
      </trkpt>
      <trkpt lat="47.26656" lon="-1.62395">
        <ele>36</ele>
        <time>2019-09-30T12:45:39.000Z</time>
      </trkpt>
      <trkpt lat="47.26655" lon="-1.62394">
        <ele>36</ele>
        <time>2019-09-30T12:45:40.000Z</time>
      </trkpt>
      <trkpt lat="47.26654" lon="-1.62393">
        <ele>36</ele>
        <time>2019-09-30T12:45:41.000Z</time>
      </trkpt>
      <trkpt lat="47.26652" lon="-1.62392">
        <ele>36</ele>
        <time>2019-09-30T12:45:42.000Z</time>
      </trkpt>
      <trkpt lat="47.26651" lon="-1.62391">
        <ele>36</ele>
        <time>2019-09-30T12:45:43.000Z</time>
      </trkpt>
      <trkpt lat="47.2665" lon="-1.6239">
        <ele>36</ele>
        <time>2019-09-30T12:45:44.000Z</time>
      </trkpt>
      <trkpt lat="47.26648" lon="-1.62389">
        <ele>36</ele>
        <time>2019-09-30T12:45:45.000Z</time>
      </trkpt>
      <trkpt lat="47.26646" lon="-1.62388">
        <ele>36</ele>
        <time>2019-09-30T12:45:46.000Z</time>
      </trkpt>
      <trkpt lat="47.26644" lon="-1.62387">
        <ele>36</ele>
        <time>2019-09-30T12:45:47.000Z</time>
      </trkpt>
      <trkpt lat="47.26642" lon="-1.62386">
        <ele>36</ele>
        <time>2019-09-30T12:45:48.000Z</time>
      </trkpt>
      <trkpt lat="47.26641" lon="-1.62386">
        <ele>36</ele>
        <time>2019-09-30T12:45:49.000Z</time>
      </trkpt>
      <trkpt lat="47.26639" lon="-1.62386">
        <ele>36</ele>
        <time>2019-09-30T12:45:50.000Z</time>
      </trkpt>
      <trkpt lat="47.26638" lon="-1.62387">
        <ele>36</ele>
        <time>2019-09-30T12:45:51.000Z</time>
      </trkpt>
      <trkpt lat="47.26637" lon="-1.62388">
        <ele>36</ele>
        <time>2019-09-30T12:45:52.000Z</time>
      </trkpt>
      <trkpt lat="47.26634" lon="-1.62389">
        <ele>37</ele>
        <time>2019-09-30T12:45:53.000Z</time>
      </trkpt>
      <trkpt lat="47.26633" lon="-1.6239">
        <ele>37</ele>
        <time>2019-09-30T12:45:54.000Z</time>
      </trkpt>
      <trkpt lat="47.26631" lon="-1.6239">
        <ele>37</ele>
        <time>2019-09-30T12:45:55.000Z</time>
      </trkpt>
      <trkpt lat="47.26629" lon="-1.62391">
        <ele>38</ele>
        <time>2019-09-30T12:45:56.000Z</time>
      </trkpt>
      <trkpt lat="47.26628" lon="-1.62392">
        <ele>38</ele>
        <time>2019-09-30T12:45:57.000Z</time>
      </trkpt>
      <trkpt lat="47.26626" lon="-1.62392">
        <ele>38</ele>
        <time>2019-09-30T12:45:58.000Z</time>
      </trkpt>
      <trkpt lat="47.26624" lon="-1.62393">
        <ele>38</ele>
        <time>2019-09-30T12:45:59.000Z</time>
      </trkpt>
      <trkpt lat="47.26623" lon="-1.62394">
        <ele>38</ele>
        <time>2019-09-30T12:46:00.000Z</time>
      </trkpt>
      <trkpt lat="47.26621" lon="-1.62395">
        <ele>38</ele>
        <time>2019-09-30T12:46:01.000Z</time>
      </trkpt>
      <trkpt lat="47.2662" lon="-1.62396">
        <ele>39</ele>
        <time>2019-09-30T12:46:02.000Z</time>
      </trkpt>
      <trkpt lat="47.26619" lon="-1.62398">
        <ele>39</ele>
        <time>2019-09-30T12:46:03.000Z</time>
      </trkpt>
      <trkpt lat="47.26618" lon="-1.624">
        <ele>39</ele>
        <time>2019-09-30T12:46:04.000Z</time>
      </trkpt>
      <trkpt lat="47.26617" lon="-1.62403">
        <ele>40</ele>
        <time>2019-09-30T12:46:05.000Z</time>
      </trkpt>
      <trkpt lat="47.26615" lon="-1.62404">
        <ele>40</ele>
        <time>2019-09-30T12:46:06.000Z</time>
      </trkpt>
      <trkpt lat="47.26614" lon="-1.62405">
        <ele>40</ele>
        <time>2019-09-30T12:46:07.000Z</time>
      </trkpt>
      <trkpt lat="47.26612" lon="-1.62407">
        <ele>41</ele>
        <time>2019-09-30T12:46:08.000Z</time>
      </trkpt>
      <trkpt lat="47.2661" lon="-1.62408">
        <ele>41</ele>
        <time>2019-09-30T12:46:09.000Z</time>
      </trkpt>
      <trkpt lat="47.26609" lon="-1.6241">
        <ele>41</ele>
        <time>2019-09-30T12:46:10.000Z</time>
      </trkpt>
      <trkpt lat="47.26608" lon="-1.62411">
        <ele>41</ele>
        <time>2019-09-30T12:46:11.000Z</time>
      </trkpt>
      <trkpt lat="47.26606" lon="-1.62413">
        <ele>42</ele>
        <time>2019-09-30T12:46:12.000Z</time>
      </trkpt>
      <trkpt lat="47.26604" lon="-1.62414">
        <ele>42</ele>
        <time>2019-09-30T12:46:13.000Z</time>
      </trkpt>
      <trkpt lat="47.26603" lon="-1.62414">
        <ele>42</ele>
        <time>2019-09-30T12:46:14.000Z</time>
      </trkpt>
      <trkpt lat="47.26601" lon="-1.62414">
        <ele>42</ele>
        <time>2019-09-30T12:46:15.000Z</time>
      </trkpt>
      <trkpt lat="47.26599" lon="-1.62413">
        <ele>42</ele>
        <time>2019-09-30T12:46:16.000Z</time>
      </trkpt>
      <trkpt lat="47.26597" lon="-1.62413">
        <ele>43</ele>
        <time>2019-09-30T12:46:17.000Z</time>
      </trkpt>
      <trkpt lat="47.26595" lon="-1.62414">
        <ele>43</ele>
        <time>2019-09-30T12:46:18.000Z</time>
      </trkpt>
      <trkpt lat="47.26593" lon="-1.62415">
        <ele>43</ele>
        <time>2019-09-30T12:46:19.000Z</time>
      </trkpt>
      <trkpt lat="47.26591" lon="-1.62416">
        <ele>43</ele>
        <time>2019-09-30T12:46:20.000Z</time>
      </trkpt>
      <trkpt lat="47.26589" lon="-1.62418">
        <ele>43</ele>
        <time>2019-09-30T12:46:21.000Z</time>
      </trkpt>
      <trkpt lat="47.26587" lon="-1.6242">
        <ele>44</ele>
        <time>2019-09-30T12:46:22.000Z</time>
      </trkpt>
      <trkpt lat="47.26586" lon="-1.62422">
        <ele>44</ele>
        <time>2019-09-30T12:46:23.000Z</time>
      </trkpt>
      <trkpt lat="47.26584" lon="-1.62423">
        <ele>44</ele>
        <time>2019-09-30T12:46:24.000Z</time>
      </trkpt>
      <trkpt lat="47.26583" lon="-1.62424">
        <ele>44</ele>
        <time>2019-09-30T12:46:25.000Z</time>
      </trkpt>
      <trkpt lat="47.26582" lon="-1.62426">
        <ele>45</ele>
        <time>2019-09-30T12:46:26.000Z</time>
      </trkpt>
      <trkpt lat="47.26581" lon="-1.62427">
        <ele>45</ele>
        <time>2019-09-30T12:46:27.000Z</time>
      </trkpt>
      <trkpt lat="47.2658" lon="-1.62428">
        <ele>45</ele>
        <time>2019-09-30T12:46:28.000Z</time>
      </trkpt>
      <trkpt lat="47.26579" lon="-1.62428">
        <ele>46</ele>
        <time>2019-09-30T12:46:29.000Z</time>
      </trkpt>
      <trkpt lat="47.26579" lon="-1.62429">
        <ele>46</ele>
        <time>2019-09-30T12:46:30.000Z</time>
      </trkpt>
      <trkpt lat="47.26572" lon="-1.62429">
        <ele>47</ele>
        <time>2019-09-30T12:46:31.000Z</time>
      </trkpt>
      <trkpt lat="47.2657" lon="-1.62429">
        <ele>47</ele>
        <time>2019-09-30T12:46:32.000Z</time>
      </trkpt>
      <trkpt lat="47.26568" lon="-1.6243">
        <ele>47</ele>
        <time>2019-09-30T12:46:33.000Z</time>
      </trkpt>
      <trkpt lat="47.26566" lon="-1.62432">
        <ele>48</ele>
        <time>2019-09-30T12:46:34.000Z</time>
      </trkpt>
      <trkpt lat="47.26565" lon="-1.62432">
        <ele>48</ele>
        <time>2019-09-30T12:46:35.000Z</time>
      </trkpt>
      <trkpt lat="47.26563" lon="-1.62432">
        <ele>48</ele>
        <time>2019-09-30T12:46:36.000Z</time>
      </trkpt>
      <trkpt lat="47.26561" lon="-1.62431">
        <ele>48</ele>
        <time>2019-09-30T12:46:37.000Z</time>
      </trkpt>
      <trkpt lat="47.26559" lon="-1.62432">
        <ele>49</ele>
        <time>2019-09-30T12:46:38.000Z</time>
      </trkpt>
      <trkpt lat="47.26557" lon="-1.62432">
        <ele>49</ele>
        <time>2019-09-30T12:46:39.000Z</time>
      </trkpt>
      <trkpt lat="47.26556" lon="-1.62433">
        <ele>49</ele>
        <time>2019-09-30T12:46:40.000Z</time>
      </trkpt>
      <trkpt lat="47.26555" lon="-1.62433">
        <ele>49</ele>
        <time>2019-09-30T12:46:41.000Z</time>
      </trkpt>
      <trkpt lat="47.26554" lon="-1.62434">
        <ele>50</ele>
        <time>2019-09-30T12:46:42.000Z</time>
      </trkpt>
      <trkpt lat="47.26552" lon="-1.62435">
        <ele>50</ele>
        <time>2019-09-30T12:46:43.000Z</time>
      </trkpt>
      <trkpt lat="47.2655" lon="-1.62436">
        <ele>50</ele>
        <time>2019-09-30T12:46:44.000Z</time>
      </trkpt>
      <trkpt lat="47.26548" lon="-1.62438">
        <ele>50</ele>
        <time>2019-09-30T12:46:45.000Z</time>
      </trkpt>
      <trkpt lat="47.26547" lon="-1.62441">
        <ele>50</ele>
        <time>2019-09-30T12:46:46.000Z</time>
      </trkpt>
      <trkpt lat="47.26546" lon="-1.62443">
        <ele>50</ele>
        <time>2019-09-30T12:46:47.000Z</time>
      </trkpt>
      <trkpt lat="47.26545" lon="-1.62444">
        <ele>51</ele>
        <time>2019-09-30T12:46:48.000Z</time>
      </trkpt>
      <trkpt lat="47.26544" lon="-1.62444">
        <ele>51</ele>
        <time>2019-09-30T12:46:49.000Z</time>
      </trkpt>
      <trkpt lat="47.26542" lon="-1.62445">
        <ele>51</ele>
        <time>2019-09-30T12:46:50.000Z</time>
      </trkpt>
      <trkpt lat="47.2654" lon="-1.62446">
        <ele>51</ele>
        <time>2019-09-30T12:46:51.000Z</time>
      </trkpt>
      <trkpt lat="47.26539" lon="-1.62448">
        <ele>51</ele>
        <time>2019-09-30T12:46:52.000Z</time>
      </trkpt>
      <trkpt lat="47.26538" lon="-1.62452">
        <ele>52</ele>
        <time>2019-09-30T12:46:53.000Z</time>
      </trkpt>
      <trkpt lat="47.26538" lon="-1.62455">
        <ele>52</ele>
        <time>2019-09-30T12:46:54.000Z</time>
      </trkpt>
      <trkpt lat="47.26537" lon="-1.62459">
        <ele>52</ele>
        <time>2019-09-30T12:46:55.000Z</time>
      </trkpt>
      <trkpt lat="47.26538" lon="-1.62463">
        <ele>52</ele>
        <time>2019-09-30T12:46:56.000Z</time>
      </trkpt>
      <trkpt lat="47.26538" lon="-1.62466">
        <ele>52</ele>
        <time>2019-09-30T12:46:57.000Z</time>
      </trkpt>
      <trkpt lat="47.26537" lon="-1.62468">
        <ele>52</ele>
        <time>2019-09-30T12:46:58.000Z</time>
      </trkpt>
      <trkpt lat="47.26535" lon="-1.6247">
        <ele>53</ele>
        <time>2019-09-30T12:46:59.000Z</time>
      </trkpt>
      <trkpt lat="47.26532" lon="-1.62472">
        <ele>53</ele>
        <time>2019-09-30T12:47:00.000Z</time>
      </trkpt>
      <trkpt lat="47.26531" lon="-1.62476">
        <ele>53</ele>
        <time>2019-09-30T12:47:01.000Z</time>
      </trkpt>
      <trkpt lat="47.2653" lon="-1.6248">
        <ele>53</ele>
        <time>2019-09-30T12:47:02.000Z</time>
      </trkpt>
      <trkpt lat="47.2653" lon="-1.62483">
        <ele>53</ele>
        <time>2019-09-30T12:47:03.000Z</time>
      </trkpt>
      <trkpt lat="47.2653" lon="-1.62486">
        <ele>53</ele>
        <time>2019-09-30T12:47:04.000Z</time>
      </trkpt>
      <trkpt lat="47.2653" lon="-1.62489">
        <ele>53</ele>
        <time>2019-09-30T12:47:05.000Z</time>
      </trkpt>
      <trkpt lat="47.2653" lon="-1.62492">
        <ele>53</ele>
        <time>2019-09-30T12:47:06.000Z</time>
      </trkpt>
      <trkpt lat="47.26529" lon="-1.62496">
        <ele>53</ele>
        <time>2019-09-30T12:47:07.000Z</time>
      </trkpt>
      <trkpt lat="47.26528" lon="-1.62499">
        <ele>53</ele>
        <time>2019-09-30T12:47:08.000Z</time>
      </trkpt>
      <trkpt lat="47.26528" lon="-1.62502">
        <ele>54</ele>
        <time>2019-09-30T12:47:09.000Z</time>
      </trkpt>
      <trkpt lat="47.26528" lon="-1.62505">
        <ele>54</ele>
        <time>2019-09-30T12:47:10.000Z</time>
      </trkpt>
      <trkpt lat="47.26527" lon="-1.62509">
        <ele>54</ele>
        <time>2019-09-30T12:47:11.000Z</time>
      </trkpt>
      <trkpt lat="47.26526" lon="-1.62511">
        <ele>54</ele>
        <time>2019-09-30T12:47:12.000Z</time>
      </trkpt>
      <trkpt lat="47.26525" lon="-1.62513">
        <ele>54</ele>
        <time>2019-09-30T12:47:13.000Z</time>
      </trkpt>
      <trkpt lat="47.26524" lon="-1.62513">
        <ele>54</ele>
        <time>2019-09-30T12:47:14.000Z</time>
      </trkpt>
      <trkpt lat="47.26522" lon="-1.62512">
        <ele>54</ele>
        <time>2019-09-30T12:47:15.000Z</time>
      </trkpt>
      <trkpt lat="47.26522" lon="-1.62511">
        <ele>54</ele>
        <time>2019-09-30T12:47:16.000Z</time>
      </trkpt>
      <trkpt lat="47.26521" lon="-1.6251">
        <ele>55</ele>
        <time>2019-09-30T12:47:17.000Z</time>
      </trkpt>
      <trkpt lat="47.26522" lon="-1.62508">
        <ele>55</ele>
        <time>2019-09-30T12:47:18.000Z</time>
      </trkpt>
      <trkpt lat="47.26521" lon="-1.62505">
        <ele>55</ele>
        <time>2019-09-30T12:47:19.000Z</time>
      </trkpt>
      <trkpt lat="47.26521" lon="-1.62503">
        <ele>55</ele>
        <time>2019-09-30T12:47:20.000Z</time>
      </trkpt>
      <trkpt lat="47.26521" lon="-1.625">
        <ele>56</ele>
        <time>2019-09-30T12:47:21.000Z</time>
      </trkpt>
      <trkpt lat="47.2652" lon="-1.62498">
        <ele>56</ele>
        <time>2019-09-30T12:47:22.000Z</time>
      </trkpt>
      <trkpt lat="47.2652" lon="-1.62497">
        <ele>56</ele>
        <time>2019-09-30T12:47:23.000Z</time>
      </trkpt>
      <trkpt lat="47.26519" lon="-1.62494">
        <ele>56</ele>
        <time>2019-09-30T12:47:24.000Z</time>
      </trkpt>
      <trkpt lat="47.26518" lon="-1.62492">
        <ele>56</ele>
        <time>2019-09-30T12:47:25.000Z</time>
      </trkpt>
      <trkpt lat="47.26517" lon="-1.6249">
        <ele>57</ele>
        <time>2019-09-30T12:47:26.000Z</time>
      </trkpt>
      <trkpt lat="47.26517" lon="-1.62489">
        <ele>57</ele>
        <time>2019-09-30T12:47:27.000Z</time>
      </trkpt>
      <trkpt lat="47.26517" lon="-1.62487">
        <ele>57</ele>
        <time>2019-09-30T12:47:28.000Z</time>
      </trkpt>
      <trkpt lat="47.26515" lon="-1.62485">
        <ele>57</ele>
        <time>2019-09-30T12:47:29.000Z</time>
      </trkpt>
      <trkpt lat="47.26513" lon="-1.62485">
        <ele>57</ele>
        <time>2019-09-30T12:47:30.000Z</time>
      </trkpt>
      <trkpt lat="47.26511" lon="-1.62485">
        <ele>57</ele>
        <time>2019-09-30T12:47:31.000Z</time>
      </trkpt>
      <trkpt lat="47.26509" lon="-1.62484">
        <ele>57</ele>
        <time>2019-09-30T12:47:32.000Z</time>
      </trkpt>
      <trkpt lat="47.26508" lon="-1.62482">
        <ele>58</ele>
        <time>2019-09-30T12:47:33.000Z</time>
      </trkpt>
      <trkpt lat="47.26508" lon="-1.6248">
        <ele>58</ele>
        <time>2019-09-30T12:47:34.000Z</time>
      </trkpt>
      <trkpt lat="47.26508" lon="-1.62477">
        <ele>58</ele>
        <time>2019-09-30T12:47:35.000Z</time>
      </trkpt>
      <trkpt lat="47.26508" lon="-1.62474">
        <ele>58</ele>
        <time>2019-09-30T12:47:36.000Z</time>
      </trkpt>
      <trkpt lat="47.26508" lon="-1.62471">
        <ele>58</ele>
        <time>2019-09-30T12:47:37.000Z</time>
      </trkpt>
      <trkpt lat="47.26507" lon="-1.62468">
        <ele>58</ele>
        <time>2019-09-30T12:47:38.000Z</time>
      </trkpt>
      <trkpt lat="47.26507" lon="-1.62466">
        <ele>59</ele>
        <time>2019-09-30T12:47:39.000Z</time>
      </trkpt>
      <trkpt lat="47.26506" lon="-1.62464">
        <ele>59</ele>
        <time>2019-09-30T12:47:40.000Z</time>
      </trkpt>
      <trkpt lat="47.26505" lon="-1.62461">
        <ele>59</ele>
        <time>2019-09-30T12:47:41.000Z</time>
      </trkpt>
      <trkpt lat="47.26505" lon="-1.62458">
        <ele>59</ele>
        <time>2019-09-30T12:47:42.000Z</time>
      </trkpt>
      <trkpt lat="47.26504" lon="-1.62455">
        <ele>59</ele>
        <time>2019-09-30T12:47:43.000Z</time>
      </trkpt>
      <trkpt lat="47.26503" lon="-1.62453">
        <ele>59</ele>
        <time>2019-09-30T12:47:44.000Z</time>
      </trkpt>
      <trkpt lat="47.26502" lon="-1.62449">
        <ele>59</ele>
        <time>2019-09-30T12:47:45.000Z</time>
      </trkpt>
      <trkpt lat="47.26501" lon="-1.62445">
        <ele>59</ele>
        <time>2019-09-30T12:47:46.000Z</time>
      </trkpt>
      <trkpt lat="47.265" lon="-1.62441">
        <ele>59</ele>
        <time>2019-09-30T12:47:47.000Z</time>
      </trkpt>
      <trkpt lat="47.265" lon="-1.62437">
        <ele>58</ele>
        <time>2019-09-30T12:47:48.000Z</time>
      </trkpt>
      <trkpt lat="47.26499" lon="-1.62433">
        <ele>58</ele>
        <time>2019-09-30T12:47:49.000Z</time>
      </trkpt>
      <trkpt lat="47.26499" lon="-1.62429">
        <ele>58</ele>
        <time>2019-09-30T12:47:50.000Z</time>
      </trkpt>
      <trkpt lat="47.26498" lon="-1.62425">
        <ele>58</ele>
        <time>2019-09-30T12:47:51.000Z</time>
      </trkpt>
      <trkpt lat="47.26497" lon="-1.62422">
        <ele>58</ele>
        <time>2019-09-30T12:47:52.000Z</time>
      </trkpt>
      <trkpt lat="47.26496" lon="-1.62419">
        <ele>58</ele>
        <time>2019-09-30T12:47:53.000Z</time>
      </trkpt>
      <trkpt lat="47.26494" lon="-1.62417">
        <ele>58</ele>
        <time>2019-09-30T12:47:54.000Z</time>
      </trkpt>
      <trkpt lat="47.26494" lon="-1.62416">
        <ele>58</ele>
        <time>2019-09-30T12:47:55.000Z</time>
      </trkpt>
      <trkpt lat="47.26493" lon="-1.62415">
        <ele>58</ele>
        <time>2019-09-30T12:47:56.000Z</time>
      </trkpt>
      <trkpt lat="47.26491" lon="-1.62414">
        <ele>58</ele>
        <time>2019-09-30T12:47:57.000Z</time>
      </trkpt>
      <trkpt lat="47.2649" lon="-1.62412">
        <ele>58</ele>
        <time>2019-09-30T12:47:58.000Z</time>
      </trkpt>
      <trkpt lat="47.26488" lon="-1.6241">
        <ele>58</ele>
        <time>2019-09-30T12:47:59.000Z</time>
      </trkpt>
      <trkpt lat="47.26487" lon="-1.62408">
        <ele>57</ele>
        <time>2019-09-30T12:48:00.000Z</time>
      </trkpt>
      <trkpt lat="47.26485" lon="-1.62405">
        <ele>57</ele>
        <time>2019-09-30T12:48:01.000Z</time>
      </trkpt>
      <trkpt lat="47.26484" lon="-1.62401">
        <ele>57</ele>
        <time>2019-09-30T12:48:02.000Z</time>
      </trkpt>
      <trkpt lat="47.26483" lon="-1.62398">
        <ele>57</ele>
        <time>2019-09-30T12:48:03.000Z</time>
      </trkpt>
      <trkpt lat="47.26482" lon="-1.62394">
        <ele>57</ele>
        <time>2019-09-30T12:48:04.000Z</time>
      </trkpt>
      <trkpt lat="47.26482" lon="-1.62391">
        <ele>57</ele>
        <time>2019-09-30T12:48:05.000Z</time>
      </trkpt>
      <trkpt lat="47.26482" lon="-1.62386">
        <ele>57</ele>
        <time>2019-09-30T12:48:06.000Z</time>
      </trkpt>
      <trkpt lat="47.26481" lon="-1.62382">
        <ele>57</ele>
        <time>2019-09-30T12:48:07.000Z</time>
      </trkpt>
      <trkpt lat="47.2648" lon="-1.62378">
        <ele>56</ele>
        <time>2019-09-30T12:48:08.000Z</time>
      </trkpt>
      <trkpt lat="47.26479" lon="-1.62374">
        <ele>56</ele>
        <time>2019-09-30T12:48:09.000Z</time>
      </trkpt>
      <trkpt lat="47.26477" lon="-1.62372">
        <ele>56</ele>
        <time>2019-09-30T12:48:10.000Z</time>
      </trkpt>
      <trkpt lat="47.26476" lon="-1.6237">
        <ele>56</ele>
        <time>2019-09-30T12:48:11.000Z</time>
      </trkpt>
      <trkpt lat="47.26476" lon="-1.62368">
        <ele>56</ele>
        <time>2019-09-30T12:48:12.000Z</time>
      </trkpt>
      <trkpt lat="47.26476" lon="-1.62365">
        <ele>56</ele>
        <time>2019-09-30T12:48:13.000Z</time>
      </trkpt>
      <trkpt lat="47.26476" lon="-1.62361">
        <ele>56</ele>
        <time>2019-09-30T12:48:14.000Z</time>
      </trkpt>
      <trkpt lat="47.26476" lon="-1.62358">
        <ele>56</ele>
        <time>2019-09-30T12:48:15.000Z</time>
      </trkpt>
      <trkpt lat="47.26476" lon="-1.62355">
        <ele>56</ele>
        <time>2019-09-30T12:48:16.000Z</time>
      </trkpt>
      <trkpt lat="47.26475" lon="-1.62353">
        <ele>56</ele>
        <time>2019-09-30T12:48:17.000Z</time>
      </trkpt>
      <trkpt lat="47.26474" lon="-1.62351">
        <ele>56</ele>
        <time>2019-09-30T12:48:18.000Z</time>
      </trkpt>
      <trkpt lat="47.26473" lon="-1.62348">
        <ele>56</ele>
        <time>2019-09-30T12:48:19.000Z</time>
      </trkpt>
      <trkpt lat="47.26473" lon="-1.62345">
        <ele>56</ele>
        <time>2019-09-30T12:48:20.000Z</time>
      </trkpt>
      <trkpt lat="47.26473" lon="-1.62341">
        <ele>56</ele>
        <time>2019-09-30T12:48:21.000Z</time>
      </trkpt>
      <trkpt lat="47.26473" lon="-1.62338">
        <ele>56</ele>
        <time>2019-09-30T12:48:22.000Z</time>
      </trkpt>
      <trkpt lat="47.26472" lon="-1.62337">
        <ele>57</ele>
        <time>2019-09-30T12:48:23.000Z</time>
      </trkpt>
      <trkpt lat="47.26473" lon="-1.62335">
        <ele>57</ele>
        <time>2019-09-30T12:48:24.000Z</time>
      </trkpt>
      <trkpt lat="47.26473" lon="-1.62333">
        <ele>57</ele>
        <time>2019-09-30T12:48:25.000Z</time>
      </trkpt>
      <trkpt lat="47.26474" lon="-1.62331">
        <ele>57</ele>
        <time>2019-09-30T12:48:26.000Z</time>
      </trkpt>
      <trkpt lat="47.26474" lon="-1.6233">
        <ele>57</ele>
        <time>2019-09-30T12:48:27.000Z</time>
      </trkpt>
      <trkpt lat="47.26475" lon="-1.62328">
        <ele>57</ele>
        <time>2019-09-30T12:48:28.000Z</time>
      </trkpt>
      <trkpt lat="47.26475" lon="-1.62326">
        <ele>57</ele>
        <time>2019-09-30T12:48:29.000Z</time>
      </trkpt>
      <trkpt lat="47.26476" lon="-1.62323">
        <ele>58</ele>
        <time>2019-09-30T12:48:30.000Z</time>
      </trkpt>
      <trkpt lat="47.26476" lon="-1.62319">
        <ele>58</ele>
        <time>2019-09-30T12:48:31.000Z</time>
      </trkpt>
      <trkpt lat="47.26476" lon="-1.62316">
        <ele>58</ele>
        <time>2019-09-30T12:48:32.000Z</time>
      </trkpt>
      <trkpt lat="47.26475" lon="-1.62312">
        <ele>58</ele>
        <time>2019-09-30T12:48:33.000Z</time>
      </trkpt>
      <trkpt lat="47.26475" lon="-1.62309">
        <ele>58</ele>
        <time>2019-09-30T12:48:34.000Z</time>
      </trkpt>
      <trkpt lat="47.26476" lon="-1.62305">
        <ele>58</ele>
        <time>2019-09-30T12:48:35.000Z</time>
      </trkpt>
      <trkpt lat="47.26476" lon="-1.62301">
        <ele>58</ele>
        <time>2019-09-30T12:48:36.000Z</time>
      </trkpt>
      <trkpt lat="47.26477" lon="-1.62296">
        <ele>58</ele>
        <time>2019-09-30T12:48:37.000Z</time>
      </trkpt>
      <trkpt lat="47.26477" lon="-1.62292">
        <ele>58</ele>
        <time>2019-09-30T12:48:38.000Z</time>
      </trkpt>
      <trkpt lat="47.26477" lon="-1.62289">
        <ele>58</ele>
        <time>2019-09-30T12:48:39.000Z</time>
      </trkpt>
      <trkpt lat="47.26477" lon="-1.62285">
        <ele>58</ele>
        <time>2019-09-30T12:48:40.000Z</time>
      </trkpt>
      <trkpt lat="47.26476" lon="-1.62282">
        <ele>58</ele>
        <time>2019-09-30T12:48:41.000Z</time>
      </trkpt>
      <trkpt lat="47.26476" lon="-1.62278">
        <ele>58</ele>
        <time>2019-09-30T12:48:42.000Z</time>
      </trkpt>
      <trkpt lat="47.26475" lon="-1.62274">
        <ele>58</ele>
        <time>2019-09-30T12:48:43.000Z</time>
      </trkpt>
      <trkpt lat="47.26475" lon="-1.62269">
        <ele>58</ele>
        <time>2019-09-30T12:48:44.000Z</time>
      </trkpt>
      <trkpt lat="47.26475" lon="-1.62265">
        <ele>58</ele>
        <time>2019-09-30T12:48:45.000Z</time>
      </trkpt>
      <trkpt lat="47.26475" lon="-1.62261">
        <ele>58</ele>
        <time>2019-09-30T12:48:46.000Z</time>
      </trkpt>
      <trkpt lat="47.26475" lon="-1.62257">
        <ele>58</ele>
        <time>2019-09-30T12:48:47.000Z</time>
      </trkpt>
      <trkpt lat="47.26474" lon="-1.62252">
        <ele>58</ele>
        <time>2019-09-30T12:48:48.000Z</time>
      </trkpt>
      <trkpt lat="47.26472" lon="-1.62248">
        <ele>58</ele>
        <time>2019-09-30T12:48:49.000Z</time>
      </trkpt>
      <trkpt lat="47.26471" lon="-1.62245">
        <ele>58</ele>
        <time>2019-09-30T12:48:50.000Z</time>
      </trkpt>
      <trkpt lat="47.26469" lon="-1.62242">
        <ele>58</ele>
        <time>2019-09-30T12:48:51.000Z</time>
      </trkpt>
      <trkpt lat="47.26467" lon="-1.62239">
        <ele>58</ele>
        <time>2019-09-30T12:48:52.000Z</time>
      </trkpt>
      <trkpt lat="47.26465" lon="-1.62235">
        <ele>58</ele>
        <time>2019-09-30T12:48:53.000Z</time>
      </trkpt>
      <trkpt lat="47.26465" lon="-1.62231">
        <ele>58</ele>
        <time>2019-09-30T12:48:54.000Z</time>
      </trkpt>
      <trkpt lat="47.26464" lon="-1.62228">
        <ele>58</ele>
        <time>2019-09-30T12:48:55.000Z</time>
      </trkpt>
      <trkpt lat="47.26462" lon="-1.62223">
        <ele>58</ele>
        <time>2019-09-30T12:48:56.000Z</time>
      </trkpt>
      <trkpt lat="47.26461" lon="-1.62218">
        <ele>58</ele>
        <time>2019-09-30T12:48:57.000Z</time>
      </trkpt>
      <trkpt lat="47.26459" lon="-1.62214">
        <ele>58</ele>
        <time>2019-09-30T12:48:58.000Z</time>
      </trkpt>
      <trkpt lat="47.26458" lon="-1.6221">
        <ele>58</ele>
        <time>2019-09-30T12:48:59.000Z</time>
      </trkpt>
      <trkpt lat="47.26458" lon="-1.62206">
        <ele>58</ele>
        <time>2019-09-30T12:49:00.000Z</time>
      </trkpt>
      <trkpt lat="47.2646" lon="-1.62202">
        <ele>57</ele>
        <time>2019-09-30T12:49:01.000Z</time>
      </trkpt>
      <trkpt lat="47.26461" lon="-1.62201">
        <ele>57</ele>
        <time>2019-09-30T12:49:02.000Z</time>
      </trkpt>
      <trkpt lat="47.26463" lon="-1.62199">
        <ele>57</ele>
        <time>2019-09-30T12:49:03.000Z</time>
      </trkpt>
      <trkpt lat="47.26464" lon="-1.62197">
        <ele>57</ele>
        <time>2019-09-30T12:49:04.000Z</time>
      </trkpt>
      <trkpt lat="47.26466" lon="-1.62194">
        <ele>57</ele>
        <time>2019-09-30T12:49:05.000Z</time>
      </trkpt>
      <trkpt lat="47.26467" lon="-1.62191">
        <ele>57</ele>
        <time>2019-09-30T12:49:06.000Z</time>
      </trkpt>
      <trkpt lat="47.2647" lon="-1.62189">
        <ele>57</ele>
        <time>2019-09-30T12:49:07.000Z</time>
      </trkpt>
      <trkpt lat="47.26473" lon="-1.62187">
        <ele>57</ele>
        <time>2019-09-30T12:49:08.000Z</time>
      </trkpt>
      <trkpt lat="47.26476" lon="-1.62185">
        <ele>57</ele>
        <time>2019-09-30T12:49:09.000Z</time>
      </trkpt>
      <trkpt lat="47.26479" lon="-1.62183">
        <ele>57</ele>
        <time>2019-09-30T12:49:10.000Z</time>
      </trkpt>
      <trkpt lat="47.26483" lon="-1.62181">
        <ele>57</ele>
        <time>2019-09-30T12:49:11.000Z</time>
      </trkpt>
      <trkpt lat="47.26487" lon="-1.62178">
        <ele>57</ele>
        <time>2019-09-30T12:49:12.000Z</time>
      </trkpt>
      <trkpt lat="47.2649" lon="-1.62175">
        <ele>56</ele>
        <time>2019-09-30T12:49:13.000Z</time>
      </trkpt>
      <trkpt lat="47.26494" lon="-1.62174">
        <ele>56</ele>
        <time>2019-09-30T12:49:14.000Z</time>
      </trkpt>
      <trkpt lat="47.26498" lon="-1.62173">
        <ele>56</ele>
        <time>2019-09-30T12:49:15.000Z</time>
      </trkpt>
      <trkpt lat="47.26501" lon="-1.62172">
        <ele>56</ele>
        <time>2019-09-30T12:49:16.000Z</time>
      </trkpt>
      <trkpt lat="47.26505" lon="-1.62172">
        <ele>56</ele>
        <time>2019-09-30T12:49:17.000Z</time>
      </trkpt>
      <trkpt lat="47.26508" lon="-1.62171">
        <ele>56</ele>
        <time>2019-09-30T12:49:18.000Z</time>
      </trkpt>
      <trkpt lat="47.2651" lon="-1.62171">
        <ele>56</ele>
        <time>2019-09-30T12:49:19.000Z</time>
      </trkpt>
      <trkpt lat="47.26512" lon="-1.6217">
        <ele>56</ele>
        <time>2019-09-30T12:49:20.000Z</time>
      </trkpt>
      <trkpt lat="47.26513" lon="-1.6217">
        <ele>56</ele>
        <time>2019-09-30T12:49:21.000Z</time>
      </trkpt>
      <trkpt lat="47.26515" lon="-1.62169">
        <ele>56</ele>
        <time>2019-09-30T12:49:22.000Z</time>
      </trkpt>
      <trkpt lat="47.26517" lon="-1.62169">
        <ele>56</ele>
        <time>2019-09-30T12:49:23.000Z</time>
      </trkpt>
      <trkpt lat="47.26519" lon="-1.62168">
        <ele>56</ele>
        <time>2019-09-30T12:49:24.000Z</time>
      </trkpt>
      <trkpt lat="47.26522" lon="-1.62169">
        <ele>56</ele>
        <time>2019-09-30T12:49:25.000Z</time>
      </trkpt>
      <trkpt lat="47.26525" lon="-1.62169">
        <ele>56</ele>
        <time>2019-09-30T12:49:26.000Z</time>
      </trkpt>
      <trkpt lat="47.26528" lon="-1.62169">
        <ele>56</ele>
        <time>2019-09-30T12:49:27.000Z</time>
      </trkpt>
      <trkpt lat="47.26531" lon="-1.62169">
        <ele>55</ele>
        <time>2019-09-30T12:49:28.000Z</time>
      </trkpt>
      <trkpt lat="47.26533" lon="-1.62169">
        <ele>55</ele>
        <time>2019-09-30T12:49:29.000Z</time>
      </trkpt>
      <trkpt lat="47.26535" lon="-1.6217">
        <ele>55</ele>
        <time>2019-09-30T12:49:30.000Z</time>
      </trkpt>
      <trkpt lat="47.26535" lon="-1.62172">
        <ele>55</ele>
        <time>2019-09-30T12:49:31.000Z</time>
      </trkpt>
      <trkpt lat="47.26537" lon="-1.62175">
        <ele>55</ele>
        <time>2019-09-30T12:49:32.000Z</time>
      </trkpt>
      <trkpt lat="47.26537" lon="-1.62179">
        <ele>55</ele>
        <time>2019-09-30T12:49:33.000Z</time>
      </trkpt>
      <trkpt lat="47.26538" lon="-1.62182">
        <ele>54</ele>
        <time>2019-09-30T12:49:34.000Z</time>
      </trkpt>
      <trkpt lat="47.26539" lon="-1.62187">
        <ele>54</ele>
        <time>2019-09-30T12:49:35.000Z</time>
      </trkpt>
      <trkpt lat="47.2654" lon="-1.6219">
        <ele>54</ele>
        <time>2019-09-30T12:49:36.000Z</time>
      </trkpt>
      <trkpt lat="47.26541" lon="-1.62194">
        <ele>54</ele>
        <time>2019-09-30T12:49:37.000Z</time>
      </trkpt>
      <trkpt lat="47.26542" lon="-1.62196">
        <ele>54</ele>
        <time>2019-09-30T12:49:38.000Z</time>
      </trkpt>
      <trkpt lat="47.26543" lon="-1.62198">
        <ele>54</ele>
        <time>2019-09-30T12:49:39.000Z</time>
      </trkpt>
      <trkpt lat="47.26544" lon="-1.62201">
        <ele>54</ele>
        <time>2019-09-30T12:49:40.000Z</time>
      </trkpt>
      <trkpt lat="47.26545" lon="-1.62204">
        <ele>54</ele>
        <time>2019-09-30T12:49:41.000Z</time>
      </trkpt>
      <trkpt lat="47.26545" lon="-1.62205">
        <ele>54</ele>
        <time>2019-09-30T12:49:42.000Z</time>
      </trkpt>
      <trkpt lat="47.26546" lon="-1.62206">
        <ele>54</ele>
        <time>2019-09-30T12:49:43.000Z</time>
      </trkpt>
      <trkpt lat="47.26548" lon="-1.62206">
        <ele>54</ele>
        <time>2019-09-30T12:49:44.000Z</time>
      </trkpt>
      <trkpt lat="47.2655" lon="-1.62205">
        <ele>54</ele>
        <time>2019-09-30T12:49:45.000Z</time>
      </trkpt>
      <trkpt lat="47.26551" lon="-1.62205">
        <ele>54</ele>
        <time>2019-09-30T12:49:46.000Z</time>
      </trkpt>
      <trkpt lat="47.26552" lon="-1.62206">
        <ele>54</ele>
        <time>2019-09-30T12:49:47.000Z</time>
      </trkpt>
      <trkpt lat="47.26553" lon="-1.62207">
        <ele>54</ele>
        <time>2019-09-30T12:49:48.000Z</time>
      </trkpt>
      <trkpt lat="47.26554" lon="-1.62207">
        <ele>54</ele>
        <time>2019-09-30T12:49:49.000Z</time>
      </trkpt>
      <trkpt lat="47.26555" lon="-1.62208">
        <ele>54</ele>
        <time>2019-09-30T12:49:50.000Z</time>
      </trkpt>
      <trkpt lat="47.26556" lon="-1.62208">
        <ele>54</ele>
        <time>2019-09-30T12:49:51.000Z</time>
      </trkpt>
      <trkpt lat="47.26556" lon="-1.62207">
        <ele>54</ele>
        <time>2019-09-30T12:49:52.000Z</time>
      </trkpt>
      <trkpt lat="47.26557" lon="-1.62207">
        <ele>54</ele>
        <time>2019-09-30T12:49:53.000Z</time>
      </trkpt>
      <trkpt lat="47.26559" lon="-1.62206">
        <ele>54</ele>
        <time>2019-09-30T12:49:54.000Z</time>
      </trkpt>
      <trkpt lat="47.2656" lon="-1.62207">
        <ele>54</ele>
        <time>2019-09-30T12:49:55.000Z</time>
      </trkpt>
      <trkpt lat="47.26561" lon="-1.62208">
        <ele>54</ele>
        <time>2019-09-30T12:49:56.000Z</time>
      </trkpt>
      <trkpt lat="47.26562" lon="-1.62209">
        <ele>54</ele>
        <time>2019-09-30T12:49:57.000Z</time>
      </trkpt>
      <trkpt lat="47.26564" lon="-1.62209">
        <ele>54</ele>
        <time>2019-09-30T12:49:58.000Z</time>
      </trkpt>
      <trkpt lat="47.26566" lon="-1.62209">
        <ele>54</ele>
        <time>2019-09-30T12:49:59.000Z</time>
      </trkpt>
      <trkpt lat="47.26567" lon="-1.62206">
        <ele>54</ele>
        <time>2019-09-30T12:50:00.000Z</time>
      </trkpt>
      <trkpt lat="47.26569" lon="-1.62204">
        <ele>54</ele>
        <time>2019-09-30T12:50:01.000Z</time>
      </trkpt>
      <trkpt lat="47.2657" lon="-1.62201">
        <ele>54</ele>
        <time>2019-09-30T12:50:02.000Z</time>
      </trkpt>
      <trkpt lat="47.26571" lon="-1.622">
        <ele>53</ele>
        <time>2019-09-30T12:50:03.000Z</time>
      </trkpt>
      <trkpt lat="47.26572" lon="-1.622">
        <ele>53</ele>
        <time>2019-09-30T12:50:04.000Z</time>
      </trkpt>
      <trkpt lat="47.26573" lon="-1.622">
        <ele>53</ele>
        <time>2019-09-30T12:50:05.000Z</time>
      </trkpt>
      <trkpt lat="47.26574" lon="-1.62201">
        <ele>53</ele>
        <time>2019-09-30T12:50:06.000Z</time>
      </trkpt>
      <trkpt lat="47.26575" lon="-1.622">
        <ele>53</ele>
        <time>2019-09-30T12:50:07.000Z</time>
      </trkpt>
      <trkpt lat="47.26576" lon="-1.622">
        <ele>53</ele>
        <time>2019-09-30T12:50:08.000Z</time>
      </trkpt>
      <trkpt lat="47.26578" lon="-1.62198">
        <ele>53</ele>
        <time>2019-09-30T12:50:09.000Z</time>
      </trkpt>
      <trkpt lat="47.26579" lon="-1.62197">
        <ele>53</ele>
        <time>2019-09-30T12:50:10.000Z</time>
      </trkpt>
      <trkpt lat="47.26581" lon="-1.62195">
        <ele>53</ele>
        <time>2019-09-30T12:50:11.000Z</time>
      </trkpt>
      <trkpt lat="47.26582" lon="-1.62194">
        <ele>53</ele>
        <time>2019-09-30T12:50:12.000Z</time>
      </trkpt>
      <trkpt lat="47.26583" lon="-1.62193">
        <ele>53</ele>
        <time>2019-09-30T12:50:13.000Z</time>
      </trkpt>
      <trkpt lat="47.26584" lon="-1.62193">
        <ele>53</ele>
        <time>2019-09-30T12:50:14.000Z</time>
      </trkpt>
      <trkpt lat="47.26585" lon="-1.62192">
        <ele>53</ele>
        <time>2019-09-30T12:50:15.000Z</time>
      </trkpt>
      <trkpt lat="47.26586" lon="-1.62192">
        <ele>53</ele>
        <time>2019-09-30T12:50:16.000Z</time>
      </trkpt>
      <trkpt lat="47.26586" lon="-1.62192">
        <ele>53</ele>
        <time>2019-09-30T12:50:17.000Z</time>
      </trkpt>
      <trkpt lat="47.26599" lon="-1.62182">
        <ele>53</ele>
        <time>2019-09-30T12:50:18.000Z</time>
      </trkpt>
      <trkpt lat="47.266" lon="-1.62179">
        <ele>53</ele>
        <time>2019-09-30T12:50:19.000Z</time>
      </trkpt>
      <trkpt lat="47.26601" lon="-1.62175">
        <ele>53</ele>
        <time>2019-09-30T12:50:20.000Z</time>
      </trkpt>
      <trkpt lat="47.26601" lon="-1.62172">
        <ele>53</ele>
        <time>2019-09-30T12:50:21.000Z</time>
      </trkpt>
      <trkpt lat="47.26601" lon="-1.6217">
        <ele>53</ele>
        <time>2019-09-30T12:50:22.000Z</time>
      </trkpt>
      <trkpt lat="47.26603" lon="-1.62168">
        <ele>52</ele>
        <time>2019-09-30T12:50:23.000Z</time>
      </trkpt>
      <trkpt lat="47.26605" lon="-1.62166">
        <ele>52</ele>
        <time>2019-09-30T12:50:24.000Z</time>
      </trkpt>
      <trkpt lat="47.26608" lon="-1.62166">
        <ele>51</ele>
        <time>2019-09-30T12:50:25.000Z</time>
      </trkpt>
      <trkpt lat="47.2661" lon="-1.62166">
        <ele>51</ele>
        <time>2019-09-30T12:50:26.000Z</time>
      </trkpt>
      <trkpt lat="47.26613" lon="-1.62167">
        <ele>51</ele>
        <time>2019-09-30T12:50:27.000Z</time>
      </trkpt>
      <trkpt lat="47.26616" lon="-1.62169">
        <ele>50</ele>
        <time>2019-09-30T12:50:28.000Z</time>
      </trkpt>
      <trkpt lat="47.26619" lon="-1.62171">
        <ele>50</ele>
        <time>2019-09-30T12:50:29.000Z</time>
      </trkpt>
      <trkpt lat="47.26621" lon="-1.62172">
        <ele>50</ele>
        <time>2019-09-30T12:50:30.000Z</time>
      </trkpt>
      <trkpt lat="47.26624" lon="-1.62174">
        <ele>49</ele>
        <time>2019-09-30T12:50:31.000Z</time>
      </trkpt>
      <trkpt lat="47.26627" lon="-1.62175">
        <ele>49</ele>
        <time>2019-09-30T12:50:32.000Z</time>
      </trkpt>
      <trkpt lat="47.26631" lon="-1.62178">
        <ele>49</ele>
        <time>2019-09-30T12:50:33.000Z</time>
      </trkpt>
      <trkpt lat="47.26635" lon="-1.62179">
        <ele>49</ele>
        <time>2019-09-30T12:50:34.000Z</time>
      </trkpt>
      <trkpt lat="47.26639" lon="-1.62179">
        <ele>48</ele>
        <time>2019-09-30T12:50:35.000Z</time>
      </trkpt>
      <trkpt lat="47.26643" lon="-1.62179">
        <ele>48</ele>
        <time>2019-09-30T12:50:36.000Z</time>
      </trkpt>
      <trkpt lat="47.26647" lon="-1.62181">
        <ele>48</ele>
        <time>2019-09-30T12:50:37.000Z</time>
      </trkpt>
      <trkpt lat="47.26651" lon="-1.62183">
        <ele>47</ele>
        <time>2019-09-30T12:50:38.000Z</time>
      </trkpt>
      <trkpt lat="47.26654" lon="-1.62184">
        <ele>47</ele>
        <time>2019-09-30T12:50:39.000Z</time>
      </trkpt>
      <trkpt lat="47.26656" lon="-1.62184">
        <ele>47</ele>
        <time>2019-09-30T12:50:40.000Z</time>
      </trkpt>
      <trkpt lat="47.26658" lon="-1.62184">
        <ele>47</ele>
        <time>2019-09-30T12:50:41.000Z</time>
      </trkpt>
      <trkpt lat="47.2666" lon="-1.62182">
        <ele>46</ele>
        <time>2019-09-30T12:50:42.000Z</time>
      </trkpt>
      <trkpt lat="47.2666" lon="-1.62181">
        <ele>46</ele>
        <time>2019-09-30T12:50:43.000Z</time>
      </trkpt>
      <trkpt lat="47.26661" lon="-1.62179">
        <ele>46</ele>
        <time>2019-09-30T12:50:44.000Z</time>
      </trkpt>
      <trkpt lat="47.26661" lon="-1.62177">
        <ele>46</ele>
        <time>2019-09-30T12:50:45.000Z</time>
      </trkpt>
      <trkpt lat="47.26662" lon="-1.62175">
        <ele>45</ele>
        <time>2019-09-30T12:50:46.000Z</time>
      </trkpt>
      <trkpt lat="47.26662" lon="-1.62175">
        <ele>45</ele>
        <time>2019-09-30T12:50:47.000Z</time>
      </trkpt>
      <trkpt lat="47.26663" lon="-1.62174">
        <ele>45</ele>
        <time>2019-09-30T12:50:48.000Z</time>
      </trkpt>
      <trkpt lat="47.26664" lon="-1.62174">
        <ele>45</ele>
        <time>2019-09-30T12:50:49.000Z</time>
      </trkpt>
      <trkpt lat="47.26664" lon="-1.62174">
        <ele>44</ele>
        <time>2019-09-30T12:50:50.000Z</time>
      </trkpt>
      <trkpt lat="47.26669" lon="-1.62177">
        <ele>43</ele>
        <time>2019-09-30T12:50:51.000Z</time>
      </trkpt>
      <trkpt lat="47.26672" lon="-1.62179">
        <ele>43</ele>
        <time>2019-09-30T12:50:52.000Z</time>
      </trkpt>
      <trkpt lat="47.26674" lon="-1.62181">
        <ele>43</ele>
        <time>2019-09-30T12:50:53.000Z</time>
      </trkpt>
      <trkpt lat="47.26677" lon="-1.62184">
        <ele>42</ele>
        <time>2019-09-30T12:50:54.000Z</time>
      </trkpt>
      <trkpt lat="47.2668" lon="-1.62188">
        <ele>42</ele>
        <time>2019-09-30T12:50:55.000Z</time>
      </trkpt>
      <trkpt lat="47.26684" lon="-1.6219">
        <ele>42</ele>
        <time>2019-09-30T12:50:56.000Z</time>
      </trkpt>
      <trkpt lat="47.26686" lon="-1.62193">
        <ele>42</ele>
        <time>2019-09-30T12:50:57.000Z</time>
      </trkpt>
      <trkpt lat="47.26688" lon="-1.62195">
        <ele>42</ele>
        <time>2019-09-30T12:50:58.000Z</time>
      </trkpt>
      <trkpt lat="47.2669" lon="-1.62199">
        <ele>42</ele>
        <time>2019-09-30T12:50:59.000Z</time>
      </trkpt>
      <trkpt lat="47.26692" lon="-1.62204">
        <ele>41</ele>
        <time>2019-09-30T12:51:00.000Z</time>
      </trkpt>
      <trkpt lat="47.26694" lon="-1.62206">
        <ele>41</ele>
        <time>2019-09-30T12:51:01.000Z</time>
      </trkpt>
      <trkpt lat="47.26697" lon="-1.62204">
        <ele>41</ele>
        <time>2019-09-30T12:51:02.000Z</time>
      </trkpt>
      <trkpt lat="47.26699" lon="-1.62202">
        <ele>41</ele>
        <time>2019-09-30T12:51:03.000Z</time>
      </trkpt>
      <trkpt lat="47.26701" lon="-1.622">
        <ele>41</ele>
        <time>2019-09-30T12:51:04.000Z</time>
      </trkpt>
      <trkpt lat="47.26702" lon="-1.622">
        <ele>40</ele>
        <time>2019-09-30T12:51:05.000Z</time>
      </trkpt>
      <trkpt lat="47.26704" lon="-1.62203">
        <ele>40</ele>
        <time>2019-09-30T12:51:06.000Z</time>
      </trkpt>
      <trkpt lat="47.26705" lon="-1.62206">
        <ele>40</ele>
        <time>2019-09-30T12:51:07.000Z</time>
      </trkpt>
      <trkpt lat="47.26706" lon="-1.62211">
        <ele>40</ele>
        <time>2019-09-30T12:51:08.000Z</time>
      </trkpt>
      <trkpt lat="47.26707" lon="-1.62216">
        <ele>39</ele>
        <time>2019-09-30T12:51:09.000Z</time>
      </trkpt>
      <trkpt lat="47.26708" lon="-1.62221">
        <ele>39</ele>
        <time>2019-09-30T12:51:10.000Z</time>
      </trkpt>
      <trkpt lat="47.26708" lon="-1.62225">
        <ele>38</ele>
        <time>2019-09-30T12:51:11.000Z</time>
      </trkpt>
      <trkpt lat="47.26709" lon="-1.62229">
        <ele>38</ele>
        <time>2019-09-30T12:51:12.000Z</time>
      </trkpt>
      <trkpt lat="47.2671" lon="-1.62233">
        <ele>37</ele>
        <time>2019-09-30T12:51:13.000Z</time>
      </trkpt>
      <trkpt lat="47.26711" lon="-1.62236">
        <ele>37</ele>
        <time>2019-09-30T12:51:14.000Z</time>
      </trkpt>
      <trkpt lat="47.26712" lon="-1.62237">
        <ele>36</ele>
        <time>2019-09-30T12:51:15.000Z</time>
      </trkpt>
      <trkpt lat="47.26713" lon="-1.62236">
        <ele>36</ele>
        <time>2019-09-30T12:51:16.000Z</time>
      </trkpt>
      <trkpt lat="47.26714" lon="-1.62234">
        <ele>36</ele>
        <time>2019-09-30T12:51:17.000Z</time>
      </trkpt>
      <trkpt lat="47.26714" lon="-1.62233">
        <ele>36</ele>
        <time>2019-09-30T12:51:18.000Z</time>
      </trkpt>
      <trkpt lat="47.26715" lon="-1.62233">
        <ele>35</ele>
        <time>2019-09-30T12:51:19.000Z</time>
      </trkpt>
      <trkpt lat="47.26716" lon="-1.62233">
        <ele>35</ele>
        <time>2019-09-30T12:51:20.000Z</time>
      </trkpt>
      <trkpt lat="47.2672" lon="-1.62222">
        <ele>34</ele>
        <time>2019-09-30T12:51:21.000Z</time>
      </trkpt>
      <trkpt lat="47.26721" lon="-1.62219">
        <ele>34</ele>
        <time>2019-09-30T12:51:22.000Z</time>
      </trkpt>
      <trkpt lat="47.26721" lon="-1.62216">
        <ele>34</ele>
        <time>2019-09-30T12:51:23.000Z</time>
      </trkpt>
      <trkpt lat="47.26722" lon="-1.62212">
        <ele>34</ele>
        <time>2019-09-30T12:51:24.000Z</time>
      </trkpt>
      <trkpt lat="47.26722" lon="-1.62209">
        <ele>34</ele>
        <time>2019-09-30T12:51:25.000Z</time>
      </trkpt>
      <trkpt lat="47.26722" lon="-1.62206">
        <ele>34</ele>
        <time>2019-09-30T12:51:26.000Z</time>
      </trkpt>
      <trkpt lat="47.26723" lon="-1.62204">
        <ele>34</ele>
        <time>2019-09-30T12:51:27.000Z</time>
      </trkpt>
      <trkpt lat="47.26724" lon="-1.62202">
        <ele>34</ele>
        <time>2019-09-30T12:51:28.000Z</time>
      </trkpt>
      <trkpt lat="47.26724" lon="-1.62199">
        <ele>34</ele>
        <time>2019-09-30T12:51:29.000Z</time>
      </trkpt>
      <trkpt lat="47.26725" lon="-1.62196">
        <ele>34</ele>
        <time>2019-09-30T12:51:30.000Z</time>
      </trkpt>
      <trkpt lat="47.26726" lon="-1.62192">
        <ele>34</ele>
        <time>2019-09-30T12:51:31.000Z</time>
      </trkpt>
      <trkpt lat="47.26726" lon="-1.62187">
        <ele>34</ele>
        <time>2019-09-30T12:51:32.000Z</time>
      </trkpt>
      <trkpt lat="47.26727" lon="-1.62181">
        <ele>34</ele>
        <time>2019-09-30T12:51:33.000Z</time>
      </trkpt>
      <trkpt lat="47.26727" lon="-1.62175">
        <ele>34</ele>
        <time>2019-09-30T12:51:34.000Z</time>
      </trkpt>
      <trkpt lat="47.26727" lon="-1.6217">
        <ele>33</ele>
        <time>2019-09-30T12:51:35.000Z</time>
      </trkpt>
      <trkpt lat="47.26726" lon="-1.62165">
        <ele>33</ele>
        <time>2019-09-30T12:51:36.000Z</time>
      </trkpt>
      <trkpt lat="47.26726" lon="-1.62161">
        <ele>33</ele>
        <time>2019-09-30T12:51:37.000Z</time>
      </trkpt>
      <trkpt lat="47.26727" lon="-1.62158">
        <ele>33</ele>
        <time>2019-09-30T12:51:38.000Z</time>
      </trkpt>
      <trkpt lat="47.26727" lon="-1.62153">
        <ele>33</ele>
        <time>2019-09-30T12:51:39.000Z</time>
      </trkpt>
      <trkpt lat="47.26727" lon="-1.62148">
        <ele>33</ele>
        <time>2019-09-30T12:51:40.000Z</time>
      </trkpt>
      <trkpt lat="47.26727" lon="-1.62143">
        <ele>33</ele>
        <time>2019-09-30T12:51:41.000Z</time>
      </trkpt>
      <trkpt lat="47.26726" lon="-1.6214">
        <ele>33</ele>
        <time>2019-09-30T12:51:42.000Z</time>
      </trkpt>
      <trkpt lat="47.26726" lon="-1.62137">
        <ele>32</ele>
        <time>2019-09-30T12:51:43.000Z</time>
      </trkpt>
      <trkpt lat="47.26726" lon="-1.62135">
        <ele>32</ele>
        <time>2019-09-30T12:51:44.000Z</time>
      </trkpt>
      <trkpt lat="47.26726" lon="-1.62132">
        <ele>32</ele>
        <time>2019-09-30T12:51:45.000Z</time>
      </trkpt>
      <trkpt lat="47.26727" lon="-1.62129">
        <ele>32</ele>
        <time>2019-09-30T12:51:46.000Z</time>
      </trkpt>
      <trkpt lat="47.26727" lon="-1.62124">
        <ele>32</ele>
        <time>2019-09-30T12:51:47.000Z</time>
      </trkpt>
      <trkpt lat="47.26726" lon="-1.62118">
        <ele>32</ele>
        <time>2019-09-30T12:51:48.000Z</time>
      </trkpt>
      <trkpt lat="47.26725" lon="-1.62113">
        <ele>32</ele>
        <time>2019-09-30T12:51:49.000Z</time>
      </trkpt>
      <trkpt lat="47.26725" lon="-1.62108">
        <ele>31</ele>
        <time>2019-09-30T12:51:50.000Z</time>
      </trkpt>
      <trkpt lat="47.26724" lon="-1.62103">
        <ele>31</ele>
        <time>2019-09-30T12:51:51.000Z</time>
      </trkpt>
      <trkpt lat="47.26723" lon="-1.62099">
        <ele>31</ele>
        <time>2019-09-30T12:51:52.000Z</time>
      </trkpt>
      <trkpt lat="47.26722" lon="-1.62094">
        <ele>31</ele>
        <time>2019-09-30T12:51:53.000Z</time>
      </trkpt>
      <trkpt lat="47.26722" lon="-1.62089">
        <ele>31</ele>
        <time>2019-09-30T12:51:54.000Z</time>
      </trkpt>
      <trkpt lat="47.26721" lon="-1.62084">
        <ele>31</ele>
        <time>2019-09-30T12:51:55.000Z</time>
      </trkpt>
      <trkpt lat="47.26721" lon="-1.6208">
        <ele>30</ele>
        <time>2019-09-30T12:51:56.000Z</time>
      </trkpt>
      <trkpt lat="47.2672" lon="-1.62076">
        <ele>30</ele>
        <time>2019-09-30T12:51:57.000Z</time>
      </trkpt>
      <trkpt lat="47.2672" lon="-1.62073">
        <ele>30</ele>
        <time>2019-09-30T12:51:58.000Z</time>
      </trkpt>
      <trkpt lat="47.26719" lon="-1.62069">
        <ele>30</ele>
        <time>2019-09-30T12:51:59.000Z</time>
      </trkpt>
      <trkpt lat="47.26719" lon="-1.62065">
        <ele>30</ele>
        <time>2019-09-30T12:52:00.000Z</time>
      </trkpt>
      <trkpt lat="47.26719" lon="-1.62061">
        <ele>30</ele>
        <time>2019-09-30T12:52:01.000Z</time>
      </trkpt>
      <trkpt lat="47.26719" lon="-1.62057">
        <ele>30</ele>
        <time>2019-09-30T12:52:02.000Z</time>
      </trkpt>
      <trkpt lat="47.26718" lon="-1.62054">
        <ele>30</ele>
        <time>2019-09-30T12:52:03.000Z</time>
      </trkpt>
      <trkpt lat="47.26717" lon="-1.62051">
        <ele>30</ele>
        <time>2019-09-30T12:52:04.000Z</time>
      </trkpt>
      <trkpt lat="47.26716" lon="-1.62047">
        <ele>30</ele>
        <time>2019-09-30T12:52:05.000Z</time>
      </trkpt>
      <trkpt lat="47.26714" lon="-1.62044">
        <ele>30</ele>
        <time>2019-09-30T12:52:06.000Z</time>
      </trkpt>
      <trkpt lat="47.26712" lon="-1.62041">
        <ele>29</ele>
        <time>2019-09-30T12:52:07.000Z</time>
      </trkpt>
      <trkpt lat="47.26711" lon="-1.62037">
        <ele>29</ele>
        <time>2019-09-30T12:52:08.000Z</time>
      </trkpt>
      <trkpt lat="47.26709" lon="-1.62032">
        <ele>29</ele>
        <time>2019-09-30T12:52:09.000Z</time>
      </trkpt>
      <trkpt lat="47.26707" lon="-1.62026">
        <ele>29</ele>
        <time>2019-09-30T12:52:10.000Z</time>
      </trkpt>
      <trkpt lat="47.26706" lon="-1.62021">
        <ele>29</ele>
        <time>2019-09-30T12:52:11.000Z</time>
      </trkpt>
      <trkpt lat="47.26704" lon="-1.62016">
        <ele>29</ele>
        <time>2019-09-30T12:52:12.000Z</time>
      </trkpt>
      <trkpt lat="47.26703" lon="-1.62011">
        <ele>29</ele>
        <time>2019-09-30T12:52:13.000Z</time>
      </trkpt>
      <trkpt lat="47.26702" lon="-1.62008">
        <ele>29</ele>
        <time>2019-09-30T12:52:14.000Z</time>
      </trkpt>
      <trkpt lat="47.26703" lon="-1.62006">
        <ele>30</ele>
        <time>2019-09-30T12:52:15.000Z</time>
      </trkpt>
      <trkpt lat="47.26704" lon="-1.62005">
        <ele>30</ele>
        <time>2019-09-30T12:52:16.000Z</time>
      </trkpt>
      <trkpt lat="47.26705" lon="-1.62002">
        <ele>30</ele>
        <time>2019-09-30T12:52:17.000Z</time>
      </trkpt>
      <trkpt lat="47.26705" lon="-1.62">
        <ele>30</ele>
        <time>2019-09-30T12:52:18.000Z</time>
      </trkpt>
      <trkpt lat="47.26705" lon="-1.61997">
        <ele>30</ele>
        <time>2019-09-30T12:52:19.000Z</time>
      </trkpt>
      <trkpt lat="47.26705" lon="-1.61995">
        <ele>30</ele>
        <time>2019-09-30T12:52:20.000Z</time>
      </trkpt>
      <trkpt lat="47.26705" lon="-1.61993">
        <ele>31</ele>
        <time>2019-09-30T12:52:21.000Z</time>
      </trkpt>
      <trkpt lat="47.26705" lon="-1.61991">
        <ele>31</ele>
        <time>2019-09-30T12:52:22.000Z</time>
      </trkpt>
      <trkpt lat="47.26705" lon="-1.61988">
        <ele>31</ele>
        <time>2019-09-30T12:52:23.000Z</time>
      </trkpt>
      <trkpt lat="47.26706" lon="-1.61985">
        <ele>31</ele>
        <time>2019-09-30T12:52:24.000Z</time>
      </trkpt>
      <trkpt lat="47.26706" lon="-1.61983">
        <ele>31</ele>
        <time>2019-09-30T12:52:25.000Z</time>
      </trkpt>
      <trkpt lat="47.26707" lon="-1.6198">
        <ele>31</ele>
        <time>2019-09-30T12:52:26.000Z</time>
      </trkpt>
      <trkpt lat="47.26707" lon="-1.61978">
        <ele>31</ele>
        <time>2019-09-30T12:52:27.000Z</time>
      </trkpt>
      <trkpt lat="47.26709" lon="-1.61976">
        <ele>31</ele>
        <time>2019-09-30T12:52:28.000Z</time>
      </trkpt>
      <trkpt lat="47.26709" lon="-1.61973">
        <ele>31</ele>
        <time>2019-09-30T12:52:29.000Z</time>
      </trkpt>
      <trkpt lat="47.26709" lon="-1.61971">
        <ele>31</ele>
        <time>2019-09-30T12:52:30.000Z</time>
      </trkpt>
      <trkpt lat="47.26709" lon="-1.61969">
        <ele>30</ele>
        <time>2019-09-30T12:52:31.000Z</time>
      </trkpt>
      <trkpt lat="47.2671" lon="-1.61967">
        <ele>30</ele>
        <time>2019-09-30T12:52:32.000Z</time>
      </trkpt>
      <trkpt lat="47.26711" lon="-1.61963">
        <ele>30</ele>
        <time>2019-09-30T12:52:33.000Z</time>
      </trkpt>
      <trkpt lat="47.26712" lon="-1.6196">
        <ele>30</ele>
        <time>2019-09-30T12:52:34.000Z</time>
      </trkpt>
      <trkpt lat="47.26714" lon="-1.61956">
        <ele>30</ele>
        <time>2019-09-30T12:52:35.000Z</time>
      </trkpt>
      <trkpt lat="47.26715" lon="-1.61951">
        <ele>30</ele>
        <time>2019-09-30T12:52:36.000Z</time>
      </trkpt>
      <trkpt lat="47.26716" lon="-1.61944">
        <ele>30</ele>
        <time>2019-09-30T12:52:37.000Z</time>
      </trkpt>
      <trkpt lat="47.26717" lon="-1.61938">
        <ele>30</ele>
        <time>2019-09-30T12:52:38.000Z</time>
      </trkpt>
      <trkpt lat="47.26717" lon="-1.61932">
        <ele>30</ele>
        <time>2019-09-30T12:52:39.000Z</time>
      </trkpt>
      <trkpt lat="47.26716" lon="-1.61924">
        <ele>30</ele>
        <time>2019-09-30T12:52:40.000Z</time>
      </trkpt>
      <trkpt lat="47.26715" lon="-1.61917">
        <ele>30</ele>
        <time>2019-09-30T12:52:41.000Z</time>
      </trkpt>
      <trkpt lat="47.26713" lon="-1.6191">
        <ele>30</ele>
        <time>2019-09-30T12:52:42.000Z</time>
      </trkpt>
      <trkpt lat="47.26711" lon="-1.61903">
        <ele>30</ele>
        <time>2019-09-30T12:52:43.000Z</time>
      </trkpt>
      <trkpt lat="47.2671" lon="-1.61897">
        <ele>30</ele>
        <time>2019-09-30T12:52:44.000Z</time>
      </trkpt>
      <trkpt lat="47.26709" lon="-1.61891">
        <ele>30</ele>
        <time>2019-09-30T12:52:45.000Z</time>
      </trkpt>
      <trkpt lat="47.26707" lon="-1.61886">
        <ele>30</ele>
        <time>2019-09-30T12:52:46.000Z</time>
      </trkpt>
      <trkpt lat="47.26706" lon="-1.61883">
        <ele>29</ele>
        <time>2019-09-30T12:52:47.000Z</time>
      </trkpt>
      <trkpt lat="47.26704" lon="-1.61881">
        <ele>29</ele>
        <time>2019-09-30T12:52:48.000Z</time>
      </trkpt>
      <trkpt lat="47.26701" lon="-1.61878">
        <ele>29</ele>
        <time>2019-09-30T12:52:49.000Z</time>
      </trkpt>
      <trkpt lat="47.26699" lon="-1.61876">
        <ele>29</ele>
        <time>2019-09-30T12:52:50.000Z</time>
      </trkpt>
      <trkpt lat="47.26696" lon="-1.61873">
        <ele>29</ele>
        <time>2019-09-30T12:52:51.000Z</time>
      </trkpt>
      <trkpt lat="47.26694" lon="-1.61871">
        <ele>29</ele>
        <time>2019-09-30T12:52:52.000Z</time>
      </trkpt>
      <trkpt lat="47.26693" lon="-1.61868">
        <ele>29</ele>
        <time>2019-09-30T12:52:53.000Z</time>
      </trkpt>
      <trkpt lat="47.26691" lon="-1.61865">
        <ele>29</ele>
        <time>2019-09-30T12:52:54.000Z</time>
      </trkpt>
      <trkpt lat="47.2669" lon="-1.61861">
        <ele>29</ele>
        <time>2019-09-30T12:52:55.000Z</time>
      </trkpt>
      <trkpt lat="47.2669" lon="-1.61858">
        <ele>29</ele>
        <time>2019-09-30T12:52:56.000Z</time>
      </trkpt>
      <trkpt lat="47.26689" lon="-1.61854">
        <ele>29</ele>
        <time>2019-09-30T12:52:57.000Z</time>
      </trkpt>
      <trkpt lat="47.26687" lon="-1.61851">
        <ele>29</ele>
        <time>2019-09-30T12:52:58.000Z</time>
      </trkpt>
      <trkpt lat="47.26685" lon="-1.61848">
        <ele>28</ele>
        <time>2019-09-30T12:52:59.000Z</time>
      </trkpt>
      <trkpt lat="47.26682" lon="-1.61845">
        <ele>28</ele>
        <time>2019-09-30T12:53:00.000Z</time>
      </trkpt>
      <trkpt lat="47.26679" lon="-1.61843">
        <ele>28</ele>
        <time>2019-09-30T12:53:01.000Z</time>
      </trkpt>
      <trkpt lat="47.26676" lon="-1.61841">
        <ele>28</ele>
        <time>2019-09-30T12:53:02.000Z</time>
      </trkpt>
      <trkpt lat="47.26674" lon="-1.61838">
        <ele>27</ele>
        <time>2019-09-30T12:53:03.000Z</time>
      </trkpt>
      <trkpt lat="47.26673" lon="-1.61835">
        <ele>27</ele>
        <time>2019-09-30T12:53:04.000Z</time>
      </trkpt>
      <trkpt lat="47.26671" lon="-1.61832">
        <ele>27</ele>
        <time>2019-09-30T12:53:05.000Z</time>
      </trkpt>
      <trkpt lat="47.2667" lon="-1.6183">
        <ele>26</ele>
        <time>2019-09-30T12:53:06.000Z</time>
      </trkpt>
      <trkpt lat="47.26668" lon="-1.61829">
        <ele>26</ele>
        <time>2019-09-30T12:53:07.000Z</time>
      </trkpt>
      <trkpt lat="47.26666" lon="-1.61828">
        <ele>25</ele>
        <time>2019-09-30T12:53:08.000Z</time>
      </trkpt>
      <trkpt lat="47.26663" lon="-1.61827">
        <ele>25</ele>
        <time>2019-09-30T12:53:09.000Z</time>
      </trkpt>
      <trkpt lat="47.2666" lon="-1.61825">
        <ele>25</ele>
        <time>2019-09-30T12:53:10.000Z</time>
      </trkpt>
      <trkpt lat="47.26657" lon="-1.61823">
        <ele>24</ele>
        <time>2019-09-30T12:53:11.000Z</time>
      </trkpt>
      <trkpt lat="47.26653" lon="-1.6182">
        <ele>24</ele>
        <time>2019-09-30T12:53:12.000Z</time>
      </trkpt>
      <trkpt lat="47.26649" lon="-1.61816">
        <ele>23</ele>
        <time>2019-09-30T12:53:13.000Z</time>
      </trkpt>
      <trkpt lat="47.26647" lon="-1.61811">
        <ele>23</ele>
        <time>2019-09-30T12:53:14.000Z</time>
      </trkpt>
      <trkpt lat="47.26645" lon="-1.61806">
        <ele>22</ele>
        <time>2019-09-30T12:53:15.000Z</time>
      </trkpt>
      <trkpt lat="47.26642" lon="-1.61803">
        <ele>22</ele>
        <time>2019-09-30T12:53:16.000Z</time>
      </trkpt>
      <trkpt lat="47.26639" lon="-1.61801">
        <ele>22</ele>
        <time>2019-09-30T12:53:17.000Z</time>
      </trkpt>
      <trkpt lat="47.26636" lon="-1.61799">
        <ele>22</ele>
        <time>2019-09-30T12:53:18.000Z</time>
      </trkpt>
      <trkpt lat="47.26633" lon="-1.61797">
        <ele>22</ele>
        <time>2019-09-30T12:53:19.000Z</time>
      </trkpt>
      <trkpt lat="47.26631" lon="-1.61795">
        <ele>22</ele>
        <time>2019-09-30T12:53:20.000Z</time>
      </trkpt>
      <trkpt lat="47.26628" lon="-1.61793">
        <ele>21</ele>
        <time>2019-09-30T12:53:21.000Z</time>
      </trkpt>
      <trkpt lat="47.26625" lon="-1.61792">
        <ele>21</ele>
        <time>2019-09-30T12:53:22.000Z</time>
      </trkpt>
      <trkpt lat="47.26623" lon="-1.61791">
        <ele>21</ele>
        <time>2019-09-30T12:53:23.000Z</time>
      </trkpt>
      <trkpt lat="47.26621" lon="-1.61791">
        <ele>21</ele>
        <time>2019-09-30T12:53:24.000Z</time>
      </trkpt>
      <trkpt lat="47.26619" lon="-1.61791">
        <ele>21</ele>
        <time>2019-09-30T12:53:25.000Z</time>
      </trkpt>
      <trkpt lat="47.26617" lon="-1.61792">
        <ele>21</ele>
        <time>2019-09-30T12:53:26.000Z</time>
      </trkpt>
      <trkpt lat="47.26616" lon="-1.61792">
        <ele>21</ele>
        <time>2019-09-30T12:53:27.000Z</time>
      </trkpt>
      <trkpt lat="47.26615" lon="-1.61792">
        <ele>20</ele>
        <time>2019-09-30T12:53:28.000Z</time>
      </trkpt>
      <trkpt lat="47.26612" lon="-1.61792">
        <ele>20</ele>
        <time>2019-09-30T12:53:29.000Z</time>
      </trkpt>
      <trkpt lat="47.2661" lon="-1.61792">
        <ele>20</ele>
        <time>2019-09-30T12:53:30.000Z</time>
      </trkpt>
      <trkpt lat="47.26608" lon="-1.61792">
        <ele>20</ele>
        <time>2019-09-30T12:53:31.000Z</time>
      </trkpt>
      <trkpt lat="47.26605" lon="-1.61791">
        <ele>20</ele>
        <time>2019-09-30T12:53:32.000Z</time>
      </trkpt>
      <trkpt lat="47.26604" lon="-1.6179">
        <ele>20</ele>
        <time>2019-09-30T12:53:33.000Z</time>
      </trkpt>
      <trkpt lat="47.26602" lon="-1.61788">
        <ele>20</ele>
        <time>2019-09-30T12:53:34.000Z</time>
      </trkpt>
      <trkpt lat="47.266" lon="-1.61785">
        <ele>20</ele>
        <time>2019-09-30T12:53:35.000Z</time>
      </trkpt>
      <trkpt lat="47.26599" lon="-1.61782">
        <ele>19</ele>
        <time>2019-09-30T12:53:36.000Z</time>
      </trkpt>
      <trkpt lat="47.26597" lon="-1.61779">
        <ele>19</ele>
        <time>2019-09-30T12:53:37.000Z</time>
      </trkpt>
      <trkpt lat="47.26596" lon="-1.61776">
        <ele>19</ele>
        <time>2019-09-30T12:53:38.000Z</time>
      </trkpt>
      <trkpt lat="47.26596" lon="-1.61773">
        <ele>19</ele>
        <time>2019-09-30T12:53:39.000Z</time>
      </trkpt>
      <trkpt lat="47.26595" lon="-1.61768">
        <ele>20</ele>
        <time>2019-09-30T12:53:40.000Z</time>
      </trkpt>
      <trkpt lat="47.26594" lon="-1.61764">
        <ele>20</ele>
        <time>2019-09-30T12:53:41.000Z</time>
      </trkpt>
      <trkpt lat="47.26592" lon="-1.61762">
        <ele>20</ele>
        <time>2019-09-30T12:53:42.000Z</time>
      </trkpt>
      <trkpt lat="47.26591" lon="-1.6176">
        <ele>20</ele>
        <time>2019-09-30T12:53:43.000Z</time>
      </trkpt>
      <trkpt lat="47.26589" lon="-1.61759">
        <ele>20</ele>
        <time>2019-09-30T12:53:44.000Z</time>
      </trkpt>
      <trkpt lat="47.26587" lon="-1.61758">
        <ele>20</ele>
        <time>2019-09-30T12:53:45.000Z</time>
      </trkpt>
      <trkpt lat="47.26586" lon="-1.61756">
        <ele>20</ele>
        <time>2019-09-30T12:53:46.000Z</time>
      </trkpt>
      <trkpt lat="47.26585" lon="-1.61754">
        <ele>20</ele>
        <time>2019-09-30T12:53:47.000Z</time>
      </trkpt>
      <trkpt lat="47.26583" lon="-1.61751">
        <ele>20</ele>
        <time>2019-09-30T12:53:48.000Z</time>
      </trkpt>
      <trkpt lat="47.26582" lon="-1.61749">
        <ele>20</ele>
        <time>2019-09-30T12:53:49.000Z</time>
      </trkpt>
      <trkpt lat="47.2658" lon="-1.61747">
        <ele>21</ele>
        <time>2019-09-30T12:53:50.000Z</time>
      </trkpt>
      <trkpt lat="47.26579" lon="-1.61746">
        <ele>21</ele>
        <time>2019-09-30T12:53:51.000Z</time>
      </trkpt>
      <trkpt lat="47.26578" lon="-1.61744">
        <ele>21</ele>
        <time>2019-09-30T12:53:52.000Z</time>
      </trkpt>
      <trkpt lat="47.26577" lon="-1.61741">
        <ele>21</ele>
        <time>2019-09-30T12:53:53.000Z</time>
      </trkpt>
      <trkpt lat="47.26576" lon="-1.61738">
        <ele>21</ele>
        <time>2019-09-30T12:53:54.000Z</time>
      </trkpt>
      <trkpt lat="47.26575" lon="-1.61734">
        <ele>21</ele>
        <time>2019-09-30T12:53:55.000Z</time>
      </trkpt>
      <trkpt lat="47.26573" lon="-1.61729">
        <ele>21</ele>
        <time>2019-09-30T12:53:56.000Z</time>
      </trkpt>
      <trkpt lat="47.26571" lon="-1.61723">
        <ele>21</ele>
        <time>2019-09-30T12:53:57.000Z</time>
      </trkpt>
      <trkpt lat="47.26568" lon="-1.61718">
        <ele>21</ele>
        <time>2019-09-30T12:53:58.000Z</time>
      </trkpt>
      <trkpt lat="47.26566" lon="-1.61712">
        <ele>21</ele>
        <time>2019-09-30T12:53:59.000Z</time>
      </trkpt>
      <trkpt lat="47.26564" lon="-1.61708">
        <ele>21</ele>
        <time>2019-09-30T12:54:00.000Z</time>
      </trkpt>
      <trkpt lat="47.26561" lon="-1.61706">
        <ele>21</ele>
        <time>2019-09-30T12:54:01.000Z</time>
      </trkpt>
      <trkpt lat="47.26559" lon="-1.61705">
        <ele>21</ele>
        <time>2019-09-30T12:54:02.000Z</time>
      </trkpt>
      <trkpt lat="47.26557" lon="-1.61704">
        <ele>22</ele>
        <time>2019-09-30T12:54:03.000Z</time>
      </trkpt>
      <trkpt lat="47.26556" lon="-1.61701">
        <ele>22</ele>
        <time>2019-09-30T12:54:04.000Z</time>
      </trkpt>
      <trkpt lat="47.26554" lon="-1.61699">
        <ele>22</ele>
        <time>2019-09-30T12:54:05.000Z</time>
      </trkpt>
      <trkpt lat="47.26553" lon="-1.61696">
        <ele>22</ele>
        <time>2019-09-30T12:54:06.000Z</time>
      </trkpt>
      <trkpt lat="47.26551" lon="-1.61693">
        <ele>23</ele>
        <time>2019-09-30T12:54:07.000Z</time>
      </trkpt>
      <trkpt lat="47.2655" lon="-1.61691">
        <ele>23</ele>
        <time>2019-09-30T12:54:08.000Z</time>
      </trkpt>
      <trkpt lat="47.26548" lon="-1.61689">
        <ele>23</ele>
        <time>2019-09-30T12:54:09.000Z</time>
      </trkpt>
      <trkpt lat="47.26547" lon="-1.61687">
        <ele>23</ele>
        <time>2019-09-30T12:54:10.000Z</time>
      </trkpt>
      <trkpt lat="47.26546" lon="-1.61685">
        <ele>24</ele>
        <time>2019-09-30T12:54:11.000Z</time>
      </trkpt>
      <trkpt lat="47.26544" lon="-1.61684">
        <ele>24</ele>
        <time>2019-09-30T12:54:12.000Z</time>
      </trkpt>
      <trkpt lat="47.26542" lon="-1.61683">
        <ele>24</ele>
        <time>2019-09-30T12:54:13.000Z</time>
      </trkpt>
      <trkpt lat="47.26541" lon="-1.61682">
        <ele>24</ele>
        <time>2019-09-30T12:54:14.000Z</time>
      </trkpt>
      <trkpt lat="47.2654" lon="-1.61681">
        <ele>25</ele>
        <time>2019-09-30T12:54:15.000Z</time>
      </trkpt>
      <trkpt lat="47.26538" lon="-1.6168">
        <ele>25</ele>
        <time>2019-09-30T12:54:16.000Z</time>
      </trkpt>
      <trkpt lat="47.26536" lon="-1.61678">
        <ele>25</ele>
        <time>2019-09-30T12:54:17.000Z</time>
      </trkpt>
      <trkpt lat="47.26533" lon="-1.61676">
        <ele>25</ele>
        <time>2019-09-30T12:54:18.000Z</time>
      </trkpt>
      <trkpt lat="47.2653" lon="-1.61676">
        <ele>25</ele>
        <time>2019-09-30T12:54:19.000Z</time>
      </trkpt>
      <trkpt lat="47.26528" lon="-1.61676">
        <ele>26</ele>
        <time>2019-09-30T12:54:20.000Z</time>
      </trkpt>
      <trkpt lat="47.26525" lon="-1.61676">
        <ele>26</ele>
        <time>2019-09-30T12:54:21.000Z</time>
      </trkpt>
      <trkpt lat="47.26523" lon="-1.61676">
        <ele>26</ele>
        <time>2019-09-30T12:54:22.000Z</time>
      </trkpt>
      <trkpt lat="47.26519" lon="-1.61675">
        <ele>26</ele>
        <time>2019-09-30T12:54:23.000Z</time>
      </trkpt>
      <trkpt lat="47.26516" lon="-1.61674">
        <ele>27</ele>
        <time>2019-09-30T12:54:24.000Z</time>
      </trkpt>
      <trkpt lat="47.26513" lon="-1.61674">
        <ele>27</ele>
        <time>2019-09-30T12:54:25.000Z</time>
      </trkpt>
      <trkpt lat="47.26511" lon="-1.61674">
        <ele>27</ele>
        <time>2019-09-30T12:54:26.000Z</time>
      </trkpt>
      <trkpt lat="47.26508" lon="-1.61674">
        <ele>27</ele>
        <time>2019-09-30T12:54:27.000Z</time>
      </trkpt>
      <trkpt lat="47.26506" lon="-1.61675">
        <ele>28</ele>
        <time>2019-09-30T12:54:28.000Z</time>
      </trkpt>
      <trkpt lat="47.26503" lon="-1.61675">
        <ele>28</ele>
        <time>2019-09-30T12:54:29.000Z</time>
      </trkpt>
      <trkpt lat="47.26501" lon="-1.61676">
        <ele>28</ele>
        <time>2019-09-30T12:54:30.000Z</time>
      </trkpt>
      <trkpt lat="47.26498" lon="-1.61676">
        <ele>28</ele>
        <time>2019-09-30T12:54:31.000Z</time>
      </trkpt>
      <trkpt lat="47.26496" lon="-1.61676">
        <ele>29</ele>
        <time>2019-09-30T12:54:32.000Z</time>
      </trkpt>
      <trkpt lat="47.26494" lon="-1.61676">
        <ele>29</ele>
        <time>2019-09-30T12:54:33.000Z</time>
      </trkpt>
      <trkpt lat="47.26491" lon="-1.61677">
        <ele>29</ele>
        <time>2019-09-30T12:54:34.000Z</time>
      </trkpt>
      <trkpt lat="47.26489" lon="-1.61677">
        <ele>29</ele>
        <time>2019-09-30T12:54:35.000Z</time>
      </trkpt>
      <trkpt lat="47.26487" lon="-1.61677">
        <ele>30</ele>
        <time>2019-09-30T12:54:36.000Z</time>
      </trkpt>
      <trkpt lat="47.26484" lon="-1.61677">
        <ele>30</ele>
        <time>2019-09-30T12:54:37.000Z</time>
      </trkpt>
      <trkpt lat="47.26483" lon="-1.61676">
        <ele>30</ele>
        <time>2019-09-30T12:54:38.000Z</time>
      </trkpt>
      <trkpt lat="47.26481" lon="-1.61674">
        <ele>31</ele>
        <time>2019-09-30T12:54:39.000Z</time>
      </trkpt>
      <trkpt lat="47.26479" lon="-1.61671">
        <ele>31</ele>
        <time>2019-09-30T12:54:40.000Z</time>
      </trkpt>
      <trkpt lat="47.26477" lon="-1.61668">
        <ele>31</ele>
        <time>2019-09-30T12:54:41.000Z</time>
      </trkpt>
      <trkpt lat="47.26475" lon="-1.61665">
        <ele>31</ele>
        <time>2019-09-30T12:54:42.000Z</time>
      </trkpt>
      <trkpt lat="47.26472" lon="-1.61662">
        <ele>31</ele>
        <time>2019-09-30T12:54:43.000Z</time>
      </trkpt>
      <trkpt lat="47.26469" lon="-1.61661">
        <ele>32</ele>
        <time>2019-09-30T12:54:44.000Z</time>
      </trkpt>
      <trkpt lat="47.26467" lon="-1.6166">
        <ele>32</ele>
        <time>2019-09-30T12:54:45.000Z</time>
      </trkpt>
      <trkpt lat="47.26464" lon="-1.6166">
        <ele>32</ele>
        <time>2019-09-30T12:54:46.000Z</time>
      </trkpt>
      <trkpt lat="47.26462" lon="-1.6166">
        <ele>32</ele>
        <time>2019-09-30T12:54:47.000Z</time>
      </trkpt>
      <trkpt lat="47.26459" lon="-1.6166">
        <ele>33</ele>
        <time>2019-09-30T12:54:48.000Z</time>
      </trkpt>
      <trkpt lat="47.26455" lon="-1.61662">
        <ele>33</ele>
        <time>2019-09-30T12:54:49.000Z</time>
      </trkpt>
      <trkpt lat="47.26453" lon="-1.61664">
        <ele>33</ele>
        <time>2019-09-30T12:54:50.000Z</time>
      </trkpt>
      <trkpt lat="47.2645" lon="-1.61666">
        <ele>34</ele>
        <time>2019-09-30T12:54:51.000Z</time>
      </trkpt>
      <trkpt lat="47.26448" lon="-1.61668">
        <ele>34</ele>
        <time>2019-09-30T12:54:52.000Z</time>
      </trkpt>
      <trkpt lat="47.26445" lon="-1.6167">
        <ele>34</ele>
        <time>2019-09-30T12:54:53.000Z</time>
      </trkpt>
      <trkpt lat="47.26442" lon="-1.61671">
        <ele>34</ele>
        <time>2019-09-30T12:54:54.000Z</time>
      </trkpt>
      <trkpt lat="47.26439" lon="-1.61673">
        <ele>34</ele>
        <time>2019-09-30T12:54:55.000Z</time>
      </trkpt>
      <trkpt lat="47.26437" lon="-1.61676">
        <ele>35</ele>
        <time>2019-09-30T12:54:56.000Z</time>
      </trkpt>
      <trkpt lat="47.26434" lon="-1.61679">
        <ele>35</ele>
        <time>2019-09-30T12:54:57.000Z</time>
      </trkpt>
      <trkpt lat="47.26432" lon="-1.6168">
        <ele>35</ele>
        <time>2019-09-30T12:54:58.000Z</time>
      </trkpt>
      <trkpt lat="47.26428" lon="-1.6168">
        <ele>34</ele>
        <time>2019-09-30T12:54:59.000Z</time>
      </trkpt>
      <trkpt lat="47.26424" lon="-1.61678">
        <ele>34</ele>
        <time>2019-09-30T12:55:00.000Z</time>
      </trkpt>
      <trkpt lat="47.26421" lon="-1.61677">
        <ele>34</ele>
        <time>2019-09-30T12:55:01.000Z</time>
      </trkpt>
      <trkpt lat="47.26419" lon="-1.61675">
        <ele>34</ele>
        <time>2019-09-30T12:55:02.000Z</time>
      </trkpt>
      <trkpt lat="47.26417" lon="-1.61674">
        <ele>34</ele>
        <time>2019-09-30T12:55:03.000Z</time>
      </trkpt>
      <trkpt lat="47.26416" lon="-1.61672">
        <ele>34</ele>
        <time>2019-09-30T12:55:04.000Z</time>
      </trkpt>
      <trkpt lat="47.26415" lon="-1.61668">
        <ele>34</ele>
        <time>2019-09-30T12:55:05.000Z</time>
      </trkpt>
      <trkpt lat="47.26413" lon="-1.61664">
        <ele>33</ele>
        <time>2019-09-30T12:55:06.000Z</time>
      </trkpt>
      <trkpt lat="47.26413" lon="-1.61661">
        <ele>33</ele>
        <time>2019-09-30T12:55:07.000Z</time>
      </trkpt>
      <trkpt lat="47.26411" lon="-1.61658">
        <ele>33</ele>
        <time>2019-09-30T12:55:08.000Z</time>
      </trkpt>
      <trkpt lat="47.2641" lon="-1.61655">
        <ele>33</ele>
        <time>2019-09-30T12:55:09.000Z</time>
      </trkpt>
      <trkpt lat="47.26409" lon="-1.61652">
        <ele>33</ele>
        <time>2019-09-30T12:55:10.000Z</time>
      </trkpt>
      <trkpt lat="47.26408" lon="-1.6165">
        <ele>33</ele>
        <time>2019-09-30T12:55:11.000Z</time>
      </trkpt>
      <trkpt lat="47.26408" lon="-1.61648">
        <ele>33</ele>
        <time>2019-09-30T12:55:12.000Z</time>
      </trkpt>
      <trkpt lat="47.26408" lon="-1.61645">
        <ele>33</ele>
        <time>2019-09-30T12:55:13.000Z</time>
      </trkpt>
      <trkpt lat="47.26407" lon="-1.61641">
        <ele>33</ele>
        <time>2019-09-30T12:55:14.000Z</time>
      </trkpt>
      <trkpt lat="47.26407" lon="-1.61637">
        <ele>33</ele>
        <time>2019-09-30T12:55:15.000Z</time>
      </trkpt>
      <trkpt lat="47.26406" lon="-1.61633">
        <ele>33</ele>
        <time>2019-09-30T12:55:16.000Z</time>
      </trkpt>
      <trkpt lat="47.26405" lon="-1.61631">
        <ele>33</ele>
        <time>2019-09-30T12:55:17.000Z</time>
      </trkpt>
      <trkpt lat="47.26405" lon="-1.61627">
        <ele>33</ele>
        <time>2019-09-30T12:55:18.000Z</time>
      </trkpt>
      <trkpt lat="47.26404" lon="-1.61624">
        <ele>33</ele>
        <time>2019-09-30T12:55:19.000Z</time>
      </trkpt>
      <trkpt lat="47.26404" lon="-1.61621">
        <ele>33</ele>
        <time>2019-09-30T12:55:20.000Z</time>
      </trkpt>
      <trkpt lat="47.26403" lon="-1.61619">
        <ele>33</ele>
        <time>2019-09-30T12:55:21.000Z</time>
      </trkpt>
      <trkpt lat="47.26401" lon="-1.61617">
        <ele>33</ele>
        <time>2019-09-30T12:55:22.000Z</time>
      </trkpt>
      <trkpt lat="47.26399" lon="-1.61615">
        <ele>33</ele>
        <time>2019-09-30T12:55:23.000Z</time>
      </trkpt>
      <trkpt lat="47.26396" lon="-1.61612">
        <ele>33</ele>
        <time>2019-09-30T12:55:24.000Z</time>
      </trkpt>
      <trkpt lat="47.26394" lon="-1.61608">
        <ele>33</ele>
        <time>2019-09-30T12:55:25.000Z</time>
      </trkpt>
      <trkpt lat="47.26392" lon="-1.61605">
        <ele>32</ele>
        <time>2019-09-30T12:55:26.000Z</time>
      </trkpt>
      <trkpt lat="47.26391" lon="-1.61601">
        <ele>32</ele>
        <time>2019-09-30T12:55:27.000Z</time>
      </trkpt>
      <trkpt lat="47.26388" lon="-1.61597">
        <ele>32</ele>
        <time>2019-09-30T12:55:28.000Z</time>
      </trkpt>
      <trkpt lat="47.26385" lon="-1.61594">
        <ele>32</ele>
        <time>2019-09-30T12:55:29.000Z</time>
      </trkpt>
      <trkpt lat="47.26382" lon="-1.61592">
        <ele>32</ele>
        <time>2019-09-30T12:55:30.000Z</time>
      </trkpt>
      <trkpt lat="47.26379" lon="-1.61589">
        <ele>32</ele>
        <time>2019-09-30T12:55:31.000Z</time>
      </trkpt>
      <trkpt lat="47.26377" lon="-1.61585">
        <ele>32</ele>
        <time>2019-09-30T12:55:32.000Z</time>
      </trkpt>
      <trkpt lat="47.26376" lon="-1.61581">
        <ele>32</ele>
        <time>2019-09-30T12:55:33.000Z</time>
      </trkpt>
      <trkpt lat="47.26374" lon="-1.61576">
        <ele>32</ele>
        <time>2019-09-30T12:55:34.000Z</time>
      </trkpt>
      <trkpt lat="47.26371" lon="-1.61569">
        <ele>32</ele>
        <time>2019-09-30T12:55:35.000Z</time>
      </trkpt>
      <trkpt lat="47.26367" lon="-1.61563">
        <ele>32</ele>
        <time>2019-09-30T12:55:36.000Z</time>
      </trkpt>
      <trkpt lat="47.26363" lon="-1.61558">
        <ele>32</ele>
        <time>2019-09-30T12:55:37.000Z</time>
      </trkpt>
      <trkpt lat="47.2636" lon="-1.61555">
        <ele>32</ele>
        <time>2019-09-30T12:55:38.000Z</time>
      </trkpt>
      <trkpt lat="47.26358" lon="-1.61552">
        <ele>31</ele>
        <time>2019-09-30T12:55:39.000Z</time>
      </trkpt>
      <trkpt lat="47.26356" lon="-1.61548">
        <ele>31</ele>
        <time>2019-09-30T12:55:40.000Z</time>
      </trkpt>
      <trkpt lat="47.26354" lon="-1.61543">
        <ele>31</ele>
        <time>2019-09-30T12:55:41.000Z</time>
      </trkpt>
      <trkpt lat="47.26353" lon="-1.61537">
        <ele>31</ele>
        <time>2019-09-30T12:55:42.000Z</time>
      </trkpt>
      <trkpt lat="47.26351" lon="-1.61534">
        <ele>31</ele>
        <time>2019-09-30T12:55:43.000Z</time>
      </trkpt>
      <trkpt lat="47.26349" lon="-1.61531">
        <ele>31</ele>
        <time>2019-09-30T12:55:44.000Z</time>
      </trkpt>
      <trkpt lat="47.26347" lon="-1.6153">
        <ele>31</ele>
        <time>2019-09-30T12:55:45.000Z</time>
      </trkpt>
      <trkpt lat="47.26346" lon="-1.61529">
        <ele>31</ele>
        <time>2019-09-30T12:55:46.000Z</time>
      </trkpt>
      <trkpt lat="47.26346" lon="-1.61528">
        <ele>31</ele>
        <time>2019-09-30T12:55:47.000Z</time>
      </trkpt>
      <trkpt lat="47.26345" lon="-1.61527">
        <ele>31</ele>
        <time>2019-09-30T12:55:48.000Z</time>
      </trkpt>
      <trkpt lat="47.26344" lon="-1.61527">
        <ele>31</ele>
        <time>2019-09-30T12:55:49.000Z</time>
      </trkpt>
      <trkpt lat="47.26344" lon="-1.61526">
        <ele>31</ele>
        <time>2019-09-30T12:55:50.000Z</time>
      </trkpt>
      <trkpt lat="47.26343" lon="-1.61525">
        <ele>31</ele>
        <time>2019-09-30T12:55:51.000Z</time>
      </trkpt>
      <trkpt lat="47.2634" lon="-1.61523">
        <ele>32</ele>
        <time>2019-09-30T12:55:52.000Z</time>
      </trkpt>
      <trkpt lat="47.26339" lon="-1.61522">
        <ele>32</ele>
        <time>2019-09-30T12:55:53.000Z</time>
      </trkpt>
      <trkpt lat="47.26339" lon="-1.61521">
        <ele>32</ele>
        <time>2019-09-30T12:55:54.000Z</time>
      </trkpt>
      <trkpt lat="47.26338" lon="-1.6152">
        <ele>32</ele>
        <time>2019-09-30T12:55:55.000Z</time>
      </trkpt>
      <trkpt lat="47.26338" lon="-1.61519">
        <ele>32</ele>
        <time>2019-09-30T12:55:56.000Z</time>
      </trkpt>
      <trkpt lat="47.26337" lon="-1.61519">
        <ele>32</ele>
        <time>2019-09-30T12:55:57.000Z</time>
      </trkpt>
      <trkpt lat="47.26337" lon="-1.61518">
        <ele>32</ele>
        <time>2019-09-30T12:55:58.000Z</time>
      </trkpt>
      <trkpt lat="47.26336" lon="-1.6151">
        <ele>33</ele>
        <time>2019-09-30T12:55:59.000Z</time>
      </trkpt>
      <trkpt lat="47.26334" lon="-1.61508">
        <ele>33</ele>
        <time>2019-09-30T12:56:00.000Z</time>
      </trkpt>
      <trkpt lat="47.26333" lon="-1.61504">
        <ele>33</ele>
        <time>2019-09-30T12:56:01.000Z</time>
      </trkpt>
      <trkpt lat="47.2633" lon="-1.61501">
        <ele>33</ele>
        <time>2019-09-30T12:56:02.000Z</time>
      </trkpt>
      <trkpt lat="47.26329" lon="-1.61497">
        <ele>33</ele>
        <time>2019-09-30T12:56:03.000Z</time>
      </trkpt>
      <trkpt lat="47.26326" lon="-1.61492">
        <ele>33</ele>
        <time>2019-09-30T12:56:04.000Z</time>
      </trkpt>
      <trkpt lat="47.26324" lon="-1.61488">
        <ele>33</ele>
        <time>2019-09-30T12:56:05.000Z</time>
      </trkpt>
      <trkpt lat="47.2632" lon="-1.61484">
        <ele>33</ele>
        <time>2019-09-30T12:56:06.000Z</time>
      </trkpt>
      <trkpt lat="47.26317" lon="-1.61482">
        <ele>32</ele>
        <time>2019-09-30T12:56:07.000Z</time>
      </trkpt>
      <trkpt lat="47.26314" lon="-1.6148">
        <ele>32</ele>
        <time>2019-09-30T12:56:08.000Z</time>
      </trkpt>
      <trkpt lat="47.26312" lon="-1.6148">
        <ele>32</ele>
        <time>2019-09-30T12:56:09.000Z</time>
      </trkpt>
      <trkpt lat="47.26309" lon="-1.6148">
        <ele>32</ele>
        <time>2019-09-30T12:56:10.000Z</time>
      </trkpt>
      <trkpt lat="47.26306" lon="-1.61481">
        <ele>32</ele>
        <time>2019-09-30T12:56:11.000Z</time>
      </trkpt>
      <trkpt lat="47.26302" lon="-1.61483">
        <ele>31</ele>
        <time>2019-09-30T12:56:12.000Z</time>
      </trkpt>
      <trkpt lat="47.26299" lon="-1.61485">
        <ele>31</ele>
        <time>2019-09-30T12:56:13.000Z</time>
      </trkpt>
      <trkpt lat="47.26296" lon="-1.61487">
        <ele>30</ele>
        <time>2019-09-30T12:56:14.000Z</time>
      </trkpt>
      <trkpt lat="47.26292" lon="-1.61489">
        <ele>30</ele>
        <time>2019-09-30T12:56:15.000Z</time>
      </trkpt>
      <trkpt lat="47.26289" lon="-1.61491">
        <ele>29</ele>
        <time>2019-09-30T12:56:16.000Z</time>
      </trkpt>
      <trkpt lat="47.26286" lon="-1.61494">
        <ele>29</ele>
        <time>2019-09-30T12:56:17.000Z</time>
      </trkpt>
      <trkpt lat="47.26284" lon="-1.61496">
        <ele>28</ele>
        <time>2019-09-30T12:56:18.000Z</time>
      </trkpt>
      <trkpt lat="47.26281" lon="-1.61499">
        <ele>28</ele>
        <time>2019-09-30T12:56:19.000Z</time>
      </trkpt>
      <trkpt lat="47.26279" lon="-1.61502">
        <ele>27</ele>
        <time>2019-09-30T12:56:20.000Z</time>
      </trkpt>
      <trkpt lat="47.26276" lon="-1.61504">
        <ele>27</ele>
        <time>2019-09-30T12:56:21.000Z</time>
      </trkpt>
      <trkpt lat="47.26273" lon="-1.61506">
        <ele>26</ele>
        <time>2019-09-30T12:56:22.000Z</time>
      </trkpt>
      <trkpt lat="47.2627" lon="-1.61508">
        <ele>26</ele>
        <time>2019-09-30T12:56:23.000Z</time>
      </trkpt>
      <trkpt lat="47.26268" lon="-1.61509">
        <ele>26</ele>
        <time>2019-09-30T12:56:24.000Z</time>
      </trkpt>
      <trkpt lat="47.26266" lon="-1.61511">
        <ele>25</ele>
        <time>2019-09-30T12:56:25.000Z</time>
      </trkpt>
      <trkpt lat="47.26265" lon="-1.61513">
        <ele>25</ele>
        <time>2019-09-30T12:56:26.000Z</time>
      </trkpt>
      <trkpt lat="47.26263" lon="-1.61516">
        <ele>25</ele>
        <time>2019-09-30T12:56:27.000Z</time>
      </trkpt>
      <trkpt lat="47.26261" lon="-1.6152">
        <ele>25</ele>
        <time>2019-09-30T12:56:28.000Z</time>
      </trkpt>
      <trkpt lat="47.26259" lon="-1.61523">
        <ele>24</ele>
        <time>2019-09-30T12:56:29.000Z</time>
      </trkpt>
      <trkpt lat="47.26258" lon="-1.61526">
        <ele>24</ele>
        <time>2019-09-30T12:56:30.000Z</time>
      </trkpt>
      <trkpt lat="47.26256" lon="-1.61529">
        <ele>24</ele>
        <time>2019-09-30T12:56:31.000Z</time>
      </trkpt>
      <trkpt lat="47.26255" lon="-1.61532">
        <ele>24</ele>
        <time>2019-09-30T12:56:32.000Z</time>
      </trkpt>
      <trkpt lat="47.26254" lon="-1.61535">
        <ele>24</ele>
        <time>2019-09-30T12:56:33.000Z</time>
      </trkpt>
      <trkpt lat="47.26253" lon="-1.61538">
        <ele>24</ele>
        <time>2019-09-30T12:56:34.000Z</time>
      </trkpt>
      <trkpt lat="47.26252" lon="-1.6154">
        <ele>25</ele>
        <time>2019-09-30T12:56:35.000Z</time>
      </trkpt>
      <trkpt lat="47.2625" lon="-1.61541">
        <ele>25</ele>
        <time>2019-09-30T12:56:36.000Z</time>
      </trkpt>
      <trkpt lat="47.26248" lon="-1.6154">
        <ele>25</ele>
        <time>2019-09-30T12:56:37.000Z</time>
      </trkpt>
      <trkpt lat="47.26246" lon="-1.61539">
        <ele>25</ele>
        <time>2019-09-30T12:56:38.000Z</time>
      </trkpt>
      <trkpt lat="47.26243" lon="-1.6154">
        <ele>25</ele>
        <time>2019-09-30T12:56:39.000Z</time>
      </trkpt>
      <trkpt lat="47.26239" lon="-1.6154">
        <ele>25</ele>
        <time>2019-09-30T12:56:40.000Z</time>
      </trkpt>
      <trkpt lat="47.26237" lon="-1.61541">
        <ele>25</ele>
        <time>2019-09-30T12:56:41.000Z</time>
      </trkpt>
      <trkpt lat="47.26234" lon="-1.61542">
        <ele>25</ele>
        <time>2019-09-30T12:56:42.000Z</time>
      </trkpt>
      <trkpt lat="47.26232" lon="-1.61543">
        <ele>25</ele>
        <time>2019-09-30T12:56:43.000Z</time>
      </trkpt>
      <trkpt lat="47.26229" lon="-1.61546">
        <ele>25</ele>
        <time>2019-09-30T12:56:44.000Z</time>
      </trkpt>
      <trkpt lat="47.26227" lon="-1.61549">
        <ele>26</ele>
        <time>2019-09-30T12:56:45.000Z</time>
      </trkpt>
      <trkpt lat="47.26225" lon="-1.61551">
        <ele>26</ele>
        <time>2019-09-30T12:56:46.000Z</time>
      </trkpt>
      <trkpt lat="47.26224" lon="-1.61554">
        <ele>26</ele>
        <time>2019-09-30T12:56:47.000Z</time>
      </trkpt>
      <trkpt lat="47.26223" lon="-1.61555">
        <ele>26</ele>
        <time>2019-09-30T12:56:48.000Z</time>
      </trkpt>
      <trkpt lat="47.26221" lon="-1.61557">
        <ele>27</ele>
        <time>2019-09-30T12:56:49.000Z</time>
      </trkpt>
      <trkpt lat="47.2622" lon="-1.6156">
        <ele>27</ele>
        <time>2019-09-30T12:56:50.000Z</time>
      </trkpt>
      <trkpt lat="47.26218" lon="-1.61562">
        <ele>27</ele>
        <time>2019-09-30T12:56:51.000Z</time>
      </trkpt>
      <trkpt lat="47.26216" lon="-1.61564">
        <ele>27</ele>
        <time>2019-09-30T12:56:52.000Z</time>
      </trkpt>
      <trkpt lat="47.26213" lon="-1.61566">
        <ele>28</ele>
        <time>2019-09-30T12:56:53.000Z</time>
      </trkpt>
      <trkpt lat="47.26211" lon="-1.61567">
        <ele>28</ele>
        <time>2019-09-30T12:56:54.000Z</time>
      </trkpt>
      <trkpt lat="47.26208" lon="-1.61568">
        <ele>29</ele>
        <time>2019-09-30T12:56:55.000Z</time>
      </trkpt>
      <trkpt lat="47.26206" lon="-1.61569">
        <ele>29</ele>
        <time>2019-09-30T12:56:56.000Z</time>
      </trkpt>
      <trkpt lat="47.26203" lon="-1.6157">
        <ele>29</ele>
        <time>2019-09-30T12:56:57.000Z</time>
      </trkpt>
      <trkpt lat="47.262" lon="-1.61572">
        <ele>29</ele>
        <time>2019-09-30T12:56:58.000Z</time>
      </trkpt>
      <trkpt lat="47.26198" lon="-1.61574">
        <ele>30</ele>
        <time>2019-09-30T12:56:59.000Z</time>
      </trkpt>
      <trkpt lat="47.26195" lon="-1.61576">
        <ele>30</ele>
        <time>2019-09-30T12:57:00.000Z</time>
      </trkpt>
      <trkpt lat="47.26193" lon="-1.61579">
        <ele>30</ele>
        <time>2019-09-30T12:57:01.000Z</time>
      </trkpt>
      <trkpt lat="47.26191" lon="-1.61582">
        <ele>30</ele>
        <time>2019-09-30T12:57:02.000Z</time>
      </trkpt>
      <trkpt lat="47.2619" lon="-1.61586">
        <ele>31</ele>
        <time>2019-09-30T12:57:03.000Z</time>
      </trkpt>
      <trkpt lat="47.26189" lon="-1.61589">
        <ele>31</ele>
        <time>2019-09-30T12:57:04.000Z</time>
      </trkpt>
      <trkpt lat="47.26187" lon="-1.61591">
        <ele>31</ele>
        <time>2019-09-30T12:57:05.000Z</time>
      </trkpt>
      <trkpt lat="47.26185" lon="-1.61594">
        <ele>31</ele>
        <time>2019-09-30T12:57:06.000Z</time>
      </trkpt>
      <trkpt lat="47.26184" lon="-1.61597">
        <ele>31</ele>
        <time>2019-09-30T12:57:07.000Z</time>
      </trkpt>
      <trkpt lat="47.26182" lon="-1.616">
        <ele>31</ele>
        <time>2019-09-30T12:57:08.000Z</time>
      </trkpt>
      <trkpt lat="47.26181" lon="-1.61603">
        <ele>32</ele>
        <time>2019-09-30T12:57:09.000Z</time>
      </trkpt>
      <trkpt lat="47.26179" lon="-1.61607">
        <ele>32</ele>
        <time>2019-09-30T12:57:10.000Z</time>
      </trkpt>
      <trkpt lat="47.26178" lon="-1.6161">
        <ele>32</ele>
        <time>2019-09-30T12:57:11.000Z</time>
      </trkpt>
      <trkpt lat="47.26177" lon="-1.61613">
        <ele>32</ele>
        <time>2019-09-30T12:57:12.000Z</time>
      </trkpt>
      <trkpt lat="47.26176" lon="-1.61616">
        <ele>33</ele>
        <time>2019-09-30T12:57:13.000Z</time>
      </trkpt>
      <trkpt lat="47.26174" lon="-1.61619">
        <ele>33</ele>
        <time>2019-09-30T12:57:14.000Z</time>
      </trkpt>
      <trkpt lat="47.26173" lon="-1.61623">
        <ele>33</ele>
        <time>2019-09-30T12:57:15.000Z</time>
      </trkpt>
      <trkpt lat="47.26172" lon="-1.61626">
        <ele>33</ele>
        <time>2019-09-30T12:57:16.000Z</time>
      </trkpt>
      <trkpt lat="47.2617" lon="-1.6163">
        <ele>34</ele>
        <time>2019-09-30T12:57:17.000Z</time>
      </trkpt>
      <trkpt lat="47.26169" lon="-1.61634">
        <ele>34</ele>
        <time>2019-09-30T12:57:18.000Z</time>
      </trkpt>
      <trkpt lat="47.26168" lon="-1.61639">
        <ele>34</ele>
        <time>2019-09-30T12:57:19.000Z</time>
      </trkpt>
      <trkpt lat="47.26166" lon="-1.61643">
        <ele>35</ele>
        <time>2019-09-30T12:57:20.000Z</time>
      </trkpt>
      <trkpt lat="47.26165" lon="-1.61648">
        <ele>35</ele>
        <time>2019-09-30T12:57:21.000Z</time>
      </trkpt>
      <trkpt lat="47.26165" lon="-1.61653">
        <ele>35</ele>
        <time>2019-09-30T12:57:22.000Z</time>
      </trkpt>
      <trkpt lat="47.26163" lon="-1.61658">
        <ele>35</ele>
        <time>2019-09-30T12:57:23.000Z</time>
      </trkpt>
      <trkpt lat="47.26163" lon="-1.61662">
        <ele>36</ele>
        <time>2019-09-30T12:57:24.000Z</time>
      </trkpt>
      <trkpt lat="47.26163" lon="-1.61666">
        <ele>36</ele>
        <time>2019-09-30T12:57:25.000Z</time>
      </trkpt>
      <trkpt lat="47.26163" lon="-1.61669">
        <ele>36</ele>
        <time>2019-09-30T12:57:26.000Z</time>
      </trkpt>
      <trkpt lat="47.26164" lon="-1.61672">
        <ele>36</ele>
        <time>2019-09-30T12:57:27.000Z</time>
      </trkpt>
      <trkpt lat="47.26164" lon="-1.61676">
        <ele>36</ele>
        <time>2019-09-30T12:57:28.000Z</time>
      </trkpt>
      <trkpt lat="47.26163" lon="-1.61679">
        <ele>36</ele>
        <time>2019-09-30T12:57:29.000Z</time>
      </trkpt>
      <trkpt lat="47.26163" lon="-1.61683">
        <ele>37</ele>
        <time>2019-09-30T12:57:30.000Z</time>
      </trkpt>
      <trkpt lat="47.26163" lon="-1.61687">
        <ele>37</ele>
        <time>2019-09-30T12:57:31.000Z</time>
      </trkpt>
      <trkpt lat="47.26163" lon="-1.61691">
        <ele>37</ele>
        <time>2019-09-30T12:57:32.000Z</time>
      </trkpt>
      <trkpt lat="47.26164" lon="-1.61694">
        <ele>37</ele>
        <time>2019-09-30T12:57:33.000Z</time>
      </trkpt>
      <trkpt lat="47.26165" lon="-1.61697">
        <ele>37</ele>
        <time>2019-09-30T12:57:34.000Z</time>
      </trkpt>
      <trkpt lat="47.26166" lon="-1.61699">
        <ele>37</ele>
        <time>2019-09-30T12:57:35.000Z</time>
      </trkpt>
      <trkpt lat="47.26167" lon="-1.61702">
        <ele>37</ele>
        <time>2019-09-30T12:57:36.000Z</time>
      </trkpt>
      <trkpt lat="47.26168" lon="-1.61705">
        <ele>37</ele>
        <time>2019-09-30T12:57:37.000Z</time>
      </trkpt>
      <trkpt lat="47.26168" lon="-1.61707">
        <ele>37</ele>
        <time>2019-09-30T12:57:38.000Z</time>
      </trkpt>
      <trkpt lat="47.26167" lon="-1.6171">
        <ele>38</ele>
        <time>2019-09-30T12:57:39.000Z</time>
      </trkpt>
      <trkpt lat="47.26166" lon="-1.61714">
        <ele>38</ele>
        <time>2019-09-30T12:57:40.000Z</time>
      </trkpt>
      <trkpt lat="47.26166" lon="-1.61716">
        <ele>38</ele>
        <time>2019-09-30T12:57:41.000Z</time>
      </trkpt>
      <trkpt lat="47.26165" lon="-1.61719">
        <ele>39</ele>
        <time>2019-09-30T12:57:42.000Z</time>
      </trkpt>
      <trkpt lat="47.26165" lon="-1.61722">
        <ele>39</ele>
        <time>2019-09-30T12:57:43.000Z</time>
      </trkpt>
      <trkpt lat="47.26164" lon="-1.61725">
        <ele>39</ele>
        <time>2019-09-30T12:57:44.000Z</time>
      </trkpt>
      <trkpt lat="47.26162" lon="-1.61728">
        <ele>40</ele>
        <time>2019-09-30T12:57:45.000Z</time>
      </trkpt>
      <trkpt lat="47.2616" lon="-1.6173">
        <ele>40</ele>
        <time>2019-09-30T12:57:46.000Z</time>
      </trkpt>
      <trkpt lat="47.26157" lon="-1.61733">
        <ele>40</ele>
        <time>2019-09-30T12:57:47.000Z</time>
      </trkpt>
      <trkpt lat="47.26155" lon="-1.61734">
        <ele>40</ele>
        <time>2019-09-30T12:57:48.000Z</time>
      </trkpt>
      <trkpt lat="47.26154" lon="-1.61734">
        <ele>41</ele>
        <time>2019-09-30T12:57:49.000Z</time>
      </trkpt>
      <trkpt lat="47.26152" lon="-1.61734">
        <ele>41</ele>
        <time>2019-09-30T12:57:50.000Z</time>
      </trkpt>
      <trkpt lat="47.2615" lon="-1.61734">
        <ele>41</ele>
        <time>2019-09-30T12:57:51.000Z</time>
      </trkpt>
      <trkpt lat="47.26148" lon="-1.61734">
        <ele>41</ele>
        <time>2019-09-30T12:57:52.000Z</time>
      </trkpt>
      <trkpt lat="47.26148" lon="-1.61733">
        <ele>42</ele>
        <time>2019-09-30T12:57:53.000Z</time>
      </trkpt>
      <trkpt lat="47.26148" lon="-1.61731">
        <ele>42</ele>
        <time>2019-09-30T12:57:54.000Z</time>
      </trkpt>
      <trkpt lat="47.26149" lon="-1.61728">
        <ele>42</ele>
        <time>2019-09-30T12:57:55.000Z</time>
      </trkpt>
      <trkpt lat="47.2615" lon="-1.61726">
        <ele>42</ele>
        <time>2019-09-30T12:57:56.000Z</time>
      </trkpt>
      <trkpt lat="47.2615" lon="-1.61725">
        <ele>42</ele>
        <time>2019-09-30T12:57:57.000Z</time>
      </trkpt>
      <trkpt lat="47.2615" lon="-1.61723">
        <ele>43</ele>
        <time>2019-09-30T12:57:58.000Z</time>
      </trkpt>
      <trkpt lat="47.2615" lon="-1.61721">
        <ele>43</ele>
        <time>2019-09-30T12:57:59.000Z</time>
      </trkpt>
      <trkpt lat="47.26151" lon="-1.61719">
        <ele>43</ele>
        <time>2019-09-30T12:58:00.000Z</time>
      </trkpt>
      <trkpt lat="47.26151" lon="-1.61717">
        <ele>43</ele>
        <time>2019-09-30T12:58:01.000Z</time>
      </trkpt>
      <trkpt lat="47.26152" lon="-1.61713">
        <ele>44</ele>
        <time>2019-09-30T12:58:02.000Z</time>
      </trkpt>
      <trkpt lat="47.26152" lon="-1.61709">
        <ele>44</ele>
        <time>2019-09-30T12:58:03.000Z</time>
      </trkpt>
      <trkpt lat="47.26153" lon="-1.61704">
        <ele>44</ele>
        <time>2019-09-30T12:58:04.000Z</time>
      </trkpt>
      <trkpt lat="47.26153" lon="-1.617">
        <ele>44</ele>
        <time>2019-09-30T12:58:05.000Z</time>
      </trkpt>
      <trkpt lat="47.26153" lon="-1.61696">
        <ele>44</ele>
        <time>2019-09-30T12:58:06.000Z</time>
      </trkpt>
      <trkpt lat="47.26154" lon="-1.61691">
        <ele>44</ele>
        <time>2019-09-30T12:58:07.000Z</time>
      </trkpt>
      <trkpt lat="47.26155" lon="-1.61685">
        <ele>44</ele>
        <time>2019-09-30T12:58:08.000Z</time>
      </trkpt>
      <trkpt lat="47.26156" lon="-1.61679">
        <ele>44</ele>
        <time>2019-09-30T12:58:09.000Z</time>
      </trkpt>
      <trkpt lat="47.26158" lon="-1.61674">
        <ele>44</ele>
        <time>2019-09-30T12:58:10.000Z</time>
      </trkpt>
      <trkpt lat="47.26159" lon="-1.61668">
        <ele>44</ele>
        <time>2019-09-30T12:58:11.000Z</time>
      </trkpt>
      <trkpt lat="47.26161" lon="-1.61662">
        <ele>44</ele>
        <time>2019-09-30T12:58:12.000Z</time>
      </trkpt>
      <trkpt lat="47.26162" lon="-1.61655">
        <ele>44</ele>
        <time>2019-09-30T12:58:13.000Z</time>
      </trkpt>
      <trkpt lat="47.26164" lon="-1.61648">
        <ele>43</ele>
        <time>2019-09-30T12:58:14.000Z</time>
      </trkpt>
      <trkpt lat="47.26165" lon="-1.61642">
        <ele>43</ele>
        <time>2019-09-30T12:58:15.000Z</time>
      </trkpt>
      <trkpt lat="47.26167" lon="-1.61636">
        <ele>43</ele>
        <time>2019-09-30T12:58:16.000Z</time>
      </trkpt>
      <trkpt lat="47.26169" lon="-1.61631">
        <ele>43</ele>
        <time>2019-09-30T12:58:17.000Z</time>
      </trkpt>
      <trkpt lat="47.26171" lon="-1.61627">
        <ele>43</ele>
        <time>2019-09-30T12:58:18.000Z</time>
      </trkpt>
      <trkpt lat="47.26173" lon="-1.61623">
        <ele>43</ele>
        <time>2019-09-30T12:58:19.000Z</time>
      </trkpt>
      <trkpt lat="47.26176" lon="-1.61618">
        <ele>43</ele>
        <time>2019-09-30T12:58:20.000Z</time>
      </trkpt>
      <trkpt lat="47.26178" lon="-1.61612">
        <ele>43</ele>
        <time>2019-09-30T12:58:21.000Z</time>
      </trkpt>
      <trkpt lat="47.2618" lon="-1.61606">
        <ele>43</ele>
        <time>2019-09-30T12:58:22.000Z</time>
      </trkpt>
      <trkpt lat="47.26183" lon="-1.61602">
        <ele>43</ele>
        <time>2019-09-30T12:58:23.000Z</time>
      </trkpt>
      <trkpt lat="47.26187" lon="-1.61597">
        <ele>43</ele>
        <time>2019-09-30T12:58:24.000Z</time>
      </trkpt>
      <trkpt lat="47.2619" lon="-1.61592">
        <ele>43</ele>
        <time>2019-09-30T12:58:25.000Z</time>
      </trkpt>
      <trkpt lat="47.26194" lon="-1.61586">
        <ele>43</ele>
        <time>2019-09-30T12:58:26.000Z</time>
      </trkpt>
      <trkpt lat="47.26199" lon="-1.6158">
        <ele>43</ele>
        <time>2019-09-30T12:58:27.000Z</time>
      </trkpt>
      <trkpt lat="47.26203" lon="-1.61575">
        <ele>43</ele>
        <time>2019-09-30T12:58:28.000Z</time>
      </trkpt>
      <trkpt lat="47.26206" lon="-1.61569">
        <ele>43</ele>
        <time>2019-09-30T12:58:29.000Z</time>
      </trkpt>
      <trkpt lat="47.2621" lon="-1.61562">
        <ele>42</ele>
        <time>2019-09-30T12:58:30.000Z</time>
      </trkpt>
      <trkpt lat="47.26213" lon="-1.61556">
        <ele>42</ele>
        <time>2019-09-30T12:58:31.000Z</time>
      </trkpt>
      <trkpt lat="47.26215" lon="-1.61551">
        <ele>42</ele>
        <time>2019-09-30T12:58:32.000Z</time>
      </trkpt>
      <trkpt lat="47.26218" lon="-1.61546">
        <ele>42</ele>
        <time>2019-09-30T12:58:33.000Z</time>
      </trkpt>
      <trkpt lat="47.26222" lon="-1.6154">
        <ele>42</ele>
        <time>2019-09-30T12:58:34.000Z</time>
      </trkpt>
      <trkpt lat="47.26225" lon="-1.61535">
        <ele>41</ele>
        <time>2019-09-30T12:58:35.000Z</time>
      </trkpt>
      <trkpt lat="47.26228" lon="-1.61529">
        <ele>41</ele>
        <time>2019-09-30T12:58:36.000Z</time>
      </trkpt>
      <trkpt lat="47.26231" lon="-1.61522">
        <ele>41</ele>
        <time>2019-09-30T12:58:37.000Z</time>
      </trkpt>
      <trkpt lat="47.26233" lon="-1.61515">
        <ele>41</ele>
        <time>2019-09-30T12:58:38.000Z</time>
      </trkpt>
      <trkpt lat="47.26235" lon="-1.61509">
        <ele>40</ele>
        <time>2019-09-30T12:58:39.000Z</time>
      </trkpt>
      <trkpt lat="47.26238" lon="-1.61502">
        <ele>40</ele>
        <time>2019-09-30T12:58:40.000Z</time>
      </trkpt>
      <trkpt lat="47.26239" lon="-1.61497">
        <ele>39</ele>
        <time>2019-09-30T12:58:41.000Z</time>
      </trkpt>
      <trkpt lat="47.2624" lon="-1.6149">
        <ele>39</ele>
        <time>2019-09-30T12:58:42.000Z</time>
      </trkpt>
      <trkpt lat="47.26241" lon="-1.61484">
        <ele>38</ele>
        <time>2019-09-30T12:58:43.000Z</time>
      </trkpt>
      <trkpt lat="47.26242" lon="-1.61478">
        <ele>38</ele>
        <time>2019-09-30T12:58:44.000Z</time>
      </trkpt>
      <trkpt lat="47.26243" lon="-1.61471">
        <ele>37</ele>
        <time>2019-09-30T12:58:45.000Z</time>
      </trkpt>
      <trkpt lat="47.26244" lon="-1.61464">
        <ele>37</ele>
        <time>2019-09-30T12:58:46.000Z</time>
      </trkpt>
      <trkpt lat="47.26245" lon="-1.61457">
        <ele>37</ele>
        <time>2019-09-30T12:58:47.000Z</time>
      </trkpt>
      <trkpt lat="47.26245" lon="-1.6145">
        <ele>37</ele>
        <time>2019-09-30T12:58:48.000Z</time>
      </trkpt>
      <trkpt lat="47.26246" lon="-1.61443">
        <ele>36</ele>
        <time>2019-09-30T12:58:49.000Z</time>
      </trkpt>
      <trkpt lat="47.26247" lon="-1.61436">
        <ele>36</ele>
        <time>2019-09-30T12:58:50.000Z</time>
      </trkpt>
      <trkpt lat="47.26247" lon="-1.61429">
        <ele>36</ele>
        <time>2019-09-30T12:58:51.000Z</time>
      </trkpt>
      <trkpt lat="47.26246" lon="-1.61422">
        <ele>36</ele>
        <time>2019-09-30T12:58:52.000Z</time>
      </trkpt>
      <trkpt lat="47.26246" lon="-1.61416">
        <ele>36</ele>
        <time>2019-09-30T12:58:53.000Z</time>
      </trkpt>
      <trkpt lat="47.26246" lon="-1.6141">
        <ele>36</ele>
        <time>2019-09-30T12:58:54.000Z</time>
      </trkpt>
      <trkpt lat="47.26246" lon="-1.61404">
        <ele>35</ele>
        <time>2019-09-30T12:58:55.000Z</time>
      </trkpt>
      <trkpt lat="47.26245" lon="-1.614">
        <ele>35</ele>
        <time>2019-09-30T12:58:56.000Z</time>
      </trkpt>
      <trkpt lat="47.26244" lon="-1.61398">
        <ele>35</ele>
        <time>2019-09-30T12:58:57.000Z</time>
      </trkpt>
      <trkpt lat="47.26243" lon="-1.61396">
        <ele>35</ele>
        <time>2019-09-30T12:58:58.000Z</time>
      </trkpt>
      <trkpt lat="47.26243" lon="-1.61394">
        <ele>35</ele>
        <time>2019-09-30T12:58:59.000Z</time>
      </trkpt>
      <trkpt lat="47.26241" lon="-1.61392">
        <ele>34</ele>
        <time>2019-09-30T12:59:00.000Z</time>
      </trkpt>
      <trkpt lat="47.2624" lon="-1.61391">
        <ele>34</ele>
        <time>2019-09-30T12:59:01.000Z</time>
      </trkpt>
      <trkpt lat="47.26238" lon="-1.6139">
        <ele>34</ele>
        <time>2019-09-30T12:59:02.000Z</time>
      </trkpt>
      <trkpt lat="47.26236" lon="-1.61391">
        <ele>34</ele>
        <time>2019-09-30T12:59:03.000Z</time>
      </trkpt>
      <trkpt lat="47.26234" lon="-1.61392">
        <ele>34</ele>
        <time>2019-09-30T12:59:04.000Z</time>
      </trkpt>
      <trkpt lat="47.26232" lon="-1.61392">
        <ele>34</ele>
        <time>2019-09-30T12:59:05.000Z</time>
      </trkpt>
      <trkpt lat="47.26231" lon="-1.61393">
        <ele>34</ele>
        <time>2019-09-30T12:59:06.000Z</time>
      </trkpt>
      <trkpt lat="47.26229" lon="-1.61393">
        <ele>34</ele>
        <time>2019-09-30T12:59:07.000Z</time>
      </trkpt>
      <trkpt lat="47.26228" lon="-1.61394">
        <ele>33</ele>
        <time>2019-09-30T12:59:08.000Z</time>
      </trkpt>
      <trkpt lat="47.26226" lon="-1.61394">
        <ele>33</ele>
        <time>2019-09-30T12:59:09.000Z</time>
      </trkpt>
      <trkpt lat="47.26224" lon="-1.61395">
        <ele>33</ele>
        <time>2019-09-30T12:59:10.000Z</time>
      </trkpt>
      <trkpt lat="47.26223" lon="-1.61396">
        <ele>33</ele>
        <time>2019-09-30T12:59:11.000Z</time>
      </trkpt>
      <trkpt lat="47.26223" lon="-1.61399">
        <ele>33</ele>
        <time>2019-09-30T12:59:12.000Z</time>
      </trkpt>
      <trkpt lat="47.26223" lon="-1.61401">
        <ele>33</ele>
        <time>2019-09-30T12:59:13.000Z</time>
      </trkpt>
      <trkpt lat="47.26222" lon="-1.61402">
        <ele>33</ele>
        <time>2019-09-30T12:59:14.000Z</time>
      </trkpt>
      <trkpt lat="47.26222" lon="-1.61403">
        <ele>33</ele>
        <time>2019-09-30T12:59:15.000Z</time>
      </trkpt>
      <trkpt lat="47.26221" lon="-1.61404">
        <ele>33</ele>
        <time>2019-09-30T12:59:16.000Z</time>
      </trkpt>
      <trkpt lat="47.2622" lon="-1.61405">
        <ele>33</ele>
        <time>2019-09-30T12:59:17.000Z</time>
      </trkpt>
      <trkpt lat="47.26219" lon="-1.61405">
        <ele>33</ele>
        <time>2019-09-30T12:59:18.000Z</time>
      </trkpt>
      <trkpt lat="47.26218" lon="-1.61406">
        <ele>33</ele>
        <time>2019-09-30T12:59:19.000Z</time>
      </trkpt>
      <trkpt lat="47.26217" lon="-1.61406">
        <ele>33</ele>
        <time>2019-09-30T12:59:20.000Z</time>
      </trkpt>
      <trkpt lat="47.26216" lon="-1.61407">
        <ele>33</ele>
        <time>2019-09-30T12:59:21.000Z</time>
      </trkpt>
      <trkpt lat="47.26216" lon="-1.61407">
        <ele>33</ele>
        <time>2019-09-30T12:59:22.000Z</time>
      </trkpt>
      <trkpt lat="47.26216" lon="-1.61408">
        <ele>33</ele>
        <time>2019-09-30T12:59:23.000Z</time>
      </trkpt>
      <trkpt lat="47.26209" lon="-1.61421">
        <ele>35</ele>
        <time>2019-09-30T12:59:24.000Z</time>
      </trkpt>
      <trkpt lat="47.26209" lon="-1.61424">
        <ele>35</ele>
        <time>2019-09-30T12:59:25.000Z</time>
      </trkpt>
      <trkpt lat="47.26209" lon="-1.61427">
        <ele>35</ele>
        <time>2019-09-30T12:59:26.000Z</time>
      </trkpt>
      <trkpt lat="47.26209" lon="-1.6143">
        <ele>36</ele>
        <time>2019-09-30T12:59:27.000Z</time>
      </trkpt>
      <trkpt lat="47.2621" lon="-1.61433">
        <ele>36</ele>
        <time>2019-09-30T12:59:28.000Z</time>
      </trkpt>
      <trkpt lat="47.2621" lon="-1.61435">
        <ele>36</ele>
        <time>2019-09-30T12:59:29.000Z</time>
      </trkpt>
      <trkpt lat="47.26209" lon="-1.61438">
        <ele>36</ele>
        <time>2019-09-30T12:59:30.000Z</time>
      </trkpt>
      <trkpt lat="47.26208" lon="-1.6144">
        <ele>36</ele>
        <time>2019-09-30T12:59:31.000Z</time>
      </trkpt>
      <trkpt lat="47.26206" lon="-1.61442">
        <ele>36</ele>
        <time>2019-09-30T12:59:32.000Z</time>
      </trkpt>
      <trkpt lat="47.26205" lon="-1.61444">
        <ele>36</ele>
        <time>2019-09-30T12:59:33.000Z</time>
      </trkpt>
      <trkpt lat="47.26205" lon="-1.61448">
        <ele>36</ele>
        <time>2019-09-30T12:59:34.000Z</time>
      </trkpt>
      <trkpt lat="47.26205" lon="-1.61451">
        <ele>36</ele>
        <time>2019-09-30T12:59:35.000Z</time>
      </trkpt>
      <trkpt lat="47.26205" lon="-1.61455">
        <ele>37</ele>
        <time>2019-09-30T12:59:36.000Z</time>
      </trkpt>
      <trkpt lat="47.26205" lon="-1.61458">
        <ele>37</ele>
        <time>2019-09-30T12:59:37.000Z</time>
      </trkpt>
      <trkpt lat="47.26205" lon="-1.61462">
        <ele>37</ele>
        <time>2019-09-30T12:59:38.000Z</time>
      </trkpt>
      <trkpt lat="47.26205" lon="-1.61466">
        <ele>37</ele>
        <time>2019-09-30T12:59:39.000Z</time>
      </trkpt>
      <trkpt lat="47.26204" lon="-1.6147">
        <ele>37</ele>
        <time>2019-09-30T12:59:40.000Z</time>
      </trkpt>
      <trkpt lat="47.26204" lon="-1.61474">
        <ele>37</ele>
        <time>2019-09-30T12:59:41.000Z</time>
      </trkpt>
      <trkpt lat="47.26204" lon="-1.61477">
        <ele>37</ele>
        <time>2019-09-30T12:59:42.000Z</time>
      </trkpt>
      <trkpt lat="47.26204" lon="-1.6148">
        <ele>37</ele>
        <time>2019-09-30T12:59:43.000Z</time>
      </trkpt>
      <trkpt lat="47.26202" lon="-1.61483">
        <ele>37</ele>
        <time>2019-09-30T12:59:44.000Z</time>
      </trkpt>
      <trkpt lat="47.262" lon="-1.61484">
        <ele>38</ele>
        <time>2019-09-30T12:59:45.000Z</time>
      </trkpt>
      <trkpt lat="47.26198" lon="-1.61485">
        <ele>38</ele>
        <time>2019-09-30T12:59:46.000Z</time>
      </trkpt>
      <trkpt lat="47.26197" lon="-1.61486">
        <ele>38</ele>
        <time>2019-09-30T12:59:47.000Z</time>
      </trkpt>
      <trkpt lat="47.26195" lon="-1.61488">
        <ele>38</ele>
        <time>2019-09-30T12:59:48.000Z</time>
      </trkpt>
      <trkpt lat="47.26195" lon="-1.6149">
        <ele>38</ele>
        <time>2019-09-30T12:59:49.000Z</time>
      </trkpt>
      <trkpt lat="47.26193" lon="-1.61493">
        <ele>39</ele>
        <time>2019-09-30T12:59:50.000Z</time>
      </trkpt>
      <trkpt lat="47.26192" lon="-1.61496">
        <ele>39</ele>
        <time>2019-09-30T12:59:51.000Z</time>
      </trkpt>
      <trkpt lat="47.26192" lon="-1.61499">
        <ele>39</ele>
        <time>2019-09-30T12:59:52.000Z</time>
      </trkpt>
      <trkpt lat="47.2619" lon="-1.61502">
        <ele>39</ele>
        <time>2019-09-30T12:59:53.000Z</time>
      </trkpt>
      <trkpt lat="47.26189" lon="-1.61505">
        <ele>39</ele>
        <time>2019-09-30T12:59:54.000Z</time>
      </trkpt>
      <trkpt lat="47.26188" lon="-1.61508">
        <ele>39</ele>
        <time>2019-09-30T12:59:55.000Z</time>
      </trkpt>
      <trkpt lat="47.26185" lon="-1.61509">
        <ele>40</ele>
        <time>2019-09-30T12:59:56.000Z</time>
      </trkpt>
      <trkpt lat="47.26184" lon="-1.6151">
        <ele>40</ele>
        <time>2019-09-30T12:59:57.000Z</time>
      </trkpt>
      <trkpt lat="47.26183" lon="-1.61511">
        <ele>40</ele>
        <time>2019-09-30T12:59:58.000Z</time>
      </trkpt>
      <trkpt lat="47.26181" lon="-1.61513">
        <ele>40</ele>
        <time>2019-09-30T12:59:59.000Z</time>
      </trkpt>
      <trkpt lat="47.26179" lon="-1.61514">
        <ele>40</ele>
        <time>2019-09-30T13:00:00.000Z</time>
      </trkpt>
      <trkpt lat="47.26177" lon="-1.61515">
        <ele>40</ele>
        <time>2019-09-30T13:00:01.000Z</time>
      </trkpt>
      <trkpt lat="47.26176" lon="-1.61517">
        <ele>40</ele>
        <time>2019-09-30T13:00:02.000Z</time>
      </trkpt>
      <trkpt lat="47.26176" lon="-1.61519">
        <ele>40</ele>
        <time>2019-09-30T13:00:03.000Z</time>
      </trkpt>
      <trkpt lat="47.26178" lon="-1.6152">
        <ele>40</ele>
        <time>2019-09-30T13:00:04.000Z</time>
      </trkpt>
      <trkpt lat="47.26179" lon="-1.61522">
        <ele>40</ele>
        <time>2019-09-30T13:00:05.000Z</time>
      </trkpt>
      <trkpt lat="47.26179" lon="-1.61525">
        <ele>40</ele>
        <time>2019-09-30T13:00:06.000Z</time>
      </trkpt>
      <trkpt lat="47.2618" lon="-1.61529">
        <ele>40</ele>
        <time>2019-09-30T13:00:07.000Z</time>
      </trkpt>
      <trkpt lat="47.26179" lon="-1.61532">
        <ele>40</ele>
        <time>2019-09-30T13:00:08.000Z</time>
      </trkpt>
      <trkpt lat="47.26176" lon="-1.61535">
        <ele>40</ele>
        <time>2019-09-30T13:00:09.000Z</time>
      </trkpt>
      <trkpt lat="47.26174" lon="-1.61537">
        <ele>40</ele>
        <time>2019-09-30T13:00:10.000Z</time>
      </trkpt>
      <trkpt lat="47.26172" lon="-1.6154">
        <ele>40</ele>
        <time>2019-09-30T13:00:11.000Z</time>
      </trkpt>
      <trkpt lat="47.2617" lon="-1.61542">
        <ele>40</ele>
        <time>2019-09-30T13:00:12.000Z</time>
      </trkpt>
      <trkpt lat="47.26169" lon="-1.61543">
        <ele>40</ele>
        <time>2019-09-30T13:00:13.000Z</time>
      </trkpt>
      <trkpt lat="47.26167" lon="-1.61546">
        <ele>40</ele>
        <time>2019-09-30T13:00:14.000Z</time>
      </trkpt>
      <trkpt lat="47.26167" lon="-1.61549">
        <ele>40</ele>
        <time>2019-09-30T13:00:15.000Z</time>
      </trkpt>
      <trkpt lat="47.26165" lon="-1.61553">
        <ele>40</ele>
        <time>2019-09-30T13:00:16.000Z</time>
      </trkpt>
      <trkpt lat="47.26164" lon="-1.61555">
        <ele>40</ele>
        <time>2019-09-30T13:00:17.000Z</time>
      </trkpt>
      <trkpt lat="47.26162" lon="-1.61557">
        <ele>41</ele>
        <time>2019-09-30T13:00:18.000Z</time>
      </trkpt>
      <trkpt lat="47.26161" lon="-1.61558">
        <ele>41</ele>
        <time>2019-09-30T13:00:19.000Z</time>
      </trkpt>
      <trkpt lat="47.26159" lon="-1.61561">
        <ele>41</ele>
        <time>2019-09-30T13:00:20.000Z</time>
      </trkpt>
      <trkpt lat="47.26157" lon="-1.61563">
        <ele>41</ele>
        <time>2019-09-30T13:00:21.000Z</time>
      </trkpt>
      <trkpt lat="47.26155" lon="-1.61565">
        <ele>41</ele>
        <time>2019-09-30T13:00:22.000Z</time>
      </trkpt>
      <trkpt lat="47.26153" lon="-1.61568">
        <ele>41</ele>
        <time>2019-09-30T13:00:23.000Z</time>
      </trkpt>
      <trkpt lat="47.26151" lon="-1.61571">
        <ele>41</ele>
        <time>2019-09-30T13:00:24.000Z</time>
      </trkpt>
      <trkpt lat="47.26149" lon="-1.61574">
        <ele>41</ele>
        <time>2019-09-30T13:00:25.000Z</time>
      </trkpt>
      <trkpt lat="47.26147" lon="-1.61576">
        <ele>41</ele>
        <time>2019-09-30T13:00:26.000Z</time>
      </trkpt>
      <trkpt lat="47.26145" lon="-1.61578">
        <ele>41</ele>
        <time>2019-09-30T13:00:27.000Z</time>
      </trkpt>
      <trkpt lat="47.26143" lon="-1.6158">
        <ele>41</ele>
        <time>2019-09-30T13:00:28.000Z</time>
      </trkpt>
      <trkpt lat="47.26141" lon="-1.61582">
        <ele>41</ele>
        <time>2019-09-30T13:00:29.000Z</time>
      </trkpt>
      <trkpt lat="47.26141" lon="-1.61585">
        <ele>41</ele>
        <time>2019-09-30T13:00:30.000Z</time>
      </trkpt>
      <trkpt lat="47.26141" lon="-1.61587">
        <ele>41</ele>
        <time>2019-09-30T13:00:31.000Z</time>
      </trkpt>
      <trkpt lat="47.26141" lon="-1.6159">
        <ele>41</ele>
        <time>2019-09-30T13:00:32.000Z</time>
      </trkpt>
      <trkpt lat="47.26141" lon="-1.61591">
        <ele>41</ele>
        <time>2019-09-30T13:00:33.000Z</time>
      </trkpt>
      <trkpt lat="47.26141" lon="-1.61593">
        <ele>41</ele>
        <time>2019-09-30T13:00:34.000Z</time>
      </trkpt>
      <trkpt lat="47.2614" lon="-1.61594">
        <ele>41</ele>
        <time>2019-09-30T13:00:35.000Z</time>
      </trkpt>
      <trkpt lat="47.2614" lon="-1.61595">
        <ele>41</ele>
        <time>2019-09-30T13:00:36.000Z</time>
      </trkpt>
      <trkpt lat="47.26141" lon="-1.61596">
        <ele>41</ele>
        <time>2019-09-30T13:00:37.000Z</time>
      </trkpt>
      <trkpt lat="47.26141" lon="-1.61597">
        <ele>41</ele>
        <time>2019-09-30T13:00:38.000Z</time>
      </trkpt>
      <trkpt lat="47.26141" lon="-1.61598">
        <ele>41</ele>
        <time>2019-09-30T13:00:39.000Z</time>
      </trkpt>
      <trkpt lat="47.26141" lon="-1.616">
        <ele>41</ele>
        <time>2019-09-30T13:00:40.000Z</time>
      </trkpt>
      <trkpt lat="47.26141" lon="-1.61601">
        <ele>41</ele>
        <time>2019-09-30T13:00:41.000Z</time>
      </trkpt>
      <trkpt lat="47.26141" lon="-1.61603">
        <ele>40</ele>
        <time>2019-09-30T13:00:42.000Z</time>
      </trkpt>
      <trkpt lat="47.26141" lon="-1.61603">
        <ele>40</ele>
        <time>2019-09-30T13:00:43.000Z</time>
      </trkpt>
      <trkpt lat="47.26141" lon="-1.61604">
        <ele>40</ele>
        <time>2019-09-30T13:00:44.000Z</time>
      </trkpt>
      <trkpt lat="47.26141" lon="-1.61605">
        <ele>40</ele>
        <time>2019-09-30T13:00:45.000Z</time>
      </trkpt>
      <trkpt lat="47.26141" lon="-1.61606">
        <ele>40</ele>
        <time>2019-09-30T13:00:46.000Z</time>
      </trkpt>
      <trkpt lat="47.26142" lon="-1.61608">
        <ele>40</ele>
        <time>2019-09-30T13:00:47.000Z</time>
      </trkpt>
      <trkpt lat="47.26142" lon="-1.6161">
        <ele>40</ele>
        <time>2019-09-30T13:00:48.000Z</time>
      </trkpt>
      <trkpt lat="47.26142" lon="-1.61612">
        <ele>40</ele>
        <time>2019-09-30T13:00:49.000Z</time>
      </trkpt>
      <trkpt lat="47.26142" lon="-1.61614">
        <ele>40</ele>
        <time>2019-09-30T13:00:50.000Z</time>
      </trkpt>
      <trkpt lat="47.26141" lon="-1.61616">
        <ele>40</ele>
        <time>2019-09-30T13:00:51.000Z</time>
      </trkpt>
      <trkpt lat="47.2614" lon="-1.61617">
        <ele>40</ele>
        <time>2019-09-30T13:00:52.000Z</time>
      </trkpt>
      <trkpt lat="47.26139" lon="-1.61618">
        <ele>40</ele>
        <time>2019-09-30T13:00:53.000Z</time>
      </trkpt>
      <trkpt lat="47.26139" lon="-1.61618">
        <ele>39</ele>
        <time>2019-09-30T13:00:54.000Z</time>
      </trkpt>
      <trkpt lat="47.26138" lon="-1.61618">
        <ele>39</ele>
        <time>2019-09-30T13:00:55.000Z</time>
      </trkpt>
      <trkpt lat="47.26137" lon="-1.61619">
        <ele>39</ele>
        <time>2019-09-30T13:00:56.000Z</time>
      </trkpt>
      <trkpt lat="47.26137" lon="-1.61621">
        <ele>39</ele>
        <time>2019-09-30T13:00:57.000Z</time>
      </trkpt>
      <trkpt lat="47.26138" lon="-1.61623">
        <ele>39</ele>
        <time>2019-09-30T13:00:58.000Z</time>
      </trkpt>
      <trkpt lat="47.26139" lon="-1.61626">
        <ele>39</ele>
        <time>2019-09-30T13:00:59.000Z</time>
      </trkpt>
      <trkpt lat="47.26139" lon="-1.61629">
        <ele>39</ele>
        <time>2019-09-30T13:01:00.000Z</time>
      </trkpt>
      <trkpt lat="47.26139" lon="-1.61634">
        <ele>38</ele>
        <time>2019-09-30T13:01:01.000Z</time>
      </trkpt>
      <trkpt lat="47.26139" lon="-1.61637">
        <ele>38</ele>
        <time>2019-09-30T13:01:02.000Z</time>
      </trkpt>
      <trkpt lat="47.26138" lon="-1.6164">
        <ele>38</ele>
        <time>2019-09-30T13:01:03.000Z</time>
      </trkpt>
      <trkpt lat="47.26138" lon="-1.61643">
        <ele>38</ele>
        <time>2019-09-30T13:01:04.000Z</time>
      </trkpt>
      <trkpt lat="47.26139" lon="-1.61647">
        <ele>38</ele>
        <time>2019-09-30T13:01:05.000Z</time>
      </trkpt>
      <trkpt lat="47.2614" lon="-1.61652">
        <ele>38</ele>
        <time>2019-09-30T13:01:06.000Z</time>
      </trkpt>
      <trkpt lat="47.2614" lon="-1.61656">
        <ele>38</ele>
        <time>2019-09-30T13:01:07.000Z</time>
      </trkpt>
      <trkpt lat="47.26142" lon="-1.6166">
        <ele>38</ele>
        <time>2019-09-30T13:01:08.000Z</time>
      </trkpt>
      <trkpt lat="47.26144" lon="-1.61665">
        <ele>38</ele>
        <time>2019-09-30T13:01:09.000Z</time>
      </trkpt>
      <trkpt lat="47.26145" lon="-1.61669">
        <ele>38</ele>
        <time>2019-09-30T13:01:10.000Z</time>
      </trkpt>
      <trkpt lat="47.26146" lon="-1.61673">
        <ele>38</ele>
        <time>2019-09-30T13:01:11.000Z</time>
      </trkpt>
      <trkpt lat="47.26145" lon="-1.61677">
        <ele>38</ele>
        <time>2019-09-30T13:01:12.000Z</time>
      </trkpt>
      <trkpt lat="47.26145" lon="-1.6168">
        <ele>39</ele>
        <time>2019-09-30T13:01:13.000Z</time>
      </trkpt>
      <trkpt lat="47.26145" lon="-1.61684">
        <ele>39</ele>
        <time>2019-09-30T13:01:14.000Z</time>
      </trkpt>
      <trkpt lat="47.26144" lon="-1.61686">
        <ele>39</ele>
        <time>2019-09-30T13:01:15.000Z</time>
      </trkpt>
      <trkpt lat="47.26143" lon="-1.61688">
        <ele>39</ele>
        <time>2019-09-30T13:01:16.000Z</time>
      </trkpt>
      <trkpt lat="47.26142" lon="-1.6169">
        <ele>39</ele>
        <time>2019-09-30T13:01:17.000Z</time>
      </trkpt>
      <trkpt lat="47.26142" lon="-1.61693">
        <ele>39</ele>
        <time>2019-09-30T13:01:18.000Z</time>
      </trkpt>
      <trkpt lat="47.26142" lon="-1.61696">
        <ele>39</ele>
        <time>2019-09-30T13:01:19.000Z</time>
      </trkpt>
      <trkpt lat="47.26142" lon="-1.61699">
        <ele>39</ele>
        <time>2019-09-30T13:01:20.000Z</time>
      </trkpt>
      <trkpt lat="47.26142" lon="-1.61704">
        <ele>39</ele>
        <time>2019-09-30T13:01:21.000Z</time>
      </trkpt>
      <trkpt lat="47.26142" lon="-1.61708">
        <ele>40</ele>
        <time>2019-09-30T13:01:22.000Z</time>
      </trkpt>
      <trkpt lat="47.26141" lon="-1.61711">
        <ele>40</ele>
        <time>2019-09-30T13:01:23.000Z</time>
      </trkpt>
      <trkpt lat="47.26139" lon="-1.61714">
        <ele>40</ele>
        <time>2019-09-30T13:01:24.000Z</time>
      </trkpt>
      <trkpt lat="47.26137" lon="-1.61717">
        <ele>40</ele>
        <time>2019-09-30T13:01:25.000Z</time>
      </trkpt>
      <trkpt lat="47.26136" lon="-1.61721">
        <ele>40</ele>
        <time>2019-09-30T13:01:26.000Z</time>
      </trkpt>
      <trkpt lat="47.26136" lon="-1.61724">
        <ele>40</ele>
        <time>2019-09-30T13:01:27.000Z</time>
      </trkpt>
      <trkpt lat="47.26135" lon="-1.61728">
        <ele>41</ele>
        <time>2019-09-30T13:01:28.000Z</time>
      </trkpt>
      <trkpt lat="47.26134" lon="-1.6173">
        <ele>41</ele>
        <time>2019-09-30T13:01:29.000Z</time>
      </trkpt>
      <trkpt lat="47.26133" lon="-1.61732">
        <ele>41</ele>
        <time>2019-09-30T13:01:30.000Z</time>
      </trkpt>
      <trkpt lat="47.26131" lon="-1.61734">
        <ele>41</ele>
        <time>2019-09-30T13:01:31.000Z</time>
      </trkpt>
      <trkpt lat="47.2613" lon="-1.61735">
        <ele>42</ele>
        <time>2019-09-30T13:01:32.000Z</time>
      </trkpt>
      <trkpt lat="47.26128" lon="-1.61737">
        <ele>42</ele>
        <time>2019-09-30T13:01:33.000Z</time>
      </trkpt>
      <trkpt lat="47.26127" lon="-1.61739">
        <ele>42</ele>
        <time>2019-09-30T13:01:34.000Z</time>
      </trkpt>
      <trkpt lat="47.26127" lon="-1.61742">
        <ele>42</ele>
        <time>2019-09-30T13:01:35.000Z</time>
      </trkpt>
      <trkpt lat="47.26128" lon="-1.61746">
        <ele>42</ele>
        <time>2019-09-30T13:01:36.000Z</time>
      </trkpt>
      <trkpt lat="47.26127" lon="-1.6175">
        <ele>42</ele>
        <time>2019-09-30T13:01:37.000Z</time>
      </trkpt>
      <trkpt lat="47.26126" lon="-1.61752">
        <ele>42</ele>
        <time>2019-09-30T13:01:38.000Z</time>
      </trkpt>
      <trkpt lat="47.26125" lon="-1.61755">
        <ele>42</ele>
        <time>2019-09-30T13:01:39.000Z</time>
      </trkpt>
      <trkpt lat="47.26123" lon="-1.61758">
        <ele>42</ele>
        <time>2019-09-30T13:01:40.000Z</time>
      </trkpt>
      <trkpt lat="47.26122" lon="-1.61761">
        <ele>42</ele>
        <time>2019-09-30T13:01:41.000Z</time>
      </trkpt>
      <trkpt lat="47.26121" lon="-1.61764">
        <ele>42</ele>
        <time>2019-09-30T13:01:42.000Z</time>
      </trkpt>
      <trkpt lat="47.2612" lon="-1.61767">
        <ele>42</ele>
        <time>2019-09-30T13:01:43.000Z</time>
      </trkpt>
      <trkpt lat="47.2612" lon="-1.61771">
        <ele>42</ele>
        <time>2019-09-30T13:01:44.000Z</time>
      </trkpt>
      <trkpt lat="47.2612" lon="-1.61775">
        <ele>42</ele>
        <time>2019-09-30T13:01:45.000Z</time>
      </trkpt>
      <trkpt lat="47.26121" lon="-1.6178">
        <ele>42</ele>
        <time>2019-09-30T13:01:46.000Z</time>
      </trkpt>
      <trkpt lat="47.26121" lon="-1.61785">
        <ele>43</ele>
        <time>2019-09-30T13:01:47.000Z</time>
      </trkpt>
      <trkpt lat="47.26122" lon="-1.6179">
        <ele>43</ele>
        <time>2019-09-30T13:01:48.000Z</time>
      </trkpt>
      <trkpt lat="47.26122" lon="-1.61794">
        <ele>43</ele>
        <time>2019-09-30T13:01:49.000Z</time>
      </trkpt>
      <trkpt lat="47.26122" lon="-1.61797">
        <ele>43</ele>
        <time>2019-09-30T13:01:50.000Z</time>
      </trkpt>
      <trkpt lat="47.2612" lon="-1.61799">
        <ele>43</ele>
        <time>2019-09-30T13:01:51.000Z</time>
      </trkpt>
      <trkpt lat="47.26118" lon="-1.618">
        <ele>43</ele>
        <time>2019-09-30T13:01:52.000Z</time>
      </trkpt>
      <trkpt lat="47.26117" lon="-1.61801">
        <ele>43</ele>
        <time>2019-09-30T13:01:53.000Z</time>
      </trkpt>
      <trkpt lat="47.26115" lon="-1.61802">
        <ele>43</ele>
        <time>2019-09-30T13:01:54.000Z</time>
      </trkpt>
      <trkpt lat="47.26113" lon="-1.61805">
        <ele>43</ele>
        <time>2019-09-30T13:01:55.000Z</time>
      </trkpt>
      <trkpt lat="47.26112" lon="-1.61808">
        <ele>43</ele>
        <time>2019-09-30T13:01:56.000Z</time>
      </trkpt>
      <trkpt lat="47.26111" lon="-1.61812">
        <ele>43</ele>
        <time>2019-09-30T13:01:57.000Z</time>
      </trkpt>
      <trkpt lat="47.26111" lon="-1.61816">
        <ele>43</ele>
        <time>2019-09-30T13:01:58.000Z</time>
      </trkpt>
      <trkpt lat="47.26111" lon="-1.61819">
        <ele>44</ele>
        <time>2019-09-30T13:01:59.000Z</time>
      </trkpt>
      <trkpt lat="47.26111" lon="-1.61823">
        <ele>44</ele>
        <time>2019-09-30T13:02:00.000Z</time>
      </trkpt>
      <trkpt lat="47.26112" lon="-1.61826">
        <ele>44</ele>
        <time>2019-09-30T13:02:01.000Z</time>
      </trkpt>
      <trkpt lat="47.26113" lon="-1.61828">
        <ele>44</ele>
        <time>2019-09-30T13:02:02.000Z</time>
      </trkpt>
      <trkpt lat="47.26114" lon="-1.6183">
        <ele>44</ele>
        <time>2019-09-30T13:02:03.000Z</time>
      </trkpt>
      <trkpt lat="47.26116" lon="-1.61833">
        <ele>44</ele>
        <time>2019-09-30T13:02:04.000Z</time>
      </trkpt>
      <trkpt lat="47.26117" lon="-1.61836">
        <ele>44</ele>
        <time>2019-09-30T13:02:05.000Z</time>
      </trkpt>
      <trkpt lat="47.26117" lon="-1.61839">
        <ele>44</ele>
        <time>2019-09-30T13:02:06.000Z</time>
      </trkpt>
      <trkpt lat="47.26117" lon="-1.61842">
        <ele>45</ele>
        <time>2019-09-30T13:02:07.000Z</time>
      </trkpt>
      <trkpt lat="47.26116" lon="-1.61844">
        <ele>45</ele>
        <time>2019-09-30T13:02:08.000Z</time>
      </trkpt>
      <trkpt lat="47.26115" lon="-1.61848">
        <ele>45</ele>
        <time>2019-09-30T13:02:09.000Z</time>
      </trkpt>
      <trkpt lat="47.26116" lon="-1.61851">
        <ele>45</ele>
        <time>2019-09-30T13:02:10.000Z</time>
      </trkpt>
      <trkpt lat="47.26116" lon="-1.61855">
        <ele>45</ele>
        <time>2019-09-30T13:02:11.000Z</time>
      </trkpt>
      <trkpt lat="47.26117" lon="-1.6186">
        <ele>45</ele>
        <time>2019-09-30T13:02:12.000Z</time>
      </trkpt>
      <trkpt lat="47.26118" lon="-1.61864">
        <ele>45</ele>
        <time>2019-09-30T13:02:13.000Z</time>
      </trkpt>
      <trkpt lat="47.26118" lon="-1.61867">
        <ele>45</ele>
        <time>2019-09-30T13:02:14.000Z</time>
      </trkpt>
      <trkpt lat="47.26118" lon="-1.6187">
        <ele>45</ele>
        <time>2019-09-30T13:02:15.000Z</time>
      </trkpt>
      <trkpt lat="47.26118" lon="-1.61872">
        <ele>45</ele>
        <time>2019-09-30T13:02:16.000Z</time>
      </trkpt>
      <trkpt lat="47.26117" lon="-1.61875">
        <ele>45</ele>
        <time>2019-09-30T13:02:17.000Z</time>
      </trkpt>
      <trkpt lat="47.26118" lon="-1.61877">
        <ele>45</ele>
        <time>2019-09-30T13:02:18.000Z</time>
      </trkpt>
      <trkpt lat="47.26119" lon="-1.61877">
        <ele>45</ele>
        <time>2019-09-30T13:02:19.000Z</time>
      </trkpt>
      <trkpt lat="47.2612" lon="-1.61879">
        <ele>45</ele>
        <time>2019-09-30T13:02:20.000Z</time>
      </trkpt>
      <trkpt lat="47.2612" lon="-1.61881">
        <ele>45</ele>
        <time>2019-09-30T13:02:21.000Z</time>
      </trkpt>
      <trkpt lat="47.26119" lon="-1.61883">
        <ele>45</ele>
        <time>2019-09-30T13:02:22.000Z</time>
      </trkpt>
      <trkpt lat="47.26118" lon="-1.61885">
        <ele>45</ele>
        <time>2019-09-30T13:02:23.000Z</time>
      </trkpt>
      <trkpt lat="47.26118" lon="-1.61887">
        <ele>45</ele>
        <time>2019-09-30T13:02:24.000Z</time>
      </trkpt>
      <trkpt lat="47.26118" lon="-1.61889">
        <ele>45</ele>
        <time>2019-09-30T13:02:25.000Z</time>
      </trkpt>
      <trkpt lat="47.26118" lon="-1.61891">
        <ele>45</ele>
        <time>2019-09-30T13:02:26.000Z</time>
      </trkpt>
      <trkpt lat="47.26119" lon="-1.61894">
        <ele>45</ele>
        <time>2019-09-30T13:02:27.000Z</time>
      </trkpt>
      <trkpt lat="47.26119" lon="-1.61897">
        <ele>45</ele>
        <time>2019-09-30T13:02:28.000Z</time>
      </trkpt>
      <trkpt lat="47.26119" lon="-1.619">
        <ele>45</ele>
        <time>2019-09-30T13:02:29.000Z</time>
      </trkpt>
      <trkpt lat="47.26118" lon="-1.61903">
        <ele>45</ele>
        <time>2019-09-30T13:02:30.000Z</time>
      </trkpt>
      <trkpt lat="47.26117" lon="-1.61905">
        <ele>46</ele>
        <time>2019-09-30T13:02:31.000Z</time>
      </trkpt>
      <trkpt lat="47.26116" lon="-1.61905">
        <ele>46</ele>
        <time>2019-09-30T13:02:32.000Z</time>
      </trkpt>
      <trkpt lat="47.26116" lon="-1.61905">
        <ele>46</ele>
        <time>2019-09-30T13:02:33.000Z</time>
      </trkpt>
      <trkpt lat="47.26116" lon="-1.61906">
        <ele>46</ele>
        <time>2019-09-30T13:02:34.000Z</time>
      </trkpt>
      <trkpt lat="47.26116" lon="-1.61907">
        <ele>46</ele>
        <time>2019-09-30T13:02:35.000Z</time>
      </trkpt>
      <trkpt lat="47.26116" lon="-1.61908">
        <ele>46</ele>
        <time>2019-09-30T13:02:36.000Z</time>
      </trkpt>
      <trkpt lat="47.26116" lon="-1.61909">
        <ele>47</ele>
        <time>2019-09-30T13:02:37.000Z</time>
      </trkpt>
      <trkpt lat="47.26113" lon="-1.61911">
        <ele>48</ele>
        <time>2019-09-30T13:02:38.000Z</time>
      </trkpt>
      <trkpt lat="47.26112" lon="-1.61913">
        <ele>48</ele>
        <time>2019-09-30T13:02:39.000Z</time>
      </trkpt>
      <trkpt lat="47.26113" lon="-1.61914">
        <ele>48</ele>
        <time>2019-09-30T13:02:40.000Z</time>
      </trkpt>
      <trkpt lat="47.26114" lon="-1.61915">
        <ele>48</ele>
        <time>2019-09-30T13:02:41.000Z</time>
      </trkpt>
      <trkpt lat="47.26115" lon="-1.61917">
        <ele>48</ele>
        <time>2019-09-30T13:02:42.000Z</time>
      </trkpt>
      <trkpt lat="47.26115" lon="-1.61919">
        <ele>48</ele>
        <time>2019-09-30T13:02:43.000Z</time>
      </trkpt>
      <trkpt lat="47.26115" lon="-1.61921">
        <ele>48</ele>
        <time>2019-09-30T13:02:44.000Z</time>
      </trkpt>
      <trkpt lat="47.26114" lon="-1.61922">
        <ele>48</ele>
        <time>2019-09-30T13:02:45.000Z</time>
      </trkpt>
      <trkpt lat="47.26112" lon="-1.61922">
        <ele>48</ele>
        <time>2019-09-30T13:02:46.000Z</time>
      </trkpt>
      <trkpt lat="47.26111" lon="-1.61922">
        <ele>48</ele>
        <time>2019-09-30T13:02:47.000Z</time>
      </trkpt>
      <trkpt lat="47.26108" lon="-1.61922">
        <ele>48</ele>
        <time>2019-09-30T13:02:48.000Z</time>
      </trkpt>
      <trkpt lat="47.26106" lon="-1.61922">
        <ele>48</ele>
        <time>2019-09-30T13:02:49.000Z</time>
      </trkpt>
      <trkpt lat="47.26104" lon="-1.61923">
        <ele>48</ele>
        <time>2019-09-30T13:02:50.000Z</time>
      </trkpt>
      <trkpt lat="47.26101" lon="-1.61923">
        <ele>48</ele>
        <time>2019-09-30T13:02:51.000Z</time>
      </trkpt>
      <trkpt lat="47.26099" lon="-1.61924">
        <ele>48</ele>
        <time>2019-09-30T13:02:52.000Z</time>
      </trkpt>
      <trkpt lat="47.26096" lon="-1.61925">
        <ele>48</ele>
        <time>2019-09-30T13:02:53.000Z</time>
      </trkpt>
      <trkpt lat="47.26094" lon="-1.61925">
        <ele>49</ele>
        <time>2019-09-30T13:02:54.000Z</time>
      </trkpt>
      <trkpt lat="47.26091" lon="-1.61926">
        <ele>49</ele>
        <time>2019-09-30T13:02:55.000Z</time>
      </trkpt>
      <trkpt lat="47.26089" lon="-1.61927">
        <ele>49</ele>
        <time>2019-09-30T13:02:56.000Z</time>
      </trkpt>
      <trkpt lat="47.26086" lon="-1.61927">
        <ele>49</ele>
        <time>2019-09-30T13:02:57.000Z</time>
      </trkpt>
      <trkpt lat="47.26084" lon="-1.61928">
        <ele>50</ele>
        <time>2019-09-30T13:02:58.000Z</time>
      </trkpt>
      <trkpt lat="47.26082" lon="-1.61929">
        <ele>50</ele>
        <time>2019-09-30T13:02:59.000Z</time>
      </trkpt>
      <trkpt lat="47.26079" lon="-1.61929">
        <ele>50</ele>
        <time>2019-09-30T13:03:00.000Z</time>
      </trkpt>
      <trkpt lat="47.26076" lon="-1.61928">
        <ele>50</ele>
        <time>2019-09-30T13:03:01.000Z</time>
      </trkpt>
      <trkpt lat="47.26075" lon="-1.61926">
        <ele>50</ele>
        <time>2019-09-30T13:03:02.000Z</time>
      </trkpt>
      <trkpt lat="47.26073" lon="-1.61924">
        <ele>51</ele>
        <time>2019-09-30T13:03:03.000Z</time>
      </trkpt>
      <trkpt lat="47.26073" lon="-1.61921">
        <ele>51</ele>
        <time>2019-09-30T13:03:04.000Z</time>
      </trkpt>
      <trkpt lat="47.26072" lon="-1.61919">
        <ele>51</ele>
        <time>2019-09-30T13:03:05.000Z</time>
      </trkpt>
      <trkpt lat="47.26071" lon="-1.61916">
        <ele>51</ele>
        <time>2019-09-30T13:03:06.000Z</time>
      </trkpt>
      <trkpt lat="47.26072" lon="-1.61912">
        <ele>51</ele>
        <time>2019-09-30T13:03:07.000Z</time>
      </trkpt>
      <trkpt lat="47.26072" lon="-1.61909">
        <ele>51</ele>
        <time>2019-09-30T13:03:08.000Z</time>
      </trkpt>
      <trkpt lat="47.26074" lon="-1.61905">
        <ele>51</ele>
        <time>2019-09-30T13:03:09.000Z</time>
      </trkpt>
      <trkpt lat="47.26075" lon="-1.61902">
        <ele>51</ele>
        <time>2019-09-30T13:03:10.000Z</time>
      </trkpt>
      <trkpt lat="47.26077" lon="-1.61901">
        <ele>51</ele>
        <time>2019-09-30T13:03:11.000Z</time>
      </trkpt>
      <trkpt lat="47.26079" lon="-1.619">
        <ele>51</ele>
        <time>2019-09-30T13:03:12.000Z</time>
      </trkpt>
      <trkpt lat="47.2608" lon="-1.61898">
        <ele>51</ele>
        <time>2019-09-30T13:03:13.000Z</time>
      </trkpt>
      <trkpt lat="47.26081" lon="-1.61895">
        <ele>51</ele>
        <time>2019-09-30T13:03:14.000Z</time>
      </trkpt>
      <trkpt lat="47.26081" lon="-1.61891">
        <ele>51</ele>
        <time>2019-09-30T13:03:15.000Z</time>
      </trkpt>
      <trkpt lat="47.26081" lon="-1.61887">
        <ele>50</ele>
        <time>2019-09-30T13:03:16.000Z</time>
      </trkpt>
      <trkpt lat="47.26082" lon="-1.61882">
        <ele>50</ele>
        <time>2019-09-30T13:03:17.000Z</time>
      </trkpt>
      <trkpt lat="47.26083" lon="-1.61877">
        <ele>50</ele>
        <time>2019-09-30T13:03:18.000Z</time>
      </trkpt>
      <trkpt lat="47.26084" lon="-1.61872">
        <ele>50</ele>
        <time>2019-09-30T13:03:19.000Z</time>
      </trkpt>
      <trkpt lat="47.26083" lon="-1.61867">
        <ele>50</ele>
        <time>2019-09-30T13:03:20.000Z</time>
      </trkpt>
      <trkpt lat="47.26082" lon="-1.61863">
        <ele>50</ele>
        <time>2019-09-30T13:03:21.000Z</time>
      </trkpt>
      <trkpt lat="47.26082" lon="-1.61859">
        <ele>49</ele>
        <time>2019-09-30T13:03:22.000Z</time>
      </trkpt>
      <trkpt lat="47.26081" lon="-1.61854">
        <ele>49</ele>
        <time>2019-09-30T13:03:23.000Z</time>
      </trkpt>
      <trkpt lat="47.2608" lon="-1.61852">
        <ele>49</ele>
        <time>2019-09-30T13:03:24.000Z</time>
      </trkpt>
      <trkpt lat="47.2608" lon="-1.6185">
        <ele>48</ele>
        <time>2019-09-30T13:03:25.000Z</time>
      </trkpt>
      <trkpt lat="47.2608" lon="-1.61847">
        <ele>48</ele>
        <time>2019-09-30T13:03:26.000Z</time>
      </trkpt>
      <trkpt lat="47.2608" lon="-1.61844">
        <ele>48</ele>
        <time>2019-09-30T13:03:27.000Z</time>
      </trkpt>
      <trkpt lat="47.26079" lon="-1.61842">
        <ele>47</ele>
        <time>2019-09-30T13:03:28.000Z</time>
      </trkpt>
      <trkpt lat="47.26079" lon="-1.61839">
        <ele>47</ele>
        <time>2019-09-30T13:03:29.000Z</time>
      </trkpt>
      <trkpt lat="47.26079" lon="-1.61837">
        <ele>46</ele>
        <time>2019-09-30T13:03:30.000Z</time>
      </trkpt>
      <trkpt lat="47.26079" lon="-1.61834">
        <ele>46</ele>
        <time>2019-09-30T13:03:31.000Z</time>
      </trkpt>
      <trkpt lat="47.2608" lon="-1.61831">
        <ele>46</ele>
        <time>2019-09-30T13:03:32.000Z</time>
      </trkpt>
      <trkpt lat="47.2608" lon="-1.61828">
        <ele>45</ele>
        <time>2019-09-30T13:03:33.000Z</time>
      </trkpt>
      <trkpt lat="47.26082" lon="-1.61825">
        <ele>45</ele>
        <time>2019-09-30T13:03:34.000Z</time>
      </trkpt>
      <trkpt lat="47.26084" lon="-1.61824">
        <ele>44</ele>
        <time>2019-09-30T13:03:35.000Z</time>
      </trkpt>
      <trkpt lat="47.26086" lon="-1.61823">
        <ele>44</ele>
        <time>2019-09-30T13:03:36.000Z</time>
      </trkpt>
      <trkpt lat="47.26087" lon="-1.61821">
        <ele>44</ele>
        <time>2019-09-30T13:03:37.000Z</time>
      </trkpt>
      <trkpt lat="47.26089" lon="-1.61818">
        <ele>43</ele>
        <time>2019-09-30T13:03:38.000Z</time>
      </trkpt>
      <trkpt lat="47.26089" lon="-1.61814">
        <ele>43</ele>
        <time>2019-09-30T13:03:39.000Z</time>
      </trkpt>
      <trkpt lat="47.26089" lon="-1.61809">
        <ele>43</ele>
        <time>2019-09-30T13:03:40.000Z</time>
      </trkpt>
      <trkpt lat="47.2609" lon="-1.61804">
        <ele>42</ele>
        <time>2019-09-30T13:03:41.000Z</time>
      </trkpt>
      <trkpt lat="47.26091" lon="-1.61798">
        <ele>42</ele>
        <time>2019-09-30T13:03:42.000Z</time>
      </trkpt>
      <trkpt lat="47.26092" lon="-1.61792">
        <ele>42</ele>
        <time>2019-09-30T13:03:43.000Z</time>
      </trkpt>
      <trkpt lat="47.26094" lon="-1.61786">
        <ele>42</ele>
        <time>2019-09-30T13:03:44.000Z</time>
      </trkpt>
      <trkpt lat="47.26096" lon="-1.61781">
        <ele>41</ele>
        <time>2019-09-30T13:03:45.000Z</time>
      </trkpt>
      <trkpt lat="47.26098" lon="-1.61778">
        <ele>41</ele>
        <time>2019-09-30T13:03:46.000Z</time>
      </trkpt>
      <trkpt lat="47.26101" lon="-1.61774">
        <ele>41</ele>
        <time>2019-09-30T13:03:47.000Z</time>
      </trkpt>
      <trkpt lat="47.26102" lon="-1.61768">
        <ele>41</ele>
        <time>2019-09-30T13:03:48.000Z</time>
      </trkpt>
      <trkpt lat="47.26102" lon="-1.61762">
        <ele>41</ele>
        <time>2019-09-30T13:03:49.000Z</time>
      </trkpt>
      <trkpt lat="47.26103" lon="-1.61755">
        <ele>41</ele>
        <time>2019-09-30T13:03:50.000Z</time>
      </trkpt>
      <trkpt lat="47.26104" lon="-1.61749">
        <ele>40</ele>
        <time>2019-09-30T13:03:51.000Z</time>
      </trkpt>
      <trkpt lat="47.26104" lon="-1.61744">
        <ele>40</ele>
        <time>2019-09-30T13:03:52.000Z</time>
      </trkpt>
      <trkpt lat="47.26103" lon="-1.6174">
        <ele>40</ele>
        <time>2019-09-30T13:03:53.000Z</time>
      </trkpt>
      <trkpt lat="47.26102" lon="-1.61736">
        <ele>40</ele>
        <time>2019-09-30T13:03:54.000Z</time>
      </trkpt>
      <trkpt lat="47.26101" lon="-1.61732">
        <ele>39</ele>
        <time>2019-09-30T13:03:55.000Z</time>
      </trkpt>
      <trkpt lat="47.26101" lon="-1.61728">
        <ele>39</ele>
        <time>2019-09-30T13:03:56.000Z</time>
      </trkpt>
      <trkpt lat="47.26101" lon="-1.61725">
        <ele>39</ele>
        <time>2019-09-30T13:03:57.000Z</time>
      </trkpt>
      <trkpt lat="47.26103" lon="-1.61722">
        <ele>39</ele>
        <time>2019-09-30T13:03:58.000Z</time>
      </trkpt>
      <trkpt lat="47.26104" lon="-1.61718">
        <ele>38</ele>
        <time>2019-09-30T13:03:59.000Z</time>
      </trkpt>
      <trkpt lat="47.26105" lon="-1.61713">
        <ele>38</ele>
        <time>2019-09-30T13:04:00.000Z</time>
      </trkpt>
      <trkpt lat="47.26105" lon="-1.61708">
        <ele>38</ele>
        <time>2019-09-30T13:04:01.000Z</time>
      </trkpt>
      <trkpt lat="47.26105" lon="-1.61704">
        <ele>37</ele>
        <time>2019-09-30T13:04:02.000Z</time>
      </trkpt>
      <trkpt lat="47.26105" lon="-1.617">
        <ele>37</ele>
        <time>2019-09-30T13:04:03.000Z</time>
      </trkpt>
      <trkpt lat="47.26105" lon="-1.61696">
        <ele>37</ele>
        <time>2019-09-30T13:04:04.000Z</time>
      </trkpt>
      <trkpt lat="47.26107" lon="-1.61692">
        <ele>37</ele>
        <time>2019-09-30T13:04:05.000Z</time>
      </trkpt>
      <trkpt lat="47.26109" lon="-1.61689">
        <ele>37</ele>
        <time>2019-09-30T13:04:06.000Z</time>
      </trkpt>
      <trkpt lat="47.26112" lon="-1.61686">
        <ele>37</ele>
        <time>2019-09-30T13:04:07.000Z</time>
      </trkpt>
      <trkpt lat="47.26114" lon="-1.61684">
        <ele>36</ele>
        <time>2019-09-30T13:04:08.000Z</time>
      </trkpt>
      <trkpt lat="47.26116" lon="-1.61682">
        <ele>36</ele>
        <time>2019-09-30T13:04:09.000Z</time>
      </trkpt>
      <trkpt lat="47.26119" lon="-1.61681">
        <ele>36</ele>
        <time>2019-09-30T13:04:10.000Z</time>
      </trkpt>
      <trkpt lat="47.2612" lon="-1.6168">
        <ele>36</ele>
        <time>2019-09-30T13:04:11.000Z</time>
      </trkpt>
      <trkpt lat="47.26122" lon="-1.61677">
        <ele>36</ele>
        <time>2019-09-30T13:04:12.000Z</time>
      </trkpt>
      <trkpt lat="47.26122" lon="-1.61674">
        <ele>36</ele>
        <time>2019-09-30T13:04:13.000Z</time>
      </trkpt>
      <trkpt lat="47.26122" lon="-1.6167">
        <ele>36</ele>
        <time>2019-09-30T13:04:14.000Z</time>
      </trkpt>
      <trkpt lat="47.26123" lon="-1.61667">
        <ele>36</ele>
        <time>2019-09-30T13:04:15.000Z</time>
      </trkpt>
      <trkpt lat="47.26125" lon="-1.61662">
        <ele>36</ele>
        <time>2019-09-30T13:04:16.000Z</time>
      </trkpt>
      <trkpt lat="47.26126" lon="-1.61658">
        <ele>36</ele>
        <time>2019-09-30T13:04:17.000Z</time>
      </trkpt>
      <trkpt lat="47.26127" lon="-1.61653">
        <ele>36</ele>
        <time>2019-09-30T13:04:18.000Z</time>
      </trkpt>
      <trkpt lat="47.26128" lon="-1.61648">
        <ele>36</ele>
        <time>2019-09-30T13:04:19.000Z</time>
      </trkpt>
      <trkpt lat="47.26128" lon="-1.61643">
        <ele>36</ele>
        <time>2019-09-30T13:04:20.000Z</time>
      </trkpt>
      <trkpt lat="47.26128" lon="-1.6164">
        <ele>36</ele>
        <time>2019-09-30T13:04:21.000Z</time>
      </trkpt>
      <trkpt lat="47.26129" lon="-1.61637">
        <ele>36</ele>
        <time>2019-09-30T13:04:22.000Z</time>
      </trkpt>
      <trkpt lat="47.2613" lon="-1.61634">
        <ele>36</ele>
        <time>2019-09-30T13:04:23.000Z</time>
      </trkpt>
      <trkpt lat="47.26132" lon="-1.61629">
        <ele>36</ele>
        <time>2019-09-30T13:04:24.000Z</time>
      </trkpt>
      <trkpt lat="47.26132" lon="-1.61624">
        <ele>35</ele>
        <time>2019-09-30T13:04:25.000Z</time>
      </trkpt>
      <trkpt lat="47.26133" lon="-1.61619">
        <ele>35</ele>
        <time>2019-09-30T13:04:26.000Z</time>
      </trkpt>
      <trkpt lat="47.26134" lon="-1.61615">
        <ele>35</ele>
        <time>2019-09-30T13:04:27.000Z</time>
      </trkpt>
      <trkpt lat="47.26136" lon="-1.61612">
        <ele>35</ele>
        <time>2019-09-30T13:04:28.000Z</time>
      </trkpt>
      <trkpt lat="47.26137" lon="-1.61608">
        <ele>35</ele>
        <time>2019-09-30T13:04:29.000Z</time>
      </trkpt>
      <trkpt lat="47.26137" lon="-1.61605">
        <ele>35</ele>
        <time>2019-09-30T13:04:30.000Z</time>
      </trkpt>
      <trkpt lat="47.26137" lon="-1.61601">
        <ele>35</ele>
        <time>2019-09-30T13:04:31.000Z</time>
      </trkpt>
      <trkpt lat="47.26137" lon="-1.61599">
        <ele>35</ele>
        <time>2019-09-30T13:04:32.000Z</time>
      </trkpt>
      <trkpt lat="47.26136" lon="-1.61595">
        <ele>34</ele>
        <time>2019-09-30T13:04:33.000Z</time>
      </trkpt>
      <trkpt lat="47.26136" lon="-1.61592">
        <ele>34</ele>
        <time>2019-09-30T13:04:34.000Z</time>
      </trkpt>
      <trkpt lat="47.26136" lon="-1.61588">
        <ele>34</ele>
        <time>2019-09-30T13:04:35.000Z</time>
      </trkpt>
      <trkpt lat="47.26137" lon="-1.61585">
        <ele>34</ele>
        <time>2019-09-30T13:04:36.000Z</time>
      </trkpt>
      <trkpt lat="47.26138" lon="-1.61582">
        <ele>34</ele>
        <time>2019-09-30T13:04:37.000Z</time>
      </trkpt>
      <trkpt lat="47.26139" lon="-1.61579">
        <ele>34</ele>
        <time>2019-09-30T13:04:38.000Z</time>
      </trkpt>
      <trkpt lat="47.26141" lon="-1.61575">
        <ele>34</ele>
        <time>2019-09-30T13:04:39.000Z</time>
      </trkpt>
      <trkpt lat="47.26142" lon="-1.61571">
        <ele>34</ele>
        <time>2019-09-30T13:04:40.000Z</time>
      </trkpt>
      <trkpt lat="47.26143" lon="-1.61566">
        <ele>34</ele>
        <time>2019-09-30T13:04:41.000Z</time>
      </trkpt>
      <trkpt lat="47.26144" lon="-1.61561">
        <ele>34</ele>
        <time>2019-09-30T13:04:42.000Z</time>
      </trkpt>
      <trkpt lat="47.26146" lon="-1.61556">
        <ele>34</ele>
        <time>2019-09-30T13:04:43.000Z</time>
      </trkpt>
      <trkpt lat="47.26146" lon="-1.61551">
        <ele>34</ele>
        <time>2019-09-30T13:04:44.000Z</time>
      </trkpt>
      <trkpt lat="47.26147" lon="-1.61545">
        <ele>34</ele>
        <time>2019-09-30T13:04:45.000Z</time>
      </trkpt>
      <trkpt lat="47.26148" lon="-1.6154">
        <ele>34</ele>
        <time>2019-09-30T13:04:46.000Z</time>
      </trkpt>
      <trkpt lat="47.26148" lon="-1.61534">
        <ele>34</ele>
        <time>2019-09-30T13:04:47.000Z</time>
      </trkpt>
      <trkpt lat="47.26149" lon="-1.6153">
        <ele>34</ele>
        <time>2019-09-30T13:04:48.000Z</time>
      </trkpt>
      <trkpt lat="47.2615" lon="-1.61526">
        <ele>34</ele>
        <time>2019-09-30T13:04:49.000Z</time>
      </trkpt>
      <trkpt lat="47.26152" lon="-1.61523">
        <ele>34</ele>
        <time>2019-09-30T13:04:50.000Z</time>
      </trkpt>
      <trkpt lat="47.26154" lon="-1.61522">
        <ele>34</ele>
        <time>2019-09-30T13:04:51.000Z</time>
      </trkpt>
      <trkpt lat="47.26156" lon="-1.61519">
        <ele>34</ele>
        <time>2019-09-30T13:04:52.000Z</time>
      </trkpt>
      <trkpt lat="47.26157" lon="-1.61516">
        <ele>34</ele>
        <time>2019-09-30T13:04:53.000Z</time>
      </trkpt>
      <trkpt lat="47.26157" lon="-1.61512">
        <ele>34</ele>
        <time>2019-09-30T13:04:54.000Z</time>
      </trkpt>
      <trkpt lat="47.26157" lon="-1.61508">
        <ele>34</ele>
        <time>2019-09-30T13:04:55.000Z</time>
      </trkpt>
      <trkpt lat="47.26158" lon="-1.61503">
        <ele>34</ele>
        <time>2019-09-30T13:04:56.000Z</time>
      </trkpt>
      <trkpt lat="47.26159" lon="-1.61498">
        <ele>33</ele>
        <time>2019-09-30T13:04:57.000Z</time>
      </trkpt>
      <trkpt lat="47.2616" lon="-1.61494">
        <ele>33</ele>
        <time>2019-09-30T13:04:58.000Z</time>
      </trkpt>
      <trkpt lat="47.26161" lon="-1.6149">
        <ele>33</ele>
        <time>2019-09-30T13:04:59.000Z</time>
      </trkpt>
      <trkpt lat="47.26164" lon="-1.61486">
        <ele>33</ele>
        <time>2019-09-30T13:05:00.000Z</time>
      </trkpt>
      <trkpt lat="47.26167" lon="-1.61484">
        <ele>33</ele>
        <time>2019-09-30T13:05:01.000Z</time>
      </trkpt>
      <trkpt lat="47.2617" lon="-1.6148">
        <ele>33</ele>
        <time>2019-09-30T13:05:02.000Z</time>
      </trkpt>
      <trkpt lat="47.26172" lon="-1.61476">
        <ele>33</ele>
        <time>2019-09-30T13:05:03.000Z</time>
      </trkpt>
      <trkpt lat="47.26174" lon="-1.61471">
        <ele>32</ele>
        <time>2019-09-30T13:05:04.000Z</time>
      </trkpt>
      <trkpt lat="47.26175" lon="-1.61466">
        <ele>32</ele>
        <time>2019-09-30T13:05:05.000Z</time>
      </trkpt>
      <trkpt lat="47.26177" lon="-1.61461">
        <ele>32</ele>
        <time>2019-09-30T13:05:06.000Z</time>
      </trkpt>
      <trkpt lat="47.26178" lon="-1.61455">
        <ele>32</ele>
        <time>2019-09-30T13:05:07.000Z</time>
      </trkpt>
      <trkpt lat="47.2618" lon="-1.61448">
        <ele>32</ele>
        <time>2019-09-30T13:05:08.000Z</time>
      </trkpt>
      <trkpt lat="47.26181" lon="-1.61443">
        <ele>32</ele>
        <time>2019-09-30T13:05:09.000Z</time>
      </trkpt>
      <trkpt lat="47.26182" lon="-1.61437">
        <ele>32</ele>
        <time>2019-09-30T13:05:10.000Z</time>
      </trkpt>
      <trkpt lat="47.26182" lon="-1.61432">
        <ele>32</ele>
        <time>2019-09-30T13:05:11.000Z</time>
      </trkpt>
      <trkpt lat="47.2618" lon="-1.61428">
        <ele>32</ele>
        <time>2019-09-30T13:05:12.000Z</time>
      </trkpt>
      <trkpt lat="47.26179" lon="-1.61425">
        <ele>32</ele>
        <time>2019-09-30T13:05:13.000Z</time>
      </trkpt>
      <trkpt lat="47.26177" lon="-1.61421">
        <ele>32</ele>
        <time>2019-09-30T13:05:14.000Z</time>
      </trkpt>
      <trkpt lat="47.26176" lon="-1.61418">
        <ele>32</ele>
        <time>2019-09-30T13:05:15.000Z</time>
      </trkpt>
      <trkpt lat="47.26176" lon="-1.61415">
        <ele>32</ele>
        <time>2019-09-30T13:05:16.000Z</time>
      </trkpt>
      <trkpt lat="47.26176" lon="-1.61414">
        <ele>32</ele>
        <time>2019-09-30T13:05:17.000Z</time>
      </trkpt>
      <trkpt lat="47.26177" lon="-1.61413">
        <ele>32</ele>
        <time>2019-09-30T13:05:18.000Z</time>
      </trkpt>
      <trkpt lat="47.26177" lon="-1.61412">
        <ele>32</ele>
        <time>2019-09-30T13:05:19.000Z</time>
      </trkpt>
      <trkpt lat="47.26176" lon="-1.61404">
        <ele>31</ele>
        <time>2019-09-30T13:05:20.000Z</time>
      </trkpt>
      <trkpt lat="47.26175" lon="-1.61402">
        <ele>31</ele>
        <time>2019-09-30T13:05:21.000Z</time>
      </trkpt>
      <trkpt lat="47.26175" lon="-1.614">
        <ele>31</ele>
        <time>2019-09-30T13:05:22.000Z</time>
      </trkpt>
      <trkpt lat="47.26176" lon="-1.61398">
        <ele>31</ele>
        <time>2019-09-30T13:05:23.000Z</time>
      </trkpt>
      <trkpt lat="47.26178" lon="-1.61397">
        <ele>31</ele>
        <time>2019-09-30T13:05:24.000Z</time>
      </trkpt>
      <trkpt lat="47.26179" lon="-1.61395">
        <ele>31</ele>
        <time>2019-09-30T13:05:25.000Z</time>
      </trkpt>
      <trkpt lat="47.26182" lon="-1.61394">
        <ele>31</ele>
        <time>2019-09-30T13:05:26.000Z</time>
      </trkpt>
      <trkpt lat="47.26187" lon="-1.61392">
        <ele>31</ele>
        <time>2019-09-30T13:05:27.000Z</time>
      </trkpt>
      <trkpt lat="47.26191" lon="-1.61392">
        <ele>31</ele>
        <time>2019-09-30T13:05:28.000Z</time>
      </trkpt>
      <trkpt lat="47.26194" lon="-1.61392">
        <ele>31</ele>
        <time>2019-09-30T13:05:29.000Z</time>
      </trkpt>
      <trkpt lat="47.26197" lon="-1.6139">
        <ele>31</ele>
        <time>2019-09-30T13:05:30.000Z</time>
      </trkpt>
      <trkpt lat="47.26199" lon="-1.61388">
        <ele>31</ele>
        <time>2019-09-30T13:05:31.000Z</time>
      </trkpt>
      <trkpt lat="47.26202" lon="-1.61386">
        <ele>31</ele>
        <time>2019-09-30T13:05:32.000Z</time>
      </trkpt>
      <trkpt lat="47.26206" lon="-1.61385">
        <ele>31</ele>
        <time>2019-09-30T13:05:33.000Z</time>
      </trkpt>
      <trkpt lat="47.26209" lon="-1.61382">
        <ele>31</ele>
        <time>2019-09-30T13:05:34.000Z</time>
      </trkpt>
      <trkpt lat="47.26212" lon="-1.61378">
        <ele>31</ele>
        <time>2019-09-30T13:05:35.000Z</time>
      </trkpt>
      <trkpt lat="47.26214" lon="-1.61374">
        <ele>31</ele>
        <time>2019-09-30T13:05:36.000Z</time>
      </trkpt>
      <trkpt lat="47.26217" lon="-1.61371">
        <ele>31</ele>
        <time>2019-09-30T13:05:37.000Z</time>
      </trkpt>
      <trkpt lat="47.2622" lon="-1.6137">
        <ele>30</ele>
        <time>2019-09-30T13:05:38.000Z</time>
      </trkpt>
      <trkpt lat="47.26223" lon="-1.61369">
        <ele>30</ele>
        <time>2019-09-30T13:05:39.000Z</time>
      </trkpt>
      <trkpt lat="47.26225" lon="-1.61368">
        <ele>30</ele>
        <time>2019-09-30T13:05:40.000Z</time>
      </trkpt>
      <trkpt lat="47.26227" lon="-1.61366">
        <ele>30</ele>
        <time>2019-09-30T13:05:41.000Z</time>
      </trkpt>
      <trkpt lat="47.26228" lon="-1.61366">
        <ele>30</ele>
        <time>2019-09-30T13:05:42.000Z</time>
      </trkpt>
      <trkpt lat="47.26229" lon="-1.61365">
        <ele>30</ele>
        <time>2019-09-30T13:05:43.000Z</time>
      </trkpt>
      <trkpt lat="47.2623" lon="-1.61365">
        <ele>29</ele>
        <time>2019-09-30T13:05:44.000Z</time>
      </trkpt>
      <trkpt lat="47.26231" lon="-1.61365">
        <ele>29</ele>
        <time>2019-09-30T13:05:45.000Z</time>
      </trkpt>
      <trkpt lat="47.26231" lon="-1.61365">
        <ele>29</ele>
        <time>2019-09-30T13:05:46.000Z</time>
      </trkpt>
      <trkpt lat="47.26238" lon="-1.61366">
        <ele>28</ele>
        <time>2019-09-30T13:05:47.000Z</time>
      </trkpt>
      <trkpt lat="47.2624" lon="-1.61364">
        <ele>28</ele>
        <time>2019-09-30T13:05:48.000Z</time>
      </trkpt>
      <trkpt lat="47.26241" lon="-1.61362">
        <ele>28</ele>
        <time>2019-09-30T13:05:49.000Z</time>
      </trkpt>
      <trkpt lat="47.26243" lon="-1.6136">
        <ele>28</ele>
        <time>2019-09-30T13:05:50.000Z</time>
      </trkpt>
      <trkpt lat="47.26245" lon="-1.61357">
        <ele>28</ele>
        <time>2019-09-30T13:05:51.000Z</time>
      </trkpt>
      <trkpt lat="47.26246" lon="-1.61354">
        <ele>28</ele>
        <time>2019-09-30T13:05:52.000Z</time>
      </trkpt>
      <trkpt lat="47.26247" lon="-1.61351">
        <ele>28</ele>
        <time>2019-09-30T13:05:53.000Z</time>
      </trkpt>
      <trkpt lat="47.26248" lon="-1.61348">
        <ele>28</ele>
        <time>2019-09-30T13:05:54.000Z</time>
      </trkpt>
      <trkpt lat="47.26251" lon="-1.61345">
        <ele>28</ele>
        <time>2019-09-30T13:05:55.000Z</time>
      </trkpt>
      <trkpt lat="47.26253" lon="-1.61342">
        <ele>28</ele>
        <time>2019-09-30T13:05:56.000Z</time>
      </trkpt>
      <trkpt lat="47.26257" lon="-1.61341">
        <ele>27</ele>
        <time>2019-09-30T13:05:57.000Z</time>
      </trkpt>
      <trkpt lat="47.26262" lon="-1.6134">
        <ele>27</ele>
        <time>2019-09-30T13:05:58.000Z</time>
      </trkpt>
      <trkpt lat="47.26266" lon="-1.6134">
        <ele>27</ele>
        <time>2019-09-30T13:05:59.000Z</time>
      </trkpt>
      <trkpt lat="47.2627" lon="-1.61341">
        <ele>27</ele>
        <time>2019-09-30T13:06:00.000Z</time>
      </trkpt>
      <trkpt lat="47.26273" lon="-1.61342">
        <ele>27</ele>
        <time>2019-09-30T13:06:01.000Z</time>
      </trkpt>
      <trkpt lat="47.26276" lon="-1.61342">
        <ele>26</ele>
        <time>2019-09-30T13:06:02.000Z</time>
      </trkpt>
      <trkpt lat="47.2628" lon="-1.61342">
        <ele>26</ele>
        <time>2019-09-30T13:06:03.000Z</time>
      </trkpt>
      <trkpt lat="47.26283" lon="-1.6134">
        <ele>26</ele>
        <time>2019-09-30T13:06:04.000Z</time>
      </trkpt>
      <trkpt lat="47.26286" lon="-1.61338">
        <ele>25</ele>
        <time>2019-09-30T13:06:05.000Z</time>
      </trkpt>
      <trkpt lat="47.26288" lon="-1.61335">
        <ele>25</ele>
        <time>2019-09-30T13:06:06.000Z</time>
      </trkpt>
      <trkpt lat="47.2629" lon="-1.61332">
        <ele>25</ele>
        <time>2019-09-30T13:06:07.000Z</time>
      </trkpt>
      <trkpt lat="47.26292" lon="-1.61328">
        <ele>25</ele>
        <time>2019-09-30T13:06:08.000Z</time>
      </trkpt>
      <trkpt lat="47.26294" lon="-1.61325">
        <ele>25</ele>
        <time>2019-09-30T13:06:09.000Z</time>
      </trkpt>
      <trkpt lat="47.26295" lon="-1.61322">
        <ele>25</ele>
        <time>2019-09-30T13:06:10.000Z</time>
      </trkpt>
      <trkpt lat="47.26297" lon="-1.61321">
        <ele>25</ele>
        <time>2019-09-30T13:06:11.000Z</time>
      </trkpt>
      <trkpt lat="47.263" lon="-1.61319">
        <ele>25</ele>
        <time>2019-09-30T13:06:12.000Z</time>
      </trkpt>
      <trkpt lat="47.26303" lon="-1.61316">
        <ele>25</ele>
        <time>2019-09-30T13:06:13.000Z</time>
      </trkpt>
      <trkpt lat="47.26305" lon="-1.61312">
        <ele>25</ele>
        <time>2019-09-30T13:06:14.000Z</time>
      </trkpt>
      <trkpt lat="47.26307" lon="-1.61307">
        <ele>25</ele>
        <time>2019-09-30T13:06:15.000Z</time>
      </trkpt>
      <trkpt lat="47.26308" lon="-1.61302">
        <ele>24</ele>
        <time>2019-09-30T13:06:16.000Z</time>
      </trkpt>
      <trkpt lat="47.26309" lon="-1.61296">
        <ele>24</ele>
        <time>2019-09-30T13:06:17.000Z</time>
      </trkpt>
      <trkpt lat="47.26311" lon="-1.6129">
        <ele>24</ele>
        <time>2019-09-30T13:06:18.000Z</time>
      </trkpt>
      <trkpt lat="47.26311" lon="-1.61283">
        <ele>24</ele>
        <time>2019-09-30T13:06:19.000Z</time>
      </trkpt>
      <trkpt lat="47.26312" lon="-1.61276">
        <ele>23</ele>
        <time>2019-09-30T13:06:20.000Z</time>
      </trkpt>
      <trkpt lat="47.26314" lon="-1.61269">
        <ele>23</ele>
        <time>2019-09-30T13:06:21.000Z</time>
      </trkpt>
      <trkpt lat="47.26315" lon="-1.61262">
        <ele>23</ele>
        <time>2019-09-30T13:06:22.000Z</time>
      </trkpt>
      <trkpt lat="47.26317" lon="-1.61256">
        <ele>23</ele>
        <time>2019-09-30T13:06:23.000Z</time>
      </trkpt>
      <trkpt lat="47.26318" lon="-1.61249">
        <ele>23</ele>
        <time>2019-09-30T13:06:24.000Z</time>
      </trkpt>
      <trkpt lat="47.26319" lon="-1.61243">
        <ele>22</ele>
        <time>2019-09-30T13:06:25.000Z</time>
      </trkpt>
      <trkpt lat="47.26321" lon="-1.61236">
        <ele>22</ele>
        <time>2019-09-30T13:06:26.000Z</time>
      </trkpt>
      <trkpt lat="47.26321" lon="-1.61229">
        <ele>22</ele>
        <time>2019-09-30T13:06:27.000Z</time>
      </trkpt>
      <trkpt lat="47.26322" lon="-1.61223">
        <ele>22</ele>
        <time>2019-09-30T13:06:28.000Z</time>
      </trkpt>
      <trkpt lat="47.26324" lon="-1.61218">
        <ele>22</ele>
        <time>2019-09-30T13:06:29.000Z</time>
      </trkpt>
      <trkpt lat="47.26325" lon="-1.61212">
        <ele>22</ele>
        <time>2019-09-30T13:06:30.000Z</time>
      </trkpt>
      <trkpt lat="47.26327" lon="-1.61205">
        <ele>22</ele>
        <time>2019-09-30T13:06:31.000Z</time>
      </trkpt>
      <trkpt lat="47.26329" lon="-1.61199">
        <ele>21</ele>
        <time>2019-09-30T13:06:32.000Z</time>
      </trkpt>
      <trkpt lat="47.26331" lon="-1.61194">
        <ele>21</ele>
        <time>2019-09-30T13:06:33.000Z</time>
      </trkpt>
      <trkpt lat="47.26334" lon="-1.61188">
        <ele>21</ele>
        <time>2019-09-30T13:06:34.000Z</time>
      </trkpt>
      <trkpt lat="47.26337" lon="-1.61183">
        <ele>21</ele>
        <time>2019-09-30T13:06:35.000Z</time>
      </trkpt>
      <trkpt lat="47.26339" lon="-1.61177">
        <ele>21</ele>
        <time>2019-09-30T13:06:36.000Z</time>
      </trkpt>
      <trkpt lat="47.26342" lon="-1.61172">
        <ele>21</ele>
        <time>2019-09-30T13:06:37.000Z</time>
      </trkpt>
      <trkpt lat="47.26345" lon="-1.61166">
        <ele>21</ele>
        <time>2019-09-30T13:06:38.000Z</time>
      </trkpt>
      <trkpt lat="47.26348" lon="-1.6116">
        <ele>20</ele>
        <time>2019-09-30T13:06:39.000Z</time>
      </trkpt>
      <trkpt lat="47.26351" lon="-1.61154">
        <ele>20</ele>
        <time>2019-09-30T13:06:40.000Z</time>
      </trkpt>
      <trkpt lat="47.26354" lon="-1.61148">
        <ele>20</ele>
        <time>2019-09-30T13:06:41.000Z</time>
      </trkpt>
      <trkpt lat="47.26356" lon="-1.61142">
        <ele>20</ele>
        <time>2019-09-30T13:06:42.000Z</time>
      </trkpt>
      <trkpt lat="47.26359" lon="-1.61137">
        <ele>20</ele>
        <time>2019-09-30T13:06:43.000Z</time>
      </trkpt>
      <trkpt lat="47.26362" lon="-1.61132">
        <ele>20</ele>
        <time>2019-09-30T13:06:44.000Z</time>
      </trkpt>
      <trkpt lat="47.26365" lon="-1.61129">
        <ele>20</ele>
        <time>2019-09-30T13:06:45.000Z</time>
      </trkpt>
      <trkpt lat="47.26368" lon="-1.61124">
        <ele>20</ele>
        <time>2019-09-30T13:06:46.000Z</time>
      </trkpt>
      <trkpt lat="47.26371" lon="-1.61119">
        <ele>19</ele>
        <time>2019-09-30T13:06:47.000Z</time>
      </trkpt>
      <trkpt lat="47.26374" lon="-1.61113">
        <ele>19</ele>
        <time>2019-09-30T13:06:48.000Z</time>
      </trkpt>
      <trkpt lat="47.26377" lon="-1.61107">
        <ele>19</ele>
        <time>2019-09-30T13:06:49.000Z</time>
      </trkpt>
      <trkpt lat="47.26379" lon="-1.611">
        <ele>18</ele>
        <time>2019-09-30T13:06:50.000Z</time>
      </trkpt>
      <trkpt lat="47.2638" lon="-1.61093">
        <ele>18</ele>
        <time>2019-09-30T13:06:51.000Z</time>
      </trkpt>
      <trkpt lat="47.26382" lon="-1.61086">
        <ele>18</ele>
        <time>2019-09-30T13:06:52.000Z</time>
      </trkpt>
      <trkpt lat="47.26384" lon="-1.61079">
        <ele>17</ele>
        <time>2019-09-30T13:06:53.000Z</time>
      </trkpt>
      <trkpt lat="47.26386" lon="-1.61072">
        <ele>17</ele>
        <time>2019-09-30T13:06:54.000Z</time>
      </trkpt>
      <trkpt lat="47.26389" lon="-1.61066">
        <ele>17</ele>
        <time>2019-09-30T13:06:55.000Z</time>
      </trkpt>
      <trkpt lat="47.2639" lon="-1.6106">
        <ele>17</ele>
        <time>2019-09-30T13:06:56.000Z</time>
      </trkpt>
      <trkpt lat="47.26392" lon="-1.61053">
        <ele>17</ele>
        <time>2019-09-30T13:06:57.000Z</time>
      </trkpt>
      <trkpt lat="47.26394" lon="-1.61047">
        <ele>16</ele>
        <time>2019-09-30T13:06:58.000Z</time>
      </trkpt>
      <trkpt lat="47.26395" lon="-1.6104">
        <ele>16</ele>
        <time>2019-09-30T13:06:59.000Z</time>
      </trkpt>
      <trkpt lat="47.26395" lon="-1.61033">
        <ele>16</ele>
        <time>2019-09-30T13:07:00.000Z</time>
      </trkpt>
      <trkpt lat="47.26396" lon="-1.61026">
        <ele>16</ele>
        <time>2019-09-30T13:07:01.000Z</time>
      </trkpt>
      <trkpt lat="47.26397" lon="-1.61018">
        <ele>15</ele>
        <time>2019-09-30T13:07:02.000Z</time>
      </trkpt>
      <trkpt lat="47.26397" lon="-1.61011">
        <ele>15</ele>
        <time>2019-09-30T13:07:03.000Z</time>
      </trkpt>
      <trkpt lat="47.26398" lon="-1.61003">
        <ele>15</ele>
        <time>2019-09-30T13:07:04.000Z</time>
      </trkpt>
      <trkpt lat="47.26398" lon="-1.60996">
        <ele>15</ele>
        <time>2019-09-30T13:07:05.000Z</time>
      </trkpt>
      <trkpt lat="47.26398" lon="-1.60989">
        <ele>15</ele>
        <time>2019-09-30T13:07:06.000Z</time>
      </trkpt>
      <trkpt lat="47.26398" lon="-1.60983">
        <ele>14</ele>
        <time>2019-09-30T13:07:07.000Z</time>
      </trkpt>
      <trkpt lat="47.26397" lon="-1.60975">
        <ele>14</ele>
        <time>2019-09-30T13:07:08.000Z</time>
      </trkpt>
      <trkpt lat="47.26397" lon="-1.60968">
        <ele>14</ele>
        <time>2019-09-30T13:07:09.000Z</time>
      </trkpt>
      <trkpt lat="47.26397" lon="-1.6096">
        <ele>14</ele>
        <time>2019-09-30T13:07:10.000Z</time>
      </trkpt>
      <trkpt lat="47.26396" lon="-1.60953">
        <ele>13</ele>
        <time>2019-09-30T13:07:11.000Z</time>
      </trkpt>
      <trkpt lat="47.26396" lon="-1.60945">
        <ele>13</ele>
        <time>2019-09-30T13:07:12.000Z</time>
      </trkpt>
      <trkpt lat="47.26395" lon="-1.60937">
        <ele>13</ele>
        <time>2019-09-30T13:07:13.000Z</time>
      </trkpt>
      <trkpt lat="47.26395" lon="-1.6093">
        <ele>13</ele>
        <time>2019-09-30T13:07:14.000Z</time>
      </trkpt>
      <trkpt lat="47.26394" lon="-1.60922">
        <ele>13</ele>
        <time>2019-09-30T13:07:15.000Z</time>
      </trkpt>
      <trkpt lat="47.26393" lon="-1.60915">
        <ele>12</ele>
        <time>2019-09-30T13:07:16.000Z</time>
      </trkpt>
      <trkpt lat="47.26393" lon="-1.60908">
        <ele>12</ele>
        <time>2019-09-30T13:07:17.000Z</time>
      </trkpt>
      <trkpt lat="47.26393" lon="-1.60901">
        <ele>12</ele>
        <time>2019-09-30T13:07:18.000Z</time>
      </trkpt>
      <trkpt lat="47.26393" lon="-1.60895">
        <ele>12</ele>
        <time>2019-09-30T13:07:19.000Z</time>
      </trkpt>
      <trkpt lat="47.26393" lon="-1.60888">
        <ele>11</ele>
        <time>2019-09-30T13:07:20.000Z</time>
      </trkpt>
      <trkpt lat="47.26393" lon="-1.60881">
        <ele>11</ele>
        <time>2019-09-30T13:07:21.000Z</time>
      </trkpt>
      <trkpt lat="47.26391" lon="-1.60874">
        <ele>11</ele>
        <time>2019-09-30T13:07:22.000Z</time>
      </trkpt>
      <trkpt lat="47.26389" lon="-1.60869">
        <ele>11</ele>
        <time>2019-09-30T13:07:23.000Z</time>
      </trkpt>
      <trkpt lat="47.26387" lon="-1.60863">
        <ele>11</ele>
        <time>2019-09-30T13:07:24.000Z</time>
      </trkpt>
      <trkpt lat="47.26386" lon="-1.60858">
        <ele>11</ele>
        <time>2019-09-30T13:07:25.000Z</time>
      </trkpt>
      <trkpt lat="47.26384" lon="-1.60852">
        <ele>10</ele>
        <time>2019-09-30T13:07:26.000Z</time>
      </trkpt>
      <trkpt lat="47.26381" lon="-1.60847">
        <ele>10</ele>
        <time>2019-09-30T13:07:27.000Z</time>
      </trkpt>
      <trkpt lat="47.26378" lon="-1.60843">
        <ele>10</ele>
        <time>2019-09-30T13:07:28.000Z</time>
      </trkpt>
      <trkpt lat="47.26375" lon="-1.60839">
        <ele>10</ele>
        <time>2019-09-30T13:07:29.000Z</time>
      </trkpt>
      <trkpt lat="47.26372" lon="-1.60835">
        <ele>10</ele>
        <time>2019-09-30T13:07:30.000Z</time>
      </trkpt>
      <trkpt lat="47.26368" lon="-1.60833">
        <ele>10</ele>
        <time>2019-09-30T13:07:31.000Z</time>
      </trkpt>
      <trkpt lat="47.26364" lon="-1.60832">
        <ele>10</ele>
        <time>2019-09-30T13:07:32.000Z</time>
      </trkpt>
      <trkpt lat="47.2636" lon="-1.60834">
        <ele>10</ele>
        <time>2019-09-30T13:07:33.000Z</time>
      </trkpt>
      <trkpt lat="47.26357" lon="-1.60838">
        <ele>10</ele>
        <time>2019-09-30T13:07:34.000Z</time>
      </trkpt>
      <trkpt lat="47.26353" lon="-1.60842">
        <ele>10</ele>
        <time>2019-09-30T13:07:35.000Z</time>
      </trkpt>
      <trkpt lat="47.2635" lon="-1.60846">
        <ele>10</ele>
        <time>2019-09-30T13:07:36.000Z</time>
      </trkpt>
      <trkpt lat="47.26347" lon="-1.60849">
        <ele>10</ele>
        <time>2019-09-30T13:07:37.000Z</time>
      </trkpt>
      <trkpt lat="47.26344" lon="-1.60853">
        <ele>10</ele>
        <time>2019-09-30T13:07:38.000Z</time>
      </trkpt>
      <trkpt lat="47.26341" lon="-1.60857">
        <ele>10</ele>
        <time>2019-09-30T13:07:39.000Z</time>
      </trkpt>
      <trkpt lat="47.26337" lon="-1.60858">
        <ele>10</ele>
        <time>2019-09-30T13:07:40.000Z</time>
      </trkpt>
      <trkpt lat="47.26334" lon="-1.6086">
        <ele>10</ele>
        <time>2019-09-30T13:07:41.000Z</time>
      </trkpt>
      <trkpt lat="47.2633" lon="-1.60861">
        <ele>10</ele>
        <time>2019-09-30T13:07:42.000Z</time>
      </trkpt>
      <trkpt lat="47.26328" lon="-1.60858">
        <ele>10</ele>
        <time>2019-09-30T13:07:43.000Z</time>
      </trkpt>
      <trkpt lat="47.26327" lon="-1.60854">
        <ele>10</ele>
        <time>2019-09-30T13:07:44.000Z</time>
      </trkpt>
      <trkpt lat="47.26328" lon="-1.60849">
        <ele>10</ele>
        <time>2019-09-30T13:07:45.000Z</time>
      </trkpt>
      <trkpt lat="47.26329" lon="-1.60843">
        <ele>10</ele>
        <time>2019-09-30T13:07:46.000Z</time>
      </trkpt>
      <trkpt lat="47.26331" lon="-1.60837">
        <ele>10</ele>
        <time>2019-09-30T13:07:47.000Z</time>
      </trkpt>
      <trkpt lat="47.26332" lon="-1.6083">
        <ele>10</ele>
        <time>2019-09-30T13:07:48.000Z</time>
      </trkpt>
      <trkpt lat="47.26334" lon="-1.60823">
        <ele>10</ele>
        <time>2019-09-30T13:07:49.000Z</time>
      </trkpt>
      <trkpt lat="47.26336" lon="-1.60816">
        <ele>10</ele>
        <time>2019-09-30T13:07:50.000Z</time>
      </trkpt>
      <trkpt lat="47.26338" lon="-1.60808">
        <ele>10</ele>
        <time>2019-09-30T13:07:51.000Z</time>
      </trkpt>
      <trkpt lat="47.2634" lon="-1.60801">
        <ele>10</ele>
        <time>2019-09-30T13:07:52.000Z</time>
      </trkpt>
      <trkpt lat="47.26342" lon="-1.60793">
        <ele>10</ele>
        <time>2019-09-30T13:07:53.000Z</time>
      </trkpt>
      <trkpt lat="47.26344" lon="-1.60785">
        <ele>10</ele>
        <time>2019-09-30T13:07:54.000Z</time>
      </trkpt>
      <trkpt lat="47.26346" lon="-1.60777">
        <ele>10</ele>
        <time>2019-09-30T13:07:55.000Z</time>
      </trkpt>
      <trkpt lat="47.26348" lon="-1.60768">
        <ele>10</ele>
        <time>2019-09-30T13:07:56.000Z</time>
      </trkpt>
      <trkpt lat="47.2635" lon="-1.6076">
        <ele>10</ele>
        <time>2019-09-30T13:07:57.000Z</time>
      </trkpt>
      <trkpt lat="47.26352" lon="-1.60751">
        <ele>10</ele>
        <time>2019-09-30T13:07:58.000Z</time>
      </trkpt>
      <trkpt lat="47.26354" lon="-1.60742">
        <ele>9</ele>
        <time>2019-09-30T13:07:59.000Z</time>
      </trkpt>
      <trkpt lat="47.26356" lon="-1.60734">
        <ele>9</ele>
        <time>2019-09-30T13:08:00.000Z</time>
      </trkpt>
      <trkpt lat="47.26358" lon="-1.60725">
        <ele>9</ele>
        <time>2019-09-30T13:08:01.000Z</time>
      </trkpt>
      <trkpt lat="47.2636" lon="-1.60717">
        <ele>9</ele>
        <time>2019-09-30T13:08:02.000Z</time>
      </trkpt>
      <trkpt lat="47.26362" lon="-1.60709">
        <ele>9</ele>
        <time>2019-09-30T13:08:03.000Z</time>
      </trkpt>
      <trkpt lat="47.26363" lon="-1.60701">
        <ele>9</ele>
        <time>2019-09-30T13:08:04.000Z</time>
      </trkpt>
      <trkpt lat="47.26364" lon="-1.60693">
        <ele>9</ele>
        <time>2019-09-30T13:08:05.000Z</time>
      </trkpt>
      <trkpt lat="47.26364" lon="-1.60687">
        <ele>9</ele>
        <time>2019-09-30T13:08:06.000Z</time>
      </trkpt>
      <trkpt lat="47.26362" lon="-1.60683">
        <ele>9</ele>
        <time>2019-09-30T13:08:07.000Z</time>
      </trkpt>
      <trkpt lat="47.2636" lon="-1.60679">
        <ele>9</ele>
        <time>2019-09-30T13:08:08.000Z</time>
      </trkpt>
      <trkpt lat="47.26359" lon="-1.60675">
        <ele>9</ele>
        <time>2019-09-30T13:08:09.000Z</time>
      </trkpt>
      <trkpt lat="47.26358" lon="-1.6067">
        <ele>9</ele>
        <time>2019-09-30T13:08:10.000Z</time>
      </trkpt>
      <trkpt lat="47.26358" lon="-1.60663">
        <ele>9</ele>
        <time>2019-09-30T13:08:11.000Z</time>
      </trkpt>
      <trkpt lat="47.26358" lon="-1.60656">
        <ele>9</ele>
        <time>2019-09-30T13:08:12.000Z</time>
      </trkpt>
      <trkpt lat="47.26355" lon="-1.60649">
        <ele>9</ele>
        <time>2019-09-30T13:08:13.000Z</time>
      </trkpt>
      <trkpt lat="47.26352" lon="-1.60642">
        <ele>9</ele>
        <time>2019-09-30T13:08:14.000Z</time>
      </trkpt>
      <trkpt lat="47.26347" lon="-1.60639">
        <ele>9</ele>
        <time>2019-09-30T13:08:15.000Z</time>
      </trkpt>
      <trkpt lat="47.26345" lon="-1.60638">
        <ele>9</ele>
        <time>2019-09-30T13:08:16.000Z</time>
      </trkpt>
      <trkpt lat="47.26342" lon="-1.60638">
        <ele>9</ele>
        <time>2019-09-30T13:08:17.000Z</time>
      </trkpt>
      <trkpt lat="47.2634" lon="-1.60639">
        <ele>9</ele>
        <time>2019-09-30T13:08:18.000Z</time>
      </trkpt>
      <trkpt lat="47.26339" lon="-1.60641">
        <ele>9</ele>
        <time>2019-09-30T13:08:19.000Z</time>
      </trkpt>
      <trkpt lat="47.26338" lon="-1.60642">
        <ele>8</ele>
        <time>2019-09-30T13:08:20.000Z</time>
      </trkpt>
      <trkpt lat="47.26337" lon="-1.60643">
        <ele>8</ele>
        <time>2019-09-30T13:08:21.000Z</time>
      </trkpt>
      <trkpt lat="47.26336" lon="-1.60644">
        <ele>8</ele>
        <time>2019-09-30T13:08:22.000Z</time>
      </trkpt>
      <trkpt lat="47.26335" lon="-1.60645">
        <ele>8</ele>
        <time>2019-09-30T13:08:23.000Z</time>
      </trkpt>
      <trkpt lat="47.26334" lon="-1.60646">
        <ele>8</ele>
        <time>2019-09-30T13:08:24.000Z</time>
      </trkpt>
      <trkpt lat="47.26333" lon="-1.60646">
        <ele>8</ele>
        <time>2019-09-30T13:08:25.000Z</time>
      </trkpt>
      <trkpt lat="47.26332" lon="-1.60647">
        <ele>8</ele>
        <time>2019-09-30T13:08:26.000Z</time>
      </trkpt>
      <trkpt lat="47.26332" lon="-1.60647">
        <ele>8</ele>
        <time>2019-09-30T13:08:27.000Z</time>
      </trkpt>
      <trkpt lat="47.26331" lon="-1.60647">
        <ele>8</ele>
        <time>2019-09-30T13:08:28.000Z</time>
      </trkpt>
      <trkpt lat="47.26331" lon="-1.60648">
        <ele>8</ele>
        <time>2019-09-30T13:08:29.000Z</time>
      </trkpt>
      <trkpt lat="47.2633" lon="-1.6065">
        <ele>8</ele>
        <time>2019-09-30T13:08:30.000Z</time>
      </trkpt>
      <trkpt lat="47.26329" lon="-1.60651">
        <ele>8</ele>
        <time>2019-09-30T13:08:31.000Z</time>
      </trkpt>
      <trkpt lat="47.26327" lon="-1.60653">
        <ele>8</ele>
        <time>2019-09-30T13:08:32.000Z</time>
      </trkpt>
      <trkpt lat="47.26325" lon="-1.60654">
        <ele>8</ele>
        <time>2019-09-30T13:08:33.000Z</time>
      </trkpt>
      <trkpt lat="47.26323" lon="-1.60655">
        <ele>8</ele>
        <time>2019-09-30T13:08:34.000Z</time>
      </trkpt>
      <trkpt lat="47.26321" lon="-1.60655">
        <ele>8</ele>
        <time>2019-09-30T13:08:35.000Z</time>
      </trkpt>
      <trkpt lat="47.26318" lon="-1.60654">
        <ele>8</ele>
        <time>2019-09-30T13:08:36.000Z</time>
      </trkpt>
      <trkpt lat="47.26315" lon="-1.60653">
        <ele>8</ele>
        <time>2019-09-30T13:08:37.000Z</time>
      </trkpt>
      <trkpt lat="47.26313" lon="-1.60651">
        <ele>8</ele>
        <time>2019-09-30T13:08:38.000Z</time>
      </trkpt>
      <trkpt lat="47.26311" lon="-1.60648">
        <ele>7</ele>
        <time>2019-09-30T13:08:39.000Z</time>
      </trkpt>
      <trkpt lat="47.2631" lon="-1.60645">
        <ele>7</ele>
        <time>2019-09-30T13:08:40.000Z</time>
      </trkpt>
      <trkpt lat="47.26308" lon="-1.60642">
        <ele>7</ele>
        <time>2019-09-30T13:08:41.000Z</time>
      </trkpt>
      <trkpt lat="47.26307" lon="-1.60638">
        <ele>7</ele>
        <time>2019-09-30T13:08:42.000Z</time>
      </trkpt>
      <trkpt lat="47.26306" lon="-1.60633">
        <ele>7</ele>
        <time>2019-09-30T13:08:43.000Z</time>
      </trkpt>
      <trkpt lat="47.26304" lon="-1.60629">
        <ele>7</ele>
        <time>2019-09-30T13:08:44.000Z</time>
      </trkpt>
      <trkpt lat="47.26302" lon="-1.60624">
        <ele>7</ele>
        <time>2019-09-30T13:08:45.000Z</time>
      </trkpt>
      <trkpt lat="47.263" lon="-1.6062">
        <ele>7</ele>
        <time>2019-09-30T13:08:46.000Z</time>
      </trkpt>
      <trkpt lat="47.26298" lon="-1.60616">
        <ele>7</ele>
        <time>2019-09-30T13:08:47.000Z</time>
      </trkpt>
      <trkpt lat="47.26296" lon="-1.60613">
        <ele>7</ele>
        <time>2019-09-30T13:08:48.000Z</time>
      </trkpt>
      <trkpt lat="47.26294" lon="-1.6061">
        <ele>7</ele>
        <time>2019-09-30T13:08:49.000Z</time>
      </trkpt>
      <trkpt lat="47.26292" lon="-1.60608">
        <ele>7</ele>
        <time>2019-09-30T13:08:50.000Z</time>
      </trkpt>
      <trkpt lat="47.2629" lon="-1.60606">
        <ele>6</ele>
        <time>2019-09-30T13:08:51.000Z</time>
      </trkpt>
      <trkpt lat="47.26289" lon="-1.60605">
        <ele>6</ele>
        <time>2019-09-30T13:08:52.000Z</time>
      </trkpt>
      <trkpt lat="47.26288" lon="-1.60603">
        <ele>6</ele>
        <time>2019-09-30T13:08:53.000Z</time>
      </trkpt>
      <trkpt lat="47.26288" lon="-1.60603">
        <ele>7</ele>
        <time>2019-09-30T13:08:54.000Z</time>
      </trkpt>
      <trkpt lat="47.26288" lon="-1.60603">
        <ele>7</ele>
        <time>2019-09-30T13:08:55.000Z</time>
      </trkpt>
      <trkpt lat="47.26285" lon="-1.60605">
        <ele>7</ele>
        <time>2019-09-30T13:08:56.000Z</time>
      </trkpt>
      <trkpt lat="47.26284" lon="-1.60606">
        <ele>8</ele>
        <time>2019-09-30T13:08:57.000Z</time>
      </trkpt>
      <trkpt lat="47.26284" lon="-1.60606">
        <ele>8</ele>
        <time>2019-09-30T13:08:58.000Z</time>
      </trkpt>
      <trkpt lat="47.26283" lon="-1.60607">
        <ele>8</ele>
        <time>2019-09-30T13:08:59.000Z</time>
      </trkpt>
      <trkpt lat="47.26282" lon="-1.60607">
        <ele>8</ele>
        <time>2019-09-30T13:09:00.000Z</time>
      </trkpt>
      <trkpt lat="47.2628" lon="-1.60606">
        <ele>8</ele>
        <time>2019-09-30T13:09:01.000Z</time>
      </trkpt>
      <trkpt lat="47.26279" lon="-1.60606">
        <ele>8</ele>
        <time>2019-09-30T13:09:02.000Z</time>
      </trkpt>
      <trkpt lat="47.26278" lon="-1.60606">
        <ele>8</ele>
        <time>2019-09-30T13:09:03.000Z</time>
      </trkpt>
      <trkpt lat="47.26278" lon="-1.60606">
        <ele>8</ele>
        <time>2019-09-30T13:09:04.000Z</time>
      </trkpt>
      <trkpt lat="47.26277" lon="-1.60607">
        <ele>8</ele>
        <time>2019-09-30T13:09:05.000Z</time>
      </trkpt>
      <trkpt lat="47.26277" lon="-1.60607">
        <ele>8</ele>
        <time>2019-09-30T13:09:06.000Z</time>
      </trkpt>
      <trkpt lat="47.26277" lon="-1.60607">
        <ele>8</ele>
        <time>2019-09-30T13:09:07.000Z</time>
      </trkpt>
      <trkpt lat="47.26276" lon="-1.60608">
        <ele>8</ele>
        <time>2019-09-30T13:09:08.000Z</time>
      </trkpt>
      <trkpt lat="47.26275" lon="-1.60611">
        <ele>8</ele>
        <time>2019-09-30T13:09:09.000Z</time>
      </trkpt>
      <trkpt lat="47.26275" lon="-1.60614">
        <ele>8</ele>
        <time>2019-09-30T13:09:10.000Z</time>
      </trkpt>
      <trkpt lat="47.26274" lon="-1.60618">
        <ele>8</ele>
        <time>2019-09-30T13:09:11.000Z</time>
      </trkpt>
      <trkpt lat="47.26273" lon="-1.60622">
        <ele>8</ele>
        <time>2019-09-30T13:09:12.000Z</time>
      </trkpt>
      <trkpt lat="47.26272" lon="-1.60627">
        <ele>8</ele>
        <time>2019-09-30T13:09:13.000Z</time>
      </trkpt>
      <trkpt lat="47.26271" lon="-1.60632">
        <ele>8</ele>
        <time>2019-09-30T13:09:14.000Z</time>
      </trkpt>
      <trkpt lat="47.2627" lon="-1.60638">
        <ele>8</ele>
        <time>2019-09-30T13:09:15.000Z</time>
      </trkpt>
      <trkpt lat="47.26269" lon="-1.60644">
        <ele>8</ele>
        <time>2019-09-30T13:09:16.000Z</time>
      </trkpt>
      <trkpt lat="47.26268" lon="-1.60649">
        <ele>9</ele>
        <time>2019-09-30T13:09:17.000Z</time>
      </trkpt>
      <trkpt lat="47.26266" lon="-1.60655">
        <ele>9</ele>
        <time>2019-09-30T13:09:18.000Z</time>
      </trkpt>
      <trkpt lat="47.26265" lon="-1.60661">
        <ele>9</ele>
        <time>2019-09-30T13:09:19.000Z</time>
      </trkpt>
      <trkpt lat="47.26263" lon="-1.60666">
        <ele>9</ele>
        <time>2019-09-30T13:09:20.000Z</time>
      </trkpt>
      <trkpt lat="47.26261" lon="-1.60672">
        <ele>9</ele>
        <time>2019-09-30T13:09:21.000Z</time>
      </trkpt>
      <trkpt lat="47.2626" lon="-1.60677">
        <ele>9</ele>
        <time>2019-09-30T13:09:22.000Z</time>
      </trkpt>
      <trkpt lat="47.2626" lon="-1.60682">
        <ele>9</ele>
        <time>2019-09-30T13:09:23.000Z</time>
      </trkpt>
      <trkpt lat="47.2626" lon="-1.60686">
        <ele>9</ele>
        <time>2019-09-30T13:09:24.000Z</time>
      </trkpt>
      <trkpt lat="47.26259" lon="-1.6069">
        <ele>9</ele>
        <time>2019-09-30T13:09:25.000Z</time>
      </trkpt>
      <trkpt lat="47.26257" lon="-1.60695">
        <ele>9</ele>
        <time>2019-09-30T13:09:26.000Z</time>
      </trkpt>
      <trkpt lat="47.26254" lon="-1.60699">
        <ele>9</ele>
        <time>2019-09-30T13:09:27.000Z</time>
      </trkpt>
      <trkpt lat="47.26252" lon="-1.60704">
        <ele>9</ele>
        <time>2019-09-30T13:09:28.000Z</time>
      </trkpt>
      <trkpt lat="47.26249" lon="-1.60709">
        <ele>9</ele>
        <time>2019-09-30T13:09:29.000Z</time>
      </trkpt>
      <trkpt lat="47.26247" lon="-1.60714">
        <ele>9</ele>
        <time>2019-09-30T13:09:30.000Z</time>
      </trkpt>
      <trkpt lat="47.26244" lon="-1.60718">
        <ele>9</ele>
        <time>2019-09-30T13:09:31.000Z</time>
      </trkpt>
      <trkpt lat="47.26241" lon="-1.60721">
        <ele>9</ele>
        <time>2019-09-30T13:09:32.000Z</time>
      </trkpt>
      <trkpt lat="47.26238" lon="-1.60723">
        <ele>9</ele>
        <time>2019-09-30T13:09:33.000Z</time>
      </trkpt>
      <trkpt lat="47.26235" lon="-1.60725">
        <ele>9</ele>
        <time>2019-09-30T13:09:34.000Z</time>
      </trkpt>
      <trkpt lat="47.26233" lon="-1.60728">
        <ele>9</ele>
        <time>2019-09-30T13:09:35.000Z</time>
      </trkpt>
      <trkpt lat="47.26232" lon="-1.60732">
        <ele>9</ele>
        <time>2019-09-30T13:09:36.000Z</time>
      </trkpt>
      <trkpt lat="47.26232" lon="-1.60734">
        <ele>10</ele>
        <time>2019-09-30T13:09:37.000Z</time>
      </trkpt>
      <trkpt lat="47.26233" lon="-1.60735">
        <ele>10</ele>
        <time>2019-09-30T13:09:38.000Z</time>
      </trkpt>
      <trkpt lat="47.26235" lon="-1.60736">
        <ele>10</ele>
        <time>2019-09-30T13:09:39.000Z</time>
      </trkpt>
      <trkpt lat="47.26237" lon="-1.60739">
        <ele>10</ele>
        <time>2019-09-30T13:09:40.000Z</time>
      </trkpt>
      <trkpt lat="47.26239" lon="-1.60742">
        <ele>10</ele>
        <time>2019-09-30T13:09:41.000Z</time>
      </trkpt>
      <trkpt lat="47.26241" lon="-1.60745">
        <ele>10</ele>
        <time>2019-09-30T13:09:42.000Z</time>
      </trkpt>
      <trkpt lat="47.26242" lon="-1.60748">
        <ele>11</ele>
        <time>2019-09-30T13:09:43.000Z</time>
      </trkpt>
      <trkpt lat="47.26244" lon="-1.6075">
        <ele>11</ele>
        <time>2019-09-30T13:09:44.000Z</time>
      </trkpt>
      <trkpt lat="47.26246" lon="-1.60752">
        <ele>11</ele>
        <time>2019-09-30T13:09:45.000Z</time>
      </trkpt>
      <trkpt lat="47.26248" lon="-1.60753">
        <ele>11</ele>
        <time>2019-09-30T13:09:46.000Z</time>
      </trkpt>
      <trkpt lat="47.2625" lon="-1.60756">
        <ele>11</ele>
        <time>2019-09-30T13:09:47.000Z</time>
      </trkpt>
      <trkpt lat="47.26253" lon="-1.60758">
        <ele>11</ele>
        <time>2019-09-30T13:09:48.000Z</time>
      </trkpt>
      <trkpt lat="47.26255" lon="-1.60761">
        <ele>11</ele>
        <time>2019-09-30T13:09:49.000Z</time>
      </trkpt>
      <trkpt lat="47.26257" lon="-1.60763">
        <ele>12</ele>
        <time>2019-09-30T13:09:50.000Z</time>
      </trkpt>
      <trkpt lat="47.26258" lon="-1.60767">
        <ele>12</ele>
        <time>2019-09-30T13:09:51.000Z</time>
      </trkpt>
      <trkpt lat="47.26259" lon="-1.60771">
        <ele>12</ele>
        <time>2019-09-30T13:09:52.000Z</time>
      </trkpt>
      <trkpt lat="47.26261" lon="-1.60774">
        <ele>12</ele>
        <time>2019-09-30T13:09:53.000Z</time>
      </trkpt>
      <trkpt lat="47.26262" lon="-1.60778">
        <ele>13</ele>
        <time>2019-09-30T13:09:54.000Z</time>
      </trkpt>
      <trkpt lat="47.26263" lon="-1.60781">
        <ele>13</ele>
        <time>2019-09-30T13:09:55.000Z</time>
      </trkpt>
      <trkpt lat="47.26264" lon="-1.60785">
        <ele>13</ele>
        <time>2019-09-30T13:09:56.000Z</time>
      </trkpt>
      <trkpt lat="47.26266" lon="-1.60789">
        <ele>13</ele>
        <time>2019-09-30T13:09:57.000Z</time>
      </trkpt>
      <trkpt lat="47.26267" lon="-1.60793">
        <ele>13</ele>
        <time>2019-09-30T13:09:58.000Z</time>
      </trkpt>
      <trkpt lat="47.26267" lon="-1.60796">
        <ele>13</ele>
        <time>2019-09-30T13:09:59.000Z</time>
      </trkpt>
      <trkpt lat="47.26267" lon="-1.60798">
        <ele>14</ele>
        <time>2019-09-30T13:10:00.000Z</time>
      </trkpt>
      <trkpt lat="47.26266" lon="-1.60801">
        <ele>14</ele>
        <time>2019-09-30T13:10:01.000Z</time>
      </trkpt>
      <trkpt lat="47.26264" lon="-1.60802">
        <ele>14</ele>
        <time>2019-09-30T13:10:02.000Z</time>
      </trkpt>
      <trkpt lat="47.26263" lon="-1.60803">
        <ele>15</ele>
        <time>2019-09-30T13:10:03.000Z</time>
      </trkpt>
      <trkpt lat="47.26262" lon="-1.60804">
        <ele>15</ele>
        <time>2019-09-30T13:10:04.000Z</time>
      </trkpt>
      <trkpt lat="47.26261" lon="-1.60805">
        <ele>16</ele>
        <time>2019-09-30T13:10:05.000Z</time>
      </trkpt>
      <trkpt lat="47.2626" lon="-1.60805">
        <ele>16</ele>
        <time>2019-09-30T13:10:06.000Z</time>
      </trkpt>
      <trkpt lat="47.26259" lon="-1.60804">
        <ele>16</ele>
        <time>2019-09-30T13:10:07.000Z</time>
      </trkpt>
      <trkpt lat="47.26258" lon="-1.60803">
        <ele>17</ele>
        <time>2019-09-30T13:10:08.000Z</time>
      </trkpt>
      <trkpt lat="47.26257" lon="-1.60802">
        <ele>17</ele>
        <time>2019-09-30T13:10:09.000Z</time>
      </trkpt>
      <trkpt lat="47.26256" lon="-1.608">
        <ele>18</ele>
        <time>2019-09-30T13:10:10.000Z</time>
      </trkpt>
      <trkpt lat="47.26256" lon="-1.608">
        <ele>18</ele>
        <time>2019-09-30T13:10:11.000Z</time>
      </trkpt>
      <trkpt lat="47.26255" lon="-1.60802">
        <ele>18</ele>
        <time>2019-09-30T13:10:12.000Z</time>
      </trkpt>
      <trkpt lat="47.26254" lon="-1.60803">
        <ele>19</ele>
        <time>2019-09-30T13:10:13.000Z</time>
      </trkpt>
      <trkpt lat="47.26252" lon="-1.60804">
        <ele>19</ele>
        <time>2019-09-30T13:10:14.000Z</time>
      </trkpt>
      <trkpt lat="47.26251" lon="-1.60805">
        <ele>19</ele>
        <time>2019-09-30T13:10:15.000Z</time>
      </trkpt>
      <trkpt lat="47.2625" lon="-1.60806">
        <ele>20</ele>
        <time>2019-09-30T13:10:16.000Z</time>
      </trkpt>
      <trkpt lat="47.26248" lon="-1.60807">
        <ele>20</ele>
        <time>2019-09-30T13:10:17.000Z</time>
      </trkpt>
      <trkpt lat="47.26247" lon="-1.60807">
        <ele>20</ele>
        <time>2019-09-30T13:10:18.000Z</time>
      </trkpt>
      <trkpt lat="47.26245" lon="-1.60807">
        <ele>21</ele>
        <time>2019-09-30T13:10:19.000Z</time>
      </trkpt>
      <trkpt lat="47.26243" lon="-1.60809">
        <ele>21</ele>
        <time>2019-09-30T13:10:20.000Z</time>
      </trkpt>
      <trkpt lat="47.26243" lon="-1.60811">
        <ele>21</ele>
        <time>2019-09-30T13:10:21.000Z</time>
      </trkpt>
      <trkpt lat="47.26242" lon="-1.60813">
        <ele>21</ele>
        <time>2019-09-30T13:10:22.000Z</time>
      </trkpt>
      <trkpt lat="47.26242" lon="-1.60815">
        <ele>22</ele>
        <time>2019-09-30T13:10:23.000Z</time>
      </trkpt>
      <trkpt lat="47.26242" lon="-1.60818">
        <ele>22</ele>
        <time>2019-09-30T13:10:24.000Z</time>
      </trkpt>
      <trkpt lat="47.26241" lon="-1.60821">
        <ele>22</ele>
        <time>2019-09-30T13:10:25.000Z</time>
      </trkpt>
      <trkpt lat="47.2624" lon="-1.60824">
        <ele>22</ele>
        <time>2019-09-30T13:10:26.000Z</time>
      </trkpt>
      <trkpt lat="47.26239" lon="-1.60826">
        <ele>22</ele>
        <time>2019-09-30T13:10:27.000Z</time>
      </trkpt>
      <trkpt lat="47.26238" lon="-1.60828">
        <ele>22</ele>
        <time>2019-09-30T13:10:28.000Z</time>
      </trkpt>
      <trkpt lat="47.26237" lon="-1.6083">
        <ele>23</ele>
        <time>2019-09-30T13:10:29.000Z</time>
      </trkpt>
      <trkpt lat="47.26236" lon="-1.60831">
        <ele>23</ele>
        <time>2019-09-30T13:10:30.000Z</time>
      </trkpt>
      <trkpt lat="47.26235" lon="-1.60833">
        <ele>24</ele>
        <time>2019-09-30T13:10:31.000Z</time>
      </trkpt>
      <trkpt lat="47.26235" lon="-1.60836">
        <ele>24</ele>
        <time>2019-09-30T13:10:32.000Z</time>
      </trkpt>
      <trkpt lat="47.26235" lon="-1.60838">
        <ele>25</ele>
        <time>2019-09-30T13:10:33.000Z</time>
      </trkpt>
      <trkpt lat="47.26234" lon="-1.60841">
        <ele>25</ele>
        <time>2019-09-30T13:10:34.000Z</time>
      </trkpt>
      <trkpt lat="47.26234" lon="-1.60842">
        <ele>25</ele>
        <time>2019-09-30T13:10:35.000Z</time>
      </trkpt>
      <trkpt lat="47.26234" lon="-1.60843">
        <ele>26</ele>
        <time>2019-09-30T13:10:36.000Z</time>
      </trkpt>
      <trkpt lat="47.26234" lon="-1.60843">
        <ele>26</ele>
        <time>2019-09-30T13:10:37.000Z</time>
      </trkpt>
      <trkpt lat="47.26234" lon="-1.60844">
        <ele>26</ele>
        <time>2019-09-30T13:10:38.000Z</time>
      </trkpt>
      <trkpt lat="47.26233" lon="-1.60844">
        <ele>26</ele>
        <time>2019-09-30T13:10:39.000Z</time>
      </trkpt>
      <trkpt lat="47.26232" lon="-1.60843">
        <ele>30</ele>
        <time>2019-09-30T13:10:40.000Z</time>
      </trkpt>
      <trkpt lat="47.26232" lon="-1.60841">
        <ele>30</ele>
        <time>2019-09-30T13:10:41.000Z</time>
      </trkpt>
      <trkpt lat="47.26232" lon="-1.6084">
        <ele>30</ele>
        <time>2019-09-30T13:10:42.000Z</time>
      </trkpt>
      <trkpt lat="47.26232" lon="-1.60837">
        <ele>30</ele>
        <time>2019-09-30T13:10:43.000Z</time>
      </trkpt>
      <trkpt lat="47.26233" lon="-1.60835">
        <ele>30</ele>
        <time>2019-09-30T13:10:44.000Z</time>
      </trkpt>
      <trkpt lat="47.26234" lon="-1.60832">
        <ele>31</ele>
        <time>2019-09-30T13:10:45.000Z</time>
      </trkpt>
      <trkpt lat="47.26234" lon="-1.60827">
        <ele>31</ele>
        <time>2019-09-30T13:10:46.000Z</time>
      </trkpt>
      <trkpt lat="47.26235" lon="-1.60823">
        <ele>31</ele>
        <time>2019-09-30T13:10:47.000Z</time>
      </trkpt>
      <trkpt lat="47.26235" lon="-1.60817">
        <ele>31</ele>
        <time>2019-09-30T13:10:48.000Z</time>
      </trkpt>
      <trkpt lat="47.26235" lon="-1.60811">
        <ele>31</ele>
        <time>2019-09-30T13:10:49.000Z</time>
      </trkpt>
      <trkpt lat="47.26235" lon="-1.60806">
        <ele>31</ele>
        <time>2019-09-30T13:10:50.000Z</time>
      </trkpt>
      <trkpt lat="47.26234" lon="-1.60801">
        <ele>31</ele>
        <time>2019-09-30T13:10:51.000Z</time>
      </trkpt>
      <trkpt lat="47.26234" lon="-1.60797">
        <ele>31</ele>
        <time>2019-09-30T13:10:52.000Z</time>
      </trkpt>
      <trkpt lat="47.26234" lon="-1.60793">
        <ele>31</ele>
        <time>2019-09-30T13:10:53.000Z</time>
      </trkpt>
      <trkpt lat="47.26235" lon="-1.60791">
        <ele>30</ele>
        <time>2019-09-30T13:10:54.000Z</time>
      </trkpt>
      <trkpt lat="47.26235" lon="-1.60787">
        <ele>30</ele>
        <time>2019-09-30T13:10:55.000Z</time>
      </trkpt>
      <trkpt lat="47.26235" lon="-1.60782">
        <ele>30</ele>
        <time>2019-09-30T13:10:56.000Z</time>
      </trkpt>
      <trkpt lat="47.26235" lon="-1.60778">
        <ele>30</ele>
        <time>2019-09-30T13:10:57.000Z</time>
      </trkpt>
      <trkpt lat="47.26235" lon="-1.60772">
        <ele>30</ele>
        <time>2019-09-30T13:10:58.000Z</time>
      </trkpt>
      <trkpt lat="47.26234" lon="-1.60767">
        <ele>29</ele>
        <time>2019-09-30T13:10:59.000Z</time>
      </trkpt>
      <trkpt lat="47.26234" lon="-1.6076">
        <ele>29</ele>
        <time>2019-09-30T13:11:00.000Z</time>
      </trkpt>
      <trkpt lat="47.26234" lon="-1.60754">
        <ele>29</ele>
        <time>2019-09-30T13:11:01.000Z</time>
      </trkpt>
      <trkpt lat="47.26233" lon="-1.6075">
        <ele>29</ele>
        <time>2019-09-30T13:11:02.000Z</time>
      </trkpt>
      <trkpt lat="47.26231" lon="-1.60746">
        <ele>29</ele>
        <time>2019-09-30T13:11:03.000Z</time>
      </trkpt>
      <trkpt lat="47.26228" lon="-1.60742">
        <ele>29</ele>
        <time>2019-09-30T13:11:04.000Z</time>
      </trkpt>
      <trkpt lat="47.26226" lon="-1.60738">
        <ele>28</ele>
        <time>2019-09-30T13:11:05.000Z</time>
      </trkpt>
      <trkpt lat="47.26225" lon="-1.60733">
        <ele>28</ele>
        <time>2019-09-30T13:11:06.000Z</time>
      </trkpt>
      <trkpt lat="47.26223" lon="-1.60727">
        <ele>28</ele>
        <time>2019-09-30T13:11:07.000Z</time>
      </trkpt>
      <trkpt lat="47.2622" lon="-1.60723">
        <ele>28</ele>
        <time>2019-09-30T13:11:08.000Z</time>
      </trkpt>
      <trkpt lat="47.26216" lon="-1.60719">
        <ele>27</ele>
        <time>2019-09-30T13:11:09.000Z</time>
      </trkpt>
      <trkpt lat="47.26212" lon="-1.60717">
        <ele>27</ele>
        <time>2019-09-30T13:11:10.000Z</time>
      </trkpt>
      <trkpt lat="47.26209" lon="-1.60715">
        <ele>27</ele>
        <time>2019-09-30T13:11:11.000Z</time>
      </trkpt>
      <trkpt lat="47.26205" lon="-1.60714">
        <ele>26</ele>
        <time>2019-09-30T13:11:12.000Z</time>
      </trkpt>
      <trkpt lat="47.26201" lon="-1.60713">
        <ele>26</ele>
        <time>2019-09-30T13:11:13.000Z</time>
      </trkpt>
      <trkpt lat="47.26196" lon="-1.60712">
        <ele>25</ele>
        <time>2019-09-30T13:11:14.000Z</time>
      </trkpt>
      <trkpt lat="47.26192" lon="-1.60713">
        <ele>25</ele>
        <time>2019-09-30T13:11:15.000Z</time>
      </trkpt>
      <trkpt lat="47.26188" lon="-1.60714">
        <ele>24</ele>
        <time>2019-09-30T13:11:16.000Z</time>
      </trkpt>
      <trkpt lat="47.26184" lon="-1.60714">
        <ele>23</ele>
        <time>2019-09-30T13:11:17.000Z</time>
      </trkpt>
      <trkpt lat="47.2618" lon="-1.60713">
        <ele>23</ele>
        <time>2019-09-30T13:11:18.000Z</time>
      </trkpt>
      <trkpt lat="47.26176" lon="-1.60713">
        <ele>22</ele>
        <time>2019-09-30T13:11:19.000Z</time>
      </trkpt>
      <trkpt lat="47.26172" lon="-1.60712">
        <ele>22</ele>
        <time>2019-09-30T13:11:20.000Z</time>
      </trkpt>
      <trkpt lat="47.26168" lon="-1.60711">
        <ele>21</ele>
        <time>2019-09-30T13:11:21.000Z</time>
      </trkpt>
      <trkpt lat="47.26164" lon="-1.60709">
        <ele>21</ele>
        <time>2019-09-30T13:11:22.000Z</time>
      </trkpt>
      <trkpt lat="47.2616" lon="-1.60707">
        <ele>20</ele>
        <time>2019-09-30T13:11:23.000Z</time>
      </trkpt>
      <trkpt lat="47.26156" lon="-1.60705">
        <ele>20</ele>
        <time>2019-09-30T13:11:24.000Z</time>
      </trkpt>
      <trkpt lat="47.26151" lon="-1.60703">
        <ele>20</ele>
        <time>2019-09-30T13:11:25.000Z</time>
      </trkpt>
      <trkpt lat="47.26147" lon="-1.60702">
        <ele>19</ele>
        <time>2019-09-30T13:11:26.000Z</time>
      </trkpt>
      <trkpt lat="47.26143" lon="-1.60701">
        <ele>19</ele>
        <time>2019-09-30T13:11:27.000Z</time>
      </trkpt>
      <trkpt lat="47.26139" lon="-1.607">
        <ele>19</ele>
        <time>2019-09-30T13:11:28.000Z</time>
      </trkpt>
      <trkpt lat="47.26135" lon="-1.60701">
        <ele>18</ele>
        <time>2019-09-30T13:11:29.000Z</time>
      </trkpt>
      <trkpt lat="47.26131" lon="-1.60701">
        <ele>18</ele>
        <time>2019-09-30T13:11:30.000Z</time>
      </trkpt>
      <trkpt lat="47.26128" lon="-1.60702">
        <ele>18</ele>
        <time>2019-09-30T13:11:31.000Z</time>
      </trkpt>
      <trkpt lat="47.26125" lon="-1.60702">
        <ele>18</ele>
        <time>2019-09-30T13:11:32.000Z</time>
      </trkpt>
      <trkpt lat="47.26122" lon="-1.60702">
        <ele>18</ele>
        <time>2019-09-30T13:11:33.000Z</time>
      </trkpt>
      <trkpt lat="47.26118" lon="-1.60702">
        <ele>18</ele>
        <time>2019-09-30T13:11:34.000Z</time>
      </trkpt>
      <trkpt lat="47.26115" lon="-1.60702">
        <ele>18</ele>
        <time>2019-09-30T13:11:35.000Z</time>
      </trkpt>
      <trkpt lat="47.26112" lon="-1.60702">
        <ele>17</ele>
        <time>2019-09-30T13:11:36.000Z</time>
      </trkpt>
      <trkpt lat="47.26109" lon="-1.60702">
        <ele>17</ele>
        <time>2019-09-30T13:11:37.000Z</time>
      </trkpt>
      <trkpt lat="47.26106" lon="-1.60703">
        <ele>17</ele>
        <time>2019-09-30T13:11:38.000Z</time>
      </trkpt>
      <trkpt lat="47.26104" lon="-1.60703">
        <ele>17</ele>
        <time>2019-09-30T13:11:39.000Z</time>
      </trkpt>
      <trkpt lat="47.26101" lon="-1.60704">
        <ele>17</ele>
        <time>2019-09-30T13:11:40.000Z</time>
      </trkpt>
      <trkpt lat="47.26099" lon="-1.60705">
        <ele>17</ele>
        <time>2019-09-30T13:11:41.000Z</time>
      </trkpt>
      <trkpt lat="47.26096" lon="-1.60706">
        <ele>17</ele>
        <time>2019-09-30T13:11:42.000Z</time>
      </trkpt>
      <trkpt lat="47.26094" lon="-1.60708">
        <ele>17</ele>
        <time>2019-09-30T13:11:43.000Z</time>
      </trkpt>
      <trkpt lat="47.26091" lon="-1.60709">
        <ele>17</ele>
        <time>2019-09-30T13:11:44.000Z</time>
      </trkpt>
      <trkpt lat="47.26089" lon="-1.6071">
        <ele>17</ele>
        <time>2019-09-30T13:11:45.000Z</time>
      </trkpt>
      <trkpt lat="47.26086" lon="-1.6071">
        <ele>17</ele>
        <time>2019-09-30T13:11:46.000Z</time>
      </trkpt>
      <trkpt lat="47.26084" lon="-1.6071">
        <ele>17</ele>
        <time>2019-09-30T13:11:47.000Z</time>
      </trkpt>
      <trkpt lat="47.26082" lon="-1.6071">
        <ele>17</ele>
        <time>2019-09-30T13:11:48.000Z</time>
      </trkpt>
      <trkpt lat="47.2608" lon="-1.6071">
        <ele>18</ele>
        <time>2019-09-30T13:11:49.000Z</time>
      </trkpt>
      <trkpt lat="47.26079" lon="-1.60709">
        <ele>18</ele>
        <time>2019-09-30T13:11:50.000Z</time>
      </trkpt>
      <trkpt lat="47.26077" lon="-1.6071">
        <ele>18</ele>
        <time>2019-09-30T13:11:51.000Z</time>
      </trkpt>
      <trkpt lat="47.26075" lon="-1.60711">
        <ele>18</ele>
        <time>2019-09-30T13:11:52.000Z</time>
      </trkpt>
      <trkpt lat="47.26074" lon="-1.60711">
        <ele>18</ele>
        <time>2019-09-30T13:11:53.000Z</time>
      </trkpt>
      <trkpt lat="47.26072" lon="-1.60711">
        <ele>19</ele>
        <time>2019-09-30T13:11:54.000Z</time>
      </trkpt>
      <trkpt lat="47.26071" lon="-1.60711">
        <ele>19</ele>
        <time>2019-09-30T13:11:55.000Z</time>
      </trkpt>
      <trkpt lat="47.26069" lon="-1.6071">
        <ele>19</ele>
        <time>2019-09-30T13:11:56.000Z</time>
      </trkpt>
      <trkpt lat="47.26067" lon="-1.60709">
        <ele>19</ele>
        <time>2019-09-30T13:11:57.000Z</time>
      </trkpt>
      <trkpt lat="47.26064" lon="-1.60709">
        <ele>20</ele>
        <time>2019-09-30T13:11:58.000Z</time>
      </trkpt>
      <trkpt lat="47.26061" lon="-1.60708">
        <ele>20</ele>
        <time>2019-09-30T13:11:59.000Z</time>
      </trkpt>
      <trkpt lat="47.26058" lon="-1.60708">
        <ele>20</ele>
        <time>2019-09-30T13:12:00.000Z</time>
      </trkpt>
      <trkpt lat="47.26054" lon="-1.60707">
        <ele>20</ele>
        <time>2019-09-30T13:12:01.000Z</time>
      </trkpt>
      <trkpt lat="47.2605" lon="-1.60705">
        <ele>20</ele>
        <time>2019-09-30T13:12:02.000Z</time>
      </trkpt>
      <trkpt lat="47.26047" lon="-1.60702">
        <ele>21</ele>
        <time>2019-09-30T13:12:03.000Z</time>
      </trkpt>
      <trkpt lat="47.26043" lon="-1.60698">
        <ele>21</ele>
        <time>2019-09-30T13:12:04.000Z</time>
      </trkpt>
      <trkpt lat="47.26039" lon="-1.60695">
        <ele>21</ele>
        <time>2019-09-30T13:12:05.000Z</time>
      </trkpt>
      <trkpt lat="47.26036" lon="-1.60694">
        <ele>21</ele>
        <time>2019-09-30T13:12:06.000Z</time>
      </trkpt>
      <trkpt lat="47.26033" lon="-1.60694">
        <ele>21</ele>
        <time>2019-09-30T13:12:07.000Z</time>
      </trkpt>
      <trkpt lat="47.26031" lon="-1.60694">
        <ele>21</ele>
        <time>2019-09-30T13:12:08.000Z</time>
      </trkpt>
      <trkpt lat="47.26028" lon="-1.60696">
        <ele>21</ele>
        <time>2019-09-30T13:12:09.000Z</time>
      </trkpt>
      <trkpt lat="47.26027" lon="-1.60697">
        <ele>22</ele>
        <time>2019-09-30T13:12:10.000Z</time>
      </trkpt>
      <trkpt lat="47.26024" lon="-1.60698">
        <ele>22</ele>
        <time>2019-09-30T13:12:11.000Z</time>
      </trkpt>
      <trkpt lat="47.26022" lon="-1.60699">
        <ele>22</ele>
        <time>2019-09-30T13:12:12.000Z</time>
      </trkpt>
      <trkpt lat="47.26019" lon="-1.60699">
        <ele>22</ele>
        <time>2019-09-30T13:12:13.000Z</time>
      </trkpt>
      <trkpt lat="47.26017" lon="-1.60699">
        <ele>22</ele>
        <time>2019-09-30T13:12:14.000Z</time>
      </trkpt>
      <trkpt lat="47.26015" lon="-1.60699">
        <ele>22</ele>
        <time>2019-09-30T13:12:15.000Z</time>
      </trkpt>
      <trkpt lat="47.26012" lon="-1.607">
        <ele>22</ele>
        <time>2019-09-30T13:12:16.000Z</time>
      </trkpt>
      <trkpt lat="47.26009" lon="-1.607">
        <ele>23</ele>
        <time>2019-09-30T13:12:17.000Z</time>
      </trkpt>
      <trkpt lat="47.26008" lon="-1.607">
        <ele>23</ele>
        <time>2019-09-30T13:12:18.000Z</time>
      </trkpt>
      <trkpt lat="47.26007" lon="-1.607">
        <ele>23</ele>
        <time>2019-09-30T13:12:19.000Z</time>
      </trkpt>
      <trkpt lat="47.26005" lon="-1.60699">
        <ele>23</ele>
        <time>2019-09-30T13:12:20.000Z</time>
      </trkpt>
      <trkpt lat="47.26004" lon="-1.60698">
        <ele>23</ele>
        <time>2019-09-30T13:12:21.000Z</time>
      </trkpt>
      <trkpt lat="47.26001" lon="-1.60698">
        <ele>23</ele>
        <time>2019-09-30T13:12:22.000Z</time>
      </trkpt>
      <trkpt lat="47.25999" lon="-1.60698">
        <ele>23</ele>
        <time>2019-09-30T13:12:23.000Z</time>
      </trkpt>
      <trkpt lat="47.25997" lon="-1.60699">
        <ele>23</ele>
        <time>2019-09-30T13:12:24.000Z</time>
      </trkpt>
      <trkpt lat="47.25995" lon="-1.60698">
        <ele>23</ele>
        <time>2019-09-30T13:12:25.000Z</time>
      </trkpt>
      <trkpt lat="47.25993" lon="-1.60699">
        <ele>23</ele>
        <time>2019-09-30T13:12:26.000Z</time>
      </trkpt>
      <trkpt lat="47.25991" lon="-1.60701">
        <ele>23</ele>
        <time>2019-09-30T13:12:27.000Z</time>
      </trkpt>
      <trkpt lat="47.25989" lon="-1.60701">
        <ele>23</ele>
        <time>2019-09-30T13:12:28.000Z</time>
      </trkpt>
      <trkpt lat="47.25986" lon="-1.60701">
        <ele>23</ele>
        <time>2019-09-30T13:12:29.000Z</time>
      </trkpt>
      <trkpt lat="47.25984" lon="-1.60701">
        <ele>23</ele>
        <time>2019-09-30T13:12:30.000Z</time>
      </trkpt>
      <trkpt lat="47.25982" lon="-1.60702">
        <ele>23</ele>
        <time>2019-09-30T13:12:31.000Z</time>
      </trkpt>
      <trkpt lat="47.25982" lon="-1.60702">
        <ele>23</ele>
        <time>2019-09-30T13:12:32.000Z</time>
      </trkpt>
      <trkpt lat="47.25981" lon="-1.60702">
        <ele>22</ele>
        <time>2019-09-30T13:12:33.000Z</time>
      </trkpt>
      <trkpt lat="47.25979" lon="-1.60703">
        <ele>22</ele>
        <time>2019-09-30T13:12:34.000Z</time>
      </trkpt>
      <trkpt lat="47.25978" lon="-1.60704">
        <ele>22</ele>
        <time>2019-09-30T13:12:35.000Z</time>
      </trkpt>
      <trkpt lat="47.25976" lon="-1.60705">
        <ele>22</ele>
        <time>2019-09-30T13:12:36.000Z</time>
      </trkpt>
      <trkpt lat="47.25975" lon="-1.60705">
        <ele>22</ele>
        <time>2019-09-30T13:12:37.000Z</time>
      </trkpt>
      <trkpt lat="47.25972" lon="-1.60706">
        <ele>22</ele>
        <time>2019-09-30T13:12:38.000Z</time>
      </trkpt>
      <trkpt lat="47.2597" lon="-1.60707">
        <ele>22</ele>
        <time>2019-09-30T13:12:39.000Z</time>
      </trkpt>
      <trkpt lat="47.25967" lon="-1.60709">
        <ele>22</ele>
        <time>2019-09-30T13:12:40.000Z</time>
      </trkpt>
      <trkpt lat="47.25965" lon="-1.60709">
        <ele>22</ele>
        <time>2019-09-30T13:12:41.000Z</time>
      </trkpt>
      <trkpt lat="47.25963" lon="-1.60709">
        <ele>22</ele>
        <time>2019-09-30T13:12:42.000Z</time>
      </trkpt>
      <trkpt lat="47.25962" lon="-1.60711">
        <ele>22</ele>
        <time>2019-09-30T13:12:43.000Z</time>
      </trkpt>
      <trkpt lat="47.2596" lon="-1.60713">
        <ele>22</ele>
        <time>2019-09-30T13:12:44.000Z</time>
      </trkpt>
      <trkpt lat="47.25958" lon="-1.60713">
        <ele>22</ele>
        <time>2019-09-30T13:12:45.000Z</time>
      </trkpt>
      <trkpt lat="47.25955" lon="-1.60712">
        <ele>22</ele>
        <time>2019-09-30T13:12:46.000Z</time>
      </trkpt>
      <trkpt lat="47.25951" lon="-1.60713">
        <ele>22</ele>
        <time>2019-09-30T13:12:47.000Z</time>
      </trkpt>
      <trkpt lat="47.25949" lon="-1.60716">
        <ele>23</ele>
        <time>2019-09-30T13:12:48.000Z</time>
      </trkpt>
      <trkpt lat="47.25946" lon="-1.60718">
        <ele>23</ele>
        <time>2019-09-30T13:12:49.000Z</time>
      </trkpt>
      <trkpt lat="47.25943" lon="-1.60719">
        <ele>23</ele>
        <time>2019-09-30T13:12:50.000Z</time>
      </trkpt>
      <trkpt lat="47.25939" lon="-1.60721">
        <ele>23</ele>
        <time>2019-09-30T13:12:51.000Z</time>
      </trkpt>
      <trkpt lat="47.25936" lon="-1.60724">
        <ele>23</ele>
        <time>2019-09-30T13:12:52.000Z</time>
      </trkpt>
      <trkpt lat="47.25934" lon="-1.60726">
        <ele>23</ele>
        <time>2019-09-30T13:12:53.000Z</time>
      </trkpt>
      <trkpt lat="47.25931" lon="-1.60729">
        <ele>23</ele>
        <time>2019-09-30T13:12:54.000Z</time>
      </trkpt>
      <trkpt lat="47.25929" lon="-1.6073">
        <ele>23</ele>
        <time>2019-09-30T13:12:55.000Z</time>
      </trkpt>
      <trkpt lat="47.25927" lon="-1.60732">
        <ele>23</ele>
        <time>2019-09-30T13:12:56.000Z</time>
      </trkpt>
      <trkpt lat="47.25924" lon="-1.60733">
        <ele>23</ele>
        <time>2019-09-30T13:12:57.000Z</time>
      </trkpt>
      <trkpt lat="47.25921" lon="-1.60734">
        <ele>23</ele>
        <time>2019-09-30T13:12:58.000Z</time>
      </trkpt>
      <trkpt lat="47.25918" lon="-1.60736">
        <ele>23</ele>
        <time>2019-09-30T13:12:59.000Z</time>
      </trkpt>
      <trkpt lat="47.25916" lon="-1.60738">
        <ele>23</ele>
        <time>2019-09-30T13:13:00.000Z</time>
      </trkpt>
      <trkpt lat="47.25915" lon="-1.60741">
        <ele>23</ele>
        <time>2019-09-30T13:13:01.000Z</time>
      </trkpt>
      <trkpt lat="47.25914" lon="-1.60742">
        <ele>23</ele>
        <time>2019-09-30T13:13:02.000Z</time>
      </trkpt>
      <trkpt lat="47.25912" lon="-1.60745">
        <ele>23</ele>
        <time>2019-09-30T13:13:03.000Z</time>
      </trkpt>
      <trkpt lat="47.25911" lon="-1.60747">
        <ele>23</ele>
        <time>2019-09-30T13:13:04.000Z</time>
      </trkpt>
      <trkpt lat="47.2591" lon="-1.60748">
        <ele>23</ele>
        <time>2019-09-30T13:13:05.000Z</time>
      </trkpt>
      <trkpt lat="47.25909" lon="-1.6075">
        <ele>23</ele>
        <time>2019-09-30T13:13:06.000Z</time>
      </trkpt>
      <trkpt lat="47.25908" lon="-1.60751">
        <ele>23</ele>
        <time>2019-09-30T13:13:07.000Z</time>
      </trkpt>
      <trkpt lat="47.25905" lon="-1.60752">
        <ele>24</ele>
        <time>2019-09-30T13:13:08.000Z</time>
      </trkpt>
      <trkpt lat="47.25903" lon="-1.60753">
        <ele>24</ele>
        <time>2019-09-30T13:13:09.000Z</time>
      </trkpt>
      <trkpt lat="47.25901" lon="-1.60755">
        <ele>24</ele>
        <time>2019-09-30T13:13:10.000Z</time>
      </trkpt>
      <trkpt lat="47.25899" lon="-1.60757">
        <ele>24</ele>
        <time>2019-09-30T13:13:11.000Z</time>
      </trkpt>
      <trkpt lat="47.25896" lon="-1.60759">
        <ele>25</ele>
        <time>2019-09-30T13:13:12.000Z</time>
      </trkpt>
      <trkpt lat="47.25894" lon="-1.60762">
        <ele>25</ele>
        <time>2019-09-30T13:13:13.000Z</time>
      </trkpt>
      <trkpt lat="47.25892" lon="-1.60763">
        <ele>25</ele>
        <time>2019-09-30T13:13:14.000Z</time>
      </trkpt>
      <trkpt lat="47.2589" lon="-1.60765">
        <ele>25</ele>
        <time>2019-09-30T13:13:15.000Z</time>
      </trkpt>
      <trkpt lat="47.25889" lon="-1.60767">
        <ele>25</ele>
        <time>2019-09-30T13:13:16.000Z</time>
      </trkpt>
      <trkpt lat="47.25887" lon="-1.60768">
        <ele>26</ele>
        <time>2019-09-30T13:13:17.000Z</time>
      </trkpt>
      <trkpt lat="47.25885" lon="-1.6077">
        <ele>26</ele>
        <time>2019-09-30T13:13:18.000Z</time>
      </trkpt>
      <trkpt lat="47.25884" lon="-1.60771">
        <ele>26</ele>
        <time>2019-09-30T13:13:19.000Z</time>
      </trkpt>
      <trkpt lat="47.25883" lon="-1.60772">
        <ele>26</ele>
        <time>2019-09-30T13:13:20.000Z</time>
      </trkpt>
      <trkpt lat="47.25882" lon="-1.60773">
        <ele>26</ele>
        <time>2019-09-30T13:13:21.000Z</time>
      </trkpt>
      <trkpt lat="47.25881" lon="-1.60773">
        <ele>26</ele>
        <time>2019-09-30T13:13:22.000Z</time>
      </trkpt>
      <trkpt lat="47.25879" lon="-1.60775">
        <ele>26</ele>
        <time>2019-09-30T13:13:23.000Z</time>
      </trkpt>
      <trkpt lat="47.25877" lon="-1.60778">
        <ele>26</ele>
        <time>2019-09-30T13:13:24.000Z</time>
      </trkpt>
      <trkpt lat="47.25875" lon="-1.60781">
        <ele>26</ele>
        <time>2019-09-30T13:13:25.000Z</time>
      </trkpt>
      <trkpt lat="47.25873" lon="-1.60783">
        <ele>27</ele>
        <time>2019-09-30T13:13:26.000Z</time>
      </trkpt>
      <trkpt lat="47.2587" lon="-1.60785">
        <ele>27</ele>
        <time>2019-09-30T13:13:27.000Z</time>
      </trkpt>
      <trkpt lat="47.25867" lon="-1.60787">
        <ele>27</ele>
        <time>2019-09-30T13:13:28.000Z</time>
      </trkpt>
      <trkpt lat="47.25865" lon="-1.60789">
        <ele>27</ele>
        <time>2019-09-30T13:13:29.000Z</time>
      </trkpt>
      <trkpt lat="47.25863" lon="-1.6079">
        <ele>27</ele>
        <time>2019-09-30T13:13:30.000Z</time>
      </trkpt>
      <trkpt lat="47.25862" lon="-1.60791">
        <ele>27</ele>
        <time>2019-09-30T13:13:31.000Z</time>
      </trkpt>
      <trkpt lat="47.25861" lon="-1.6079">
        <ele>27</ele>
        <time>2019-09-30T13:13:32.000Z</time>
      </trkpt>
      <trkpt lat="47.25861" lon="-1.60788">
        <ele>28</ele>
        <time>2019-09-30T13:13:33.000Z</time>
      </trkpt>
      <trkpt lat="47.25861" lon="-1.60787">
        <ele>28</ele>
        <time>2019-09-30T13:13:34.000Z</time>
      </trkpt>
      <trkpt lat="47.2586" lon="-1.60786">
        <ele>28</ele>
        <time>2019-09-30T13:13:35.000Z</time>
      </trkpt>
      <trkpt lat="47.2586" lon="-1.60785">
        <ele>28</ele>
        <time>2019-09-30T13:13:36.000Z</time>
      </trkpt>
      <trkpt lat="47.2586" lon="-1.60783">
        <ele>28</ele>
        <time>2019-09-30T13:13:37.000Z</time>
      </trkpt>
      <trkpt lat="47.25861" lon="-1.60782">
        <ele>28</ele>
        <time>2019-09-30T13:13:38.000Z</time>
      </trkpt>
      <trkpt lat="47.25861" lon="-1.60779">
        <ele>28</ele>
        <time>2019-09-30T13:13:39.000Z</time>
      </trkpt>
      <trkpt lat="47.25862" lon="-1.60775">
        <ele>28</ele>
        <time>2019-09-30T13:13:40.000Z</time>
      </trkpt>
      <trkpt lat="47.25863" lon="-1.60771">
        <ele>28</ele>
        <time>2019-09-30T13:13:41.000Z</time>
      </trkpt>
      <trkpt lat="47.25863" lon="-1.60767">
        <ele>28</ele>
        <time>2019-09-30T13:13:42.000Z</time>
      </trkpt>
      <trkpt lat="47.25862" lon="-1.60764">
        <ele>28</ele>
        <time>2019-09-30T13:13:43.000Z</time>
      </trkpt>
      <trkpt lat="47.25861" lon="-1.60761">
        <ele>28</ele>
        <time>2019-09-30T13:13:44.000Z</time>
      </trkpt>
      <trkpt lat="47.2586" lon="-1.60759">
        <ele>28</ele>
        <time>2019-09-30T13:13:45.000Z</time>
      </trkpt>
      <trkpt lat="47.25859" lon="-1.60757">
        <ele>28</ele>
        <time>2019-09-30T13:13:46.000Z</time>
      </trkpt>
      <trkpt lat="47.25859" lon="-1.60754">
        <ele>28</ele>
        <time>2019-09-30T13:13:47.000Z</time>
      </trkpt>
      <trkpt lat="47.25859" lon="-1.60752">
        <ele>29</ele>
        <time>2019-09-30T13:13:48.000Z</time>
      </trkpt>
      <trkpt lat="47.25859" lon="-1.6075">
        <ele>29</ele>
        <time>2019-09-30T13:13:49.000Z</time>
      </trkpt>
      <trkpt lat="47.25859" lon="-1.60747">
        <ele>29</ele>
        <time>2019-09-30T13:13:50.000Z</time>
      </trkpt>
      <trkpt lat="47.2586" lon="-1.60745">
        <ele>29</ele>
        <time>2019-09-30T13:13:51.000Z</time>
      </trkpt>
      <trkpt lat="47.2586" lon="-1.60743">
        <ele>29</ele>
        <time>2019-09-30T13:13:52.000Z</time>
      </trkpt>
      <trkpt lat="47.2586" lon="-1.6074">
        <ele>29</ele>
        <time>2019-09-30T13:13:53.000Z</time>
      </trkpt>
      <trkpt lat="47.2586" lon="-1.60737">
        <ele>29</ele>
        <time>2019-09-30T13:13:54.000Z</time>
      </trkpt>
      <trkpt lat="47.2586" lon="-1.60735">
        <ele>29</ele>
        <time>2019-09-30T13:13:55.000Z</time>
      </trkpt>
      <trkpt lat="47.2586" lon="-1.60732">
        <ele>29</ele>
        <time>2019-09-30T13:13:56.000Z</time>
      </trkpt>
      <trkpt lat="47.2586" lon="-1.60729">
        <ele>29</ele>
        <time>2019-09-30T13:13:57.000Z</time>
      </trkpt>
      <trkpt lat="47.25861" lon="-1.60727">
        <ele>29</ele>
        <time>2019-09-30T13:13:58.000Z</time>
      </trkpt>
      <trkpt lat="47.25862" lon="-1.60723">
        <ele>29</ele>
        <time>2019-09-30T13:13:59.000Z</time>
      </trkpt>
      <trkpt lat="47.25864" lon="-1.6072">
        <ele>29</ele>
        <time>2019-09-30T13:14:00.000Z</time>
      </trkpt>
      <trkpt lat="47.25866" lon="-1.60717">
        <ele>29</ele>
        <time>2019-09-30T13:14:01.000Z</time>
      </trkpt>
      <trkpt lat="47.25867" lon="-1.60713">
        <ele>28</ele>
        <time>2019-09-30T13:14:02.000Z</time>
      </trkpt>
      <trkpt lat="47.25868" lon="-1.60709">
        <ele>28</ele>
        <time>2019-09-30T13:14:03.000Z</time>
      </trkpt>
      <trkpt lat="47.25868" lon="-1.60706">
        <ele>28</ele>
        <time>2019-09-30T13:14:04.000Z</time>
      </trkpt>
      <trkpt lat="47.25868" lon="-1.60704">
        <ele>28</ele>
        <time>2019-09-30T13:14:05.000Z</time>
      </trkpt>
      <trkpt lat="47.25869" lon="-1.60702">
        <ele>28</ele>
        <time>2019-09-30T13:14:06.000Z</time>
      </trkpt>
      <trkpt lat="47.2587" lon="-1.60702">
        <ele>28</ele>
        <time>2019-09-30T13:14:07.000Z</time>
      </trkpt>
      <trkpt lat="47.25869" lon="-1.60701">
        <ele>28</ele>
        <time>2019-09-30T13:14:08.000Z</time>
      </trkpt>
      <trkpt lat="47.25869" lon="-1.60701">
        <ele>28</ele>
        <time>2019-09-30T13:14:09.000Z</time>
      </trkpt>
      <trkpt lat="47.2587" lon="-1.60696">
        <ele>28</ele>
        <time>2019-09-30T13:14:10.000Z</time>
      </trkpt>
      <trkpt lat="47.25872" lon="-1.60695">
        <ele>28</ele>
        <time>2019-09-30T13:14:11.000Z</time>
      </trkpt>
      <trkpt lat="47.25874" lon="-1.60693">
        <ele>28</ele>
        <time>2019-09-30T13:14:12.000Z</time>
      </trkpt>
      <trkpt lat="47.25877" lon="-1.60691">
        <ele>27</ele>
        <time>2019-09-30T13:14:13.000Z</time>
      </trkpt>
      <trkpt lat="47.25879" lon="-1.6069">
        <ele>27</ele>
        <time>2019-09-30T13:14:14.000Z</time>
      </trkpt>
      <trkpt lat="47.25881" lon="-1.60688">
        <ele>27</ele>
        <time>2019-09-30T13:14:15.000Z</time>
      </trkpt>
      <trkpt lat="47.25884" lon="-1.60686">
        <ele>26</ele>
        <time>2019-09-30T13:14:16.000Z</time>
      </trkpt>
      <trkpt lat="47.25887" lon="-1.60684">
        <ele>26</ele>
        <time>2019-09-30T13:14:17.000Z</time>
      </trkpt>
      <trkpt lat="47.25891" lon="-1.60681">
        <ele>26</ele>
        <time>2019-09-30T13:14:18.000Z</time>
      </trkpt>
      <trkpt lat="47.25895" lon="-1.60678">
        <ele>26</ele>
        <time>2019-09-30T13:14:19.000Z</time>
      </trkpt>
      <trkpt lat="47.25899" lon="-1.60673">
        <ele>26</ele>
        <time>2019-09-30T13:14:20.000Z</time>
      </trkpt>
      <trkpt lat="47.25903" lon="-1.60669">
        <ele>26</ele>
        <time>2019-09-30T13:14:21.000Z</time>
      </trkpt>
      <trkpt lat="47.25907" lon="-1.60665">
        <ele>25</ele>
        <time>2019-09-30T13:14:22.000Z</time>
      </trkpt>
      <trkpt lat="47.25911" lon="-1.60661">
        <ele>25</ele>
        <time>2019-09-30T13:14:23.000Z</time>
      </trkpt>
      <trkpt lat="47.25916" lon="-1.60658">
        <ele>25</ele>
        <time>2019-09-30T13:14:24.000Z</time>
      </trkpt>
      <trkpt lat="47.25921" lon="-1.60656">
        <ele>25</ele>
        <time>2019-09-30T13:14:25.000Z</time>
      </trkpt>
      <trkpt lat="47.25926" lon="-1.60653">
        <ele>25</ele>
        <time>2019-09-30T13:14:26.000Z</time>
      </trkpt>
      <trkpt lat="47.25931" lon="-1.6065">
        <ele>24</ele>
        <time>2019-09-30T13:14:27.000Z</time>
      </trkpt>
      <trkpt lat="47.25937" lon="-1.60646">
        <ele>24</ele>
        <time>2019-09-30T13:14:28.000Z</time>
      </trkpt>
      <trkpt lat="47.25943" lon="-1.60642">
        <ele>24</ele>
        <time>2019-09-30T13:14:29.000Z</time>
      </trkpt>
      <trkpt lat="47.25948" lon="-1.60639">
        <ele>24</ele>
        <time>2019-09-30T13:14:30.000Z</time>
      </trkpt>
      <trkpt lat="47.25954" lon="-1.60636">
        <ele>23</ele>
        <time>2019-09-30T13:14:31.000Z</time>
      </trkpt>
      <trkpt lat="47.25959" lon="-1.60632">
        <ele>23</ele>
        <time>2019-09-30T13:14:32.000Z</time>
      </trkpt>
      <trkpt lat="47.25964" lon="-1.60629">
        <ele>23</ele>
        <time>2019-09-30T13:14:33.000Z</time>
      </trkpt>
      <trkpt lat="47.25969" lon="-1.60626">
        <ele>23</ele>
        <time>2019-09-30T13:14:34.000Z</time>
      </trkpt>
      <trkpt lat="47.25975" lon="-1.60625">
        <ele>22</ele>
        <time>2019-09-30T13:14:35.000Z</time>
      </trkpt>
      <trkpt lat="47.25981" lon="-1.60626">
        <ele>22</ele>
        <time>2019-09-30T13:14:36.000Z</time>
      </trkpt>
      <trkpt lat="47.25986" lon="-1.60627">
        <ele>22</ele>
        <time>2019-09-30T13:14:37.000Z</time>
      </trkpt>
      <trkpt lat="47.25991" lon="-1.60628">
        <ele>22</ele>
        <time>2019-09-30T13:14:38.000Z</time>
      </trkpt>
      <trkpt lat="47.25995" lon="-1.6063">
        <ele>22</ele>
        <time>2019-09-30T13:14:39.000Z</time>
      </trkpt>
      <trkpt lat="47.26" lon="-1.6063">
        <ele>21</ele>
        <time>2019-09-30T13:14:40.000Z</time>
      </trkpt>
      <trkpt lat="47.26005" lon="-1.6063">
        <ele>21</ele>
        <time>2019-09-30T13:14:41.000Z</time>
      </trkpt>
      <trkpt lat="47.26009" lon="-1.6063">
        <ele>21</ele>
        <time>2019-09-30T13:14:42.000Z</time>
      </trkpt>
      <trkpt lat="47.26013" lon="-1.60632">
        <ele>21</ele>
        <time>2019-09-30T13:14:43.000Z</time>
      </trkpt>
      <trkpt lat="47.26017" lon="-1.60633">
        <ele>21</ele>
        <time>2019-09-30T13:14:44.000Z</time>
      </trkpt>
      <trkpt lat="47.26022" lon="-1.60634">
        <ele>21</ele>
        <time>2019-09-30T13:14:45.000Z</time>
      </trkpt>
      <trkpt lat="47.26026" lon="-1.60634">
        <ele>21</ele>
        <time>2019-09-30T13:14:46.000Z</time>
      </trkpt>
      <trkpt lat="47.2603" lon="-1.60636">
        <ele>21</ele>
        <time>2019-09-30T13:14:47.000Z</time>
      </trkpt>
      <trkpt lat="47.26034" lon="-1.60639">
        <ele>21</ele>
        <time>2019-09-30T13:14:48.000Z</time>
      </trkpt>
      <trkpt lat="47.26036" lon="-1.60643">
        <ele>21</ele>
        <time>2019-09-30T13:14:49.000Z</time>
      </trkpt>
      <trkpt lat="47.26038" lon="-1.60649">
        <ele>20</ele>
        <time>2019-09-30T13:14:50.000Z</time>
      </trkpt>
      <trkpt lat="47.26039" lon="-1.60653">
        <ele>20</ele>
        <time>2019-09-30T13:14:51.000Z</time>
      </trkpt>
      <trkpt lat="47.2604" lon="-1.60657">
        <ele>20</ele>
        <time>2019-09-30T13:14:52.000Z</time>
      </trkpt>
      <trkpt lat="47.2604" lon="-1.60659">
        <ele>21</ele>
        <time>2019-09-30T13:14:53.000Z</time>
      </trkpt>
      <trkpt lat="47.26041" lon="-1.6066">
        <ele>21</ele>
        <time>2019-09-30T13:14:54.000Z</time>
      </trkpt>
      <trkpt lat="47.26042" lon="-1.60662">
        <ele>21</ele>
        <time>2019-09-30T13:14:55.000Z</time>
      </trkpt>
      <trkpt lat="47.26043" lon="-1.60664">
        <ele>21</ele>
        <time>2019-09-30T13:14:56.000Z</time>
      </trkpt>
      <trkpt lat="47.26044" lon="-1.60665">
        <ele>21</ele>
        <time>2019-09-30T13:14:57.000Z</time>
      </trkpt>
      <trkpt lat="47.26045" lon="-1.60667">
        <ele>21</ele>
        <time>2019-09-30T13:14:58.000Z</time>
      </trkpt>
      <trkpt lat="47.26046" lon="-1.60668">
        <ele>21</ele>
        <time>2019-09-30T13:14:59.000Z</time>
      </trkpt>
      <trkpt lat="47.26045" lon="-1.6067">
        <ele>22</ele>
        <time>2019-09-30T13:15:00.000Z</time>
      </trkpt>
      <trkpt lat="47.26045" lon="-1.60672">
        <ele>22</ele>
        <time>2019-09-30T13:15:01.000Z</time>
      </trkpt>
      <trkpt lat="47.26044" lon="-1.60673">
        <ele>22</ele>
        <time>2019-09-30T13:15:02.000Z</time>
      </trkpt>
      <trkpt lat="47.26045" lon="-1.60674">
        <ele>22</ele>
        <time>2019-09-30T13:15:03.000Z</time>
      </trkpt>
      <trkpt lat="47.26045" lon="-1.60674">
        <ele>22</ele>
        <time>2019-09-30T13:15:04.000Z</time>
      </trkpt>
      <trkpt lat="47.26045" lon="-1.60675">
        <ele>22</ele>
        <time>2019-09-30T13:15:05.000Z</time>
      </trkpt>
      <trkpt lat="47.26046" lon="-1.60677">
        <ele>23</ele>
        <time>2019-09-30T13:15:06.000Z</time>
      </trkpt>
      <trkpt lat="47.26048" lon="-1.60679">
        <ele>23</ele>
        <time>2019-09-30T13:15:07.000Z</time>
      </trkpt>
      <trkpt lat="47.26049" lon="-1.60681">
        <ele>23</ele>
        <time>2019-09-30T13:15:08.000Z</time>
      </trkpt>
      <trkpt lat="47.26051" lon="-1.60682">
        <ele>23</ele>
        <time>2019-09-30T13:15:09.000Z</time>
      </trkpt>
      <trkpt lat="47.26053" lon="-1.60683">
        <ele>23</ele>
        <time>2019-09-30T13:15:10.000Z</time>
      </trkpt>
      <trkpt lat="47.26055" lon="-1.60685">
        <ele>23</ele>
        <time>2019-09-30T13:15:11.000Z</time>
      </trkpt>
      <trkpt lat="47.26058" lon="-1.60686">
        <ele>23</ele>
        <time>2019-09-30T13:15:12.000Z</time>
      </trkpt>
      <trkpt lat="47.26059" lon="-1.60688">
        <ele>23</ele>
        <time>2019-09-30T13:15:13.000Z</time>
      </trkpt>
      <trkpt lat="47.26061" lon="-1.6069">
        <ele>23</ele>
        <time>2019-09-30T13:15:14.000Z</time>
      </trkpt>
      <trkpt lat="47.26062" lon="-1.60691">
        <ele>23</ele>
        <time>2019-09-30T13:15:15.000Z</time>
      </trkpt>
      <trkpt lat="47.26063" lon="-1.60692">
        <ele>23</ele>
        <time>2019-09-30T13:15:16.000Z</time>
      </trkpt>
      <trkpt lat="47.26065" lon="-1.60692">
        <ele>23</ele>
        <time>2019-09-30T13:15:17.000Z</time>
      </trkpt>
      <trkpt lat="47.26067" lon="-1.60692">
        <ele>23</ele>
        <time>2019-09-30T13:15:18.000Z</time>
      </trkpt>
      <trkpt lat="47.2607" lon="-1.6069">
        <ele>23</ele>
        <time>2019-09-30T13:15:19.000Z</time>
      </trkpt>
      <trkpt lat="47.26072" lon="-1.60689">
        <ele>23</ele>
        <time>2019-09-30T13:15:20.000Z</time>
      </trkpt>
      <trkpt lat="47.26075" lon="-1.60689">
        <ele>23</ele>
        <time>2019-09-30T13:15:21.000Z</time>
      </trkpt>
      <trkpt lat="47.26078" lon="-1.60688">
        <ele>23</ele>
        <time>2019-09-30T13:15:22.000Z</time>
      </trkpt>
      <trkpt lat="47.2608" lon="-1.60686">
        <ele>23</ele>
        <time>2019-09-30T13:15:23.000Z</time>
      </trkpt>
      <trkpt lat="47.26082" lon="-1.60685">
        <ele>23</ele>
        <time>2019-09-30T13:15:24.000Z</time>
      </trkpt>
      <trkpt lat="47.26084" lon="-1.60683">
        <ele>23</ele>
        <time>2019-09-30T13:15:25.000Z</time>
      </trkpt>
      <trkpt lat="47.26085" lon="-1.60682">
        <ele>23</ele>
        <time>2019-09-30T13:15:26.000Z</time>
      </trkpt>
      <trkpt lat="47.26086" lon="-1.60681">
        <ele>23</ele>
        <time>2019-09-30T13:15:27.000Z</time>
      </trkpt>
      <trkpt lat="47.26086" lon="-1.60677">
        <ele>24</ele>
        <time>2019-09-30T13:15:28.000Z</time>
      </trkpt>
      <trkpt lat="47.26087" lon="-1.60675">
        <ele>24</ele>
        <time>2019-09-30T13:15:29.000Z</time>
      </trkpt>
      <trkpt lat="47.26088" lon="-1.60675">
        <ele>24</ele>
        <time>2019-09-30T13:15:30.000Z</time>
      </trkpt>
      <trkpt lat="47.26088" lon="-1.60675">
        <ele>24</ele>
        <time>2019-09-30T13:15:31.000Z</time>
      </trkpt>
      <trkpt lat="47.26089" lon="-1.60674">
        <ele>24</ele>
        <time>2019-09-30T13:15:32.000Z</time>
      </trkpt>
      <trkpt lat="47.26089" lon="-1.60673">
        <ele>24</ele>
        <time>2019-09-30T13:15:33.000Z</time>
      </trkpt>
      <trkpt lat="47.26098" lon="-1.60672">
        <ele>24</ele>
        <time>2019-09-30T13:15:34.000Z</time>
      </trkpt>
      <trkpt lat="47.261" lon="-1.60671">
        <ele>24</ele>
        <time>2019-09-30T13:15:35.000Z</time>
      </trkpt>
      <trkpt lat="47.26102" lon="-1.6067">
        <ele>24</ele>
        <time>2019-09-30T13:15:36.000Z</time>
      </trkpt>
      <trkpt lat="47.26104" lon="-1.60669">
        <ele>24</ele>
        <time>2019-09-30T13:15:37.000Z</time>
      </trkpt>
      <trkpt lat="47.26107" lon="-1.60668">
        <ele>24</ele>
        <time>2019-09-30T13:15:38.000Z</time>
      </trkpt>
      <trkpt lat="47.26109" lon="-1.60667">
        <ele>24</ele>
        <time>2019-09-30T13:15:39.000Z</time>
      </trkpt>
      <trkpt lat="47.26112" lon="-1.60667">
        <ele>24</ele>
        <time>2019-09-30T13:15:40.000Z</time>
      </trkpt>
      <trkpt lat="47.26114" lon="-1.60666">
        <ele>24</ele>
        <time>2019-09-30T13:15:41.000Z</time>
      </trkpt>
      <trkpt lat="47.26117" lon="-1.60665">
        <ele>24</ele>
        <time>2019-09-30T13:15:42.000Z</time>
      </trkpt>
      <trkpt lat="47.26119" lon="-1.60663">
        <ele>24</ele>
        <time>2019-09-30T13:15:43.000Z</time>
      </trkpt>
      <trkpt lat="47.26121" lon="-1.60662">
        <ele>24</ele>
        <time>2019-09-30T13:15:44.000Z</time>
      </trkpt>
      <trkpt lat="47.26123" lon="-1.60661">
        <ele>24</ele>
        <time>2019-09-30T13:15:45.000Z</time>
      </trkpt>
      <trkpt lat="47.26126" lon="-1.6066">
        <ele>24</ele>
        <time>2019-09-30T13:15:46.000Z</time>
      </trkpt>
      <trkpt lat="47.26129" lon="-1.60659">
        <ele>24</ele>
        <time>2019-09-30T13:15:47.000Z</time>
      </trkpt>
      <trkpt lat="47.26131" lon="-1.60658">
        <ele>24</ele>
        <time>2019-09-30T13:15:48.000Z</time>
      </trkpt>
      <trkpt lat="47.26132" lon="-1.60657">
        <ele>24</ele>
        <time>2019-09-30T13:15:49.000Z</time>
      </trkpt>
      <trkpt lat="47.26133" lon="-1.60657">
        <ele>24</ele>
        <time>2019-09-30T13:15:50.000Z</time>
      </trkpt>
      <trkpt lat="47.26136" lon="-1.60655">
        <ele>25</ele>
        <time>2019-09-30T13:15:51.000Z</time>
      </trkpt>
      <trkpt lat="47.26138" lon="-1.60654">
        <ele>25</ele>
        <time>2019-09-30T13:15:52.000Z</time>
      </trkpt>
      <trkpt lat="47.26141" lon="-1.60653">
        <ele>25</ele>
        <time>2019-09-30T13:15:53.000Z</time>
      </trkpt>
      <trkpt lat="47.26144" lon="-1.60652">
        <ele>25</ele>
        <time>2019-09-30T13:15:54.000Z</time>
      </trkpt>
      <trkpt lat="47.26147" lon="-1.60651">
        <ele>25</ele>
        <time>2019-09-30T13:15:55.000Z</time>
      </trkpt>
      <trkpt lat="47.26149" lon="-1.6065">
        <ele>25</ele>
        <time>2019-09-30T13:15:56.000Z</time>
      </trkpt>
      <trkpt lat="47.2615" lon="-1.6065">
        <ele>25</ele>
        <time>2019-09-30T13:15:57.000Z</time>
      </trkpt>
      <trkpt lat="47.26152" lon="-1.60649">
        <ele>25</ele>
        <time>2019-09-30T13:15:58.000Z</time>
      </trkpt>
      <trkpt lat="47.26154" lon="-1.60648">
        <ele>25</ele>
        <time>2019-09-30T13:15:59.000Z</time>
      </trkpt>
      <trkpt lat="47.26157" lon="-1.60646">
        <ele>25</ele>
        <time>2019-09-30T13:16:00.000Z</time>
      </trkpt>
      <trkpt lat="47.2616" lon="-1.60646">
        <ele>25</ele>
        <time>2019-09-30T13:16:01.000Z</time>
      </trkpt>
      <trkpt lat="47.26163" lon="-1.60645">
        <ele>25</ele>
        <time>2019-09-30T13:16:02.000Z</time>
      </trkpt>
      <trkpt lat="47.26165" lon="-1.60645">
        <ele>25</ele>
        <time>2019-09-30T13:16:03.000Z</time>
      </trkpt>
      <trkpt lat="47.26168" lon="-1.60646">
        <ele>25</ele>
        <time>2019-09-30T13:16:04.000Z</time>
      </trkpt>
      <trkpt lat="47.26171" lon="-1.60646">
        <ele>25</ele>
        <time>2019-09-30T13:16:05.000Z</time>
      </trkpt>
      <trkpt lat="47.26174" lon="-1.60648">
        <ele>25</ele>
        <time>2019-09-30T13:16:06.000Z</time>
      </trkpt>
      <trkpt lat="47.26177" lon="-1.60649">
        <ele>25</ele>
        <time>2019-09-30T13:16:07.000Z</time>
      </trkpt>
      <trkpt lat="47.26181" lon="-1.6065">
        <ele>25</ele>
        <time>2019-09-30T13:16:08.000Z</time>
      </trkpt>
      <trkpt lat="47.26184" lon="-1.60651">
        <ele>24</ele>
        <time>2019-09-30T13:16:09.000Z</time>
      </trkpt>
      <trkpt lat="47.26187" lon="-1.60652">
        <ele>24</ele>
        <time>2019-09-30T13:16:10.000Z</time>
      </trkpt>
      <trkpt lat="47.26191" lon="-1.60652">
        <ele>24</ele>
        <time>2019-09-30T13:16:11.000Z</time>
      </trkpt>
      <trkpt lat="47.26194" lon="-1.60652">
        <ele>24</ele>
        <time>2019-09-30T13:16:12.000Z</time>
      </trkpt>
      <trkpt lat="47.26197" lon="-1.6065">
        <ele>24</ele>
        <time>2019-09-30T13:16:13.000Z</time>
      </trkpt>
      <trkpt lat="47.262" lon="-1.60649">
        <ele>23</ele>
        <time>2019-09-30T13:16:14.000Z</time>
      </trkpt>
      <trkpt lat="47.26203" lon="-1.60647">
        <ele>23</ele>
        <time>2019-09-30T13:16:15.000Z</time>
      </trkpt>
      <trkpt lat="47.26206" lon="-1.60645">
        <ele>23</ele>
        <time>2019-09-30T13:16:16.000Z</time>
      </trkpt>
      <trkpt lat="47.2621" lon="-1.60643">
        <ele>23</ele>
        <time>2019-09-30T13:16:17.000Z</time>
      </trkpt>
      <trkpt lat="47.26212" lon="-1.60642">
        <ele>23</ele>
        <time>2019-09-30T13:16:18.000Z</time>
      </trkpt>
      <trkpt lat="47.26216" lon="-1.6064">
        <ele>23</ele>
        <time>2019-09-30T13:16:19.000Z</time>
      </trkpt>
      <trkpt lat="47.26219" lon="-1.60638">
        <ele>23</ele>
        <time>2019-09-30T13:16:20.000Z</time>
      </trkpt>
      <trkpt lat="47.26222" lon="-1.60636">
        <ele>23</ele>
        <time>2019-09-30T13:16:21.000Z</time>
      </trkpt>
      <trkpt lat="47.26225" lon="-1.60634">
        <ele>23</ele>
        <time>2019-09-30T13:16:22.000Z</time>
      </trkpt>
      <trkpt lat="47.26227" lon="-1.60632">
        <ele>23</ele>
        <time>2019-09-30T13:16:23.000Z</time>
      </trkpt>
      <trkpt lat="47.26228" lon="-1.60631">
        <ele>23</ele>
        <time>2019-09-30T13:16:24.000Z</time>
      </trkpt>
      <trkpt lat="47.26228" lon="-1.6063">
        <ele>23</ele>
        <time>2019-09-30T13:16:25.000Z</time>
      </trkpt>
      <trkpt lat="47.26229" lon="-1.6063">
        <ele>23</ele>
        <time>2019-09-30T13:16:26.000Z</time>
      </trkpt>
      <trkpt lat="47.2623" lon="-1.6063">
        <ele>23</ele>
        <time>2019-09-30T13:16:27.000Z</time>
      </trkpt>
      <trkpt lat="47.26232" lon="-1.6063">
        <ele>22</ele>
        <time>2019-09-30T13:16:28.000Z</time>
      </trkpt>
      <trkpt lat="47.26234" lon="-1.60629">
        <ele>22</ele>
        <time>2019-09-30T13:16:29.000Z</time>
      </trkpt>
      <trkpt lat="47.26236" lon="-1.60628">
        <ele>22</ele>
        <time>2019-09-30T13:16:30.000Z</time>
      </trkpt>
      <trkpt lat="47.26239" lon="-1.60627">
        <ele>22</ele>
        <time>2019-09-30T13:16:31.000Z</time>
      </trkpt>
      <trkpt lat="47.26242" lon="-1.60627">
        <ele>22</ele>
        <time>2019-09-30T13:16:32.000Z</time>
      </trkpt>
      <trkpt lat="47.26245" lon="-1.60627">
        <ele>21</ele>
        <time>2019-09-30T13:16:33.000Z</time>
      </trkpt>
      <trkpt lat="47.26249" lon="-1.60628">
        <ele>21</ele>
        <time>2019-09-30T13:16:34.000Z</time>
      </trkpt>
      <trkpt lat="47.26253" lon="-1.60627">
        <ele>20</ele>
        <time>2019-09-30T13:16:35.000Z</time>
      </trkpt>
      <trkpt lat="47.26256" lon="-1.60626">
        <ele>20</ele>
        <time>2019-09-30T13:16:36.000Z</time>
      </trkpt>
      <trkpt lat="47.2626" lon="-1.60624">
        <ele>20</ele>
        <time>2019-09-30T13:16:37.000Z</time>
      </trkpt>
      <trkpt lat="47.26263" lon="-1.60622">
        <ele>19</ele>
        <time>2019-09-30T13:16:38.000Z</time>
      </trkpt>
      <trkpt lat="47.26267" lon="-1.6062">
        <ele>19</ele>
        <time>2019-09-30T13:16:39.000Z</time>
      </trkpt>
      <trkpt lat="47.2627" lon="-1.60618">
        <ele>18</ele>
        <time>2019-09-30T13:16:40.000Z</time>
      </trkpt>
      <trkpt lat="47.26273" lon="-1.60616">
        <ele>17</ele>
        <time>2019-09-30T13:16:41.000Z</time>
      </trkpt>
      <trkpt lat="47.26275" lon="-1.60611">
        <ele>17</ele>
        <time>2019-09-30T13:16:42.000Z</time>
      </trkpt>
      <trkpt lat="47.26276" lon="-1.60606">
        <ele>17</ele>
        <time>2019-09-30T13:16:43.000Z</time>
      </trkpt>
      <trkpt lat="47.26277" lon="-1.606">
        <ele>16</ele>
        <time>2019-09-30T13:16:44.000Z</time>
      </trkpt>
      <trkpt lat="47.26278" lon="-1.60593">
        <ele>16</ele>
        <time>2019-09-30T13:16:45.000Z</time>
      </trkpt>
      <trkpt lat="47.26279" lon="-1.60587">
        <ele>15</ele>
        <time>2019-09-30T13:16:46.000Z</time>
      </trkpt>
      <trkpt lat="47.2628" lon="-1.60581">
        <ele>15</ele>
        <time>2019-09-30T13:16:47.000Z</time>
      </trkpt>
      <trkpt lat="47.2628" lon="-1.60575">
        <ele>14</ele>
        <time>2019-09-30T13:16:48.000Z</time>
      </trkpt>
      <trkpt lat="47.2628" lon="-1.60569">
        <ele>14</ele>
        <time>2019-09-30T13:16:49.000Z</time>
      </trkpt>
      <trkpt lat="47.2628" lon="-1.60564">
        <ele>13</ele>
        <time>2019-09-30T13:16:50.000Z</time>
      </trkpt>
      <trkpt lat="47.2628" lon="-1.60558">
        <ele>12</ele>
        <time>2019-09-30T13:16:51.000Z</time>
      </trkpt>
      <trkpt lat="47.2628" lon="-1.60552">
        <ele>12</ele>
        <time>2019-09-30T13:16:52.000Z</time>
      </trkpt>
      <trkpt lat="47.2628" lon="-1.60547">
        <ele>11</ele>
        <time>2019-09-30T13:16:53.000Z</time>
      </trkpt>
      <trkpt lat="47.2628" lon="-1.60541">
        <ele>11</ele>
        <time>2019-09-30T13:16:54.000Z</time>
      </trkpt>
      <trkpt lat="47.26281" lon="-1.60535">
        <ele>11</ele>
        <time>2019-09-30T13:16:55.000Z</time>
      </trkpt>
      <trkpt lat="47.26281" lon="-1.6053">
        <ele>10</ele>
        <time>2019-09-30T13:16:56.000Z</time>
      </trkpt>
      <trkpt lat="47.26281" lon="-1.60525">
        <ele>10</ele>
        <time>2019-09-30T13:16:57.000Z</time>
      </trkpt>
      <trkpt lat="47.26281" lon="-1.6052">
        <ele>10</ele>
        <time>2019-09-30T13:16:58.000Z</time>
      </trkpt>
      <trkpt lat="47.26281" lon="-1.60515">
        <ele>9</ele>
        <time>2019-09-30T13:16:59.000Z</time>
      </trkpt>
      <trkpt lat="47.2628" lon="-1.6051">
        <ele>9</ele>
        <time>2019-09-30T13:17:00.000Z</time>
      </trkpt>
      <trkpt lat="47.26279" lon="-1.60504">
        <ele>9</ele>
        <time>2019-09-30T13:17:01.000Z</time>
      </trkpt>
      <trkpt lat="47.26278" lon="-1.60499">
        <ele>9</ele>
        <time>2019-09-30T13:17:02.000Z</time>
      </trkpt>
      <trkpt lat="47.26277" lon="-1.60494">
        <ele>9</ele>
        <time>2019-09-30T13:17:03.000Z</time>
      </trkpt>
      <trkpt lat="47.26275" lon="-1.60489">
        <ele>8</ele>
        <time>2019-09-30T13:17:04.000Z</time>
      </trkpt>
      <trkpt lat="47.26274" lon="-1.60486">
        <ele>8</ele>
        <time>2019-09-30T13:17:05.000Z</time>
      </trkpt>
      <trkpt lat="47.26273" lon="-1.60482">
        <ele>8</ele>
        <time>2019-09-30T13:17:06.000Z</time>
      </trkpt>
      <trkpt lat="47.26272" lon="-1.60477">
        <ele>8</ele>
        <time>2019-09-30T13:17:07.000Z</time>
      </trkpt>
      <trkpt lat="47.26272" lon="-1.60472">
        <ele>8</ele>
        <time>2019-09-30T13:17:08.000Z</time>
      </trkpt>
      <trkpt lat="47.26272" lon="-1.60468">
        <ele>8</ele>
        <time>2019-09-30T13:17:09.000Z</time>
      </trkpt>
      <trkpt lat="47.26273" lon="-1.60465">
        <ele>8</ele>
        <time>2019-09-30T13:17:10.000Z</time>
      </trkpt>
      <trkpt lat="47.26274" lon="-1.60462">
        <ele>8</ele>
        <time>2019-09-30T13:17:11.000Z</time>
      </trkpt>
      <trkpt lat="47.26275" lon="-1.60461">
        <ele>8</ele>
        <time>2019-09-30T13:17:12.000Z</time>
      </trkpt>
      <trkpt lat="47.26275" lon="-1.60461">
        <ele>8</ele>
        <time>2019-09-30T13:17:13.000Z</time>
      </trkpt>
      <trkpt lat="47.26275" lon="-1.6046">
        <ele>8</ele>
        <time>2019-09-30T13:17:14.000Z</time>
      </trkpt>
      <trkpt lat="47.26275" lon="-1.60459">
        <ele>8</ele>
        <time>2019-09-30T13:17:15.000Z</time>
      </trkpt>
      <trkpt lat="47.26279" lon="-1.6044">
        <ele>20</ele>
        <time>2019-09-30T13:17:16.000Z</time>
      </trkpt>
      <trkpt lat="47.26279" lon="-1.60438">
        <ele>21</ele>
        <time>2019-09-30T13:17:17.000Z</time>
      </trkpt>
      <trkpt lat="47.2628" lon="-1.60436">
        <ele>21</ele>
        <time>2019-09-30T13:17:18.000Z</time>
      </trkpt>
      <trkpt lat="47.26281" lon="-1.60434">
        <ele>21</ele>
        <time>2019-09-30T13:17:19.000Z</time>
      </trkpt>
      <trkpt lat="47.26283" lon="-1.6043">
        <ele>21</ele>
        <time>2019-09-30T13:17:20.000Z</time>
      </trkpt>
      <trkpt lat="47.26285" lon="-1.60426">
        <ele>21</ele>
        <time>2019-09-30T13:17:21.000Z</time>
      </trkpt>
      <trkpt lat="47.26286" lon="-1.60421">
        <ele>22</ele>
        <time>2019-09-30T13:17:22.000Z</time>
      </trkpt>
      <trkpt lat="47.26287" lon="-1.60417">
        <ele>22</ele>
        <time>2019-09-30T13:17:23.000Z</time>
      </trkpt>
      <trkpt lat="47.26289" lon="-1.60413">
        <ele>22</ele>
        <time>2019-09-30T13:17:24.000Z</time>
      </trkpt>
      <trkpt lat="47.2629" lon="-1.60409">
        <ele>22</ele>
        <time>2019-09-30T13:17:25.000Z</time>
      </trkpt>
      <trkpt lat="47.26292" lon="-1.60404">
        <ele>22</ele>
        <time>2019-09-30T13:17:26.000Z</time>
      </trkpt>
      <trkpt lat="47.26293" lon="-1.604">
        <ele>22</ele>
        <time>2019-09-30T13:17:27.000Z</time>
      </trkpt>
      <trkpt lat="47.26294" lon="-1.60396">
        <ele>22</ele>
        <time>2019-09-30T13:17:28.000Z</time>
      </trkpt>
      <trkpt lat="47.26295" lon="-1.60392">
        <ele>23</ele>
        <time>2019-09-30T13:17:29.000Z</time>
      </trkpt>
      <trkpt lat="47.26296" lon="-1.60388">
        <ele>23</ele>
        <time>2019-09-30T13:17:30.000Z</time>
      </trkpt>
      <trkpt lat="47.26298" lon="-1.60385">
        <ele>23</ele>
        <time>2019-09-30T13:17:31.000Z</time>
      </trkpt>
      <trkpt lat="47.26299" lon="-1.60381">
        <ele>23</ele>
        <time>2019-09-30T13:17:32.000Z</time>
      </trkpt>
      <trkpt lat="47.26299" lon="-1.60378">
        <ele>23</ele>
        <time>2019-09-30T13:17:33.000Z</time>
      </trkpt>
      <trkpt lat="47.263" lon="-1.60374">
        <ele>23</ele>
        <time>2019-09-30T13:17:34.000Z</time>
      </trkpt>
      <trkpt lat="47.26301" lon="-1.6037">
        <ele>23</ele>
        <time>2019-09-30T13:17:35.000Z</time>
      </trkpt>
      <trkpt lat="47.26302" lon="-1.60368">
        <ele>23</ele>
        <time>2019-09-30T13:17:36.000Z</time>
      </trkpt>
      <trkpt lat="47.26303" lon="-1.60366">
        <ele>22</ele>
        <time>2019-09-30T13:17:37.000Z</time>
      </trkpt>
      <trkpt lat="47.26304" lon="-1.60363">
        <ele>22</ele>
        <time>2019-09-30T13:17:38.000Z</time>
      </trkpt>
      <trkpt lat="47.26304" lon="-1.6036">
        <ele>22</ele>
        <time>2019-09-30T13:17:39.000Z</time>
      </trkpt>
      <trkpt lat="47.26305" lon="-1.60356">
        <ele>22</ele>
        <time>2019-09-30T13:17:40.000Z</time>
      </trkpt>
      <trkpt lat="47.26304" lon="-1.60354">
        <ele>22</ele>
        <time>2019-09-30T13:17:41.000Z</time>
      </trkpt>
      <trkpt lat="47.26304" lon="-1.60352">
        <ele>21</ele>
        <time>2019-09-30T13:17:42.000Z</time>
      </trkpt>
      <trkpt lat="47.26304" lon="-1.6035">
        <ele>21</ele>
        <time>2019-09-30T13:17:43.000Z</time>
      </trkpt>
      <trkpt lat="47.26304" lon="-1.60347">
        <ele>21</ele>
        <time>2019-09-30T13:17:44.000Z</time>
      </trkpt>
      <trkpt lat="47.26304" lon="-1.60345">
        <ele>21</ele>
        <time>2019-09-30T13:17:45.000Z</time>
      </trkpt>
      <trkpt lat="47.26304" lon="-1.60343">
        <ele>21</ele>
        <time>2019-09-30T13:17:46.000Z</time>
      </trkpt>
      <trkpt lat="47.26304" lon="-1.60341">
        <ele>21</ele>
        <time>2019-09-30T13:17:47.000Z</time>
      </trkpt>
      <trkpt lat="47.26304" lon="-1.60337">
        <ele>21</ele>
        <time>2019-09-30T13:17:48.000Z</time>
      </trkpt>
      <trkpt lat="47.26304" lon="-1.60334">
        <ele>21</ele>
        <time>2019-09-30T13:17:49.000Z</time>
      </trkpt>
      <trkpt lat="47.26303" lon="-1.6033">
        <ele>21</ele>
        <time>2019-09-30T13:17:50.000Z</time>
      </trkpt>
      <trkpt lat="47.26302" lon="-1.60327">
        <ele>20</ele>
        <time>2019-09-30T13:17:51.000Z</time>
      </trkpt>
      <trkpt lat="47.26301" lon="-1.60324">
        <ele>20</ele>
        <time>2019-09-30T13:17:52.000Z</time>
      </trkpt>
      <trkpt lat="47.263" lon="-1.60321">
        <ele>20</ele>
        <time>2019-09-30T13:17:53.000Z</time>
      </trkpt>
      <trkpt lat="47.263" lon="-1.60317">
        <ele>20</ele>
        <time>2019-09-30T13:17:54.000Z</time>
      </trkpt>
      <trkpt lat="47.26299" lon="-1.60313">
        <ele>20</ele>
        <time>2019-09-30T13:17:55.000Z</time>
      </trkpt>
      <trkpt lat="47.263" lon="-1.6031">
        <ele>20</ele>
        <time>2019-09-30T13:17:56.000Z</time>
      </trkpt>
      <trkpt lat="47.263" lon="-1.60306">
        <ele>20</ele>
        <time>2019-09-30T13:17:57.000Z</time>
      </trkpt>
      <trkpt lat="47.26299" lon="-1.60303">
        <ele>20</ele>
        <time>2019-09-30T13:17:58.000Z</time>
      </trkpt>
      <trkpt lat="47.26299" lon="-1.60301">
        <ele>20</ele>
        <time>2019-09-30T13:17:59.000Z</time>
      </trkpt>
      <trkpt lat="47.26298" lon="-1.603">
        <ele>20</ele>
        <time>2019-09-30T13:18:00.000Z</time>
      </trkpt>
      <trkpt lat="47.26298" lon="-1.60299">
        <ele>20</ele>
        <time>2019-09-30T13:18:01.000Z</time>
      </trkpt>
      <trkpt lat="47.26298" lon="-1.60298">
        <ele>20</ele>
        <time>2019-09-30T13:18:02.000Z</time>
      </trkpt>
      <trkpt lat="47.26298" lon="-1.60297">
        <ele>20</ele>
        <time>2019-09-30T13:18:03.000Z</time>
      </trkpt>
      <trkpt lat="47.26297" lon="-1.6029">
        <ele>20</ele>
        <time>2019-09-30T13:18:04.000Z</time>
      </trkpt>
      <trkpt lat="47.26296" lon="-1.60286">
        <ele>19</ele>
        <time>2019-09-30T13:18:05.000Z</time>
      </trkpt>
      <trkpt lat="47.26296" lon="-1.60282">
        <ele>19</ele>
        <time>2019-09-30T13:18:06.000Z</time>
      </trkpt>
      <trkpt lat="47.26296" lon="-1.60278">
        <ele>19</ele>
        <time>2019-09-30T13:18:07.000Z</time>
      </trkpt>
      <trkpt lat="47.26295" lon="-1.60275">
        <ele>19</ele>
        <time>2019-09-30T13:18:08.000Z</time>
      </trkpt>
      <trkpt lat="47.26295" lon="-1.60272">
        <ele>19</ele>
        <time>2019-09-30T13:18:09.000Z</time>
      </trkpt>
      <trkpt lat="47.26294" lon="-1.60269">
        <ele>19</ele>
        <time>2019-09-30T13:18:10.000Z</time>
      </trkpt>
      <trkpt lat="47.26293" lon="-1.60264">
        <ele>19</ele>
        <time>2019-09-30T13:18:11.000Z</time>
      </trkpt>
      <trkpt lat="47.26292" lon="-1.60259">
        <ele>19</ele>
        <time>2019-09-30T13:18:12.000Z</time>
      </trkpt>
      <trkpt lat="47.26292" lon="-1.60255">
        <ele>18</ele>
        <time>2019-09-30T13:18:13.000Z</time>
      </trkpt>
      <trkpt lat="47.26291" lon="-1.6025">
        <ele>18</ele>
        <time>2019-09-30T13:18:14.000Z</time>
      </trkpt>
      <trkpt lat="47.26291" lon="-1.60244">
        <ele>18</ele>
        <time>2019-09-30T13:18:15.000Z</time>
      </trkpt>
      <trkpt lat="47.26288" lon="-1.6024">
        <ele>18</ele>
        <time>2019-09-30T13:18:16.000Z</time>
      </trkpt>
      <trkpt lat="47.26285" lon="-1.60236">
        <ele>18</ele>
        <time>2019-09-30T13:18:17.000Z</time>
      </trkpt>
      <trkpt lat="47.26282" lon="-1.60235">
        <ele>18</ele>
        <time>2019-09-30T13:18:18.000Z</time>
      </trkpt>
      <trkpt lat="47.2628" lon="-1.60234">
        <ele>18</ele>
        <time>2019-09-30T13:18:19.000Z</time>
      </trkpt>
      <trkpt lat="47.26277" lon="-1.60233">
        <ele>18</ele>
        <time>2019-09-30T13:18:20.000Z</time>
      </trkpt>
      <trkpt lat="47.26273" lon="-1.60232">
        <ele>18</ele>
        <time>2019-09-30T13:18:21.000Z</time>
      </trkpt>
      <trkpt lat="47.2627" lon="-1.6023">
        <ele>18</ele>
        <time>2019-09-30T13:18:22.000Z</time>
      </trkpt>
      <trkpt lat="47.26268" lon="-1.60228">
        <ele>18</ele>
        <time>2019-09-30T13:18:23.000Z</time>
      </trkpt>
      <trkpt lat="47.26265" lon="-1.60227">
        <ele>18</ele>
        <time>2019-09-30T13:18:24.000Z</time>
      </trkpt>
      <trkpt lat="47.26263" lon="-1.60225">
        <ele>18</ele>
        <time>2019-09-30T13:18:25.000Z</time>
      </trkpt>
      <trkpt lat="47.2626" lon="-1.60223">
        <ele>18</ele>
        <time>2019-09-30T13:18:26.000Z</time>
      </trkpt>
      <trkpt lat="47.26258" lon="-1.60222">
        <ele>17</ele>
        <time>2019-09-30T13:18:27.000Z</time>
      </trkpt>
      <trkpt lat="47.26256" lon="-1.60221">
        <ele>17</ele>
        <time>2019-09-30T13:18:28.000Z</time>
      </trkpt>
      <trkpt lat="47.26254" lon="-1.60221">
        <ele>17</ele>
        <time>2019-09-30T13:18:29.000Z</time>
      </trkpt>
      <trkpt lat="47.26252" lon="-1.60221">
        <ele>17</ele>
        <time>2019-09-30T13:18:30.000Z</time>
      </trkpt>
      <trkpt lat="47.2625" lon="-1.60222">
        <ele>17</ele>
        <time>2019-09-30T13:18:31.000Z</time>
      </trkpt>
      <trkpt lat="47.26249" lon="-1.60222">
        <ele>17</ele>
        <time>2019-09-30T13:18:32.000Z</time>
      </trkpt>
      <trkpt lat="47.26249" lon="-1.60222">
        <ele>17</ele>
        <time>2019-09-30T13:18:33.000Z</time>
      </trkpt>
      <trkpt lat="47.26248" lon="-1.60222">
        <ele>17</ele>
        <time>2019-09-30T13:18:34.000Z</time>
      </trkpt>
      <trkpt lat="47.26247" lon="-1.60222">
        <ele>17</ele>
        <time>2019-09-30T13:18:35.000Z</time>
      </trkpt>
      <trkpt lat="47.26246" lon="-1.60222">
        <ele>17</ele>
        <time>2019-09-30T13:18:36.000Z</time>
      </trkpt>
      <trkpt lat="47.26245" lon="-1.60221">
        <ele>18</ele>
        <time>2019-09-30T13:18:37.000Z</time>
      </trkpt>
      <trkpt lat="47.26244" lon="-1.60221">
        <ele>18</ele>
        <time>2019-09-30T13:18:38.000Z</time>
      </trkpt>
      <trkpt lat="47.26244" lon="-1.60221">
        <ele>19</ele>
        <time>2019-09-30T13:18:39.000Z</time>
      </trkpt>
      <trkpt lat="47.26238" lon="-1.6023">
        <ele>26</ele>
        <time>2019-09-30T13:18:40.000Z</time>
      </trkpt>
      <trkpt lat="47.26239" lon="-1.60232">
        <ele>26</ele>
        <time>2019-09-30T13:18:41.000Z</time>
      </trkpt>
      <trkpt lat="47.26239" lon="-1.60233">
        <ele>26</ele>
        <time>2019-09-30T13:18:42.000Z</time>
      </trkpt>
      <trkpt lat="47.26239" lon="-1.60234">
        <ele>26</ele>
        <time>2019-09-30T13:18:43.000Z</time>
      </trkpt>
      <trkpt lat="47.26239" lon="-1.60236">
        <ele>26</ele>
        <time>2019-09-30T13:18:44.000Z</time>
      </trkpt>
      <trkpt lat="47.26239" lon="-1.60236">
        <ele>26</ele>
        <time>2019-09-30T13:18:45.000Z</time>
      </trkpt>
      <trkpt lat="47.26233" lon="-1.60237">
        <ele>26</ele>
        <time>2019-09-30T13:18:46.000Z</time>
      </trkpt>
      <trkpt lat="47.26232" lon="-1.60237">
        <ele>26</ele>
        <time>2019-09-30T13:18:47.000Z</time>
      </trkpt>
      <trkpt lat="47.26232" lon="-1.60237">
        <ele>26</ele>
        <time>2019-09-30T13:18:48.000Z</time>
      </trkpt>
      <trkpt lat="47.26231" lon="-1.60237">
        <ele>27</ele>
        <time>2019-09-30T13:18:49.000Z</time>
      </trkpt>
      <trkpt lat="47.26229" lon="-1.60236">
        <ele>28</ele>
        <time>2019-09-30T13:18:50.000Z</time>
      </trkpt>
      <trkpt lat="47.26228" lon="-1.60236">
        <ele>28</ele>
        <time>2019-09-30T13:18:51.000Z</time>
      </trkpt>
      <trkpt lat="47.26227" lon="-1.60236">
        <ele>28</ele>
        <time>2019-09-30T13:18:52.000Z</time>
      </trkpt>
      <trkpt lat="47.26226" lon="-1.60235">
        <ele>28</ele>
        <time>2019-09-30T13:18:53.000Z</time>
      </trkpt>
      <trkpt lat="47.26225" lon="-1.60234">
        <ele>28</ele>
        <time>2019-09-30T13:18:54.000Z</time>
      </trkpt>
      <trkpt lat="47.2622" lon="-1.60237">
        <ele>28</ele>
        <time>2019-09-30T13:18:55.000Z</time>
      </trkpt>
      <trkpt lat="47.26221" lon="-1.60238">
        <ele>28</ele>
        <time>2019-09-30T13:18:56.000Z</time>
      </trkpt>
      <trkpt lat="47.26222" lon="-1.6024">
        <ele>28</ele>
        <time>2019-09-30T13:18:57.000Z</time>
      </trkpt>
      <trkpt lat="47.26223" lon="-1.60242">
        <ele>28</ele>
        <time>2019-09-30T13:18:58.000Z</time>
      </trkpt>
      <trkpt lat="47.26226" lon="-1.60244">
        <ele>28</ele>
        <time>2019-09-30T13:18:59.000Z</time>
      </trkpt>
      <trkpt lat="47.26228" lon="-1.60247">
        <ele>28</ele>
        <time>2019-09-30T13:19:00.000Z</time>
      </trkpt>
      <trkpt lat="47.2623" lon="-1.60249">
        <ele>28</ele>
        <time>2019-09-30T13:19:01.000Z</time>
      </trkpt>
      <trkpt lat="47.26231" lon="-1.6025">
        <ele>28</ele>
        <time>2019-09-30T13:19:02.000Z</time>
      </trkpt>
      <trkpt lat="47.26232" lon="-1.60251">
        <ele>28</ele>
        <time>2019-09-30T13:19:03.000Z</time>
      </trkpt>
      <trkpt lat="47.26234" lon="-1.60252">
        <ele>28</ele>
        <time>2019-09-30T13:19:04.000Z</time>
      </trkpt>
      <trkpt lat="47.26236" lon="-1.60253">
        <ele>28</ele>
        <time>2019-09-30T13:19:05.000Z</time>
      </trkpt>
      <trkpt lat="47.26238" lon="-1.60254">
        <ele>28</ele>
        <time>2019-09-30T13:19:06.000Z</time>
      </trkpt>
      <trkpt lat="47.2624" lon="-1.60256">
        <ele>28</ele>
        <time>2019-09-30T13:19:07.000Z</time>
      </trkpt>
      <trkpt lat="47.26244" lon="-1.60259">
        <ele>28</ele>
        <time>2019-09-30T13:19:08.000Z</time>
      </trkpt>
      <trkpt lat="47.26247" lon="-1.60262">
        <ele>28</ele>
        <time>2019-09-30T13:19:09.000Z</time>
      </trkpt>
      <trkpt lat="47.2625" lon="-1.60264">
        <ele>28</ele>
        <time>2019-09-30T13:19:10.000Z</time>
      </trkpt>
      <trkpt lat="47.26253" lon="-1.60266">
        <ele>28</ele>
        <time>2019-09-30T13:19:11.000Z</time>
      </trkpt>
      <trkpt lat="47.26257" lon="-1.60269">
        <ele>28</ele>
        <time>2019-09-30T13:19:12.000Z</time>
      </trkpt>
      <trkpt lat="47.2626" lon="-1.60271">
        <ele>28</ele>
        <time>2019-09-30T13:19:13.000Z</time>
      </trkpt>
      <trkpt lat="47.26261" lon="-1.60274">
        <ele>28</ele>
        <time>2019-09-30T13:19:14.000Z</time>
      </trkpt>
      <trkpt lat="47.26264" lon="-1.60276">
        <ele>28</ele>
        <time>2019-09-30T13:19:15.000Z</time>
      </trkpt>
      <trkpt lat="47.26266" lon="-1.60278">
        <ele>28</ele>
        <time>2019-09-30T13:19:16.000Z</time>
      </trkpt>
      <trkpt lat="47.26269" lon="-1.60279">
        <ele>27</ele>
        <time>2019-09-30T13:19:17.000Z</time>
      </trkpt>
      <trkpt lat="47.26272" lon="-1.60281">
        <ele>27</ele>
        <time>2019-09-30T13:19:18.000Z</time>
      </trkpt>
      <trkpt lat="47.26274" lon="-1.60284">
        <ele>27</ele>
        <time>2019-09-30T13:19:19.000Z</time>
      </trkpt>
      <trkpt lat="47.26276" lon="-1.60286">
        <ele>27</ele>
        <time>2019-09-30T13:19:20.000Z</time>
      </trkpt>
      <trkpt lat="47.26278" lon="-1.60286">
        <ele>27</ele>
        <time>2019-09-30T13:19:21.000Z</time>
      </trkpt>
      <trkpt lat="47.2628" lon="-1.60286">
        <ele>26</ele>
        <time>2019-09-30T13:19:22.000Z</time>
      </trkpt>
      <trkpt lat="47.26281" lon="-1.60287">
        <ele>26</ele>
        <time>2019-09-30T13:19:23.000Z</time>
      </trkpt>
      <trkpt lat="47.26282" lon="-1.60288">
        <ele>26</ele>
        <time>2019-09-30T13:19:24.000Z</time>
      </trkpt>
      <trkpt lat="47.26284" lon="-1.6029">
        <ele>26</ele>
        <time>2019-09-30T13:19:25.000Z</time>
      </trkpt>
      <trkpt lat="47.26285" lon="-1.60293">
        <ele>26</ele>
        <time>2019-09-30T13:19:26.000Z</time>
      </trkpt>
      <trkpt lat="47.26286" lon="-1.60297">
        <ele>26</ele>
        <time>2019-09-30T13:19:27.000Z</time>
      </trkpt>
      <trkpt lat="47.26286" lon="-1.60301">
        <ele>26</ele>
        <time>2019-09-30T13:19:28.000Z</time>
      </trkpt>
      <trkpt lat="47.26287" lon="-1.60305">
        <ele>25</ele>
        <time>2019-09-30T13:19:29.000Z</time>
      </trkpt>
      <trkpt lat="47.26287" lon="-1.60308">
        <ele>25</ele>
        <time>2019-09-30T13:19:30.000Z</time>
      </trkpt>
      <trkpt lat="47.26288" lon="-1.60311">
        <ele>25</ele>
        <time>2019-09-30T13:19:31.000Z</time>
      </trkpt>
      <trkpt lat="47.26289" lon="-1.60313">
        <ele>25</ele>
        <time>2019-09-30T13:19:32.000Z</time>
      </trkpt>
      <trkpt lat="47.26291" lon="-1.60315">
        <ele>25</ele>
        <time>2019-09-30T13:19:33.000Z</time>
      </trkpt>
      <trkpt lat="47.26292" lon="-1.60318">
        <ele>25</ele>
        <time>2019-09-30T13:19:34.000Z</time>
      </trkpt>
      <trkpt lat="47.26293" lon="-1.6032">
        <ele>25</ele>
        <time>2019-09-30T13:19:35.000Z</time>
      </trkpt>
      <trkpt lat="47.26294" lon="-1.60324">
        <ele>25</ele>
        <time>2019-09-30T13:19:36.000Z</time>
      </trkpt>
      <trkpt lat="47.26294" lon="-1.60327">
        <ele>25</ele>
        <time>2019-09-30T13:19:37.000Z</time>
      </trkpt>
      <trkpt lat="47.26294" lon="-1.60329">
        <ele>24</ele>
        <time>2019-09-30T13:19:38.000Z</time>
      </trkpt>
      <trkpt lat="47.26293" lon="-1.6033">
        <ele>24</ele>
        <time>2019-09-30T13:19:39.000Z</time>
      </trkpt>
      <trkpt lat="47.26292" lon="-1.60332">
        <ele>24</ele>
        <time>2019-09-30T13:19:40.000Z</time>
      </trkpt>
      <trkpt lat="47.26291" lon="-1.60334">
        <ele>24</ele>
        <time>2019-09-30T13:19:41.000Z</time>
      </trkpt>
      <trkpt lat="47.26289" lon="-1.60336">
        <ele>24</ele>
        <time>2019-09-30T13:19:42.000Z</time>
      </trkpt>
      <trkpt lat="47.26288" lon="-1.60339">
        <ele>24</ele>
        <time>2019-09-30T13:19:43.000Z</time>
      </trkpt>
      <trkpt lat="47.26287" lon="-1.6034">
        <ele>24</ele>
        <time>2019-09-30T13:19:44.000Z</time>
      </trkpt>
      <trkpt lat="47.26286" lon="-1.60341">
        <ele>24</ele>
        <time>2019-09-30T13:19:45.000Z</time>
      </trkpt>
      <trkpt lat="47.26285" lon="-1.60341">
        <ele>24</ele>
        <time>2019-09-30T13:19:46.000Z</time>
      </trkpt>
      <trkpt lat="47.26283" lon="-1.60342">
        <ele>24</ele>
        <time>2019-09-30T13:19:47.000Z</time>
      </trkpt>
      <trkpt lat="47.26281" lon="-1.60343">
        <ele>24</ele>
        <time>2019-09-30T13:19:48.000Z</time>
      </trkpt>
      <trkpt lat="47.2628" lon="-1.60343">
        <ele>24</ele>
        <time>2019-09-30T13:19:49.000Z</time>
      </trkpt>
      <trkpt lat="47.26279" lon="-1.60343">
        <ele>24</ele>
        <time>2019-09-30T13:19:50.000Z</time>
      </trkpt>
      <trkpt lat="47.26278" lon="-1.60343">
        <ele>24</ele>
        <time>2019-09-30T13:19:51.000Z</time>
      </trkpt>
      <trkpt lat="47.26277" lon="-1.60344">
        <ele>25</ele>
        <time>2019-09-30T13:19:52.000Z</time>
      </trkpt>
      <trkpt lat="47.26276" lon="-1.60345">
        <ele>25</ele>
        <time>2019-09-30T13:19:53.000Z</time>
      </trkpt>
      <trkpt lat="47.26275" lon="-1.60347">
        <ele>25</ele>
        <time>2019-09-30T13:19:54.000Z</time>
      </trkpt>
      <trkpt lat="47.26273" lon="-1.60348">
        <ele>25</ele>
        <time>2019-09-30T13:19:55.000Z</time>
      </trkpt>
      <trkpt lat="47.26272" lon="-1.6035">
        <ele>25</ele>
        <time>2019-09-30T13:19:56.000Z</time>
      </trkpt>
      <trkpt lat="47.26271" lon="-1.60351">
        <ele>26</ele>
        <time>2019-09-30T13:19:57.000Z</time>
      </trkpt>
      <trkpt lat="47.2627" lon="-1.60352">
        <ele>26</ele>
        <time>2019-09-30T13:19:58.000Z</time>
      </trkpt>
      <trkpt lat="47.26269" lon="-1.60353">
        <ele>26</ele>
        <time>2019-09-30T13:19:59.000Z</time>
      </trkpt>
      <trkpt lat="47.26268" lon="-1.60354">
        <ele>26</ele>
        <time>2019-09-30T13:20:00.000Z</time>
      </trkpt>
      <trkpt lat="47.26268" lon="-1.60355">
        <ele>27</ele>
        <time>2019-09-30T13:20:01.000Z</time>
      </trkpt>
      <trkpt lat="47.26267" lon="-1.60356">
        <ele>27</ele>
        <time>2019-09-30T13:20:02.000Z</time>
      </trkpt>
      <trkpt lat="47.26266" lon="-1.60357">
        <ele>27</ele>
        <time>2019-09-30T13:20:03.000Z</time>
      </trkpt>
      <trkpt lat="47.26265" lon="-1.60359">
        <ele>28</ele>
        <time>2019-09-30T13:20:04.000Z</time>
      </trkpt>
      <trkpt lat="47.26264" lon="-1.6036">
        <ele>28</ele>
        <time>2019-09-30T13:20:05.000Z</time>
      </trkpt>
      <trkpt lat="47.26263" lon="-1.60361">
        <ele>28</ele>
        <time>2019-09-30T13:20:06.000Z</time>
      </trkpt>
      <trkpt lat="47.26263" lon="-1.60363">
        <ele>28</ele>
        <time>2019-09-30T13:20:07.000Z</time>
      </trkpt>
      <trkpt lat="47.26262" lon="-1.60364">
        <ele>28</ele>
        <time>2019-09-30T13:20:08.000Z</time>
      </trkpt>
      <trkpt lat="47.26261" lon="-1.60366">
        <ele>29</ele>
        <time>2019-09-30T13:20:09.000Z</time>
      </trkpt>
      <trkpt lat="47.26261" lon="-1.60367">
        <ele>29</ele>
        <time>2019-09-30T13:20:10.000Z</time>
      </trkpt>
      <trkpt lat="47.26261" lon="-1.60368">
        <ele>29</ele>
        <time>2019-09-30T13:20:11.000Z</time>
      </trkpt>
      <trkpt lat="47.26261" lon="-1.6037">
        <ele>29</ele>
        <time>2019-09-30T13:20:12.000Z</time>
      </trkpt>
      <trkpt lat="47.2626" lon="-1.60373">
        <ele>29</ele>
        <time>2019-09-30T13:20:13.000Z</time>
      </trkpt>
      <trkpt lat="47.26259" lon="-1.60375">
        <ele>29</ele>
        <time>2019-09-30T13:20:14.000Z</time>
      </trkpt>
      <trkpt lat="47.26258" lon="-1.60376">
        <ele>29</ele>
        <time>2019-09-30T13:20:15.000Z</time>
      </trkpt>
      <trkpt lat="47.26257" lon="-1.60378">
        <ele>29</ele>
        <time>2019-09-30T13:20:16.000Z</time>
      </trkpt>
      <trkpt lat="47.26256" lon="-1.6038">
        <ele>29</ele>
        <time>2019-09-30T13:20:17.000Z</time>
      </trkpt>
      <trkpt lat="47.26255" lon="-1.60382">
        <ele>29</ele>
        <time>2019-09-30T13:20:18.000Z</time>
      </trkpt>
      <trkpt lat="47.26254" lon="-1.60383">
        <ele>29</ele>
        <time>2019-09-30T13:20:19.000Z</time>
      </trkpt>
      <trkpt lat="47.26253" lon="-1.60385">
        <ele>29</ele>
        <time>2019-09-30T13:20:20.000Z</time>
      </trkpt>
      <trkpt lat="47.26253" lon="-1.60387">
        <ele>29</ele>
        <time>2019-09-30T13:20:21.000Z</time>
      </trkpt>
      <trkpt lat="47.26252" lon="-1.60389">
        <ele>30</ele>
        <time>2019-09-30T13:20:22.000Z</time>
      </trkpt>
      <trkpt lat="47.26252" lon="-1.60392">
        <ele>30</ele>
        <time>2019-09-30T13:20:23.000Z</time>
      </trkpt>
      <trkpt lat="47.26251" lon="-1.60394">
        <ele>30</ele>
        <time>2019-09-30T13:20:24.000Z</time>
      </trkpt>
      <trkpt lat="47.2625" lon="-1.60397">
        <ele>30</ele>
        <time>2019-09-30T13:20:25.000Z</time>
      </trkpt>
      <trkpt lat="47.26249" lon="-1.604">
        <ele>30</ele>
        <time>2019-09-30T13:20:26.000Z</time>
      </trkpt>
      <trkpt lat="47.26248" lon="-1.60403">
        <ele>31</ele>
        <time>2019-09-30T13:20:27.000Z</time>
      </trkpt>
      <trkpt lat="47.26248" lon="-1.60405">
        <ele>31</ele>
        <time>2019-09-30T13:20:28.000Z</time>
      </trkpt>
      <trkpt lat="47.26247" lon="-1.60407">
        <ele>31</ele>
        <time>2019-09-30T13:20:29.000Z</time>
      </trkpt>
      <trkpt lat="47.26245" lon="-1.60408">
        <ele>32</ele>
        <time>2019-09-30T13:20:30.000Z</time>
      </trkpt>
      <trkpt lat="47.26245" lon="-1.60409">
        <ele>32</ele>
        <time>2019-09-30T13:20:31.000Z</time>
      </trkpt>
      <trkpt lat="47.26244" lon="-1.6041">
        <ele>32</ele>
        <time>2019-09-30T13:20:32.000Z</time>
      </trkpt>
      <trkpt lat="47.26244" lon="-1.60411">
        <ele>32</ele>
        <time>2019-09-30T13:20:33.000Z</time>
      </trkpt>
      <trkpt lat="47.26244" lon="-1.60411">
        <ele>33</ele>
        <time>2019-09-30T13:20:34.000Z</time>
      </trkpt>
      <trkpt lat="47.26244" lon="-1.60412">
        <ele>33</ele>
        <time>2019-09-30T13:20:35.000Z</time>
      </trkpt>
      <trkpt lat="47.26244" lon="-1.60413">
        <ele>33</ele>
        <time>2019-09-30T13:20:36.000Z</time>
      </trkpt>
      <trkpt lat="47.26232" lon="-1.60429">
        <ele>36</ele>
        <time>2019-09-30T13:20:37.000Z</time>
      </trkpt>
      <trkpt lat="47.26231" lon="-1.60428">
        <ele>36</ele>
        <time>2019-09-30T13:20:38.000Z</time>
      </trkpt>
      <trkpt lat="47.26231" lon="-1.60427">
        <ele>36</ele>
        <time>2019-09-30T13:20:39.000Z</time>
      </trkpt>
      <trkpt lat="47.2623" lon="-1.60426">
        <ele>37</ele>
        <time>2019-09-30T13:20:40.000Z</time>
      </trkpt>
      <trkpt lat="47.26229" lon="-1.60426">
        <ele>37</ele>
        <time>2019-09-30T13:20:41.000Z</time>
      </trkpt>
      <trkpt lat="47.26227" lon="-1.60427">
        <ele>37</ele>
        <time>2019-09-30T13:20:42.000Z</time>
      </trkpt>
      <trkpt lat="47.26226" lon="-1.60427">
        <ele>37</ele>
        <time>2019-09-30T13:20:43.000Z</time>
      </trkpt>
      <trkpt lat="47.26225" lon="-1.60428">
        <ele>37</ele>
        <time>2019-09-30T13:20:44.000Z</time>
      </trkpt>
      <trkpt lat="47.26224" lon="-1.60429">
        <ele>38</ele>
        <time>2019-09-30T13:20:45.000Z</time>
      </trkpt>
      <trkpt lat="47.26223" lon="-1.6043">
        <ele>38</ele>
        <time>2019-09-30T13:20:46.000Z</time>
      </trkpt>
      <trkpt lat="47.26222" lon="-1.60431">
        <ele>38</ele>
        <time>2019-09-30T13:20:47.000Z</time>
      </trkpt>
      <trkpt lat="47.26221" lon="-1.60431">
        <ele>38</ele>
        <time>2019-09-30T13:20:48.000Z</time>
      </trkpt>
      <trkpt lat="47.26219" lon="-1.60431">
        <ele>38</ele>
        <time>2019-09-30T13:20:49.000Z</time>
      </trkpt>
      <trkpt lat="47.26218" lon="-1.6043">
        <ele>39</ele>
        <time>2019-09-30T13:20:50.000Z</time>
      </trkpt>
      <trkpt lat="47.26217" lon="-1.60429">
        <ele>39</ele>
        <time>2019-09-30T13:20:51.000Z</time>
      </trkpt>
      <trkpt lat="47.26216" lon="-1.60428">
        <ele>39</ele>
        <time>2019-09-30T13:20:52.000Z</time>
      </trkpt>
      <trkpt lat="47.26215" lon="-1.60427">
        <ele>39</ele>
        <time>2019-09-30T13:20:53.000Z</time>
      </trkpt>
      <trkpt lat="47.26214" lon="-1.60426">
        <ele>40</ele>
        <time>2019-09-30T13:20:54.000Z</time>
      </trkpt>
      <trkpt lat="47.26213" lon="-1.60425">
        <ele>40</ele>
        <time>2019-09-30T13:20:55.000Z</time>
      </trkpt>
      <trkpt lat="47.26212" lon="-1.60424">
        <ele>40</ele>
        <time>2019-09-30T13:20:56.000Z</time>
      </trkpt>
      <trkpt lat="47.26212" lon="-1.60422">
        <ele>40</ele>
        <time>2019-09-30T13:20:57.000Z</time>
      </trkpt>
      <trkpt lat="47.26211" lon="-1.6042">
        <ele>40</ele>
        <time>2019-09-30T13:20:58.000Z</time>
      </trkpt>
      <trkpt lat="47.2621" lon="-1.60419">
        <ele>41</ele>
        <time>2019-09-30T13:20:59.000Z</time>
      </trkpt>
      <trkpt lat="47.2621" lon="-1.60418">
        <ele>41</ele>
        <time>2019-09-30T13:21:00.000Z</time>
      </trkpt>
      <trkpt lat="47.26209" lon="-1.60417">
        <ele>41</ele>
        <time>2019-09-30T13:21:01.000Z</time>
      </trkpt>
      <trkpt lat="47.26208" lon="-1.60416">
        <ele>41</ele>
        <time>2019-09-30T13:21:02.000Z</time>
      </trkpt>
      <trkpt lat="47.26207" lon="-1.60414">
        <ele>41</ele>
        <time>2019-09-30T13:21:03.000Z</time>
      </trkpt>
      <trkpt lat="47.26206" lon="-1.60413">
        <ele>41</ele>
        <time>2019-09-30T13:21:04.000Z</time>
      </trkpt>
      <trkpt lat="47.26205" lon="-1.60412">
        <ele>42</ele>
        <time>2019-09-30T13:21:05.000Z</time>
      </trkpt>
      <trkpt lat="47.26204" lon="-1.6041">
        <ele>42</ele>
        <time>2019-09-30T13:21:06.000Z</time>
      </trkpt>
      <trkpt lat="47.26202" lon="-1.60409">
        <ele>42</ele>
        <time>2019-09-30T13:21:07.000Z</time>
      </trkpt>
      <trkpt lat="47.26201" lon="-1.60407">
        <ele>42</ele>
        <time>2019-09-30T13:21:08.000Z</time>
      </trkpt>
      <trkpt lat="47.262" lon="-1.60404">
        <ele>42</ele>
        <time>2019-09-30T13:21:09.000Z</time>
      </trkpt>
      <trkpt lat="47.262" lon="-1.60402">
        <ele>42</ele>
        <time>2019-09-30T13:21:10.000Z</time>
      </trkpt>
      <trkpt lat="47.26199" lon="-1.60401">
        <ele>42</ele>
        <time>2019-09-30T13:21:11.000Z</time>
      </trkpt>
      <trkpt lat="47.262" lon="-1.604">
        <ele>42</ele>
        <time>2019-09-30T13:21:12.000Z</time>
      </trkpt>
      <trkpt lat="47.26201" lon="-1.60401">
        <ele>42</ele>
        <time>2019-09-30T13:21:13.000Z</time>
      </trkpt>
      <trkpt lat="47.26201" lon="-1.60401">
        <ele>42</ele>
        <time>2019-09-30T13:21:14.000Z</time>
      </trkpt>
      <trkpt lat="47.26202" lon="-1.60401">
        <ele>42</ele>
        <time>2019-09-30T13:21:15.000Z</time>
      </trkpt>
      <trkpt lat="47.26204" lon="-1.604">
        <ele>42</ele>
        <time>2019-09-30T13:21:16.000Z</time>
      </trkpt>
      <trkpt lat="47.26205" lon="-1.60397">
        <ele>42</ele>
        <time>2019-09-30T13:21:17.000Z</time>
      </trkpt>
      <trkpt lat="47.26206" lon="-1.60394">
        <ele>42</ele>
        <time>2019-09-30T13:21:18.000Z</time>
      </trkpt>
      <trkpt lat="47.26208" lon="-1.6039">
        <ele>42</ele>
        <time>2019-09-30T13:21:19.000Z</time>
      </trkpt>
      <trkpt lat="47.26209" lon="-1.60384">
        <ele>42</ele>
        <time>2019-09-30T13:21:20.000Z</time>
      </trkpt>
      <trkpt lat="47.2621" lon="-1.60378">
        <ele>42</ele>
        <time>2019-09-30T13:21:21.000Z</time>
      </trkpt>
      <trkpt lat="47.26209" lon="-1.60373">
        <ele>42</ele>
        <time>2019-09-30T13:21:22.000Z</time>
      </trkpt>
      <trkpt lat="47.26209" lon="-1.60368">
        <ele>42</ele>
        <time>2019-09-30T13:21:23.000Z</time>
      </trkpt>
      <trkpt lat="47.26209" lon="-1.60364">
        <ele>42</ele>
        <time>2019-09-30T13:21:24.000Z</time>
      </trkpt>
      <trkpt lat="47.26207" lon="-1.60359">
        <ele>42</ele>
        <time>2019-09-30T13:21:25.000Z</time>
      </trkpt>
      <trkpt lat="47.26206" lon="-1.60356">
        <ele>42</ele>
        <time>2019-09-30T13:21:26.000Z</time>
      </trkpt>
      <trkpt lat="47.26204" lon="-1.60353">
        <ele>42</ele>
        <time>2019-09-30T13:21:27.000Z</time>
      </trkpt>
      <trkpt lat="47.26202" lon="-1.60348">
        <ele>42</ele>
        <time>2019-09-30T13:21:28.000Z</time>
      </trkpt>
      <trkpt lat="47.262" lon="-1.60344">
        <ele>42</ele>
        <time>2019-09-30T13:21:29.000Z</time>
      </trkpt>
      <trkpt lat="47.26198" lon="-1.6034">
        <ele>42</ele>
        <time>2019-09-30T13:21:30.000Z</time>
      </trkpt>
      <trkpt lat="47.26196" lon="-1.60336">
        <ele>42</ele>
        <time>2019-09-30T13:21:31.000Z</time>
      </trkpt>
      <trkpt lat="47.26193" lon="-1.60331">
        <ele>42</ele>
        <time>2019-09-30T13:21:32.000Z</time>
      </trkpt>
      <trkpt lat="47.26191" lon="-1.60328">
        <ele>42</ele>
        <time>2019-09-30T13:21:33.000Z</time>
      </trkpt>
      <trkpt lat="47.26188" lon="-1.60324">
        <ele>42</ele>
        <time>2019-09-30T13:21:34.000Z</time>
      </trkpt>
      <trkpt lat="47.26186" lon="-1.60318">
        <ele>42</ele>
        <time>2019-09-30T13:21:35.000Z</time>
      </trkpt>
      <trkpt lat="47.26183" lon="-1.60313">
        <ele>42</ele>
        <time>2019-09-30T13:21:36.000Z</time>
      </trkpt>
      <trkpt lat="47.26179" lon="-1.60309">
        <ele>42</ele>
        <time>2019-09-30T13:21:37.000Z</time>
      </trkpt>
      <trkpt lat="47.26176" lon="-1.60304">
        <ele>42</ele>
        <time>2019-09-30T13:21:38.000Z</time>
      </trkpt>
      <trkpt lat="47.26173" lon="-1.603">
        <ele>42</ele>
        <time>2019-09-30T13:21:39.000Z</time>
      </trkpt>
      <trkpt lat="47.26171" lon="-1.60295">
        <ele>42</ele>
        <time>2019-09-30T13:21:40.000Z</time>
      </trkpt>
      <trkpt lat="47.26169" lon="-1.60289">
        <ele>42</ele>
        <time>2019-09-30T13:21:41.000Z</time>
      </trkpt>
      <trkpt lat="47.26168" lon="-1.60284">
        <ele>42</ele>
        <time>2019-09-30T13:21:42.000Z</time>
      </trkpt>
      <trkpt lat="47.26167" lon="-1.60281">
        <ele>42</ele>
        <time>2019-09-30T13:21:43.000Z</time>
      </trkpt>
      <trkpt lat="47.26164" lon="-1.60278">
        <ele>42</ele>
        <time>2019-09-30T13:21:44.000Z</time>
      </trkpt>
      <trkpt lat="47.26163" lon="-1.60274">
        <ele>41</ele>
        <time>2019-09-30T13:21:45.000Z</time>
      </trkpt>
      <trkpt lat="47.26161" lon="-1.6027">
        <ele>41</ele>
        <time>2019-09-30T13:21:46.000Z</time>
      </trkpt>
      <trkpt lat="47.26161" lon="-1.60266">
        <ele>41</ele>
        <time>2019-09-30T13:21:47.000Z</time>
      </trkpt>
      <trkpt lat="47.26161" lon="-1.60264">
        <ele>41</ele>
        <time>2019-09-30T13:21:48.000Z</time>
      </trkpt>
      <trkpt lat="47.26162" lon="-1.60262">
        <ele>40</ele>
        <time>2019-09-30T13:21:49.000Z</time>
      </trkpt>
      <trkpt lat="47.26163" lon="-1.6026">
        <ele>40</ele>
        <time>2019-09-30T13:21:50.000Z</time>
      </trkpt>
      <trkpt lat="47.26163" lon="-1.60259">
        <ele>40</ele>
        <time>2019-09-30T13:21:51.000Z</time>
      </trkpt>
      <trkpt lat="47.26164" lon="-1.60258">
        <ele>39</ele>
        <time>2019-09-30T13:21:52.000Z</time>
      </trkpt>
      <trkpt lat="47.26165" lon="-1.60258">
        <ele>39</ele>
        <time>2019-09-30T13:21:53.000Z</time>
      </trkpt>
      <trkpt lat="47.26167" lon="-1.60257">
        <ele>39</ele>
        <time>2019-09-30T13:21:54.000Z</time>
      </trkpt>
      <trkpt lat="47.26169" lon="-1.60257">
        <ele>38</ele>
        <time>2019-09-30T13:21:55.000Z</time>
      </trkpt>
      <trkpt lat="47.26172" lon="-1.60256">
        <ele>38</ele>
        <time>2019-09-30T13:21:56.000Z</time>
      </trkpt>
      <trkpt lat="47.26174" lon="-1.60255">
        <ele>37</ele>
        <time>2019-09-30T13:21:57.000Z</time>
      </trkpt>
      <trkpt lat="47.26177" lon="-1.60255">
        <ele>37</ele>
        <time>2019-09-30T13:21:58.000Z</time>
      </trkpt>
      <trkpt lat="47.26179" lon="-1.60255">
        <ele>37</ele>
        <time>2019-09-30T13:21:59.000Z</time>
      </trkpt>
      <trkpt lat="47.26182" lon="-1.60254">
        <ele>36</ele>
        <time>2019-09-30T13:22:00.000Z</time>
      </trkpt>
      <trkpt lat="47.26185" lon="-1.60254">
        <ele>36</ele>
        <time>2019-09-30T13:22:01.000Z</time>
      </trkpt>
      <trkpt lat="47.26187" lon="-1.60253">
        <ele>35</ele>
        <time>2019-09-30T13:22:02.000Z</time>
      </trkpt>
      <trkpt lat="47.2619" lon="-1.60253">
        <ele>35</ele>
        <time>2019-09-30T13:22:03.000Z</time>
      </trkpt>
      <trkpt lat="47.26194" lon="-1.60254">
        <ele>34</ele>
        <time>2019-09-30T13:22:04.000Z</time>
      </trkpt>
      <trkpt lat="47.26198" lon="-1.60254">
        <ele>34</ele>
        <time>2019-09-30T13:22:05.000Z</time>
      </trkpt>
      <trkpt lat="47.26201" lon="-1.60254">
        <ele>33</ele>
        <time>2019-09-30T13:22:06.000Z</time>
      </trkpt>
      <trkpt lat="47.26204" lon="-1.60254">
        <ele>33</ele>
        <time>2019-09-30T13:22:07.000Z</time>
      </trkpt>
      <trkpt lat="47.26205" lon="-1.60254">
        <ele>33</ele>
        <time>2019-09-30T13:22:08.000Z</time>
      </trkpt>
      <trkpt lat="47.26207" lon="-1.60253">
        <ele>32</ele>
        <time>2019-09-30T13:22:09.000Z</time>
      </trkpt>
      <trkpt lat="47.26208" lon="-1.60252">
        <ele>32</ele>
        <time>2019-09-30T13:22:10.000Z</time>
      </trkpt>
      <trkpt lat="47.26209" lon="-1.6025">
        <ele>31</ele>
        <time>2019-09-30T13:22:11.000Z</time>
      </trkpt>
      <trkpt lat="47.26209" lon="-1.60248">
        <ele>31</ele>
        <time>2019-09-30T13:22:12.000Z</time>
      </trkpt>
      <trkpt lat="47.26209" lon="-1.60245">
        <ele>31</ele>
        <time>2019-09-30T13:22:13.000Z</time>
      </trkpt>
      <trkpt lat="47.26209" lon="-1.60243">
        <ele>31</ele>
        <time>2019-09-30T13:22:14.000Z</time>
      </trkpt>
      <trkpt lat="47.26209" lon="-1.6024">
        <ele>31</ele>
        <time>2019-09-30T13:22:15.000Z</time>
      </trkpt>
      <trkpt lat="47.26209" lon="-1.60237">
        <ele>30</ele>
        <time>2019-09-30T13:22:16.000Z</time>
      </trkpt>
      <trkpt lat="47.26209" lon="-1.60234">
        <ele>30</ele>
        <time>2019-09-30T13:22:17.000Z</time>
      </trkpt>
      <trkpt lat="47.26208" lon="-1.6023">
        <ele>30</ele>
        <time>2019-09-30T13:22:18.000Z</time>
      </trkpt>
      <trkpt lat="47.26208" lon="-1.60226">
        <ele>30</ele>
        <time>2019-09-30T13:22:19.000Z</time>
      </trkpt>
      <trkpt lat="47.26208" lon="-1.60221">
        <ele>30</ele>
        <time>2019-09-30T13:22:20.000Z</time>
      </trkpt>
      <trkpt lat="47.26207" lon="-1.60216">
        <ele>30</ele>
        <time>2019-09-30T13:22:21.000Z</time>
      </trkpt>
      <trkpt lat="47.26206" lon="-1.60211">
        <ele>29</ele>
        <time>2019-09-30T13:22:22.000Z</time>
      </trkpt>
      <trkpt lat="47.26206" lon="-1.60207">
        <ele>29</ele>
        <time>2019-09-30T13:22:23.000Z</time>
      </trkpt>
      <trkpt lat="47.26205" lon="-1.60202">
        <ele>29</ele>
        <time>2019-09-30T13:22:24.000Z</time>
      </trkpt>
      <trkpt lat="47.26205" lon="-1.60198">
        <ele>29</ele>
        <time>2019-09-30T13:22:25.000Z</time>
      </trkpt>
      <trkpt lat="47.26205" lon="-1.60194">
        <ele>28</ele>
        <time>2019-09-30T13:22:26.000Z</time>
      </trkpt>
      <trkpt lat="47.26204" lon="-1.60189">
        <ele>28</ele>
        <time>2019-09-30T13:22:27.000Z</time>
      </trkpt>
      <trkpt lat="47.26203" lon="-1.60184">
        <ele>28</ele>
        <time>2019-09-30T13:22:28.000Z</time>
      </trkpt>
      <trkpt lat="47.26202" lon="-1.60181">
        <ele>28</ele>
        <time>2019-09-30T13:22:29.000Z</time>
      </trkpt>
      <trkpt lat="47.262" lon="-1.60178">
        <ele>28</ele>
        <time>2019-09-30T13:22:30.000Z</time>
      </trkpt>
      <trkpt lat="47.26198" lon="-1.60177">
        <ele>28</ele>
        <time>2019-09-30T13:22:31.000Z</time>
      </trkpt>
      <trkpt lat="47.26196" lon="-1.60174">
        <ele>28</ele>
        <time>2019-09-30T13:22:32.000Z</time>
      </trkpt>
      <trkpt lat="47.26194" lon="-1.60171">
        <ele>28</ele>
        <time>2019-09-30T13:22:33.000Z</time>
      </trkpt>
      <trkpt lat="47.26193" lon="-1.60167">
        <ele>28</ele>
        <time>2019-09-30T13:22:34.000Z</time>
      </trkpt>
      <trkpt lat="47.26193" lon="-1.60163">
        <ele>28</ele>
        <time>2019-09-30T13:22:35.000Z</time>
      </trkpt>
      <trkpt lat="47.26193" lon="-1.60159">
        <ele>27</ele>
        <time>2019-09-30T13:22:36.000Z</time>
      </trkpt>
      <trkpt lat="47.26195" lon="-1.60155">
        <ele>27</ele>
        <time>2019-09-30T13:22:37.000Z</time>
      </trkpt>
      <trkpt lat="47.26196" lon="-1.6015">
        <ele>27</ele>
        <time>2019-09-30T13:22:38.000Z</time>
      </trkpt>
      <trkpt lat="47.26198" lon="-1.60148">
        <ele>27</ele>
        <time>2019-09-30T13:22:39.000Z</time>
      </trkpt>
      <trkpt lat="47.26201" lon="-1.60145">
        <ele>27</ele>
        <time>2019-09-30T13:22:40.000Z</time>
      </trkpt>
      <trkpt lat="47.26203" lon="-1.60142">
        <ele>26</ele>
        <time>2019-09-30T13:22:41.000Z</time>
      </trkpt>
      <trkpt lat="47.26206" lon="-1.60136">
        <ele>26</ele>
        <time>2019-09-30T13:22:42.000Z</time>
      </trkpt>
      <trkpt lat="47.26207" lon="-1.60131">
        <ele>26</ele>
        <time>2019-09-30T13:22:43.000Z</time>
      </trkpt>
      <trkpt lat="47.26209" lon="-1.60128">
        <ele>26</ele>
        <time>2019-09-30T13:22:44.000Z</time>
      </trkpt>
      <trkpt lat="47.2621" lon="-1.60125">
        <ele>26</ele>
        <time>2019-09-30T13:22:45.000Z</time>
      </trkpt>
      <trkpt lat="47.26212" lon="-1.60122">
        <ele>25</ele>
        <time>2019-09-30T13:22:46.000Z</time>
      </trkpt>
      <trkpt lat="47.26213" lon="-1.60119">
        <ele>25</ele>
        <time>2019-09-30T13:22:47.000Z</time>
      </trkpt>
      <trkpt lat="47.26214" lon="-1.60116">
        <ele>25</ele>
        <time>2019-09-30T13:22:48.000Z</time>
      </trkpt>
      <trkpt lat="47.26215" lon="-1.60113">
        <ele>25</ele>
        <time>2019-09-30T13:22:49.000Z</time>
      </trkpt>
      <trkpt lat="47.26215" lon="-1.6011">
        <ele>24</ele>
        <time>2019-09-30T13:22:50.000Z</time>
      </trkpt>
      <trkpt lat="47.26216" lon="-1.60107">
        <ele>24</ele>
        <time>2019-09-30T13:22:51.000Z</time>
      </trkpt>
      <trkpt lat="47.26217" lon="-1.60106">
        <ele>23</ele>
        <time>2019-09-30T13:22:52.000Z</time>
      </trkpt>
      <trkpt lat="47.26218" lon="-1.60105">
        <ele>23</ele>
        <time>2019-09-30T13:22:53.000Z</time>
      </trkpt>
      <trkpt lat="47.26218" lon="-1.60105">
        <ele>22</ele>
        <time>2019-09-30T13:22:54.000Z</time>
      </trkpt>
      <trkpt lat="47.26219" lon="-1.60105">
        <ele>22</ele>
        <time>2019-09-30T13:22:55.000Z</time>
      </trkpt>
      <trkpt lat="47.26219" lon="-1.60105">
        <ele>22</ele>
        <time>2019-09-30T13:22:56.000Z</time>
      </trkpt>
      <trkpt lat="47.26214" lon="-1.60101">
        <ele>15</ele>
        <time>2019-09-30T13:22:57.000Z</time>
      </trkpt>
      <trkpt lat="47.26212" lon="-1.60099">
        <ele>14</ele>
        <time>2019-09-30T13:22:58.000Z</time>
      </trkpt>
      <trkpt lat="47.2621" lon="-1.60097">
        <ele>14</ele>
        <time>2019-09-30T13:22:59.000Z</time>
      </trkpt>
      <trkpt lat="47.26208" lon="-1.60094">
        <ele>13</ele>
        <time>2019-09-30T13:23:00.000Z</time>
      </trkpt>
      <trkpt lat="47.26207" lon="-1.60093">
        <ele>13</ele>
        <time>2019-09-30T13:23:01.000Z</time>
      </trkpt>
      <trkpt lat="47.26205" lon="-1.60091">
        <ele>13</ele>
        <time>2019-09-30T13:23:02.000Z</time>
      </trkpt>
      <trkpt lat="47.26204" lon="-1.60088">
        <ele>12</ele>
        <time>2019-09-30T13:23:03.000Z</time>
      </trkpt>
      <trkpt lat="47.26204" lon="-1.60084">
        <ele>12</ele>
        <time>2019-09-30T13:23:04.000Z</time>
      </trkpt>
      <trkpt lat="47.26203" lon="-1.60079">
        <ele>12</ele>
        <time>2019-09-30T13:23:05.000Z</time>
      </trkpt>
      <trkpt lat="47.26204" lon="-1.60073">
        <ele>12</ele>
        <time>2019-09-30T13:23:06.000Z</time>
      </trkpt>
      <trkpt lat="47.26205" lon="-1.60067">
        <ele>12</ele>
        <time>2019-09-30T13:23:07.000Z</time>
      </trkpt>
      <trkpt lat="47.26205" lon="-1.60061">
        <ele>12</ele>
        <time>2019-09-30T13:23:08.000Z</time>
      </trkpt>
      <trkpt lat="47.26206" lon="-1.60056">
        <ele>11</ele>
        <time>2019-09-30T13:23:09.000Z</time>
      </trkpt>
      <trkpt lat="47.26207" lon="-1.60051">
        <ele>11</ele>
        <time>2019-09-30T13:23:10.000Z</time>
      </trkpt>
      <trkpt lat="47.26208" lon="-1.60046">
        <ele>11</ele>
        <time>2019-09-30T13:23:11.000Z</time>
      </trkpt>
      <trkpt lat="47.26209" lon="-1.60041">
        <ele>11</ele>
        <time>2019-09-30T13:23:12.000Z</time>
      </trkpt>
      <trkpt lat="47.2621" lon="-1.60036">
        <ele>11</ele>
        <time>2019-09-30T13:23:13.000Z</time>
      </trkpt>
      <trkpt lat="47.26212" lon="-1.60031">
        <ele>11</ele>
        <time>2019-09-30T13:23:14.000Z</time>
      </trkpt>
      <trkpt lat="47.26214" lon="-1.60025">
        <ele>11</ele>
        <time>2019-09-30T13:23:15.000Z</time>
      </trkpt>
      <trkpt lat="47.26217" lon="-1.60019">
        <ele>11</ele>
        <time>2019-09-30T13:23:16.000Z</time>
      </trkpt>
      <trkpt lat="47.26219" lon="-1.60013">
        <ele>11</ele>
        <time>2019-09-30T13:23:17.000Z</time>
      </trkpt>
      <trkpt lat="47.26222" lon="-1.60007">
        <ele>11</ele>
        <time>2019-09-30T13:23:18.000Z</time>
      </trkpt>
      <trkpt lat="47.26225" lon="-1.60001">
        <ele>11</ele>
        <time>2019-09-30T13:23:19.000Z</time>
      </trkpt>
      <trkpt lat="47.26228" lon="-1.59995">
        <ele>11</ele>
        <time>2019-09-30T13:23:20.000Z</time>
      </trkpt>
      <trkpt lat="47.26231" lon="-1.59989">
        <ele>10</ele>
        <time>2019-09-30T13:23:21.000Z</time>
      </trkpt>
      <trkpt lat="47.26234" lon="-1.59983">
        <ele>10</ele>
        <time>2019-09-30T13:23:22.000Z</time>
      </trkpt>
      <trkpt lat="47.26237" lon="-1.59977">
        <ele>10</ele>
        <time>2019-09-30T13:23:23.000Z</time>
      </trkpt>
      <trkpt lat="47.2624" lon="-1.59971">
        <ele>10</ele>
        <time>2019-09-30T13:23:24.000Z</time>
      </trkpt>
      <trkpt lat="47.26243" lon="-1.59966">
        <ele>10</ele>
        <time>2019-09-30T13:23:25.000Z</time>
      </trkpt>
      <trkpt lat="47.26245" lon="-1.5996">
        <ele>10</ele>
        <time>2019-09-30T13:23:26.000Z</time>
      </trkpt>
      <trkpt lat="47.26247" lon="-1.59953">
        <ele>10</ele>
        <time>2019-09-30T13:23:27.000Z</time>
      </trkpt>
      <trkpt lat="47.2625" lon="-1.59947">
        <ele>10</ele>
        <time>2019-09-30T13:23:28.000Z</time>
      </trkpt>
      <trkpt lat="47.26251" lon="-1.5994">
        <ele>10</ele>
        <time>2019-09-30T13:23:29.000Z</time>
      </trkpt>
      <trkpt lat="47.26253" lon="-1.59933">
        <ele>10</ele>
        <time>2019-09-30T13:23:30.000Z</time>
      </trkpt>
      <trkpt lat="47.26254" lon="-1.59925">
        <ele>10</ele>
        <time>2019-09-30T13:23:31.000Z</time>
      </trkpt>
      <trkpt lat="47.26255" lon="-1.59919">
        <ele>10</ele>
        <time>2019-09-30T13:23:32.000Z</time>
      </trkpt>
      <trkpt lat="47.26256" lon="-1.59912">
        <ele>10</ele>
        <time>2019-09-30T13:23:33.000Z</time>
      </trkpt>
      <trkpt lat="47.26257" lon="-1.59906">
        <ele>10</ele>
        <time>2019-09-30T13:23:34.000Z</time>
      </trkpt>
      <trkpt lat="47.26258" lon="-1.599">
        <ele>10</ele>
        <time>2019-09-30T13:23:35.000Z</time>
      </trkpt>
      <trkpt lat="47.26258" lon="-1.59893">
        <ele>10</ele>
        <time>2019-09-30T13:23:36.000Z</time>
      </trkpt>
      <trkpt lat="47.26259" lon="-1.59887">
        <ele>10</ele>
        <time>2019-09-30T13:23:37.000Z</time>
      </trkpt>
      <trkpt lat="47.26259" lon="-1.59881">
        <ele>10</ele>
        <time>2019-09-30T13:23:38.000Z</time>
      </trkpt>
      <trkpt lat="47.26259" lon="-1.59874">
        <ele>10</ele>
        <time>2019-09-30T13:23:39.000Z</time>
      </trkpt>
      <trkpt lat="47.26258" lon="-1.59867">
        <ele>10</ele>
        <time>2019-09-30T13:23:40.000Z</time>
      </trkpt>
      <trkpt lat="47.26259" lon="-1.5986">
        <ele>10</ele>
        <time>2019-09-30T13:23:41.000Z</time>
      </trkpt>
      <trkpt lat="47.26259" lon="-1.59853">
        <ele>10</ele>
        <time>2019-09-30T13:23:42.000Z</time>
      </trkpt>
      <trkpt lat="47.26259" lon="-1.59846">
        <ele>10</ele>
        <time>2019-09-30T13:23:43.000Z</time>
      </trkpt>
      <trkpt lat="47.26259" lon="-1.59839">
        <ele>10</ele>
        <time>2019-09-30T13:23:44.000Z</time>
      </trkpt>
      <trkpt lat="47.26256" lon="-1.59833">
        <ele>10</ele>
        <time>2019-09-30T13:23:45.000Z</time>
      </trkpt>
      <trkpt lat="47.26255" lon="-1.59827">
        <ele>10</ele>
        <time>2019-09-30T13:23:46.000Z</time>
      </trkpt>
      <trkpt lat="47.26254" lon="-1.59823">
        <ele>10</ele>
        <time>2019-09-30T13:23:47.000Z</time>
      </trkpt>
      <trkpt lat="47.26253" lon="-1.59821">
        <ele>10</ele>
        <time>2019-09-30T13:23:48.000Z</time>
      </trkpt>
      <trkpt lat="47.26252" lon="-1.59819">
        <ele>10</ele>
        <time>2019-09-30T13:23:49.000Z</time>
      </trkpt>
      <trkpt lat="47.2625" lon="-1.5982">
        <ele>10</ele>
        <time>2019-09-30T13:23:50.000Z</time>
      </trkpt>
      <trkpt lat="47.26248" lon="-1.59821">
        <ele>10</ele>
        <time>2019-09-30T13:23:51.000Z</time>
      </trkpt>
      <trkpt lat="47.26245" lon="-1.59824">
        <ele>10</ele>
        <time>2019-09-30T13:23:52.000Z</time>
      </trkpt>
      <trkpt lat="47.26242" lon="-1.59826">
        <ele>10</ele>
        <time>2019-09-30T13:23:53.000Z</time>
      </trkpt>
      <trkpt lat="47.26238" lon="-1.59829">
        <ele>10</ele>
        <time>2019-09-30T13:23:54.000Z</time>
      </trkpt>
      <trkpt lat="47.26234" lon="-1.59833">
        <ele>10</ele>
        <time>2019-09-30T13:23:55.000Z</time>
      </trkpt>
      <trkpt lat="47.2623" lon="-1.59837">
        <ele>10</ele>
        <time>2019-09-30T13:23:56.000Z</time>
      </trkpt>
      <trkpt lat="47.26226" lon="-1.59841">
        <ele>10</ele>
        <time>2019-09-30T13:23:57.000Z</time>
      </trkpt>
      <trkpt lat="47.26222" lon="-1.59845">
        <ele>10</ele>
        <time>2019-09-30T13:23:58.000Z</time>
      </trkpt>
      <trkpt lat="47.26219" lon="-1.59849">
        <ele>10</ele>
        <time>2019-09-30T13:23:59.000Z</time>
      </trkpt>
      <trkpt lat="47.26215" lon="-1.59853">
        <ele>10</ele>
        <time>2019-09-30T13:24:00.000Z</time>
      </trkpt>
      <trkpt lat="47.26211" lon="-1.59858">
        <ele>10</ele>
        <time>2019-09-30T13:24:01.000Z</time>
      </trkpt>
      <trkpt lat="47.26208" lon="-1.59863">
        <ele>10</ele>
        <time>2019-09-30T13:24:02.000Z</time>
      </trkpt>
      <trkpt lat="47.26204" lon="-1.59867">
        <ele>10</ele>
        <time>2019-09-30T13:24:03.000Z</time>
      </trkpt>
      <trkpt lat="47.26201" lon="-1.59871">
        <ele>10</ele>
        <time>2019-09-30T13:24:04.000Z</time>
      </trkpt>
      <trkpt lat="47.26197" lon="-1.59876">
        <ele>10</ele>
        <time>2019-09-30T13:24:05.000Z</time>
      </trkpt>
      <trkpt lat="47.26196" lon="-1.59883">
        <ele>10</ele>
        <time>2019-09-30T13:24:06.000Z</time>
      </trkpt>
      <trkpt lat="47.26195" lon="-1.5989">
        <ele>10</ele>
        <time>2019-09-30T13:24:07.000Z</time>
      </trkpt>
      <trkpt lat="47.26193" lon="-1.59897">
        <ele>10</ele>
        <time>2019-09-30T13:24:08.000Z</time>
      </trkpt>
      <trkpt lat="47.26192" lon="-1.59905">
        <ele>10</ele>
        <time>2019-09-30T13:24:09.000Z</time>
      </trkpt>
      <trkpt lat="47.26192" lon="-1.59911">
        <ele>10</ele>
        <time>2019-09-30T13:24:10.000Z</time>
      </trkpt>
      <trkpt lat="47.26191" lon="-1.59918">
        <ele>10</ele>
        <time>2019-09-30T13:24:11.000Z</time>
      </trkpt>
      <trkpt lat="47.26191" lon="-1.59925">
        <ele>10</ele>
        <time>2019-09-30T13:24:12.000Z</time>
      </trkpt>
      <trkpt lat="47.2619" lon="-1.5993">
        <ele>10</ele>
        <time>2019-09-30T13:24:13.000Z</time>
      </trkpt>
      <trkpt lat="47.26189" lon="-1.59937">
        <ele>10</ele>
        <time>2019-09-30T13:24:14.000Z</time>
      </trkpt>
      <trkpt lat="47.26188" lon="-1.59944">
        <ele>10</ele>
        <time>2019-09-30T13:24:15.000Z</time>
      </trkpt>
      <trkpt lat="47.26187" lon="-1.59949">
        <ele>10</ele>
        <time>2019-09-30T13:24:16.000Z</time>
      </trkpt>
      <trkpt lat="47.26185" lon="-1.59954">
        <ele>10</ele>
        <time>2019-09-30T13:24:17.000Z</time>
      </trkpt>
      <trkpt lat="47.26184" lon="-1.59959">
        <ele>10</ele>
        <time>2019-09-30T13:24:18.000Z</time>
      </trkpt>
      <trkpt lat="47.26183" lon="-1.59965">
        <ele>10</ele>
        <time>2019-09-30T13:24:19.000Z</time>
      </trkpt>
      <trkpt lat="47.26182" lon="-1.59972">
        <ele>10</ele>
        <time>2019-09-30T13:24:20.000Z</time>
      </trkpt>
      <trkpt lat="47.26182" lon="-1.59979">
        <ele>10</ele>
        <time>2019-09-30T13:24:21.000Z</time>
      </trkpt>
      <trkpt lat="47.26181" lon="-1.59987">
        <ele>10</ele>
        <time>2019-09-30T13:24:22.000Z</time>
      </trkpt>
      <trkpt lat="47.26181" lon="-1.59994">
        <ele>10</ele>
        <time>2019-09-30T13:24:23.000Z</time>
      </trkpt>
      <trkpt lat="47.26181" lon="-1.60001">
        <ele>10</ele>
        <time>2019-09-30T13:24:24.000Z</time>
      </trkpt>
      <trkpt lat="47.2618" lon="-1.60007">
        <ele>10</ele>
        <time>2019-09-30T13:24:25.000Z</time>
      </trkpt>
      <trkpt lat="47.2618" lon="-1.60014">
        <ele>10</ele>
        <time>2019-09-30T13:24:26.000Z</time>
      </trkpt>
      <trkpt lat="47.26179" lon="-1.60021">
        <ele>10</ele>
        <time>2019-09-30T13:24:27.000Z</time>
      </trkpt>
      <trkpt lat="47.26179" lon="-1.60028">
        <ele>10</ele>
        <time>2019-09-30T13:24:28.000Z</time>
      </trkpt>
      <trkpt lat="47.26179" lon="-1.60035">
        <ele>10</ele>
        <time>2019-09-30T13:24:29.000Z</time>
      </trkpt>
      <trkpt lat="47.26179" lon="-1.6004">
        <ele>10</ele>
        <time>2019-09-30T13:24:30.000Z</time>
      </trkpt>
      <trkpt lat="47.26179" lon="-1.60047">
        <ele>10</ele>
        <time>2019-09-30T13:24:31.000Z</time>
      </trkpt>
      <trkpt lat="47.26179" lon="-1.60055">
        <ele>10</ele>
        <time>2019-09-30T13:24:32.000Z</time>
      </trkpt>
      <trkpt lat="47.2618" lon="-1.60062">
        <ele>10</ele>
        <time>2019-09-30T13:24:33.000Z</time>
      </trkpt>
      <trkpt lat="47.26181" lon="-1.60068">
        <ele>11</ele>
        <time>2019-09-30T13:24:34.000Z</time>
      </trkpt>
      <trkpt lat="47.26183" lon="-1.60073">
        <ele>11</ele>
        <time>2019-09-30T13:24:35.000Z</time>
      </trkpt>
      <trkpt lat="47.26185" lon="-1.60077">
        <ele>11</ele>
        <time>2019-09-30T13:24:36.000Z</time>
      </trkpt>
      <trkpt lat="47.26187" lon="-1.6008">
        <ele>11</ele>
        <time>2019-09-30T13:24:37.000Z</time>
      </trkpt>
      <trkpt lat="47.26188" lon="-1.60082">
        <ele>10</ele>
        <time>2019-09-30T13:24:38.000Z</time>
      </trkpt>
      <trkpt lat="47.2619" lon="-1.60085">
        <ele>10</ele>
        <time>2019-09-30T13:24:39.000Z</time>
      </trkpt>
      <trkpt lat="47.26191" lon="-1.60087">
        <ele>10</ele>
        <time>2019-09-30T13:24:40.000Z</time>
      </trkpt>
      <trkpt lat="47.26193" lon="-1.60089">
        <ele>10</ele>
        <time>2019-09-30T13:24:41.000Z</time>
      </trkpt>
      <trkpt lat="47.26195" lon="-1.60091">
        <ele>10</ele>
        <time>2019-09-30T13:24:42.000Z</time>
      </trkpt>
      <trkpt lat="47.26197" lon="-1.60094">
        <ele>10</ele>
        <time>2019-09-30T13:24:43.000Z</time>
      </trkpt>
      <trkpt lat="47.26199" lon="-1.60098">
        <ele>10</ele>
        <time>2019-09-30T13:24:44.000Z</time>
      </trkpt>
      <trkpt lat="47.26201" lon="-1.60102">
        <ele>10</ele>
        <time>2019-09-30T13:24:45.000Z</time>
      </trkpt>
      <trkpt lat="47.26203" lon="-1.60107">
        <ele>10</ele>
        <time>2019-09-30T13:24:46.000Z</time>
      </trkpt>
      <trkpt lat="47.26203" lon="-1.60111">
        <ele>10</ele>
        <time>2019-09-30T13:24:47.000Z</time>
      </trkpt>
      <trkpt lat="47.26204" lon="-1.60115">
        <ele>10</ele>
        <time>2019-09-30T13:24:48.000Z</time>
      </trkpt>
      <trkpt lat="47.26204" lon="-1.60119">
        <ele>10</ele>
        <time>2019-09-30T13:24:49.000Z</time>
      </trkpt>
      <trkpt lat="47.26206" lon="-1.60123">
        <ele>10</ele>
        <time>2019-09-30T13:24:50.000Z</time>
      </trkpt>
      <trkpt lat="47.26209" lon="-1.60126">
        <ele>10</ele>
        <time>2019-09-30T13:24:51.000Z</time>
      </trkpt>
      <trkpt lat="47.26213" lon="-1.60129">
        <ele>10</ele>
        <time>2019-09-30T13:24:52.000Z</time>
      </trkpt>
      <trkpt lat="47.26216" lon="-1.60131">
        <ele>10</ele>
        <time>2019-09-30T13:24:53.000Z</time>
      </trkpt>
      <trkpt lat="47.2622" lon="-1.60133">
        <ele>10</ele>
        <time>2019-09-30T13:24:54.000Z</time>
      </trkpt>
      <trkpt lat="47.26223" lon="-1.60136">
        <ele>10</ele>
        <time>2019-09-30T13:24:55.000Z</time>
      </trkpt>
      <trkpt lat="47.26226" lon="-1.6014">
        <ele>10</ele>
        <time>2019-09-30T13:24:56.000Z</time>
      </trkpt>
      <trkpt lat="47.26229" lon="-1.60145">
        <ele>10</ele>
        <time>2019-09-30T13:24:57.000Z</time>
      </trkpt>
      <trkpt lat="47.26232" lon="-1.60151">
        <ele>11</ele>
        <time>2019-09-30T13:24:58.000Z</time>
      </trkpt>
      <trkpt lat="47.26235" lon="-1.60156">
        <ele>11</ele>
        <time>2019-09-30T13:24:59.000Z</time>
      </trkpt>
      <trkpt lat="47.26239" lon="-1.6016">
        <ele>11</ele>
        <time>2019-09-30T13:25:00.000Z</time>
      </trkpt>
      <trkpt lat="47.26242" lon="-1.6016">
        <ele>11</ele>
        <time>2019-09-30T13:25:01.000Z</time>
      </trkpt>
      <trkpt lat="47.26244" lon="-1.6016">
        <ele>11</ele>
        <time>2019-09-30T13:25:02.000Z</time>
      </trkpt>
      <trkpt lat="47.26246" lon="-1.60162">
        <ele>11</ele>
        <time>2019-09-30T13:25:03.000Z</time>
      </trkpt>
      <trkpt lat="47.26249" lon="-1.60165">
        <ele>11</ele>
        <time>2019-09-30T13:25:04.000Z</time>
      </trkpt>
      <trkpt lat="47.26252" lon="-1.60166">
        <ele>11</ele>
        <time>2019-09-30T13:25:05.000Z</time>
      </trkpt>
      <trkpt lat="47.26256" lon="-1.60168">
        <ele>11</ele>
        <time>2019-09-30T13:25:06.000Z</time>
      </trkpt>
      <trkpt lat="47.26259" lon="-1.6017">
        <ele>11</ele>
        <time>2019-09-30T13:25:07.000Z</time>
      </trkpt>
      <trkpt lat="47.26263" lon="-1.60173">
        <ele>11</ele>
        <time>2019-09-30T13:25:08.000Z</time>
      </trkpt>
      <trkpt lat="47.26266" lon="-1.60176">
        <ele>12</ele>
        <time>2019-09-30T13:25:09.000Z</time>
      </trkpt>
      <trkpt lat="47.26269" lon="-1.6018">
        <ele>12</ele>
        <time>2019-09-30T13:25:10.000Z</time>
      </trkpt>
      <trkpt lat="47.26272" lon="-1.60184">
        <ele>12</ele>
        <time>2019-09-30T13:25:11.000Z</time>
      </trkpt>
      <trkpt lat="47.26276" lon="-1.60188">
        <ele>12</ele>
        <time>2019-09-30T13:25:12.000Z</time>
      </trkpt>
      <trkpt lat="47.2628" lon="-1.60189">
        <ele>12</ele>
        <time>2019-09-30T13:25:13.000Z</time>
      </trkpt>
      <trkpt lat="47.26283" lon="-1.6019">
        <ele>13</ele>
        <time>2019-09-30T13:25:14.000Z</time>
      </trkpt>
      <trkpt lat="47.26286" lon="-1.60193">
        <ele>13</ele>
        <time>2019-09-30T13:25:15.000Z</time>
      </trkpt>
      <trkpt lat="47.26288" lon="-1.60196">
        <ele>13</ele>
        <time>2019-09-30T13:25:16.000Z</time>
      </trkpt>
      <trkpt lat="47.2629" lon="-1.602">
        <ele>13</ele>
        <time>2019-09-30T13:25:17.000Z</time>
      </trkpt>
      <trkpt lat="47.26293" lon="-1.60204">
        <ele>13</ele>
        <time>2019-09-30T13:25:18.000Z</time>
      </trkpt>
      <trkpt lat="47.26296" lon="-1.60206">
        <ele>13</ele>
        <time>2019-09-30T13:25:19.000Z</time>
      </trkpt>
      <trkpt lat="47.263" lon="-1.60207">
        <ele>14</ele>
        <time>2019-09-30T13:25:20.000Z</time>
      </trkpt>
      <trkpt lat="47.26304" lon="-1.60209">
        <ele>14</ele>
        <time>2019-09-30T13:25:21.000Z</time>
      </trkpt>
      <trkpt lat="47.26308" lon="-1.60212">
        <ele>14</ele>
        <time>2019-09-30T13:25:22.000Z</time>
      </trkpt>
      <trkpt lat="47.26311" lon="-1.60215">
        <ele>14</ele>
        <time>2019-09-30T13:25:23.000Z</time>
      </trkpt>
      <trkpt lat="47.26315" lon="-1.60218">
        <ele>14</ele>
        <time>2019-09-30T13:25:24.000Z</time>
      </trkpt>
      <trkpt lat="47.26319" lon="-1.60218">
        <ele>14</ele>
        <time>2019-09-30T13:25:25.000Z</time>
      </trkpt>
      <trkpt lat="47.26322" lon="-1.60218">
        <ele>14</ele>
        <time>2019-09-30T13:25:26.000Z</time>
      </trkpt>
      <trkpt lat="47.26324" lon="-1.60219">
        <ele>14</ele>
        <time>2019-09-30T13:25:27.000Z</time>
      </trkpt>
      <trkpt lat="47.26325" lon="-1.6022">
        <ele>14</ele>
        <time>2019-09-30T13:25:28.000Z</time>
      </trkpt>
      <trkpt lat="47.26325" lon="-1.6022">
        <ele>14</ele>
        <time>2019-09-30T13:25:29.000Z</time>
      </trkpt>
      <trkpt lat="47.26325" lon="-1.6022">
        <ele>14</ele>
        <time>2019-09-30T13:25:30.000Z</time>
      </trkpt>
      <trkpt lat="47.26334" lon="-1.60234">
        <ele>13</ele>
        <time>2019-09-30T13:25:31.000Z</time>
      </trkpt>
      <trkpt lat="47.26334" lon="-1.60235">
        <ele>13</ele>
        <time>2019-09-30T13:25:32.000Z</time>
      </trkpt>
      <trkpt lat="47.26334" lon="-1.60235">
        <ele>13</ele>
        <time>2019-09-30T13:25:33.000Z</time>
      </trkpt>
      <trkpt lat="47.26332" lon="-1.60241">
        <ele>13</ele>
        <time>2019-09-30T13:25:34.000Z</time>
      </trkpt>
      <trkpt lat="47.26332" lon="-1.60243">
        <ele>13</ele>
        <time>2019-09-30T13:25:35.000Z</time>
      </trkpt>
      <trkpt lat="47.26332" lon="-1.60246">
        <ele>13</ele>
        <time>2019-09-30T13:25:36.000Z</time>
      </trkpt>
      <trkpt lat="47.26331" lon="-1.60249">
        <ele>13</ele>
        <time>2019-09-30T13:25:37.000Z</time>
      </trkpt>
      <trkpt lat="47.26331" lon="-1.60253">
        <ele>13</ele>
        <time>2019-09-30T13:25:38.000Z</time>
      </trkpt>
      <trkpt lat="47.26331" lon="-1.60256">
        <ele>13</ele>
        <time>2019-09-30T13:25:39.000Z</time>
      </trkpt>
      <trkpt lat="47.2633" lon="-1.60261">
        <ele>13</ele>
        <time>2019-09-30T13:25:40.000Z</time>
      </trkpt>
      <trkpt lat="47.2633" lon="-1.60264">
        <ele>13</ele>
        <time>2019-09-30T13:25:41.000Z</time>
      </trkpt>
      <trkpt lat="47.26329" lon="-1.60268">
        <ele>13</ele>
        <time>2019-09-30T13:25:42.000Z</time>
      </trkpt>
      <trkpt lat="47.26328" lon="-1.60272">
        <ele>13</ele>
        <time>2019-09-30T13:25:43.000Z</time>
      </trkpt>
      <trkpt lat="47.26329" lon="-1.60276">
        <ele>13</ele>
        <time>2019-09-30T13:25:44.000Z</time>
      </trkpt>
      <trkpt lat="47.26329" lon="-1.60281">
        <ele>13</ele>
        <time>2019-09-30T13:25:45.000Z</time>
      </trkpt>
      <trkpt lat="47.26328" lon="-1.60285">
        <ele>13</ele>
        <time>2019-09-30T13:25:46.000Z</time>
      </trkpt>
      <trkpt lat="47.26327" lon="-1.60289">
        <ele>13</ele>
        <time>2019-09-30T13:25:47.000Z</time>
      </trkpt>
      <trkpt lat="47.26326" lon="-1.60293">
        <ele>13</ele>
        <time>2019-09-30T13:25:48.000Z</time>
      </trkpt>
      <trkpt lat="47.26324" lon="-1.60297">
        <ele>13</ele>
        <time>2019-09-30T13:25:49.000Z</time>
      </trkpt>
      <trkpt lat="47.26322" lon="-1.60301">
        <ele>13</ele>
        <time>2019-09-30T13:25:50.000Z</time>
      </trkpt>
      <trkpt lat="47.2632" lon="-1.60302">
        <ele>13</ele>
        <time>2019-09-30T13:25:51.000Z</time>
      </trkpt>
      <trkpt lat="47.26319" lon="-1.60304">
        <ele>13</ele>
        <time>2019-09-30T13:25:52.000Z</time>
      </trkpt>
      <trkpt lat="47.26317" lon="-1.60305">
        <ele>13</ele>
        <time>2019-09-30T13:25:53.000Z</time>
      </trkpt>
      <trkpt lat="47.26316" lon="-1.60305">
        <ele>13</ele>
        <time>2019-09-30T13:25:54.000Z</time>
      </trkpt>
      <trkpt lat="47.26316" lon="-1.60305">
        <ele>14</ele>
        <time>2019-09-30T13:25:55.000Z</time>
      </trkpt>
      <trkpt lat="47.26316" lon="-1.60306">
        <ele>14</ele>
        <time>2019-09-30T13:25:56.000Z</time>
      </trkpt>
      <trkpt lat="47.26315" lon="-1.60316">
        <ele>13</ele>
        <time>2019-09-30T13:25:57.000Z</time>
      </trkpt>
      <trkpt lat="47.26314" lon="-1.60318">
        <ele>13</ele>
        <time>2019-09-30T13:25:58.000Z</time>
      </trkpt>
      <trkpt lat="47.26314" lon="-1.60322">
        <ele>13</ele>
        <time>2019-09-30T13:25:59.000Z</time>
      </trkpt>
      <trkpt lat="47.26313" lon="-1.60325">
        <ele>13</ele>
        <time>2019-09-30T13:26:00.000Z</time>
      </trkpt>
      <trkpt lat="47.26311" lon="-1.60329">
        <ele>13</ele>
        <time>2019-09-30T13:26:01.000Z</time>
      </trkpt>
      <trkpt lat="47.2631" lon="-1.60332">
        <ele>13</ele>
        <time>2019-09-30T13:26:02.000Z</time>
      </trkpt>
      <trkpt lat="47.26308" lon="-1.60336">
        <ele>13</ele>
        <time>2019-09-30T13:26:03.000Z</time>
      </trkpt>
      <trkpt lat="47.26307" lon="-1.60338">
        <ele>13</ele>
        <time>2019-09-30T13:26:04.000Z</time>
      </trkpt>
      <trkpt lat="47.26306" lon="-1.60341">
        <ele>13</ele>
        <time>2019-09-30T13:26:05.000Z</time>
      </trkpt>
      <trkpt lat="47.26304" lon="-1.60343">
        <ele>13</ele>
        <time>2019-09-30T13:26:06.000Z</time>
      </trkpt>
      <trkpt lat="47.26303" lon="-1.60347">
        <ele>13</ele>
        <time>2019-09-30T13:26:07.000Z</time>
      </trkpt>
      <trkpt lat="47.26302" lon="-1.60351">
        <ele>13</ele>
        <time>2019-09-30T13:26:08.000Z</time>
      </trkpt>
      <trkpt lat="47.26301" lon="-1.60354">
        <ele>13</ele>
        <time>2019-09-30T13:26:09.000Z</time>
      </trkpt>
      <trkpt lat="47.26301" lon="-1.60357">
        <ele>14</ele>
        <time>2019-09-30T13:26:10.000Z</time>
      </trkpt>
      <trkpt lat="47.26301" lon="-1.60361">
        <ele>14</ele>
        <time>2019-09-30T13:26:11.000Z</time>
      </trkpt>
      <trkpt lat="47.263" lon="-1.60365">
        <ele>13</ele>
        <time>2019-09-30T13:26:12.000Z</time>
      </trkpt>
      <trkpt lat="47.26298" lon="-1.6037">
        <ele>13</ele>
        <time>2019-09-30T13:26:13.000Z</time>
      </trkpt>
      <trkpt lat="47.26297" lon="-1.60374">
        <ele>13</ele>
        <time>2019-09-30T13:26:14.000Z</time>
      </trkpt>
      <trkpt lat="47.26296" lon="-1.60378">
        <ele>14</ele>
        <time>2019-09-30T13:26:15.000Z</time>
      </trkpt>
      <trkpt lat="47.26295" lon="-1.60382">
        <ele>14</ele>
        <time>2019-09-30T13:26:16.000Z</time>
      </trkpt>
      <trkpt lat="47.26293" lon="-1.60386">
        <ele>14</ele>
        <time>2019-09-30T13:26:17.000Z</time>
      </trkpt>
      <trkpt lat="47.26291" lon="-1.60391">
        <ele>14</ele>
        <time>2019-09-30T13:26:18.000Z</time>
      </trkpt>
      <trkpt lat="47.2629" lon="-1.60395">
        <ele>14</ele>
        <time>2019-09-30T13:26:19.000Z</time>
      </trkpt>
      <trkpt lat="47.26289" lon="-1.604">
        <ele>14</ele>
        <time>2019-09-30T13:26:20.000Z</time>
      </trkpt>
      <trkpt lat="47.26288" lon="-1.60404">
        <ele>14</ele>
        <time>2019-09-30T13:26:21.000Z</time>
      </trkpt>
      <trkpt lat="47.26287" lon="-1.60408">
        <ele>14</ele>
        <time>2019-09-30T13:26:22.000Z</time>
      </trkpt>
      <trkpt lat="47.26286" lon="-1.60412">
        <ele>14</ele>
        <time>2019-09-30T13:26:23.000Z</time>
      </trkpt>
      <trkpt lat="47.26283" lon="-1.60415">
        <ele>14</ele>
        <time>2019-09-30T13:26:24.000Z</time>
      </trkpt>
      <trkpt lat="47.26281" lon="-1.60419">
        <ele>14</ele>
        <time>2019-09-30T13:26:25.000Z</time>
      </trkpt>
      <trkpt lat="47.2628" lon="-1.60422">
        <ele>14</ele>
        <time>2019-09-30T13:26:26.000Z</time>
      </trkpt>
      <trkpt lat="47.26278" lon="-1.60425">
        <ele>13</ele>
        <time>2019-09-30T13:26:27.000Z</time>
      </trkpt>
      <trkpt lat="47.26277" lon="-1.60428">
        <ele>13</ele>
        <time>2019-09-30T13:26:28.000Z</time>
      </trkpt>
      <trkpt lat="47.26277" lon="-1.60429">
        <ele>14</ele>
        <time>2019-09-30T13:26:29.000Z</time>
      </trkpt>
      <trkpt lat="47.26276" lon="-1.60431">
        <ele>14</ele>
        <time>2019-09-30T13:26:30.000Z</time>
      </trkpt>
      <trkpt lat="47.26276" lon="-1.60432">
        <ele>14</ele>
        <time>2019-09-30T13:26:31.000Z</time>
      </trkpt>
      <trkpt lat="47.26276" lon="-1.60433">
        <ele>14</ele>
        <time>2019-09-30T13:26:32.000Z</time>
      </trkpt>
      <trkpt lat="47.26276" lon="-1.60435">
        <ele>14</ele>
        <time>2019-09-30T13:26:33.000Z</time>
      </trkpt>
      <trkpt lat="47.26276" lon="-1.60436">
        <ele>14</ele>
        <time>2019-09-30T13:26:34.000Z</time>
      </trkpt>
      <trkpt lat="47.26276" lon="-1.60437">
        <ele>14</ele>
        <time>2019-09-30T13:26:35.000Z</time>
      </trkpt>
      <trkpt lat="47.26272" lon="-1.60463">
        <ele>22</ele>
        <time>2019-09-30T13:26:36.000Z</time>
      </trkpt>
      <trkpt lat="47.26271" lon="-1.60467">
        <ele>22</ele>
        <time>2019-09-30T13:26:37.000Z</time>
      </trkpt>
      <trkpt lat="47.26271" lon="-1.6047">
        <ele>22</ele>
        <time>2019-09-30T13:26:38.000Z</time>
      </trkpt>
      <trkpt lat="47.26272" lon="-1.60473">
        <ele>22</ele>
        <time>2019-09-30T13:26:39.000Z</time>
      </trkpt>
      <trkpt lat="47.26273" lon="-1.60476">
        <ele>22</ele>
        <time>2019-09-30T13:26:40.000Z</time>
      </trkpt>
      <trkpt lat="47.26275" lon="-1.6048">
        <ele>22</ele>
        <time>2019-09-30T13:26:41.000Z</time>
      </trkpt>
      <trkpt lat="47.26276" lon="-1.60483">
        <ele>22</ele>
        <time>2019-09-30T13:26:42.000Z</time>
      </trkpt>
      <trkpt lat="47.26278" lon="-1.60487">
        <ele>22</ele>
        <time>2019-09-30T13:26:43.000Z</time>
      </trkpt>
      <trkpt lat="47.26279" lon="-1.60493">
        <ele>22</ele>
        <time>2019-09-30T13:26:44.000Z</time>
      </trkpt>
      <trkpt lat="47.2628" lon="-1.60498">
        <ele>21</ele>
        <time>2019-09-30T13:26:45.000Z</time>
      </trkpt>
      <trkpt lat="47.26281" lon="-1.60504">
        <ele>21</ele>
        <time>2019-09-30T13:26:46.000Z</time>
      </trkpt>
      <trkpt lat="47.26282" lon="-1.6051">
        <ele>20</ele>
        <time>2019-09-30T13:26:47.000Z</time>
      </trkpt>
      <trkpt lat="47.26282" lon="-1.60516">
        <ele>20</ele>
        <time>2019-09-30T13:26:48.000Z</time>
      </trkpt>
      <trkpt lat="47.26282" lon="-1.60521">
        <ele>19</ele>
        <time>2019-09-30T13:26:49.000Z</time>
      </trkpt>
      <trkpt lat="47.26281" lon="-1.60527">
        <ele>19</ele>
        <time>2019-09-30T13:26:50.000Z</time>
      </trkpt>
      <trkpt lat="47.26281" lon="-1.60532">
        <ele>19</ele>
        <time>2019-09-30T13:26:51.000Z</time>
      </trkpt>
      <trkpt lat="47.2628" lon="-1.60538">
        <ele>18</ele>
        <time>2019-09-30T13:26:52.000Z</time>
      </trkpt>
      <trkpt lat="47.2628" lon="-1.60544">
        <ele>18</ele>
        <time>2019-09-30T13:26:53.000Z</time>
      </trkpt>
      <trkpt lat="47.2628" lon="-1.6055">
        <ele>17</ele>
        <time>2019-09-30T13:26:54.000Z</time>
      </trkpt>
      <trkpt lat="47.2628" lon="-1.60555">
        <ele>17</ele>
        <time>2019-09-30T13:26:55.000Z</time>
      </trkpt>
      <trkpt lat="47.2628" lon="-1.60561">
        <ele>17</ele>
        <time>2019-09-30T13:26:56.000Z</time>
      </trkpt>
      <trkpt lat="47.2628" lon="-1.60567">
        <ele>16</ele>
        <time>2019-09-30T13:26:57.000Z</time>
      </trkpt>
      <trkpt lat="47.26279" lon="-1.60573">
        <ele>16</ele>
        <time>2019-09-30T13:26:58.000Z</time>
      </trkpt>
      <trkpt lat="47.26279" lon="-1.60579">
        <ele>15</ele>
        <time>2019-09-30T13:26:59.000Z</time>
      </trkpt>
      <trkpt lat="47.26278" lon="-1.60585">
        <ele>15</ele>
        <time>2019-09-30T13:27:00.000Z</time>
      </trkpt>
      <trkpt lat="47.26277" lon="-1.60591">
        <ele>15</ele>
        <time>2019-09-30T13:27:01.000Z</time>
      </trkpt>
      <trkpt lat="47.26276" lon="-1.60596">
        <ele>14</ele>
        <time>2019-09-30T13:27:02.000Z</time>
      </trkpt>
      <trkpt lat="47.26275" lon="-1.60601">
        <ele>14</ele>
        <time>2019-09-30T13:27:03.000Z</time>
      </trkpt>
      <trkpt lat="47.26275" lon="-1.60605">
        <ele>14</ele>
        <time>2019-09-30T13:27:04.000Z</time>
      </trkpt>
      <trkpt lat="47.26276" lon="-1.60609">
        <ele>13</ele>
        <time>2019-09-30T13:27:05.000Z</time>
      </trkpt>
      <trkpt lat="47.26277" lon="-1.60611">
        <ele>13</ele>
        <time>2019-09-30T13:27:06.000Z</time>
      </trkpt>
      <trkpt lat="47.26278" lon="-1.60612">
        <ele>13</ele>
        <time>2019-09-30T13:27:07.000Z</time>
      </trkpt>
      <trkpt lat="47.2628" lon="-1.60612">
        <ele>13</ele>
        <time>2019-09-30T13:27:08.000Z</time>
      </trkpt>
      <trkpt lat="47.26281" lon="-1.60611">
        <ele>13</ele>
        <time>2019-09-30T13:27:09.000Z</time>
      </trkpt>
      <trkpt lat="47.26282" lon="-1.6061">
        <ele>13</ele>
        <time>2019-09-30T13:27:10.000Z</time>
      </trkpt>
      <trkpt lat="47.26282" lon="-1.60608">
        <ele>12</ele>
        <time>2019-09-30T13:27:11.000Z</time>
      </trkpt>
      <trkpt lat="47.26283" lon="-1.60608">
        <ele>12</ele>
        <time>2019-09-30T13:27:12.000Z</time>
      </trkpt>
      <trkpt lat="47.26283" lon="-1.60607">
        <ele>12</ele>
        <time>2019-09-30T13:27:13.000Z</time>
      </trkpt>
      <trkpt lat="47.26284" lon="-1.60608">
        <ele>12</ele>
        <time>2019-09-30T13:27:14.000Z</time>
      </trkpt>
      <trkpt lat="47.26287" lon="-1.6061">
        <ele>11</ele>
        <time>2019-09-30T13:27:15.000Z</time>
      </trkpt>
      <trkpt lat="47.26289" lon="-1.60611">
        <ele>11</ele>
        <time>2019-09-30T13:27:16.000Z</time>
      </trkpt>
      <trkpt lat="47.26291" lon="-1.60613">
        <ele>11</ele>
        <time>2019-09-30T13:27:17.000Z</time>
      </trkpt>
      <trkpt lat="47.26292" lon="-1.60616">
        <ele>11</ele>
        <time>2019-09-30T13:27:18.000Z</time>
      </trkpt>
      <trkpt lat="47.26294" lon="-1.60619">
        <ele>11</ele>
        <time>2019-09-30T13:27:19.000Z</time>
      </trkpt>
      <trkpt lat="47.26296" lon="-1.60622">
        <ele>11</ele>
        <time>2019-09-30T13:27:20.000Z</time>
      </trkpt>
      <trkpt lat="47.26297" lon="-1.60625">
        <ele>11</ele>
        <time>2019-09-30T13:27:21.000Z</time>
      </trkpt>
      <trkpt lat="47.26299" lon="-1.60629">
        <ele>11</ele>
        <time>2019-09-30T13:27:22.000Z</time>
      </trkpt>
      <trkpt lat="47.263" lon="-1.60632">
        <ele>11</ele>
        <time>2019-09-30T13:27:23.000Z</time>
      </trkpt>
      <trkpt lat="47.26302" lon="-1.60636">
        <ele>11</ele>
        <time>2019-09-30T13:27:24.000Z</time>
      </trkpt>
      <trkpt lat="47.26303" lon="-1.6064">
        <ele>11</ele>
        <time>2019-09-30T13:27:25.000Z</time>
      </trkpt>
      <trkpt lat="47.26305" lon="-1.60644">
        <ele>11</ele>
        <time>2019-09-30T13:27:26.000Z</time>
      </trkpt>
      <trkpt lat="47.26307" lon="-1.60648">
        <ele>11</ele>
        <time>2019-09-30T13:27:27.000Z</time>
      </trkpt>
      <trkpt lat="47.26309" lon="-1.60651">
        <ele>10</ele>
        <time>2019-09-30T13:27:28.000Z</time>
      </trkpt>
      <trkpt lat="47.2631" lon="-1.60654">
        <ele>10</ele>
        <time>2019-09-30T13:27:29.000Z</time>
      </trkpt>
      <trkpt lat="47.26312" lon="-1.60657">
        <ele>10</ele>
        <time>2019-09-30T13:27:30.000Z</time>
      </trkpt>
      <trkpt lat="47.26314" lon="-1.6066">
        <ele>10</ele>
        <time>2019-09-30T13:27:31.000Z</time>
      </trkpt>
      <trkpt lat="47.26316" lon="-1.60661">
        <ele>10</ele>
        <time>2019-09-30T13:27:32.000Z</time>
      </trkpt>
      <trkpt lat="47.26318" lon="-1.6066">
        <ele>10</ele>
        <time>2019-09-30T13:27:33.000Z</time>
      </trkpt>
      <trkpt lat="47.26319" lon="-1.6066">
        <ele>10</ele>
        <time>2019-09-30T13:27:34.000Z</time>
      </trkpt>
      <trkpt lat="47.26321" lon="-1.60659">
        <ele>9</ele>
        <time>2019-09-30T13:27:35.000Z</time>
      </trkpt>
      <trkpt lat="47.26323" lon="-1.60657">
        <ele>9</ele>
        <time>2019-09-30T13:27:36.000Z</time>
      </trkpt>
      <trkpt lat="47.26325" lon="-1.60655">
        <ele>9</ele>
        <time>2019-09-30T13:27:37.000Z</time>
      </trkpt>
      <trkpt lat="47.26325" lon="-1.60653">
        <ele>9</ele>
        <time>2019-09-30T13:27:38.000Z</time>
      </trkpt>
      <trkpt lat="47.26326" lon="-1.60652">
        <ele>8</ele>
        <time>2019-09-30T13:27:39.000Z</time>
      </trkpt>
      <trkpt lat="47.26326" lon="-1.60651">
        <ele>8</ele>
        <time>2019-09-30T13:27:40.000Z</time>
      </trkpt>
      <trkpt lat="47.26327" lon="-1.60649">
        <ele>8</ele>
        <time>2019-09-30T13:27:41.000Z</time>
      </trkpt>
      <trkpt lat="47.26328" lon="-1.60648">
        <ele>8</ele>
        <time>2019-09-30T13:27:42.000Z</time>
      </trkpt>
      <trkpt lat="47.26329" lon="-1.60649">
        <ele>8</ele>
        <time>2019-09-30T13:27:43.000Z</time>
      </trkpt>
      <trkpt lat="47.26331" lon="-1.60651">
        <ele>8</ele>
        <time>2019-09-30T13:27:44.000Z</time>
      </trkpt>
      <trkpt lat="47.26333" lon="-1.60653">
        <ele>7</ele>
        <time>2019-09-30T13:27:45.000Z</time>
      </trkpt>
      <trkpt lat="47.26334" lon="-1.60656">
        <ele>7</ele>
        <time>2019-09-30T13:27:46.000Z</time>
      </trkpt>
      <trkpt lat="47.26336" lon="-1.6066">
        <ele>7</ele>
        <time>2019-09-30T13:27:47.000Z</time>
      </trkpt>
      <trkpt lat="47.26337" lon="-1.60664">
        <ele>7</ele>
        <time>2019-09-30T13:27:48.000Z</time>
      </trkpt>
      <trkpt lat="47.26338" lon="-1.60668">
        <ele>7</ele>
        <time>2019-09-30T13:27:49.000Z</time>
      </trkpt>
      <trkpt lat="47.26341" lon="-1.60673">
        <ele>7</ele>
        <time>2019-09-30T13:27:50.000Z</time>
      </trkpt>
      <trkpt lat="47.26343" lon="-1.60676">
        <ele>7</ele>
        <time>2019-09-30T13:27:51.000Z</time>
      </trkpt>
      <trkpt lat="47.26346" lon="-1.60679">
        <ele>7</ele>
        <time>2019-09-30T13:27:52.000Z</time>
      </trkpt>
      <trkpt lat="47.26348" lon="-1.60682">
        <ele>7</ele>
        <time>2019-09-30T13:27:53.000Z</time>
      </trkpt>
      <trkpt lat="47.26351" lon="-1.60685">
        <ele>7</ele>
        <time>2019-09-30T13:27:54.000Z</time>
      </trkpt>
      <trkpt lat="47.26353" lon="-1.60689">
        <ele>7</ele>
        <time>2019-09-30T13:27:55.000Z</time>
      </trkpt>
      <trkpt lat="47.26355" lon="-1.60694">
        <ele>7</ele>
        <time>2019-09-30T13:27:56.000Z</time>
      </trkpt>
      <trkpt lat="47.26356" lon="-1.60699">
        <ele>7</ele>
        <time>2019-09-30T13:27:57.000Z</time>
      </trkpt>
      <trkpt lat="47.26356" lon="-1.60704">
        <ele>7</ele>
        <time>2019-09-30T13:27:58.000Z</time>
      </trkpt>
      <trkpt lat="47.26355" lon="-1.6071">
        <ele>7</ele>
        <time>2019-09-30T13:27:59.000Z</time>
      </trkpt>
      <trkpt lat="47.26354" lon="-1.60715">
        <ele>7</ele>
        <time>2019-09-30T13:28:00.000Z</time>
      </trkpt>
      <trkpt lat="47.26353" lon="-1.60721">
        <ele>7</ele>
        <time>2019-09-30T13:28:01.000Z</time>
      </trkpt>
      <trkpt lat="47.26353" lon="-1.60726">
        <ele>7</ele>
        <time>2019-09-30T13:28:02.000Z</time>
      </trkpt>
      <trkpt lat="47.26352" lon="-1.60732">
        <ele>7</ele>
        <time>2019-09-30T13:28:03.000Z</time>
      </trkpt>
      <trkpt lat="47.26351" lon="-1.60738">
        <ele>7</ele>
        <time>2019-09-30T13:28:04.000Z</time>
      </trkpt>
      <trkpt lat="47.2635" lon="-1.60744">
        <ele>7</ele>
        <time>2019-09-30T13:28:05.000Z</time>
      </trkpt>
      <trkpt lat="47.26349" lon="-1.60749">
        <ele>7</ele>
        <time>2019-09-30T13:28:06.000Z</time>
      </trkpt>
      <trkpt lat="47.26348" lon="-1.60755">
        <ele>7</ele>
        <time>2019-09-30T13:28:07.000Z</time>
      </trkpt>
      <trkpt lat="47.26347" lon="-1.60761">
        <ele>7</ele>
        <time>2019-09-30T13:28:08.000Z</time>
      </trkpt>
      <trkpt lat="47.26346" lon="-1.60767">
        <ele>7</ele>
        <time>2019-09-30T13:28:09.000Z</time>
      </trkpt>
      <trkpt lat="47.26344" lon="-1.60773">
        <ele>7</ele>
        <time>2019-09-30T13:28:10.000Z</time>
      </trkpt>
      <trkpt lat="47.26343" lon="-1.60779">
        <ele>7</ele>
        <time>2019-09-30T13:28:11.000Z</time>
      </trkpt>
      <trkpt lat="47.26342" lon="-1.60784">
        <ele>8</ele>
        <time>2019-09-30T13:28:12.000Z</time>
      </trkpt>
      <trkpt lat="47.26341" lon="-1.6079">
        <ele>8</ele>
        <time>2019-09-30T13:28:13.000Z</time>
      </trkpt>
      <trkpt lat="47.2634" lon="-1.60796">
        <ele>8</ele>
        <time>2019-09-30T13:28:14.000Z</time>
      </trkpt>
      <trkpt lat="47.26338" lon="-1.60802">
        <ele>8</ele>
        <time>2019-09-30T13:28:15.000Z</time>
      </trkpt>
      <trkpt lat="47.26337" lon="-1.60807">
        <ele>8</ele>
        <time>2019-09-30T13:28:16.000Z</time>
      </trkpt>
      <trkpt lat="47.26335" lon="-1.60813">
        <ele>9</ele>
        <time>2019-09-30T13:28:17.000Z</time>
      </trkpt>
      <trkpt lat="47.26334" lon="-1.60819">
        <ele>9</ele>
        <time>2019-09-30T13:28:18.000Z</time>
      </trkpt>
      <trkpt lat="47.26332" lon="-1.60825">
        <ele>9</ele>
        <time>2019-09-30T13:28:19.000Z</time>
      </trkpt>
      <trkpt lat="47.26331" lon="-1.60831">
        <ele>9</ele>
        <time>2019-09-30T13:28:20.000Z</time>
      </trkpt>
      <trkpt lat="47.26329" lon="-1.60837">
        <ele>9</ele>
        <time>2019-09-30T13:28:21.000Z</time>
      </trkpt>
      <trkpt lat="47.26328" lon="-1.60843">
        <ele>10</ele>
        <time>2019-09-30T13:28:22.000Z</time>
      </trkpt>
      <trkpt lat="47.26326" lon="-1.60848">
        <ele>10</ele>
        <time>2019-09-30T13:28:23.000Z</time>
      </trkpt>
      <trkpt lat="47.26324" lon="-1.60853">
        <ele>10</ele>
        <time>2019-09-30T13:28:24.000Z</time>
      </trkpt>
      <trkpt lat="47.26323" lon="-1.60858">
        <ele>10</ele>
        <time>2019-09-30T13:28:25.000Z</time>
      </trkpt>
      <trkpt lat="47.26323" lon="-1.60862">
        <ele>10</ele>
        <time>2019-09-30T13:28:26.000Z</time>
      </trkpt>
      <trkpt lat="47.26324" lon="-1.60865">
        <ele>10</ele>
        <time>2019-09-30T13:28:27.000Z</time>
      </trkpt>
      <trkpt lat="47.26326" lon="-1.60865">
        <ele>11</ele>
        <time>2019-09-30T13:28:28.000Z</time>
      </trkpt>
      <trkpt lat="47.26329" lon="-1.60863">
        <ele>11</ele>
        <time>2019-09-30T13:28:29.000Z</time>
      </trkpt>
      <trkpt lat="47.26332" lon="-1.60862">
        <ele>11</ele>
        <time>2019-09-30T13:28:30.000Z</time>
      </trkpt>
      <trkpt lat="47.26335" lon="-1.6086">
        <ele>11</ele>
        <time>2019-09-30T13:28:31.000Z</time>
      </trkpt>
      <trkpt lat="47.26338" lon="-1.60857">
        <ele>11</ele>
        <time>2019-09-30T13:28:32.000Z</time>
      </trkpt>
      <trkpt lat="47.26341" lon="-1.60854">
        <ele>11</ele>
        <time>2019-09-30T13:28:33.000Z</time>
      </trkpt>
      <trkpt lat="47.26343" lon="-1.60851">
        <ele>11</ele>
        <time>2019-09-30T13:28:34.000Z</time>
      </trkpt>
      <trkpt lat="47.26346" lon="-1.60847">
        <ele>11</ele>
        <time>2019-09-30T13:28:35.000Z</time>
      </trkpt>
      <trkpt lat="47.26349" lon="-1.60843">
        <ele>11</ele>
        <time>2019-09-30T13:28:36.000Z</time>
      </trkpt>
      <trkpt lat="47.26352" lon="-1.60839">
        <ele>11</ele>
        <time>2019-09-30T13:28:37.000Z</time>
      </trkpt>
      <trkpt lat="47.26356" lon="-1.60835">
        <ele>11</ele>
        <time>2019-09-30T13:28:38.000Z</time>
      </trkpt>
      <trkpt lat="47.2636" lon="-1.60833">
        <ele>11</ele>
        <time>2019-09-30T13:28:39.000Z</time>
      </trkpt>
      <trkpt lat="47.26364" lon="-1.60833">
        <ele>11</ele>
        <time>2019-09-30T13:28:40.000Z</time>
      </trkpt>
      <trkpt lat="47.26367" lon="-1.60835">
        <ele>11</ele>
        <time>2019-09-30T13:28:41.000Z</time>
      </trkpt>
      <trkpt lat="47.26371" lon="-1.60838">
        <ele>11</ele>
        <time>2019-09-30T13:28:42.000Z</time>
      </trkpt>
      <trkpt lat="47.26374" lon="-1.60842">
        <ele>11</ele>
        <time>2019-09-30T13:28:43.000Z</time>
      </trkpt>
      <trkpt lat="47.26377" lon="-1.60847">
        <ele>11</ele>
        <time>2019-09-30T13:28:44.000Z</time>
      </trkpt>
      <trkpt lat="47.26379" lon="-1.60852">
        <ele>11</ele>
        <time>2019-09-30T13:28:45.000Z</time>
      </trkpt>
      <trkpt lat="47.26382" lon="-1.60858">
        <ele>11</ele>
        <time>2019-09-30T13:28:46.000Z</time>
      </trkpt>
      <trkpt lat="47.26385" lon="-1.60864">
        <ele>11</ele>
        <time>2019-09-30T13:28:47.000Z</time>
      </trkpt>
      <trkpt lat="47.26388" lon="-1.60871">
        <ele>11</ele>
        <time>2019-09-30T13:28:48.000Z</time>
      </trkpt>
      <trkpt lat="47.2639" lon="-1.60878">
        <ele>11</ele>
        <time>2019-09-30T13:28:49.000Z</time>
      </trkpt>
      <trkpt lat="47.26391" lon="-1.60887">
        <ele>11</ele>
        <time>2019-09-30T13:28:50.000Z</time>
      </trkpt>
      <trkpt lat="47.26392" lon="-1.60895">
        <ele>11</ele>
        <time>2019-09-30T13:28:51.000Z</time>
      </trkpt>
      <trkpt lat="47.26393" lon="-1.60903">
        <ele>11</ele>
        <time>2019-09-30T13:28:52.000Z</time>
      </trkpt>
      <trkpt lat="47.26393" lon="-1.60911">
        <ele>11</ele>
        <time>2019-09-30T13:28:53.000Z</time>
      </trkpt>
      <trkpt lat="47.26394" lon="-1.60919">
        <ele>11</ele>
        <time>2019-09-30T13:28:54.000Z</time>
      </trkpt>
      <trkpt lat="47.26394" lon="-1.60926">
        <ele>11</ele>
        <time>2019-09-30T13:28:55.000Z</time>
      </trkpt>
      <trkpt lat="47.26395" lon="-1.60934">
        <ele>11</ele>
        <time>2019-09-30T13:28:56.000Z</time>
      </trkpt>
      <trkpt lat="47.26395" lon="-1.60941">
        <ele>11</ele>
        <time>2019-09-30T13:28:57.000Z</time>
      </trkpt>
      <trkpt lat="47.26396" lon="-1.60949">
        <ele>11</ele>
        <time>2019-09-30T13:28:58.000Z</time>
      </trkpt>
      <trkpt lat="47.26396" lon="-1.60956">
        <ele>11</ele>
        <time>2019-09-30T13:28:59.000Z</time>
      </trkpt>
      <trkpt lat="47.26397" lon="-1.60964">
        <ele>11</ele>
        <time>2019-09-30T13:29:00.000Z</time>
      </trkpt>
      <trkpt lat="47.26397" lon="-1.60971">
        <ele>11</ele>
        <time>2019-09-30T13:29:01.000Z</time>
      </trkpt>
      <trkpt lat="47.26398" lon="-1.60978">
        <ele>11</ele>
        <time>2019-09-30T13:29:02.000Z</time>
      </trkpt>
      <trkpt lat="47.26398" lon="-1.60985">
        <ele>11</ele>
        <time>2019-09-30T13:29:03.000Z</time>
      </trkpt>
      <trkpt lat="47.26398" lon="-1.60993">
        <ele>11</ele>
        <time>2019-09-30T13:29:04.000Z</time>
      </trkpt>
      <trkpt lat="47.26399" lon="-1.61">
        <ele>11</ele>
        <time>2019-09-30T13:29:05.000Z</time>
      </trkpt>
      <trkpt lat="47.26399" lon="-1.61008">
        <ele>11</ele>
        <time>2019-09-30T13:29:06.000Z</time>
      </trkpt>
      <trkpt lat="47.26399" lon="-1.61015">
        <ele>11</ele>
        <time>2019-09-30T13:29:07.000Z</time>
      </trkpt>
      <trkpt lat="47.26398" lon="-1.61023">
        <ele>11</ele>
        <time>2019-09-30T13:29:08.000Z</time>
      </trkpt>
      <trkpt lat="47.26398" lon="-1.6103">
        <ele>11</ele>
        <time>2019-09-30T13:29:09.000Z</time>
      </trkpt>
      <trkpt lat="47.26397" lon="-1.61038">
        <ele>11</ele>
        <time>2019-09-30T13:29:10.000Z</time>
      </trkpt>
      <trkpt lat="47.26396" lon="-1.61045">
        <ele>11</ele>
        <time>2019-09-30T13:29:11.000Z</time>
      </trkpt>
      <trkpt lat="47.26395" lon="-1.61052">
        <ele>11</ele>
        <time>2019-09-30T13:29:12.000Z</time>
      </trkpt>
      <trkpt lat="47.26393" lon="-1.61059">
        <ele>11</ele>
        <time>2019-09-30T13:29:13.000Z</time>
      </trkpt>
      <trkpt lat="47.2639" lon="-1.61065">
        <ele>11</ele>
        <time>2019-09-30T13:29:14.000Z</time>
      </trkpt>
      <trkpt lat="47.26389" lon="-1.61072">
        <ele>11</ele>
        <time>2019-09-30T13:29:15.000Z</time>
      </trkpt>
      <trkpt lat="47.26387" lon="-1.61079">
        <ele>11</ele>
        <time>2019-09-30T13:29:16.000Z</time>
      </trkpt>
      <trkpt lat="47.26386" lon="-1.61086">
        <ele>11</ele>
        <time>2019-09-30T13:29:17.000Z</time>
      </trkpt>
      <trkpt lat="47.26384" lon="-1.61093">
        <ele>11</ele>
        <time>2019-09-30T13:29:18.000Z</time>
      </trkpt>
      <trkpt lat="47.26382" lon="-1.611">
        <ele>11</ele>
        <time>2019-09-30T13:29:19.000Z</time>
      </trkpt>
      <trkpt lat="47.2638" lon="-1.61107">
        <ele>11</ele>
        <time>2019-09-30T13:29:20.000Z</time>
      </trkpt>
      <trkpt lat="47.26378" lon="-1.61113">
        <ele>11</ele>
        <time>2019-09-30T13:29:21.000Z</time>
      </trkpt>
      <trkpt lat="47.26374" lon="-1.61118">
        <ele>11</ele>
        <time>2019-09-30T13:29:22.000Z</time>
      </trkpt>
      <trkpt lat="47.26371" lon="-1.61122">
        <ele>11</ele>
        <time>2019-09-30T13:29:23.000Z</time>
      </trkpt>
      <trkpt lat="47.26367" lon="-1.61127">
        <ele>11</ele>
        <time>2019-09-30T13:29:24.000Z</time>
      </trkpt>
      <trkpt lat="47.26364" lon="-1.61132">
        <ele>11</ele>
        <time>2019-09-30T13:29:25.000Z</time>
      </trkpt>
      <trkpt lat="47.26361" lon="-1.61137">
        <ele>11</ele>
        <time>2019-09-30T13:29:26.000Z</time>
      </trkpt>
      <trkpt lat="47.26359" lon="-1.61144">
        <ele>11</ele>
        <time>2019-09-30T13:29:27.000Z</time>
      </trkpt>
      <trkpt lat="47.26357" lon="-1.6115">
        <ele>11</ele>
        <time>2019-09-30T13:29:28.000Z</time>
      </trkpt>
      <trkpt lat="47.26354" lon="-1.61156">
        <ele>11</ele>
        <time>2019-09-30T13:29:29.000Z</time>
      </trkpt>
      <trkpt lat="47.26351" lon="-1.61161">
        <ele>11</ele>
        <time>2019-09-30T13:29:30.000Z</time>
      </trkpt>
      <trkpt lat="47.26348" lon="-1.61166">
        <ele>11</ele>
        <time>2019-09-30T13:29:31.000Z</time>
      </trkpt>
      <trkpt lat="47.26346" lon="-1.61172">
        <ele>11</ele>
        <time>2019-09-30T13:29:32.000Z</time>
      </trkpt>
      <trkpt lat="47.26343" lon="-1.61177">
        <ele>12</ele>
        <time>2019-09-30T13:29:33.000Z</time>
      </trkpt>
      <trkpt lat="47.2634" lon="-1.61183">
        <ele>12</ele>
        <time>2019-09-30T13:29:34.000Z</time>
      </trkpt>
      <trkpt lat="47.26337" lon="-1.61189">
        <ele>12</ele>
        <time>2019-09-30T13:29:35.000Z</time>
      </trkpt>
      <trkpt lat="47.26334" lon="-1.61195">
        <ele>12</ele>
        <time>2019-09-30T13:29:36.000Z</time>
      </trkpt>
      <trkpt lat="47.26331" lon="-1.61201">
        <ele>12</ele>
        <time>2019-09-30T13:29:37.000Z</time>
      </trkpt>
      <trkpt lat="47.26328" lon="-1.61206">
        <ele>12</ele>
        <time>2019-09-30T13:29:38.000Z</time>
      </trkpt>
      <trkpt lat="47.26326" lon="-1.61211">
        <ele>12</ele>
        <time>2019-09-30T13:29:39.000Z</time>
      </trkpt>
      <trkpt lat="47.26324" lon="-1.61218">
        <ele>12</ele>
        <time>2019-09-30T13:29:40.000Z</time>
      </trkpt>
      <trkpt lat="47.26323" lon="-1.61225">
        <ele>12</ele>
        <time>2019-09-30T13:29:41.000Z</time>
      </trkpt>
      <trkpt lat="47.26322" lon="-1.61232">
        <ele>12</ele>
        <time>2019-09-30T13:29:42.000Z</time>
      </trkpt>
      <trkpt lat="47.26321" lon="-1.6124">
        <ele>12</ele>
        <time>2019-09-30T13:29:43.000Z</time>
      </trkpt>
      <trkpt lat="47.2632" lon="-1.61247">
        <ele>13</ele>
        <time>2019-09-30T13:29:44.000Z</time>
      </trkpt>
      <trkpt lat="47.26319" lon="-1.61255">
        <ele>13</ele>
        <time>2019-09-30T13:29:45.000Z</time>
      </trkpt>
      <trkpt lat="47.26318" lon="-1.61262">
        <ele>13</ele>
        <time>2019-09-30T13:29:46.000Z</time>
      </trkpt>
      <trkpt lat="47.26317" lon="-1.61268">
        <ele>13</ele>
        <time>2019-09-30T13:29:47.000Z</time>
      </trkpt>
      <trkpt lat="47.26316" lon="-1.61274">
        <ele>13</ele>
        <time>2019-09-30T13:29:48.000Z</time>
      </trkpt>
      <trkpt lat="47.26315" lon="-1.61282">
        <ele>13</ele>
        <time>2019-09-30T13:29:49.000Z</time>
      </trkpt>
      <trkpt lat="47.26315" lon="-1.61289">
        <ele>13</ele>
        <time>2019-09-30T13:29:50.000Z</time>
      </trkpt>
      <trkpt lat="47.26316" lon="-1.61296">
        <ele>13</ele>
        <time>2019-09-30T13:29:51.000Z</time>
      </trkpt>
      <trkpt lat="47.26316" lon="-1.61303">
        <ele>13</ele>
        <time>2019-09-30T13:29:52.000Z</time>
      </trkpt>
      <trkpt lat="47.26315" lon="-1.6131">
        <ele>13</ele>
        <time>2019-09-30T13:29:53.000Z</time>
      </trkpt>
      <trkpt lat="47.26315" lon="-1.61317">
        <ele>13</ele>
        <time>2019-09-30T13:29:54.000Z</time>
      </trkpt>
      <trkpt lat="47.26315" lon="-1.61324">
        <ele>13</ele>
        <time>2019-09-30T13:29:55.000Z</time>
      </trkpt>
      <trkpt lat="47.26315" lon="-1.61332">
        <ele>13</ele>
        <time>2019-09-30T13:29:56.000Z</time>
      </trkpt>
      <trkpt lat="47.26316" lon="-1.6134">
        <ele>13</ele>
        <time>2019-09-30T13:29:57.000Z</time>
      </trkpt>
      <trkpt lat="47.26317" lon="-1.61348">
        <ele>13</ele>
        <time>2019-09-30T13:29:58.000Z</time>
      </trkpt>
      <trkpt lat="47.26318" lon="-1.61356">
        <ele>14</ele>
        <time>2019-09-30T13:29:59.000Z</time>
      </trkpt>
      <trkpt lat="47.26319" lon="-1.61364">
        <ele>13</ele>
        <time>2019-09-30T13:30:00.000Z</time>
      </trkpt>
      <trkpt lat="47.26321" lon="-1.61371">
        <ele>13</ele>
        <time>2019-09-30T13:30:01.000Z</time>
      </trkpt>
      <trkpt lat="47.26322" lon="-1.61379">
        <ele>14</ele>
        <time>2019-09-30T13:30:02.000Z</time>
      </trkpt>
      <trkpt lat="47.26324" lon="-1.61386">
        <ele>14</ele>
        <time>2019-09-30T13:30:03.000Z</time>
      </trkpt>
      <trkpt lat="47.26325" lon="-1.61393">
        <ele>14</ele>
        <time>2019-09-30T13:30:04.000Z</time>
      </trkpt>
      <trkpt lat="47.26326" lon="-1.614">
        <ele>14</ele>
        <time>2019-09-30T13:30:05.000Z</time>
      </trkpt>
      <trkpt lat="47.26328" lon="-1.61407">
        <ele>14</ele>
        <time>2019-09-30T13:30:06.000Z</time>
      </trkpt>
      <trkpt lat="47.26329" lon="-1.61414">
        <ele>14</ele>
        <time>2019-09-30T13:30:07.000Z</time>
      </trkpt>
      <trkpt lat="47.26331" lon="-1.61421">
        <ele>14</ele>
        <time>2019-09-30T13:30:08.000Z</time>
      </trkpt>
      <trkpt lat="47.26334" lon="-1.61427">
        <ele>14</ele>
        <time>2019-09-30T13:30:09.000Z</time>
      </trkpt>
      <trkpt lat="47.26337" lon="-1.61432">
        <ele>14</ele>
        <time>2019-09-30T13:30:10.000Z</time>
      </trkpt>
      <trkpt lat="47.2634" lon="-1.61437">
        <ele>14</ele>
        <time>2019-09-30T13:30:11.000Z</time>
      </trkpt>
      <trkpt lat="47.26342" lon="-1.61443">
        <ele>14</ele>
        <time>2019-09-30T13:30:12.000Z</time>
      </trkpt>
      <trkpt lat="47.26343" lon="-1.61448">
        <ele>15</ele>
        <time>2019-09-30T13:30:13.000Z</time>
      </trkpt>
      <trkpt lat="47.26345" lon="-1.61452">
        <ele>14</ele>
        <time>2019-09-30T13:30:14.000Z</time>
      </trkpt>
      <trkpt lat="47.26348" lon="-1.61456">
        <ele>14</ele>
        <time>2019-09-30T13:30:15.000Z</time>
      </trkpt>
      <trkpt lat="47.26351" lon="-1.61458">
        <ele>14</ele>
        <time>2019-09-30T13:30:16.000Z</time>
      </trkpt>
      <trkpt lat="47.26355" lon="-1.6146">
        <ele>14</ele>
        <time>2019-09-30T13:30:17.000Z</time>
      </trkpt>
      <trkpt lat="47.26358" lon="-1.61461">
        <ele>14</ele>
        <time>2019-09-30T13:30:18.000Z</time>
      </trkpt>
      <trkpt lat="47.26362" lon="-1.61462">
        <ele>14</ele>
        <time>2019-09-30T13:30:19.000Z</time>
      </trkpt>
      <trkpt lat="47.26365" lon="-1.61463">
        <ele>14</ele>
        <time>2019-09-30T13:30:20.000Z</time>
      </trkpt>
      <trkpt lat="47.26367" lon="-1.61462">
        <ele>14</ele>
        <time>2019-09-30T13:30:21.000Z</time>
      </trkpt>
      <trkpt lat="47.26368" lon="-1.61459">
        <ele>14</ele>
        <time>2019-09-30T13:30:22.000Z</time>
      </trkpt>
      <trkpt lat="47.26368" lon="-1.61456">
        <ele>14</ele>
        <time>2019-09-30T13:30:23.000Z</time>
      </trkpt>
      <trkpt lat="47.26367" lon="-1.61451">
        <ele>14</ele>
        <time>2019-09-30T13:30:24.000Z</time>
      </trkpt>
      <trkpt lat="47.26366" lon="-1.61446">
        <ele>14</ele>
        <time>2019-09-30T13:30:25.000Z</time>
      </trkpt>
      <trkpt lat="47.26364" lon="-1.61441">
        <ele>14</ele>
        <time>2019-09-30T13:30:26.000Z</time>
      </trkpt>
      <trkpt lat="47.26363" lon="-1.61436">
        <ele>14</ele>
        <time>2019-09-30T13:30:27.000Z</time>
      </trkpt>
      <trkpt lat="47.26362" lon="-1.61432">
        <ele>14</ele>
        <time>2019-09-30T13:30:28.000Z</time>
      </trkpt>
      <trkpt lat="47.26361" lon="-1.61427">
        <ele>14</ele>
        <time>2019-09-30T13:30:29.000Z</time>
      </trkpt>
      <trkpt lat="47.2636" lon="-1.61421">
        <ele>14</ele>
        <time>2019-09-30T13:30:30.000Z</time>
      </trkpt>
      <trkpt lat="47.26361" lon="-1.61415">
        <ele>14</ele>
        <time>2019-09-30T13:30:31.000Z</time>
      </trkpt>
      <trkpt lat="47.26364" lon="-1.61412">
        <ele>14</ele>
        <time>2019-09-30T13:30:32.000Z</time>
      </trkpt>
      <trkpt lat="47.26368" lon="-1.61411">
        <ele>14</ele>
        <time>2019-09-30T13:30:33.000Z</time>
      </trkpt>
      <trkpt lat="47.26372" lon="-1.61411">
        <ele>13</ele>
        <time>2019-09-30T13:30:34.000Z</time>
      </trkpt>
      <trkpt lat="47.26375" lon="-1.6141">
        <ele>13</ele>
        <time>2019-09-30T13:30:35.000Z</time>
      </trkpt>
      <trkpt lat="47.26379" lon="-1.6141">
        <ele>13</ele>
        <time>2019-09-30T13:30:36.000Z</time>
      </trkpt>
      <trkpt lat="47.26383" lon="-1.61411">
        <ele>13</ele>
        <time>2019-09-30T13:30:37.000Z</time>
      </trkpt>
      <trkpt lat="47.26387" lon="-1.61413">
        <ele>12</ele>
        <time>2019-09-30T13:30:38.000Z</time>
      </trkpt>
      <trkpt lat="47.2639" lon="-1.61416">
        <ele>12</ele>
        <time>2019-09-30T13:30:39.000Z</time>
      </trkpt>
      <trkpt lat="47.26394" lon="-1.6142">
        <ele>12</ele>
        <time>2019-09-30T13:30:40.000Z</time>
      </trkpt>
      <trkpt lat="47.26398" lon="-1.61423">
        <ele>11</ele>
        <time>2019-09-30T13:30:41.000Z</time>
      </trkpt>
      <trkpt lat="47.26401" lon="-1.61425">
        <ele>11</ele>
        <time>2019-09-30T13:30:42.000Z</time>
      </trkpt>
      <trkpt lat="47.26405" lon="-1.61427">
        <ele>11</ele>
        <time>2019-09-30T13:30:43.000Z</time>
      </trkpt>
      <trkpt lat="47.26409" lon="-1.61427">
        <ele>11</ele>
        <time>2019-09-30T13:30:44.000Z</time>
      </trkpt>
      <trkpt lat="47.26411" lon="-1.61427">
        <ele>11</ele>
        <time>2019-09-30T13:30:45.000Z</time>
      </trkpt>
      <trkpt lat="47.26413" lon="-1.61427">
        <ele>10</ele>
        <time>2019-09-30T13:30:46.000Z</time>
      </trkpt>
      <trkpt lat="47.26415" lon="-1.61427">
        <ele>10</ele>
        <time>2019-09-30T13:30:47.000Z</time>
      </trkpt>
      <trkpt lat="47.26417" lon="-1.61428">
        <ele>10</ele>
        <time>2019-09-30T13:30:48.000Z</time>
      </trkpt>
      <trkpt lat="47.26419" lon="-1.61429">
        <ele>10</ele>
        <time>2019-09-30T13:30:49.000Z</time>
      </trkpt>
      <trkpt lat="47.26422" lon="-1.61432">
        <ele>10</ele>
        <time>2019-09-30T13:30:50.000Z</time>
      </trkpt>
      <trkpt lat="47.26424" lon="-1.61433">
        <ele>10</ele>
        <time>2019-09-30T13:30:51.000Z</time>
      </trkpt>
      <trkpt lat="47.26426" lon="-1.61435">
        <ele>10</ele>
        <time>2019-09-30T13:30:52.000Z</time>
      </trkpt>
      <trkpt lat="47.26429" lon="-1.61437">
        <ele>10</ele>
        <time>2019-09-30T13:30:53.000Z</time>
      </trkpt>
      <trkpt lat="47.26432" lon="-1.61438">
        <ele>10</ele>
        <time>2019-09-30T13:30:54.000Z</time>
      </trkpt>
      <trkpt lat="47.26434" lon="-1.61438">
        <ele>11</ele>
        <time>2019-09-30T13:30:55.000Z</time>
      </trkpt>
      <trkpt lat="47.26436" lon="-1.6144">
        <ele>11</ele>
        <time>2019-09-30T13:30:56.000Z</time>
      </trkpt>
      <trkpt lat="47.26438" lon="-1.61442">
        <ele>11</ele>
        <time>2019-09-30T13:30:57.000Z</time>
      </trkpt>
      <trkpt lat="47.2644" lon="-1.61443">
        <ele>11</ele>
        <time>2019-09-30T13:30:58.000Z</time>
      </trkpt>
      <trkpt lat="47.26443" lon="-1.61444">
        <ele>11</ele>
        <time>2019-09-30T13:30:59.000Z</time>
      </trkpt>
      <trkpt lat="47.26445" lon="-1.61444">
        <ele>11</ele>
        <time>2019-09-30T13:31:00.000Z</time>
      </trkpt>
      <trkpt lat="47.26447" lon="-1.61444">
        <ele>11</ele>
        <time>2019-09-30T13:31:01.000Z</time>
      </trkpt>
      <trkpt lat="47.26448" lon="-1.61445">
        <ele>12</ele>
        <time>2019-09-30T13:31:02.000Z</time>
      </trkpt>
      <trkpt lat="47.26449" lon="-1.61445">
        <ele>12</ele>
        <time>2019-09-30T13:31:03.000Z</time>
      </trkpt>
      <trkpt lat="47.2645" lon="-1.61446">
        <ele>12</ele>
        <time>2019-09-30T13:31:04.000Z</time>
      </trkpt>
      <trkpt lat="47.26452" lon="-1.61447">
        <ele>12</ele>
        <time>2019-09-30T13:31:05.000Z</time>
      </trkpt>
      <trkpt lat="47.26454" lon="-1.61448">
        <ele>12</ele>
        <time>2019-09-30T13:31:06.000Z</time>
      </trkpt>
      <trkpt lat="47.26455" lon="-1.61449">
        <ele>13</ele>
        <time>2019-09-30T13:31:07.000Z</time>
      </trkpt>
      <trkpt lat="47.26457" lon="-1.6145">
        <ele>13</ele>
        <time>2019-09-30T13:31:08.000Z</time>
      </trkpt>
      <trkpt lat="47.26458" lon="-1.6145">
        <ele>13</ele>
        <time>2019-09-30T13:31:09.000Z</time>
      </trkpt>
      <trkpt lat="47.2646" lon="-1.6145">
        <ele>13</ele>
        <time>2019-09-30T13:31:10.000Z</time>
      </trkpt>
      <trkpt lat="47.26462" lon="-1.61451">
        <ele>14</ele>
        <time>2019-09-30T13:31:11.000Z</time>
      </trkpt>
      <trkpt lat="47.26464" lon="-1.61452">
        <ele>14</ele>
        <time>2019-09-30T13:31:12.000Z</time>
      </trkpt>
      <trkpt lat="47.26466" lon="-1.61454">
        <ele>14</ele>
        <time>2019-09-30T13:31:13.000Z</time>
      </trkpt>
      <trkpt lat="47.26468" lon="-1.61456">
        <ele>14</ele>
        <time>2019-09-30T13:31:14.000Z</time>
      </trkpt>
      <trkpt lat="47.26471" lon="-1.61458">
        <ele>15</ele>
        <time>2019-09-30T13:31:15.000Z</time>
      </trkpt>
      <trkpt lat="47.26474" lon="-1.6146">
        <ele>15</ele>
        <time>2019-09-30T13:31:16.000Z</time>
      </trkpt>
      <trkpt lat="47.26476" lon="-1.61461">
        <ele>15</ele>
        <time>2019-09-30T13:31:17.000Z</time>
      </trkpt>
      <trkpt lat="47.26478" lon="-1.61462">
        <ele>16</ele>
        <time>2019-09-30T13:31:18.000Z</time>
      </trkpt>
      <trkpt lat="47.26479" lon="-1.61464">
        <ele>16</ele>
        <time>2019-09-30T13:31:19.000Z</time>
      </trkpt>
      <trkpt lat="47.26481" lon="-1.61466">
        <ele>16</ele>
        <time>2019-09-30T13:31:20.000Z</time>
      </trkpt>
      <trkpt lat="47.26483" lon="-1.61467">
        <ele>17</ele>
        <time>2019-09-30T13:31:21.000Z</time>
      </trkpt>
      <trkpt lat="47.26486" lon="-1.61469">
        <ele>17</ele>
        <time>2019-09-30T13:31:22.000Z</time>
      </trkpt>
      <trkpt lat="47.26488" lon="-1.6147">
        <ele>17</ele>
        <time>2019-09-30T13:31:23.000Z</time>
      </trkpt>
      <trkpt lat="47.2649" lon="-1.61472">
        <ele>18</ele>
        <time>2019-09-30T13:31:24.000Z</time>
      </trkpt>
      <trkpt lat="47.26491" lon="-1.61474">
        <ele>18</ele>
        <time>2019-09-30T13:31:25.000Z</time>
      </trkpt>
      <trkpt lat="47.26493" lon="-1.61476">
        <ele>19</ele>
        <time>2019-09-30T13:31:26.000Z</time>
      </trkpt>
      <trkpt lat="47.26495" lon="-1.61478">
        <ele>19</ele>
        <time>2019-09-30T13:31:27.000Z</time>
      </trkpt>
      <trkpt lat="47.26497" lon="-1.6148">
        <ele>19</ele>
        <time>2019-09-30T13:31:28.000Z</time>
      </trkpt>
      <trkpt lat="47.26499" lon="-1.61481">
        <ele>20</ele>
        <time>2019-09-30T13:31:29.000Z</time>
      </trkpt>
      <trkpt lat="47.265" lon="-1.61482">
        <ele>20</ele>
        <time>2019-09-30T13:31:30.000Z</time>
      </trkpt>
      <trkpt lat="47.26501" lon="-1.61484">
        <ele>20</ele>
        <time>2019-09-30T13:31:31.000Z</time>
      </trkpt>
      <trkpt lat="47.26503" lon="-1.61486">
        <ele>21</ele>
        <time>2019-09-30T13:31:32.000Z</time>
      </trkpt>
      <trkpt lat="47.26505" lon="-1.61487">
        <ele>21</ele>
        <time>2019-09-30T13:31:33.000Z</time>
      </trkpt>
      <trkpt lat="47.26507" lon="-1.61488">
        <ele>21</ele>
        <time>2019-09-30T13:31:34.000Z</time>
      </trkpt>
      <trkpt lat="47.26509" lon="-1.61489">
        <ele>22</ele>
        <time>2019-09-30T13:31:35.000Z</time>
      </trkpt>
      <trkpt lat="47.2651" lon="-1.6149">
        <ele>22</ele>
        <time>2019-09-30T13:31:36.000Z</time>
      </trkpt>
      <trkpt lat="47.26511" lon="-1.61492">
        <ele>23</ele>
        <time>2019-09-30T13:31:37.000Z</time>
      </trkpt>
      <trkpt lat="47.26513" lon="-1.61494">
        <ele>23</ele>
        <time>2019-09-30T13:31:38.000Z</time>
      </trkpt>
      <trkpt lat="47.26515" lon="-1.61495">
        <ele>23</ele>
        <time>2019-09-30T13:31:39.000Z</time>
      </trkpt>
      <trkpt lat="47.26516" lon="-1.61497">
        <ele>24</ele>
        <time>2019-09-30T13:31:40.000Z</time>
      </trkpt>
      <trkpt lat="47.26517" lon="-1.61497">
        <ele>24</ele>
        <time>2019-09-30T13:31:41.000Z</time>
      </trkpt>
      <trkpt lat="47.26519" lon="-1.61497">
        <ele>24</ele>
        <time>2019-09-30T13:31:42.000Z</time>
      </trkpt>
      <trkpt lat="47.2652" lon="-1.61497">
        <ele>25</ele>
        <time>2019-09-30T13:31:43.000Z</time>
      </trkpt>
      <trkpt lat="47.26521" lon="-1.61496">
        <ele>25</ele>
        <time>2019-09-30T13:31:44.000Z</time>
      </trkpt>
      <trkpt lat="47.26521" lon="-1.61495">
        <ele>25</ele>
        <time>2019-09-30T13:31:45.000Z</time>
      </trkpt>
      <trkpt lat="47.26522" lon="-1.61494">
        <ele>25</ele>
        <time>2019-09-30T13:31:46.000Z</time>
      </trkpt>
      <trkpt lat="47.26523" lon="-1.61493">
        <ele>26</ele>
        <time>2019-09-30T13:31:47.000Z</time>
      </trkpt>
      <trkpt lat="47.26523" lon="-1.61492">
        <ele>26</ele>
        <time>2019-09-30T13:31:48.000Z</time>
      </trkpt>
      <trkpt lat="47.26523" lon="-1.61492">
        <ele>26</ele>
        <time>2019-09-30T13:31:49.000Z</time>
      </trkpt>
      <trkpt lat="47.26524" lon="-1.61492">
        <ele>26</ele>
        <time>2019-09-30T13:31:50.000Z</time>
      </trkpt>
      <trkpt lat="47.26524" lon="-1.61492">
        <ele>26</ele>
        <time>2019-09-30T13:31:51.000Z</time>
      </trkpt>
      <trkpt lat="47.26525" lon="-1.61491">
        <ele>26</ele>
        <time>2019-09-30T13:31:52.000Z</time>
      </trkpt>
      <trkpt lat="47.26533" lon="-1.61489">
        <ele>28</ele>
        <time>2019-09-30T13:31:53.000Z</time>
      </trkpt>
      <trkpt lat="47.26534" lon="-1.61489">
        <ele>28</ele>
        <time>2019-09-30T13:31:54.000Z</time>
      </trkpt>
      <trkpt lat="47.26535" lon="-1.61489">
        <ele>28</ele>
        <time>2019-09-30T13:31:55.000Z</time>
      </trkpt>
      <trkpt lat="47.26535" lon="-1.6149">
        <ele>28</ele>
        <time>2019-09-30T13:31:56.000Z</time>
      </trkpt>
      <trkpt lat="47.26535" lon="-1.61491">
        <ele>28</ele>
        <time>2019-09-30T13:31:57.000Z</time>
      </trkpt>
      <trkpt lat="47.26543" lon="-1.61499">
        <ele>31</ele>
        <time>2019-09-30T13:31:58.000Z</time>
      </trkpt>
      <trkpt lat="47.26544" lon="-1.615">
        <ele>32</ele>
        <time>2019-09-30T13:31:59.000Z</time>
      </trkpt>
      <trkpt lat="47.26544" lon="-1.61501">
        <ele>32</ele>
        <time>2019-09-30T13:32:00.000Z</time>
      </trkpt>
      <trkpt lat="47.26545" lon="-1.61502">
        <ele>32</ele>
        <time>2019-09-30T13:32:01.000Z</time>
      </trkpt>
      <trkpt lat="47.26546" lon="-1.61503">
        <ele>32</ele>
        <time>2019-09-30T13:32:02.000Z</time>
      </trkpt>
      <trkpt lat="47.26547" lon="-1.61504">
        <ele>32</ele>
        <time>2019-09-30T13:32:03.000Z</time>
      </trkpt>
      <trkpt lat="47.26548" lon="-1.61505">
        <ele>32</ele>
        <time>2019-09-30T13:32:04.000Z</time>
      </trkpt>
      <trkpt lat="47.26548" lon="-1.61506">
        <ele>32</ele>
        <time>2019-09-30T13:32:05.000Z</time>
      </trkpt>
      <trkpt lat="47.2655" lon="-1.61517">
        <ele>33</ele>
        <time>2019-09-30T13:32:06.000Z</time>
      </trkpt>
      <trkpt lat="47.26551" lon="-1.61519">
        <ele>33</ele>
        <time>2019-09-30T13:32:07.000Z</time>
      </trkpt>
      <trkpt lat="47.26552" lon="-1.6152">
        <ele>33</ele>
        <time>2019-09-30T13:32:08.000Z</time>
      </trkpt>
      <trkpt lat="47.26554" lon="-1.61521">
        <ele>33</ele>
        <time>2019-09-30T13:32:09.000Z</time>
      </trkpt>
      <trkpt lat="47.26555" lon="-1.61521">
        <ele>33</ele>
        <time>2019-09-30T13:32:10.000Z</time>
      </trkpt>
      <trkpt lat="47.26557" lon="-1.61521">
        <ele>33</ele>
        <time>2019-09-30T13:32:11.000Z</time>
      </trkpt>
      <trkpt lat="47.26558" lon="-1.61521">
        <ele>33</ele>
        <time>2019-09-30T13:32:12.000Z</time>
      </trkpt>
      <trkpt lat="47.26559" lon="-1.61521">
        <ele>33</ele>
        <time>2019-09-30T13:32:13.000Z</time>
      </trkpt>
      <trkpt lat="47.26561" lon="-1.6152">
        <ele>33</ele>
        <time>2019-09-30T13:32:14.000Z</time>
      </trkpt>
      <trkpt lat="47.26563" lon="-1.61519">
        <ele>33</ele>
        <time>2019-09-30T13:32:15.000Z</time>
      </trkpt>
      <trkpt lat="47.26565" lon="-1.61518">
        <ele>33</ele>
        <time>2019-09-30T13:32:16.000Z</time>
      </trkpt>
      <trkpt lat="47.26567" lon="-1.61517">
        <ele>33</ele>
        <time>2019-09-30T13:32:17.000Z</time>
      </trkpt>
      <trkpt lat="47.26568" lon="-1.61516">
        <ele>34</ele>
        <time>2019-09-30T13:32:18.000Z</time>
      </trkpt>
      <trkpt lat="47.2657" lon="-1.61516">
        <ele>34</ele>
        <time>2019-09-30T13:32:19.000Z</time>
      </trkpt>
      <trkpt lat="47.26573" lon="-1.61516">
        <ele>34</ele>
        <time>2019-09-30T13:32:20.000Z</time>
      </trkpt>
      <trkpt lat="47.26575" lon="-1.61518">
        <ele>34</ele>
        <time>2019-09-30T13:32:21.000Z</time>
      </trkpt>
      <trkpt lat="47.26577" lon="-1.61519">
        <ele>34</ele>
        <time>2019-09-30T13:32:22.000Z</time>
      </trkpt>
      <trkpt lat="47.2658" lon="-1.6152">
        <ele>34</ele>
        <time>2019-09-30T13:32:23.000Z</time>
      </trkpt>
      <trkpt lat="47.26583" lon="-1.6152">
        <ele>34</ele>
        <time>2019-09-30T13:32:24.000Z</time>
      </trkpt>
      <trkpt lat="47.26586" lon="-1.6152">
        <ele>34</ele>
        <time>2019-09-30T13:32:25.000Z</time>
      </trkpt>
      <trkpt lat="47.26588" lon="-1.6152">
        <ele>34</ele>
        <time>2019-09-30T13:32:26.000Z</time>
      </trkpt>
      <trkpt lat="47.2659" lon="-1.61519">
        <ele>34</ele>
        <time>2019-09-30T13:32:27.000Z</time>
      </trkpt>
      <trkpt lat="47.26593" lon="-1.61519">
        <ele>34</ele>
        <time>2019-09-30T13:32:28.000Z</time>
      </trkpt>
      <trkpt lat="47.26595" lon="-1.6152">
        <ele>34</ele>
        <time>2019-09-30T13:32:29.000Z</time>
      </trkpt>
      <trkpt lat="47.26598" lon="-1.61521">
        <ele>34</ele>
        <time>2019-09-30T13:32:30.000Z</time>
      </trkpt>
      <trkpt lat="47.266" lon="-1.61522">
        <ele>34</ele>
        <time>2019-09-30T13:32:31.000Z</time>
      </trkpt>
      <trkpt lat="47.26602" lon="-1.61522">
        <ele>34</ele>
        <time>2019-09-30T13:32:32.000Z</time>
      </trkpt>
      <trkpt lat="47.26605" lon="-1.61524">
        <ele>35</ele>
        <time>2019-09-30T13:32:33.000Z</time>
      </trkpt>
      <trkpt lat="47.26607" lon="-1.61525">
        <ele>35</ele>
        <time>2019-09-30T13:32:34.000Z</time>
      </trkpt>
      <trkpt lat="47.2661" lon="-1.61526">
        <ele>35</ele>
        <time>2019-09-30T13:32:35.000Z</time>
      </trkpt>
      <trkpt lat="47.26613" lon="-1.61528">
        <ele>35</ele>
        <time>2019-09-30T13:32:36.000Z</time>
      </trkpt>
      <trkpt lat="47.26616" lon="-1.6153">
        <ele>35</ele>
        <time>2019-09-30T13:32:37.000Z</time>
      </trkpt>
      <trkpt lat="47.26618" lon="-1.61532">
        <ele>35</ele>
        <time>2019-09-30T13:32:38.000Z</time>
      </trkpt>
      <trkpt lat="47.2662" lon="-1.61534">
        <ele>35</ele>
        <time>2019-09-30T13:32:39.000Z</time>
      </trkpt>
      <trkpt lat="47.26622" lon="-1.61538">
        <ele>35</ele>
        <time>2019-09-30T13:32:40.000Z</time>
      </trkpt>
      <trkpt lat="47.26622" lon="-1.61542">
        <ele>35</ele>
        <time>2019-09-30T13:32:41.000Z</time>
      </trkpt>
      <trkpt lat="47.26622" lon="-1.61546">
        <ele>35</ele>
        <time>2019-09-30T13:32:42.000Z</time>
      </trkpt>
      <trkpt lat="47.26623" lon="-1.6155">
        <ele>36</ele>
        <time>2019-09-30T13:32:43.000Z</time>
      </trkpt>
      <trkpt lat="47.26624" lon="-1.61554">
        <ele>36</ele>
        <time>2019-09-30T13:32:44.000Z</time>
      </trkpt>
      <trkpt lat="47.26627" lon="-1.61559">
        <ele>36</ele>
        <time>2019-09-30T13:32:45.000Z</time>
      </trkpt>
      <trkpt lat="47.26629" lon="-1.61564">
        <ele>36</ele>
        <time>2019-09-30T13:32:46.000Z</time>
      </trkpt>
      <trkpt lat="47.26631" lon="-1.61571">
        <ele>36</ele>
        <time>2019-09-30T13:32:47.000Z</time>
      </trkpt>
      <trkpt lat="47.26632" lon="-1.61575">
        <ele>36</ele>
        <time>2019-09-30T13:32:48.000Z</time>
      </trkpt>
      <trkpt lat="47.26633" lon="-1.61579">
        <ele>36</ele>
        <time>2019-09-30T13:32:49.000Z</time>
      </trkpt>
      <trkpt lat="47.26634" lon="-1.61582">
        <ele>36</ele>
        <time>2019-09-30T13:32:50.000Z</time>
      </trkpt>
      <trkpt lat="47.26634" lon="-1.61586">
        <ele>36</ele>
        <time>2019-09-30T13:32:51.000Z</time>
      </trkpt>
      <trkpt lat="47.26635" lon="-1.61591">
        <ele>37</ele>
        <time>2019-09-30T13:32:52.000Z</time>
      </trkpt>
      <trkpt lat="47.26636" lon="-1.61595">
        <ele>37</ele>
        <time>2019-09-30T13:32:53.000Z</time>
      </trkpt>
      <trkpt lat="47.26637" lon="-1.61599">
        <ele>37</ele>
        <time>2019-09-30T13:32:54.000Z</time>
      </trkpt>
      <trkpt lat="47.26637" lon="-1.61602">
        <ele>37</ele>
        <time>2019-09-30T13:32:55.000Z</time>
      </trkpt>
      <trkpt lat="47.26638" lon="-1.61607">
        <ele>37</ele>
        <time>2019-09-30T13:32:56.000Z</time>
      </trkpt>
      <trkpt lat="47.2664" lon="-1.6161">
        <ele>37</ele>
        <time>2019-09-30T13:32:57.000Z</time>
      </trkpt>
      <trkpt lat="47.26642" lon="-1.61613">
        <ele>37</ele>
        <time>2019-09-30T13:32:58.000Z</time>
      </trkpt>
      <trkpt lat="47.26645" lon="-1.61616">
        <ele>37</ele>
        <time>2019-09-30T13:32:59.000Z</time>
      </trkpt>
      <trkpt lat="47.26647" lon="-1.61618">
        <ele>37</ele>
        <time>2019-09-30T13:33:00.000Z</time>
      </trkpt>
      <trkpt lat="47.26649" lon="-1.61621">
        <ele>37</ele>
        <time>2019-09-30T13:33:01.000Z</time>
      </trkpt>
      <trkpt lat="47.2665" lon="-1.61624">
        <ele>37</ele>
        <time>2019-09-30T13:33:02.000Z</time>
      </trkpt>
      <trkpt lat="47.26651" lon="-1.61627">
        <ele>37</ele>
        <time>2019-09-30T13:33:03.000Z</time>
      </trkpt>
      <trkpt lat="47.26653" lon="-1.61631">
        <ele>37</ele>
        <time>2019-09-30T13:33:04.000Z</time>
      </trkpt>
      <trkpt lat="47.26656" lon="-1.61635">
        <ele>36</ele>
        <time>2019-09-30T13:33:05.000Z</time>
      </trkpt>
      <trkpt lat="47.26659" lon="-1.61638">
        <ele>36</ele>
        <time>2019-09-30T13:33:06.000Z</time>
      </trkpt>
      <trkpt lat="47.26663" lon="-1.61641">
        <ele>36</ele>
        <time>2019-09-30T13:33:07.000Z</time>
      </trkpt>
      <trkpt lat="47.26667" lon="-1.61643">
        <ele>36</ele>
        <time>2019-09-30T13:33:08.000Z</time>
      </trkpt>
      <trkpt lat="47.26671" lon="-1.61644">
        <ele>36</ele>
        <time>2019-09-30T13:33:09.000Z</time>
      </trkpt>
      <trkpt lat="47.26676" lon="-1.61646">
        <ele>36</ele>
        <time>2019-09-30T13:33:10.000Z</time>
      </trkpt>
      <trkpt lat="47.2668" lon="-1.61648">
        <ele>36</ele>
        <time>2019-09-30T13:33:11.000Z</time>
      </trkpt>
      <trkpt lat="47.26682" lon="-1.61649">
        <ele>36</ele>
        <time>2019-09-30T13:33:12.000Z</time>
      </trkpt>
      <trkpt lat="47.26684" lon="-1.61649">
        <ele>35</ele>
        <time>2019-09-30T13:33:13.000Z</time>
      </trkpt>
      <trkpt lat="47.26687" lon="-1.6165">
        <ele>35</ele>
        <time>2019-09-30T13:33:14.000Z</time>
      </trkpt>
      <trkpt lat="47.26689" lon="-1.61651">
        <ele>35</ele>
        <time>2019-09-30T13:33:15.000Z</time>
      </trkpt>
      <trkpt lat="47.26691" lon="-1.61652">
        <ele>35</ele>
        <time>2019-09-30T13:33:16.000Z</time>
      </trkpt>
      <trkpt lat="47.26693" lon="-1.61654">
        <ele>35</ele>
        <time>2019-09-30T13:33:17.000Z</time>
      </trkpt>
      <trkpt lat="47.26696" lon="-1.61656">
        <ele>35</ele>
        <time>2019-09-30T13:33:18.000Z</time>
      </trkpt>
      <trkpt lat="47.26698" lon="-1.61659">
        <ele>35</ele>
        <time>2019-09-30T13:33:19.000Z</time>
      </trkpt>
      <trkpt lat="47.26701" lon="-1.61661">
        <ele>35</ele>
        <time>2019-09-30T13:33:20.000Z</time>
      </trkpt>
      <trkpt lat="47.26703" lon="-1.61663">
        <ele>35</ele>
        <time>2019-09-30T13:33:21.000Z</time>
      </trkpt>
      <trkpt lat="47.26706" lon="-1.61665">
        <ele>35</ele>
        <time>2019-09-30T13:33:22.000Z</time>
      </trkpt>
      <trkpt lat="47.26709" lon="-1.61667">
        <ele>35</ele>
        <time>2019-09-30T13:33:23.000Z</time>
      </trkpt>
      <trkpt lat="47.26712" lon="-1.61669">
        <ele>35</ele>
        <time>2019-09-30T13:33:24.000Z</time>
      </trkpt>
      <trkpt lat="47.26715" lon="-1.61671">
        <ele>35</ele>
        <time>2019-09-30T13:33:25.000Z</time>
      </trkpt>
      <trkpt lat="47.26717" lon="-1.61672">
        <ele>35</ele>
        <time>2019-09-30T13:33:26.000Z</time>
      </trkpt>
      <trkpt lat="47.26719" lon="-1.61674">
        <ele>35</ele>
        <time>2019-09-30T13:33:27.000Z</time>
      </trkpt>
      <trkpt lat="47.26721" lon="-1.61675">
        <ele>35</ele>
        <time>2019-09-30T13:33:28.000Z</time>
      </trkpt>
      <trkpt lat="47.26723" lon="-1.61676">
        <ele>35</ele>
        <time>2019-09-30T13:33:29.000Z</time>
      </trkpt>
      <trkpt lat="47.26724" lon="-1.61675">
        <ele>35</ele>
        <time>2019-09-30T13:33:30.000Z</time>
      </trkpt>
      <trkpt lat="47.26726" lon="-1.61675">
        <ele>35</ele>
        <time>2019-09-30T13:33:31.000Z</time>
      </trkpt>
      <trkpt lat="47.26727" lon="-1.61675">
        <ele>35</ele>
        <time>2019-09-30T13:33:32.000Z</time>
      </trkpt>
      <trkpt lat="47.26729" lon="-1.61675">
        <ele>35</ele>
        <time>2019-09-30T13:33:33.000Z</time>
      </trkpt>
      <trkpt lat="47.26731" lon="-1.61677">
        <ele>35</ele>
        <time>2019-09-30T13:33:34.000Z</time>
      </trkpt>
      <trkpt lat="47.26733" lon="-1.61678">
        <ele>36</ele>
        <time>2019-09-30T13:33:35.000Z</time>
      </trkpt>
      <trkpt lat="47.26735" lon="-1.61681">
        <ele>36</ele>
        <time>2019-09-30T13:33:36.000Z</time>
      </trkpt>
      <trkpt lat="47.26736" lon="-1.61683">
        <ele>36</ele>
        <time>2019-09-30T13:33:37.000Z</time>
      </trkpt>
      <trkpt lat="47.26737" lon="-1.61684">
        <ele>36</ele>
        <time>2019-09-30T13:33:38.000Z</time>
      </trkpt>
      <trkpt lat="47.26738" lon="-1.61686">
        <ele>36</ele>
        <time>2019-09-30T13:33:39.000Z</time>
      </trkpt>
      <trkpt lat="47.26738" lon="-1.61688">
        <ele>36</ele>
        <time>2019-09-30T13:33:40.000Z</time>
      </trkpt>
      <trkpt lat="47.2674" lon="-1.61691">
        <ele>36</ele>
        <time>2019-09-30T13:33:41.000Z</time>
      </trkpt>
      <trkpt lat="47.26741" lon="-1.61693">
        <ele>36</ele>
        <time>2019-09-30T13:33:42.000Z</time>
      </trkpt>
      <trkpt lat="47.26742" lon="-1.61695">
        <ele>36</ele>
        <time>2019-09-30T13:33:43.000Z</time>
      </trkpt>
      <trkpt lat="47.26743" lon="-1.61697">
        <ele>36</ele>
        <time>2019-09-30T13:33:44.000Z</time>
      </trkpt>
      <trkpt lat="47.26743" lon="-1.61699">
        <ele>36</ele>
        <time>2019-09-30T13:33:45.000Z</time>
      </trkpt>
      <trkpt lat="47.26743" lon="-1.61701">
        <ele>36</ele>
        <time>2019-09-30T13:33:46.000Z</time>
      </trkpt>
      <trkpt lat="47.26742" lon="-1.61704">
        <ele>36</ele>
        <time>2019-09-30T13:33:47.000Z</time>
      </trkpt>
      <trkpt lat="47.26742" lon="-1.61706">
        <ele>36</ele>
        <time>2019-09-30T13:33:48.000Z</time>
      </trkpt>
      <trkpt lat="47.26742" lon="-1.61707">
        <ele>36</ele>
        <time>2019-09-30T13:33:49.000Z</time>
      </trkpt>
      <trkpt lat="47.26743" lon="-1.61708">
        <ele>36</ele>
        <time>2019-09-30T13:33:50.000Z</time>
      </trkpt>
      <trkpt lat="47.26744" lon="-1.61711">
        <ele>36</ele>
        <time>2019-09-30T13:33:51.000Z</time>
      </trkpt>
      <trkpt lat="47.26744" lon="-1.61715">
        <ele>36</ele>
        <time>2019-09-30T13:33:52.000Z</time>
      </trkpt>
      <trkpt lat="47.26746" lon="-1.61719">
        <ele>36</ele>
        <time>2019-09-30T13:33:53.000Z</time>
      </trkpt>
      <trkpt lat="47.26747" lon="-1.61723">
        <ele>36</ele>
        <time>2019-09-30T13:33:54.000Z</time>
      </trkpt>
      <trkpt lat="47.26747" lon="-1.61726">
        <ele>36</ele>
        <time>2019-09-30T13:33:55.000Z</time>
      </trkpt>
      <trkpt lat="47.26748" lon="-1.6173">
        <ele>36</ele>
        <time>2019-09-30T13:33:56.000Z</time>
      </trkpt>
      <trkpt lat="47.26749" lon="-1.61733">
        <ele>36</ele>
        <time>2019-09-30T13:33:57.000Z</time>
      </trkpt>
      <trkpt lat="47.2675" lon="-1.61737">
        <ele>36</ele>
        <time>2019-09-30T13:33:58.000Z</time>
      </trkpt>
      <trkpt lat="47.26752" lon="-1.61739">
        <ele>36</ele>
        <time>2019-09-30T13:33:59.000Z</time>
      </trkpt>
      <trkpt lat="47.26753" lon="-1.61741">
        <ele>36</ele>
        <time>2019-09-30T13:34:00.000Z</time>
      </trkpt>
      <trkpt lat="47.26754" lon="-1.61743">
        <ele>36</ele>
        <time>2019-09-30T13:34:01.000Z</time>
      </trkpt>
      <trkpt lat="47.26754" lon="-1.61746">
        <ele>36</ele>
        <time>2019-09-30T13:34:02.000Z</time>
      </trkpt>
      <trkpt lat="47.26754" lon="-1.61749">
        <ele>36</ele>
        <time>2019-09-30T13:34:03.000Z</time>
      </trkpt>
      <trkpt lat="47.26754" lon="-1.61753">
        <ele>36</ele>
        <time>2019-09-30T13:34:04.000Z</time>
      </trkpt>
      <trkpt lat="47.26755" lon="-1.61755">
        <ele>36</ele>
        <time>2019-09-30T13:34:05.000Z</time>
      </trkpt>
      <trkpt lat="47.26756" lon="-1.61757">
        <ele>36</ele>
        <time>2019-09-30T13:34:06.000Z</time>
      </trkpt>
      <trkpt lat="47.26757" lon="-1.61759">
        <ele>36</ele>
        <time>2019-09-30T13:34:07.000Z</time>
      </trkpt>
      <trkpt lat="47.26758" lon="-1.61761">
        <ele>35</ele>
        <time>2019-09-30T13:34:08.000Z</time>
      </trkpt>
      <trkpt lat="47.26759" lon="-1.61762">
        <ele>35</ele>
        <time>2019-09-30T13:34:09.000Z</time>
      </trkpt>
      <trkpt lat="47.2676" lon="-1.61763">
        <ele>35</ele>
        <time>2019-09-30T13:34:10.000Z</time>
      </trkpt>
      <trkpt lat="47.2676" lon="-1.61765">
        <ele>35</ele>
        <time>2019-09-30T13:34:11.000Z</time>
      </trkpt>
      <trkpt lat="47.2676" lon="-1.61767">
        <ele>35</ele>
        <time>2019-09-30T13:34:12.000Z</time>
      </trkpt>
      <trkpt lat="47.2676" lon="-1.61768">
        <ele>35</ele>
        <time>2019-09-30T13:34:13.000Z</time>
      </trkpt>
      <trkpt lat="47.26759" lon="-1.61768">
        <ele>35</ele>
        <time>2019-09-30T13:34:14.000Z</time>
      </trkpt>
      <trkpt lat="47.26759" lon="-1.61768">
        <ele>35</ele>
        <time>2019-09-30T13:34:15.000Z</time>
      </trkpt>
      <trkpt lat="47.26758" lon="-1.61767">
        <ele>35</ele>
        <time>2019-09-30T13:34:16.000Z</time>
      </trkpt>
      <trkpt lat="47.26756" lon="-1.61767">
        <ele>35</ele>
        <time>2019-09-30T13:34:17.000Z</time>
      </trkpt>
      <trkpt lat="47.26755" lon="-1.61766">
        <ele>35</ele>
        <time>2019-09-30T13:34:18.000Z</time>
      </trkpt>
      <trkpt lat="47.26754" lon="-1.61765">
        <ele>35</ele>
        <time>2019-09-30T13:34:19.000Z</time>
      </trkpt>
      <trkpt lat="47.26753" lon="-1.61763">
        <ele>35</ele>
        <time>2019-09-30T13:34:20.000Z</time>
      </trkpt>
      <trkpt lat="47.26752" lon="-1.61762">
        <ele>35</ele>
        <time>2019-09-30T13:34:21.000Z</time>
      </trkpt>
      <trkpt lat="47.26752" lon="-1.61761">
        <ele>35</ele>
        <time>2019-09-30T13:34:22.000Z</time>
      </trkpt>
      <trkpt lat="47.26751" lon="-1.6176">
        <ele>35</ele>
        <time>2019-09-30T13:34:23.000Z</time>
      </trkpt>
      <trkpt lat="47.26751" lon="-1.6176">
        <ele>35</ele>
        <time>2019-09-30T13:34:24.000Z</time>
      </trkpt>
      <trkpt lat="47.2675" lon="-1.61759">
        <ele>35</ele>
        <time>2019-09-30T13:34:25.000Z</time>
      </trkpt>
      <trkpt lat="47.26749" lon="-1.61759">
        <ele>35</ele>
        <time>2019-09-30T13:34:26.000Z</time>
      </trkpt>
      <trkpt lat="47.26749" lon="-1.61758">
        <ele>34</ele>
        <time>2019-09-30T13:34:27.000Z</time>
      </trkpt>
      <trkpt lat="47.26748" lon="-1.61757">
        <ele>34</ele>
        <time>2019-09-30T13:34:28.000Z</time>
      </trkpt>
      <trkpt lat="47.26748" lon="-1.61757">
        <ele>34</ele>
        <time>2019-09-30T13:34:29.000Z</time>
      </trkpt>
      <trkpt lat="47.26746" lon="-1.61758">
        <ele>34</ele>
        <time>2019-09-30T13:34:30.000Z</time>
      </trkpt>
      <trkpt lat="47.26746" lon="-1.61759">
        <ele>34</ele>
        <time>2019-09-30T13:34:31.000Z</time>
      </trkpt>
      <trkpt lat="47.26745" lon="-1.6176">
        <ele>34</ele>
        <time>2019-09-30T13:34:32.000Z</time>
      </trkpt>
      <trkpt lat="47.26744" lon="-1.61761">
        <ele>34</ele>
        <time>2019-09-30T13:34:33.000Z</time>
      </trkpt>
      <trkpt lat="47.26744" lon="-1.61761">
        <ele>34</ele>
        <time>2019-09-30T13:34:34.000Z</time>
      </trkpt>
      <trkpt lat="47.26743" lon="-1.61761">
        <ele>34</ele>
        <time>2019-09-30T13:34:35.000Z</time>
      </trkpt>
      <trkpt lat="47.26743" lon="-1.61761">
        <ele>34</ele>
        <time>2019-09-30T13:34:36.000Z</time>
      </trkpt>
      <trkpt lat="47.26744" lon="-1.61768">
        <ele>32</ele>
        <time>2019-09-30T13:34:37.000Z</time>
      </trkpt>
      <trkpt lat="47.26745" lon="-1.6177">
        <ele>32</ele>
        <time>2019-09-30T13:34:38.000Z</time>
      </trkpt>
      <trkpt lat="47.26746" lon="-1.61772">
        <ele>31</ele>
        <time>2019-09-30T13:34:39.000Z</time>
      </trkpt>
      <trkpt lat="47.26746" lon="-1.61773">
        <ele>31</ele>
        <time>2019-09-30T13:34:40.000Z</time>
      </trkpt>
      <trkpt lat="47.26746" lon="-1.61774">
        <ele>31</ele>
        <time>2019-09-30T13:34:41.000Z</time>
      </trkpt>
      <trkpt lat="47.26747" lon="-1.61776">
        <ele>31</ele>
        <time>2019-09-30T13:34:42.000Z</time>
      </trkpt>
      <trkpt lat="47.26747" lon="-1.61778">
        <ele>31</ele>
        <time>2019-09-30T13:34:43.000Z</time>
      </trkpt>
      <trkpt lat="47.26747" lon="-1.61782">
        <ele>31</ele>
        <time>2019-09-30T13:34:44.000Z</time>
      </trkpt>
      <trkpt lat="47.26748" lon="-1.61784">
        <ele>31</ele>
        <time>2019-09-30T13:34:45.000Z</time>
      </trkpt>
      <trkpt lat="47.26749" lon="-1.61786">
        <ele>31</ele>
        <time>2019-09-30T13:34:46.000Z</time>
      </trkpt>
      <trkpt lat="47.2675" lon="-1.61788">
        <ele>31</ele>
        <time>2019-09-30T13:34:47.000Z</time>
      </trkpt>
      <trkpt lat="47.26752" lon="-1.6179">
        <ele>31</ele>
        <time>2019-09-30T13:34:48.000Z</time>
      </trkpt>
      <trkpt lat="47.26753" lon="-1.61793">
        <ele>31</ele>
        <time>2019-09-30T13:34:49.000Z</time>
      </trkpt>
      <trkpt lat="47.26754" lon="-1.61796">
        <ele>31</ele>
        <time>2019-09-30T13:34:50.000Z</time>
      </trkpt>
      <trkpt lat="47.26756" lon="-1.61798">
        <ele>31</ele>
        <time>2019-09-30T13:34:51.000Z</time>
      </trkpt>
      <trkpt lat="47.26758" lon="-1.618">
        <ele>31</ele>
        <time>2019-09-30T13:34:52.000Z</time>
      </trkpt>
      <trkpt lat="47.2676" lon="-1.61803">
        <ele>31</ele>
        <time>2019-09-30T13:34:53.000Z</time>
      </trkpt>
      <trkpt lat="47.26761" lon="-1.61806">
        <ele>31</ele>
        <time>2019-09-30T13:34:54.000Z</time>
      </trkpt>
      <trkpt lat="47.26763" lon="-1.61808">
        <ele>31</ele>
        <time>2019-09-30T13:34:55.000Z</time>
      </trkpt>
      <trkpt lat="47.26765" lon="-1.61811">
        <ele>31</ele>
        <time>2019-09-30T13:34:56.000Z</time>
      </trkpt>
      <trkpt lat="47.26766" lon="-1.61815">
        <ele>31</ele>
        <time>2019-09-30T13:34:57.000Z</time>
      </trkpt>
      <trkpt lat="47.26768" lon="-1.61818">
        <ele>31</ele>
        <time>2019-09-30T13:34:58.000Z</time>
      </trkpt>
      <trkpt lat="47.26771" lon="-1.61821">
        <ele>31</ele>
        <time>2019-09-30T13:34:59.000Z</time>
      </trkpt>
      <trkpt lat="47.26772" lon="-1.61824">
        <ele>31</ele>
        <time>2019-09-30T13:35:00.000Z</time>
      </trkpt>
      <trkpt lat="47.26774" lon="-1.61828">
        <ele>31</ele>
        <time>2019-09-30T13:35:01.000Z</time>
      </trkpt>
      <trkpt lat="47.26775" lon="-1.61831">
        <ele>31</ele>
        <time>2019-09-30T13:35:02.000Z</time>
      </trkpt>
      <trkpt lat="47.26777" lon="-1.61835">
        <ele>31</ele>
        <time>2019-09-30T13:35:03.000Z</time>
      </trkpt>
      <trkpt lat="47.26778" lon="-1.6184">
        <ele>31</ele>
        <time>2019-09-30T13:35:04.000Z</time>
      </trkpt>
      <trkpt lat="47.26779" lon="-1.61845">
        <ele>30</ele>
        <time>2019-09-30T13:35:05.000Z</time>
      </trkpt>
      <trkpt lat="47.2678" lon="-1.61849">
        <ele>30</ele>
        <time>2019-09-30T13:35:06.000Z</time>
      </trkpt>
      <trkpt lat="47.2678" lon="-1.61853">
        <ele>30</ele>
        <time>2019-09-30T13:35:07.000Z</time>
      </trkpt>
      <trkpt lat="47.26781" lon="-1.61857">
        <ele>30</ele>
        <time>2019-09-30T13:35:08.000Z</time>
      </trkpt>
      <trkpt lat="47.26781" lon="-1.61861">
        <ele>30</ele>
        <time>2019-09-30T13:35:09.000Z</time>
      </trkpt>
      <trkpt lat="47.26782" lon="-1.61864">
        <ele>29</ele>
        <time>2019-09-30T13:35:10.000Z</time>
      </trkpt>
      <trkpt lat="47.26782" lon="-1.61867">
        <ele>29</ele>
        <time>2019-09-30T13:35:11.000Z</time>
      </trkpt>
      <trkpt lat="47.26782" lon="-1.61871">
        <ele>28</ele>
        <time>2019-09-30T13:35:12.000Z</time>
      </trkpt>
      <trkpt lat="47.26782" lon="-1.61875">
        <ele>28</ele>
        <time>2019-09-30T13:35:13.000Z</time>
      </trkpt>
      <trkpt lat="47.26782" lon="-1.61879">
        <ele>27</ele>
        <time>2019-09-30T13:35:14.000Z</time>
      </trkpt>
      <trkpt lat="47.26781" lon="-1.61885">
        <ele>27</ele>
        <time>2019-09-30T13:35:15.000Z</time>
      </trkpt>
      <trkpt lat="47.2678" lon="-1.6189">
        <ele>26</ele>
        <time>2019-09-30T13:35:16.000Z</time>
      </trkpt>
      <trkpt lat="47.2678" lon="-1.61895">
        <ele>26</ele>
        <time>2019-09-30T13:35:17.000Z</time>
      </trkpt>
      <trkpt lat="47.2678" lon="-1.61899">
        <ele>26</ele>
        <time>2019-09-30T13:35:18.000Z</time>
      </trkpt>
      <trkpt lat="47.26778" lon="-1.61904">
        <ele>25</ele>
        <time>2019-09-30T13:35:19.000Z</time>
      </trkpt>
      <trkpt lat="47.26778" lon="-1.61908">
        <ele>25</ele>
        <time>2019-09-30T13:35:20.000Z</time>
      </trkpt>
      <trkpt lat="47.26776" lon="-1.61912">
        <ele>25</ele>
        <time>2019-09-30T13:35:21.000Z</time>
      </trkpt>
      <trkpt lat="47.26775" lon="-1.61917">
        <ele>24</ele>
        <time>2019-09-30T13:35:22.000Z</time>
      </trkpt>
      <trkpt lat="47.26775" lon="-1.61923">
        <ele>24</ele>
        <time>2019-09-30T13:35:23.000Z</time>
      </trkpt>
      <trkpt lat="47.26774" lon="-1.61929">
        <ele>24</ele>
        <time>2019-09-30T13:35:24.000Z</time>
      </trkpt>
      <trkpt lat="47.26774" lon="-1.61935">
        <ele>23</ele>
        <time>2019-09-30T13:35:25.000Z</time>
      </trkpt>
      <trkpt lat="47.26774" lon="-1.61941">
        <ele>23</ele>
        <time>2019-09-30T13:35:26.000Z</time>
      </trkpt>
      <trkpt lat="47.26774" lon="-1.61947">
        <ele>22</ele>
        <time>2019-09-30T13:35:27.000Z</time>
      </trkpt>
      <trkpt lat="47.26774" lon="-1.61953">
        <ele>22</ele>
        <time>2019-09-30T13:35:28.000Z</time>
      </trkpt>
      <trkpt lat="47.26774" lon="-1.6196">
        <ele>21</ele>
        <time>2019-09-30T13:35:29.000Z</time>
      </trkpt>
      <trkpt lat="47.26775" lon="-1.61966">
        <ele>21</ele>
        <time>2019-09-30T13:35:30.000Z</time>
      </trkpt>
      <trkpt lat="47.26775" lon="-1.61972">
        <ele>20</ele>
        <time>2019-09-30T13:35:31.000Z</time>
      </trkpt>
      <trkpt lat="47.26776" lon="-1.61977">
        <ele>20</ele>
        <time>2019-09-30T13:35:32.000Z</time>
      </trkpt>
      <trkpt lat="47.26777" lon="-1.61984">
        <ele>20</ele>
        <time>2019-09-30T13:35:33.000Z</time>
      </trkpt>
      <trkpt lat="47.26777" lon="-1.6199">
        <ele>20</ele>
        <time>2019-09-30T13:35:34.000Z</time>
      </trkpt>
      <trkpt lat="47.26778" lon="-1.61997">
        <ele>19</ele>
        <time>2019-09-30T13:35:35.000Z</time>
      </trkpt>
      <trkpt lat="47.26778" lon="-1.62003">
        <ele>19</ele>
        <time>2019-09-30T13:35:36.000Z</time>
      </trkpt>
      <trkpt lat="47.26779" lon="-1.6201">
        <ele>19</ele>
        <time>2019-09-30T13:35:37.000Z</time>
      </trkpt>
      <trkpt lat="47.2678" lon="-1.62017">
        <ele>19</ele>
        <time>2019-09-30T13:35:38.000Z</time>
      </trkpt>
      <trkpt lat="47.26781" lon="-1.62024">
        <ele>18</ele>
        <time>2019-09-30T13:35:39.000Z</time>
      </trkpt>
      <trkpt lat="47.26782" lon="-1.62031">
        <ele>18</ele>
        <time>2019-09-30T13:35:40.000Z</time>
      </trkpt>
      <trkpt lat="47.26783" lon="-1.62037">
        <ele>18</ele>
        <time>2019-09-30T13:35:41.000Z</time>
      </trkpt>
      <trkpt lat="47.26783" lon="-1.62044">
        <ele>18</ele>
        <time>2019-09-30T13:35:42.000Z</time>
      </trkpt>
      <trkpt lat="47.26784" lon="-1.62051">
        <ele>18</ele>
        <time>2019-09-30T13:35:43.000Z</time>
      </trkpt>
      <trkpt lat="47.26784" lon="-1.62057">
        <ele>18</ele>
        <time>2019-09-30T13:35:44.000Z</time>
      </trkpt>
      <trkpt lat="47.26785" lon="-1.62064">
        <ele>17</ele>
        <time>2019-09-30T13:35:45.000Z</time>
      </trkpt>
      <trkpt lat="47.26786" lon="-1.6207">
        <ele>17</ele>
        <time>2019-09-30T13:35:46.000Z</time>
      </trkpt>
      <trkpt lat="47.26788" lon="-1.62076">
        <ele>17</ele>
        <time>2019-09-30T13:35:47.000Z</time>
      </trkpt>
      <trkpt lat="47.26789" lon="-1.62082">
        <ele>17</ele>
        <time>2019-09-30T13:35:48.000Z</time>
      </trkpt>
      <trkpt lat="47.26791" lon="-1.62087">
        <ele>16</ele>
        <time>2019-09-30T13:35:49.000Z</time>
      </trkpt>
      <trkpt lat="47.26793" lon="-1.62093">
        <ele>16</ele>
        <time>2019-09-30T13:35:50.000Z</time>
      </trkpt>
      <trkpt lat="47.26795" lon="-1.62098">
        <ele>16</ele>
        <time>2019-09-30T13:35:51.000Z</time>
      </trkpt>
      <trkpt lat="47.26796" lon="-1.62103">
        <ele>16</ele>
        <time>2019-09-30T13:35:52.000Z</time>
      </trkpt>
      <trkpt lat="47.26798" lon="-1.62107">
        <ele>16</ele>
        <time>2019-09-30T13:35:53.000Z</time>
      </trkpt>
      <trkpt lat="47.26798" lon="-1.62111">
        <ele>16</ele>
        <time>2019-09-30T13:35:54.000Z</time>
      </trkpt>
      <trkpt lat="47.26798" lon="-1.62115">
        <ele>16</ele>
        <time>2019-09-30T13:35:55.000Z</time>
      </trkpt>
      <trkpt lat="47.26797" lon="-1.62116">
        <ele>16</ele>
        <time>2019-09-30T13:35:56.000Z</time>
      </trkpt>
      <trkpt lat="47.26795" lon="-1.62115">
        <ele>16</ele>
        <time>2019-09-30T13:35:57.000Z</time>
      </trkpt>
      <trkpt lat="47.26792" lon="-1.62113">
        <ele>16</ele>
        <time>2019-09-30T13:35:58.000Z</time>
      </trkpt>
      <trkpt lat="47.26789" lon="-1.62111">
        <ele>15</ele>
        <time>2019-09-30T13:35:59.000Z</time>
      </trkpt>
      <trkpt lat="47.26786" lon="-1.62108">
        <ele>15</ele>
        <time>2019-09-30T13:36:00.000Z</time>
      </trkpt>
      <trkpt lat="47.26783" lon="-1.62106">
        <ele>15</ele>
        <time>2019-09-30T13:36:01.000Z</time>
      </trkpt>
      <trkpt lat="47.2678" lon="-1.62104">
        <ele>15</ele>
        <time>2019-09-30T13:36:02.000Z</time>
      </trkpt>
      <trkpt lat="47.26777" lon="-1.62101">
        <ele>15</ele>
        <time>2019-09-30T13:36:03.000Z</time>
      </trkpt>
      <trkpt lat="47.26774" lon="-1.62099">
        <ele>14</ele>
        <time>2019-09-30T13:36:04.000Z</time>
      </trkpt>
      <trkpt lat="47.26772" lon="-1.62097">
        <ele>14</ele>
        <time>2019-09-30T13:36:05.000Z</time>
      </trkpt>
      <trkpt lat="47.2677" lon="-1.62094">
        <ele>14</ele>
        <time>2019-09-30T13:36:06.000Z</time>
      </trkpt>
      <trkpt lat="47.26767" lon="-1.62091">
        <ele>14</ele>
        <time>2019-09-30T13:36:07.000Z</time>
      </trkpt>
      <trkpt lat="47.26764" lon="-1.6209">
        <ele>14</ele>
        <time>2019-09-30T13:36:08.000Z</time>
      </trkpt>
      <trkpt lat="47.26761" lon="-1.62092">
        <ele>14</ele>
        <time>2019-09-30T13:36:09.000Z</time>
      </trkpt>
      <trkpt lat="47.26757" lon="-1.62095">
        <ele>14</ele>
        <time>2019-09-30T13:36:10.000Z</time>
      </trkpt>
      <trkpt lat="47.26754" lon="-1.62099">
        <ele>14</ele>
        <time>2019-09-30T13:36:11.000Z</time>
      </trkpt>
      <trkpt lat="47.26752" lon="-1.62102">
        <ele>14</ele>
        <time>2019-09-30T13:36:12.000Z</time>
      </trkpt>
      <trkpt lat="47.26752" lon="-1.62108">
        <ele>14</ele>
        <time>2019-09-30T13:36:13.000Z</time>
      </trkpt>
      <trkpt lat="47.26752" lon="-1.62113">
        <ele>14</ele>
        <time>2019-09-30T13:36:14.000Z</time>
      </trkpt>
      <trkpt lat="47.26753" lon="-1.6212">
        <ele>14</ele>
        <time>2019-09-30T13:36:15.000Z</time>
      </trkpt>
      <trkpt lat="47.26753" lon="-1.62126">
        <ele>14</ele>
        <time>2019-09-30T13:36:16.000Z</time>
      </trkpt>
      <trkpt lat="47.26755" lon="-1.62133">
        <ele>14</ele>
        <time>2019-09-30T13:36:17.000Z</time>
      </trkpt>
      <trkpt lat="47.26755" lon="-1.6214">
        <ele>14</ele>
        <time>2019-09-30T13:36:18.000Z</time>
      </trkpt>
      <trkpt lat="47.26755" lon="-1.62147">
        <ele>15</ele>
        <time>2019-09-30T13:36:19.000Z</time>
      </trkpt>
      <trkpt lat="47.26755" lon="-1.62154">
        <ele>15</ele>
        <time>2019-09-30T13:36:20.000Z</time>
      </trkpt>
      <trkpt lat="47.26754" lon="-1.6216">
        <ele>15</ele>
        <time>2019-09-30T13:36:21.000Z</time>
      </trkpt>
      <trkpt lat="47.26753" lon="-1.62166">
        <ele>15</ele>
        <time>2019-09-30T13:36:22.000Z</time>
      </trkpt>
      <trkpt lat="47.26752" lon="-1.62172">
        <ele>15</ele>
        <time>2019-09-30T13:36:23.000Z</time>
      </trkpt>
      <trkpt lat="47.26751" lon="-1.62178">
        <ele>15</ele>
        <time>2019-09-30T13:36:24.000Z</time>
      </trkpt>
      <trkpt lat="47.26751" lon="-1.62185">
        <ele>16</ele>
        <time>2019-09-30T13:36:25.000Z</time>
      </trkpt>
      <trkpt lat="47.26751" lon="-1.62192">
        <ele>16</ele>
        <time>2019-09-30T13:36:26.000Z</time>
      </trkpt>
      <trkpt lat="47.26751" lon="-1.62199">
        <ele>16</ele>
        <time>2019-09-30T13:36:27.000Z</time>
      </trkpt>
      <trkpt lat="47.26752" lon="-1.62207">
        <ele>16</ele>
        <time>2019-09-30T13:36:28.000Z</time>
      </trkpt>
      <trkpt lat="47.26753" lon="-1.62214">
        <ele>16</ele>
        <time>2019-09-30T13:36:29.000Z</time>
      </trkpt>
      <trkpt lat="47.26753" lon="-1.62221">
        <ele>16</ele>
        <time>2019-09-30T13:36:30.000Z</time>
      </trkpt>
      <trkpt lat="47.26754" lon="-1.62228">
        <ele>16</ele>
        <time>2019-09-30T13:36:31.000Z</time>
      </trkpt>
      <trkpt lat="47.26754" lon="-1.62235">
        <ele>16</ele>
        <time>2019-09-30T13:36:32.000Z</time>
      </trkpt>
      <trkpt lat="47.26755" lon="-1.62242">
        <ele>16</ele>
        <time>2019-09-30T13:36:33.000Z</time>
      </trkpt>
      <trkpt lat="47.26755" lon="-1.62248">
        <ele>16</ele>
        <time>2019-09-30T13:36:34.000Z</time>
      </trkpt>
      <trkpt lat="47.26757" lon="-1.62253">
        <ele>16</ele>
        <time>2019-09-30T13:36:35.000Z</time>
      </trkpt>
      <trkpt lat="47.26759" lon="-1.62255">
        <ele>17</ele>
        <time>2019-09-30T13:36:36.000Z</time>
      </trkpt>
      <trkpt lat="47.26762" lon="-1.62256">
        <ele>17</ele>
        <time>2019-09-30T13:36:37.000Z</time>
      </trkpt>
      <trkpt lat="47.26765" lon="-1.62257">
        <ele>17</ele>
        <time>2019-09-30T13:36:38.000Z</time>
      </trkpt>
      <trkpt lat="47.26767" lon="-1.62259">
        <ele>17</ele>
        <time>2019-09-30T13:36:39.000Z</time>
      </trkpt>
      <trkpt lat="47.26769" lon="-1.62263">
        <ele>17</ele>
        <time>2019-09-30T13:36:40.000Z</time>
      </trkpt>
      <trkpt lat="47.26771" lon="-1.62268">
        <ele>17</ele>
        <time>2019-09-30T13:36:41.000Z</time>
      </trkpt>
      <trkpt lat="47.26771" lon="-1.62273">
        <ele>17</ele>
        <time>2019-09-30T13:36:42.000Z</time>
      </trkpt>
      <trkpt lat="47.2677" lon="-1.62278">
        <ele>17</ele>
        <time>2019-09-30T13:36:43.000Z</time>
      </trkpt>
      <trkpt lat="47.26769" lon="-1.6228">
        <ele>17</ele>
        <time>2019-09-30T13:36:44.000Z</time>
      </trkpt>
      <trkpt lat="47.26767" lon="-1.62283">
        <ele>16</ele>
        <time>2019-09-30T13:36:45.000Z</time>
      </trkpt>
      <trkpt lat="47.26766" lon="-1.62287">
        <ele>16</ele>
        <time>2019-09-30T13:36:46.000Z</time>
      </trkpt>
      <trkpt lat="47.26764" lon="-1.6229">
        <ele>16</ele>
        <time>2019-09-30T13:36:47.000Z</time>
      </trkpt>
      <trkpt lat="47.26763" lon="-1.62294">
        <ele>16</ele>
        <time>2019-09-30T13:36:48.000Z</time>
      </trkpt>
      <trkpt lat="47.26761" lon="-1.62297">
        <ele>16</ele>
        <time>2019-09-30T13:36:49.000Z</time>
      </trkpt>
      <trkpt lat="47.2676" lon="-1.62301">
        <ele>16</ele>
        <time>2019-09-30T13:36:50.000Z</time>
      </trkpt>
      <trkpt lat="47.26759" lon="-1.62305">
        <ele>16</ele>
        <time>2019-09-30T13:36:51.000Z</time>
      </trkpt>
      <trkpt lat="47.2676" lon="-1.6231">
        <ele>16</ele>
        <time>2019-09-30T13:36:52.000Z</time>
      </trkpt>
      <trkpt lat="47.26762" lon="-1.62314">
        <ele>16</ele>
        <time>2019-09-30T13:36:53.000Z</time>
      </trkpt>
      <trkpt lat="47.26764" lon="-1.62317">
        <ele>16</ele>
        <time>2019-09-30T13:36:54.000Z</time>
      </trkpt>
      <trkpt lat="47.26767" lon="-1.62321">
        <ele>16</ele>
        <time>2019-09-30T13:36:55.000Z</time>
      </trkpt>
      <trkpt lat="47.26769" lon="-1.62326">
        <ele>16</ele>
        <time>2019-09-30T13:36:56.000Z</time>
      </trkpt>
      <trkpt lat="47.26771" lon="-1.62331">
        <ele>16</ele>
        <time>2019-09-30T13:36:57.000Z</time>
      </trkpt>
      <trkpt lat="47.26773" lon="-1.62336">
        <ele>16</ele>
        <time>2019-09-30T13:36:58.000Z</time>
      </trkpt>
      <trkpt lat="47.26775" lon="-1.62341">
        <ele>16</ele>
        <time>2019-09-30T13:36:59.000Z</time>
      </trkpt>
      <trkpt lat="47.26777" lon="-1.62346">
        <ele>15</ele>
        <time>2019-09-30T13:37:00.000Z</time>
      </trkpt>
      <trkpt lat="47.26779" lon="-1.62351">
        <ele>15</ele>
        <time>2019-09-30T13:37:01.000Z</time>
      </trkpt>
      <trkpt lat="47.26782" lon="-1.62355">
        <ele>15</ele>
        <time>2019-09-30T13:37:02.000Z</time>
      </trkpt>
      <trkpt lat="47.26784" lon="-1.6236">
        <ele>15</ele>
        <time>2019-09-30T13:37:03.000Z</time>
      </trkpt>
      <trkpt lat="47.26787" lon="-1.62364">
        <ele>15</ele>
        <time>2019-09-30T13:37:04.000Z</time>
      </trkpt>
      <trkpt lat="47.2679" lon="-1.62367">
        <ele>14</ele>
        <time>2019-09-30T13:37:05.000Z</time>
      </trkpt>
      <trkpt lat="47.26794" lon="-1.62369">
        <ele>14</ele>
        <time>2019-09-30T13:37:06.000Z</time>
      </trkpt>
      <trkpt lat="47.26797" lon="-1.62368">
        <ele>14</ele>
        <time>2019-09-30T13:37:07.000Z</time>
      </trkpt>
      <trkpt lat="47.26801" lon="-1.62368">
        <ele>14</ele>
        <time>2019-09-30T13:37:08.000Z</time>
      </trkpt>
      <trkpt lat="47.26803" lon="-1.62369">
        <ele>14</ele>
        <time>2019-09-30T13:37:09.000Z</time>
      </trkpt>
      <trkpt lat="47.26806" lon="-1.6237">
        <ele>14</ele>
        <time>2019-09-30T13:37:10.000Z</time>
      </trkpt>
      <trkpt lat="47.26808" lon="-1.62371">
        <ele>13</ele>
        <time>2019-09-30T13:37:11.000Z</time>
      </trkpt>
      <trkpt lat="47.2681" lon="-1.62372">
        <ele>13</ele>
        <time>2019-09-30T13:37:12.000Z</time>
      </trkpt>
      <trkpt lat="47.26812" lon="-1.62374">
        <ele>13</ele>
        <time>2019-09-30T13:37:13.000Z</time>
      </trkpt>
      <trkpt lat="47.26814" lon="-1.62377">
        <ele>13</ele>
        <time>2019-09-30T13:37:14.000Z</time>
      </trkpt>
      <trkpt lat="47.26817" lon="-1.62379">
        <ele>13</ele>
        <time>2019-09-30T13:37:15.000Z</time>
      </trkpt>
      <trkpt lat="47.26819" lon="-1.62381">
        <ele>14</ele>
        <time>2019-09-30T13:37:16.000Z</time>
      </trkpt>
      <trkpt lat="47.26822" lon="-1.62383">
        <ele>14</ele>
        <time>2019-09-30T13:37:17.000Z</time>
      </trkpt>
      <trkpt lat="47.26824" lon="-1.62385">
        <ele>14</ele>
        <time>2019-09-30T13:37:18.000Z</time>
      </trkpt>
      <trkpt lat="47.26827" lon="-1.62387">
        <ele>14</ele>
        <time>2019-09-30T13:37:19.000Z</time>
      </trkpt>
      <trkpt lat="47.26829" lon="-1.6239">
        <ele>14</ele>
        <time>2019-09-30T13:37:20.000Z</time>
      </trkpt>
      <trkpt lat="47.26832" lon="-1.62392">
        <ele>14</ele>
        <time>2019-09-30T13:37:21.000Z</time>
      </trkpt>
      <trkpt lat="47.26834" lon="-1.62395">
        <ele>14</ele>
        <time>2019-09-30T13:37:22.000Z</time>
      </trkpt>
      <trkpt lat="47.26837" lon="-1.62397">
        <ele>14</ele>
        <time>2019-09-30T13:37:23.000Z</time>
      </trkpt>
      <trkpt lat="47.2684" lon="-1.62399">
        <ele>14</ele>
        <time>2019-09-30T13:37:24.000Z</time>
      </trkpt>
      <trkpt lat="47.26843" lon="-1.62401">
        <ele>15</ele>
        <time>2019-09-30T13:37:25.000Z</time>
      </trkpt>
      <trkpt lat="47.26846" lon="-1.62404">
        <ele>15</ele>
        <time>2019-09-30T13:37:26.000Z</time>
      </trkpt>
      <trkpt lat="47.26848" lon="-1.62406">
        <ele>15</ele>
        <time>2019-09-30T13:37:27.000Z</time>
      </trkpt>
      <trkpt lat="47.26851" lon="-1.62409">
        <ele>15</ele>
        <time>2019-09-30T13:37:28.000Z</time>
      </trkpt>
      <trkpt lat="47.26853" lon="-1.62411">
        <ele>16</ele>
        <time>2019-09-30T13:37:29.000Z</time>
      </trkpt>
      <trkpt lat="47.26856" lon="-1.62413">
        <ele>16</ele>
        <time>2019-09-30T13:37:30.000Z</time>
      </trkpt>
      <trkpt lat="47.26859" lon="-1.62416">
        <ele>16</ele>
        <time>2019-09-30T13:37:31.000Z</time>
      </trkpt>
      <trkpt lat="47.26861" lon="-1.62418">
        <ele>17</ele>
        <time>2019-09-30T13:37:32.000Z</time>
      </trkpt>
      <trkpt lat="47.26863" lon="-1.6242">
        <ele>17</ele>
        <time>2019-09-30T13:37:33.000Z</time>
      </trkpt>
      <trkpt lat="47.26866" lon="-1.62423">
        <ele>17</ele>
        <time>2019-09-30T13:37:34.000Z</time>
      </trkpt>
      <trkpt lat="47.26868" lon="-1.62424">
        <ele>18</ele>
        <time>2019-09-30T13:37:35.000Z</time>
      </trkpt>
      <trkpt lat="47.26871" lon="-1.62426">
        <ele>18</ele>
        <time>2019-09-30T13:37:36.000Z</time>
      </trkpt>
      <trkpt lat="47.26873" lon="-1.62425">
        <ele>18</ele>
        <time>2019-09-30T13:37:37.000Z</time>
      </trkpt>
      <trkpt lat="47.26875" lon="-1.62423">
        <ele>18</ele>
        <time>2019-09-30T13:37:38.000Z</time>
      </trkpt>
      <trkpt lat="47.26875" lon="-1.62421">
        <ele>18</ele>
        <time>2019-09-30T13:37:39.000Z</time>
      </trkpt>
      <trkpt lat="47.26874" lon="-1.62419">
        <ele>19</ele>
        <time>2019-09-30T13:37:40.000Z</time>
      </trkpt>
      <trkpt lat="47.26872" lon="-1.62417">
        <ele>19</ele>
        <time>2019-09-30T13:37:41.000Z</time>
      </trkpt>
      <trkpt lat="47.26869" lon="-1.62415">
        <ele>19</ele>
        <time>2019-09-30T13:37:42.000Z</time>
      </trkpt>
      <trkpt lat="47.26866" lon="-1.62412">
        <ele>19</ele>
        <time>2019-09-30T13:37:43.000Z</time>
      </trkpt>
      <trkpt lat="47.26863" lon="-1.62409">
        <ele>19</ele>
        <time>2019-09-30T13:37:44.000Z</time>
      </trkpt>
      <trkpt lat="47.26859" lon="-1.62405">
        <ele>19</ele>
        <time>2019-09-30T13:37:45.000Z</time>
      </trkpt>
      <trkpt lat="47.26856" lon="-1.624">
        <ele>19</ele>
        <time>2019-09-30T13:37:46.000Z</time>
      </trkpt>
      <trkpt lat="47.26853" lon="-1.62396">
        <ele>19</ele>
        <time>2019-09-30T13:37:47.000Z</time>
      </trkpt>
      <trkpt lat="47.26849" lon="-1.6239">
        <ele>19</ele>
        <time>2019-09-30T13:37:48.000Z</time>
      </trkpt>
      <trkpt lat="47.26846" lon="-1.62384">
        <ele>19</ele>
        <time>2019-09-30T13:37:49.000Z</time>
      </trkpt>
      <trkpt lat="47.26843" lon="-1.62377">
        <ele>19</ele>
        <time>2019-09-30T13:37:50.000Z</time>
      </trkpt>
      <trkpt lat="47.2684" lon="-1.6237">
        <ele>19</ele>
        <time>2019-09-30T13:37:51.000Z</time>
      </trkpt>
      <trkpt lat="47.26837" lon="-1.62362">
        <ele>19</ele>
        <time>2019-09-30T13:37:52.000Z</time>
      </trkpt>
      <trkpt lat="47.26833" lon="-1.62354">
        <ele>19</ele>
        <time>2019-09-30T13:37:53.000Z</time>
      </trkpt>
      <trkpt lat="47.26829" lon="-1.62346">
        <ele>19</ele>
        <time>2019-09-30T13:37:54.000Z</time>
      </trkpt>
      <trkpt lat="47.26825" lon="-1.62337">
        <ele>19</ele>
        <time>2019-09-30T13:37:55.000Z</time>
      </trkpt>
      <trkpt lat="47.26819" lon="-1.6233">
        <ele>19</ele>
        <time>2019-09-30T13:37:56.000Z</time>
      </trkpt>
      <trkpt lat="47.26813" lon="-1.62323">
        <ele>19</ele>
        <time>2019-09-30T13:37:57.000Z</time>
      </trkpt>
      <trkpt lat="47.26807" lon="-1.62318">
        <ele>18</ele>
        <time>2019-09-30T13:37:58.000Z</time>
      </trkpt>
      <trkpt lat="47.268" lon="-1.62314">
        <ele>18</ele>
        <time>2019-09-30T13:37:59.000Z</time>
      </trkpt>
      <trkpt lat="47.26792" lon="-1.62311">
        <ele>18</ele>
        <time>2019-09-30T13:38:00.000Z</time>
      </trkpt>
      <trkpt lat="47.26784" lon="-1.62311">
        <ele>17</ele>
        <time>2019-09-30T13:38:01.000Z</time>
      </trkpt>
      <trkpt lat="47.26776" lon="-1.6231">
        <ele>17</ele>
        <time>2019-09-30T13:38:02.000Z</time>
      </trkpt>
      <trkpt lat="47.26768" lon="-1.6231">
        <ele>17</ele>
        <time>2019-09-30T13:38:03.000Z</time>
      </trkpt>
      <trkpt lat="47.26761" lon="-1.62309">
        <ele>17</ele>
        <time>2019-09-30T13:38:04.000Z</time>
      </trkpt>
      <trkpt lat="47.26754" lon="-1.62309">
        <ele>17</ele>
        <time>2019-09-30T13:38:05.000Z</time>
      </trkpt>
      <trkpt lat="47.26748" lon="-1.62308">
        <ele>16</ele>
        <time>2019-09-30T13:38:06.000Z</time>
      </trkpt>
      <trkpt lat="47.26741" lon="-1.62306">
        <ele>16</ele>
        <time>2019-09-30T13:38:07.000Z</time>
      </trkpt>
      <trkpt lat="47.26736" lon="-1.62303">
        <ele>17</ele>
        <time>2019-09-30T13:38:08.000Z</time>
      </trkpt>
      <trkpt lat="47.26731" lon="-1.62299">
        <ele>17</ele>
        <time>2019-09-30T13:38:09.000Z</time>
      </trkpt>
      <trkpt lat="47.26727" lon="-1.62296">
        <ele>17</ele>
        <time>2019-09-30T13:38:10.000Z</time>
      </trkpt>
      <trkpt lat="47.26724" lon="-1.62292">
        <ele>17</ele>
        <time>2019-09-30T13:38:11.000Z</time>
      </trkpt>
      <trkpt lat="47.26721" lon="-1.62289">
        <ele>17</ele>
        <time>2019-09-30T13:38:12.000Z</time>
      </trkpt>
      <trkpt lat="47.26719" lon="-1.62287">
        <ele>17</ele>
        <time>2019-09-30T13:38:13.000Z</time>
      </trkpt>
      <trkpt lat="47.26717" lon="-1.62286">
        <ele>17</ele>
        <time>2019-09-30T13:38:14.000Z</time>
      </trkpt>
      <trkpt lat="47.26715" lon="-1.62284">
        <ele>18</ele>
        <time>2019-09-30T13:38:15.000Z</time>
      </trkpt>
      <trkpt lat="47.26714" lon="-1.62282">
        <ele>18</ele>
        <time>2019-09-30T13:38:16.000Z</time>
      </trkpt>
      <trkpt lat="47.26714" lon="-1.62282">
        <ele>18</ele>
        <time>2019-09-30T13:38:17.000Z</time>
      </trkpt>
      <trkpt lat="47.26714" lon="-1.62282">
        <ele>18</ele>
        <time>2019-09-30T13:38:18.000Z</time>
      </trkpt>
      <trkpt lat="47.26713" lon="-1.62273">
        <ele>20</ele>
        <time>2019-09-30T13:38:19.000Z</time>
      </trkpt>
      <trkpt lat="47.26712" lon="-1.62271">
        <ele>21</ele>
        <time>2019-09-30T13:38:20.000Z</time>
      </trkpt>
      <trkpt lat="47.26711" lon="-1.62269">
        <ele>21</ele>
        <time>2019-09-30T13:38:21.000Z</time>
      </trkpt>
      <trkpt lat="47.26709" lon="-1.62266">
        <ele>21</ele>
        <time>2019-09-30T13:38:22.000Z</time>
      </trkpt>
      <trkpt lat="47.26709" lon="-1.62265">
        <ele>22</ele>
        <time>2019-09-30T13:38:23.000Z</time>
      </trkpt>
      <trkpt lat="47.26708" lon="-1.62263">
        <ele>22</ele>
        <time>2019-09-30T13:38:24.000Z</time>
      </trkpt>
      <trkpt lat="47.26707" lon="-1.62261">
        <ele>23</ele>
        <time>2019-09-30T13:38:25.000Z</time>
      </trkpt>
      <trkpt lat="47.26705" lon="-1.6226">
        <ele>23</ele>
        <time>2019-09-30T13:38:26.000Z</time>
      </trkpt>
      <trkpt lat="47.26704" lon="-1.62261">
        <ele>23</ele>
        <time>2019-09-30T13:38:27.000Z</time>
      </trkpt>
      <trkpt lat="47.26704" lon="-1.62262">
        <ele>24</ele>
        <time>2019-09-30T13:38:28.000Z</time>
      </trkpt>
      <trkpt lat="47.26704" lon="-1.62264">
        <ele>24</ele>
        <time>2019-09-30T13:38:29.000Z</time>
      </trkpt>
      <trkpt lat="47.26703" lon="-1.62266">
        <ele>24</ele>
        <time>2019-09-30T13:38:30.000Z</time>
      </trkpt>
      <trkpt lat="47.26702" lon="-1.62267">
        <ele>25</ele>
        <time>2019-09-30T13:38:31.000Z</time>
      </trkpt>
      <trkpt lat="47.26701" lon="-1.62269">
        <ele>25</ele>
        <time>2019-09-30T13:38:32.000Z</time>
      </trkpt>
      <trkpt lat="47.26699" lon="-1.6227">
        <ele>25</ele>
        <time>2019-09-30T13:38:33.000Z</time>
      </trkpt>
      <trkpt lat="47.26699" lon="-1.62271">
        <ele>25</ele>
        <time>2019-09-30T13:38:34.000Z</time>
      </trkpt>
      <trkpt lat="47.26699" lon="-1.62273">
        <ele>25</ele>
        <time>2019-09-30T13:38:35.000Z</time>
      </trkpt>
      <trkpt lat="47.26698" lon="-1.62274">
        <ele>25</ele>
        <time>2019-09-30T13:38:36.000Z</time>
      </trkpt>
      <trkpt lat="47.26697" lon="-1.62275">
        <ele>26</ele>
        <time>2019-09-30T13:38:37.000Z</time>
      </trkpt>
      <trkpt lat="47.26696" lon="-1.62276">
        <ele>26</ele>
        <time>2019-09-30T13:38:38.000Z</time>
      </trkpt>
      <trkpt lat="47.26696" lon="-1.62277">
        <ele>26</ele>
        <time>2019-09-30T13:38:39.000Z</time>
      </trkpt>
      <trkpt lat="47.26695" lon="-1.62278">
        <ele>26</ele>
        <time>2019-09-30T13:38:40.000Z</time>
      </trkpt>
      <trkpt lat="47.26694" lon="-1.62279">
        <ele>26</ele>
        <time>2019-09-30T13:38:41.000Z</time>
      </trkpt>
      <trkpt lat="47.26692" lon="-1.6228">
        <ele>27</ele>
        <time>2019-09-30T13:38:42.000Z</time>
      </trkpt>
      <trkpt lat="47.26691" lon="-1.62281">
        <ele>27</ele>
        <time>2019-09-30T13:38:43.000Z</time>
      </trkpt>
      <trkpt lat="47.26691" lon="-1.62281">
        <ele>27</ele>
        <time>2019-09-30T13:38:44.000Z</time>
      </trkpt>
      <trkpt lat="47.2669" lon="-1.62281">
        <ele>28</ele>
        <time>2019-09-30T13:38:45.000Z</time>
      </trkpt>
      <trkpt lat="47.2669" lon="-1.62281">
        <ele>28</ele>
        <time>2019-09-30T13:38:46.000Z</time>
      </trkpt>
      <trkpt lat="47.2669" lon="-1.62282">
        <ele>28</ele>
        <time>2019-09-30T13:38:47.000Z</time>
      </trkpt>
      <trkpt lat="47.26683" lon="-1.62284">
        <ele>30</ele>
        <time>2019-09-30T13:38:48.000Z</time>
      </trkpt>
      <trkpt lat="47.26682" lon="-1.62285">
        <ele>30</ele>
        <time>2019-09-30T13:38:49.000Z</time>
      </trkpt>
      <trkpt lat="47.26681" lon="-1.62285">
        <ele>30</ele>
        <time>2019-09-30T13:38:50.000Z</time>
      </trkpt>
      <trkpt lat="47.2668" lon="-1.62286">
        <ele>31</ele>
        <time>2019-09-30T13:38:51.000Z</time>
      </trkpt>
      <trkpt lat="47.26678" lon="-1.62286">
        <ele>31</ele>
        <time>2019-09-30T13:38:52.000Z</time>
      </trkpt>
      <trkpt lat="47.26677" lon="-1.62287">
        <ele>32</ele>
        <time>2019-09-30T13:38:53.000Z</time>
      </trkpt>
      <trkpt lat="47.26676" lon="-1.62288">
        <ele>32</ele>
        <time>2019-09-30T13:38:54.000Z</time>
      </trkpt>
      <trkpt lat="47.26676" lon="-1.62288">
        <ele>32</ele>
        <time>2019-09-30T13:38:55.000Z</time>
      </trkpt>
      <trkpt lat="47.26676" lon="-1.62289">
        <ele>33</ele>
        <time>2019-09-30T13:38:56.000Z</time>
      </trkpt>
      <trkpt lat="47.26677" lon="-1.62291">
        <ele>33</ele>
        <time>2019-09-30T13:38:57.000Z</time>
      </trkpt>
      <trkpt lat="47.26676" lon="-1.62292">
        <ele>33</ele>
        <time>2019-09-30T13:38:58.000Z</time>
      </trkpt>
      <trkpt lat="47.26676" lon="-1.62294">
        <ele>34</ele>
        <time>2019-09-30T13:38:59.000Z</time>
      </trkpt>
      <trkpt lat="47.26676" lon="-1.62295">
        <ele>34</ele>
        <time>2019-09-30T13:39:00.000Z</time>
      </trkpt>
      <trkpt lat="47.26676" lon="-1.62297">
        <ele>34</ele>
        <time>2019-09-30T13:39:01.000Z</time>
      </trkpt>
      <trkpt lat="47.26676" lon="-1.623">
        <ele>34</ele>
        <time>2019-09-30T13:39:02.000Z</time>
      </trkpt>
      <trkpt lat="47.26674" lon="-1.62302">
        <ele>34</ele>
        <time>2019-09-30T13:39:03.000Z</time>
      </trkpt>
      <trkpt lat="47.26673" lon="-1.62304">
        <ele>34</ele>
        <time>2019-09-30T13:39:04.000Z</time>
      </trkpt>
      <trkpt lat="47.26672" lon="-1.62305">
        <ele>34</ele>
        <time>2019-09-30T13:39:05.000Z</time>
      </trkpt>
      <trkpt lat="47.26671" lon="-1.62307">
        <ele>34</ele>
        <time>2019-09-30T13:39:06.000Z</time>
      </trkpt>
      <trkpt lat="47.26671" lon="-1.62309">
        <ele>35</ele>
        <time>2019-09-30T13:39:07.000Z</time>
      </trkpt>
      <trkpt lat="47.2667" lon="-1.62312">
        <ele>35</ele>
        <time>2019-09-30T13:39:08.000Z</time>
      </trkpt>
      <trkpt lat="47.26671" lon="-1.62316">
        <ele>35</ele>
        <time>2019-09-30T13:39:09.000Z</time>
      </trkpt>
      <trkpt lat="47.26672" lon="-1.62319">
        <ele>35</ele>
        <time>2019-09-30T13:39:10.000Z</time>
      </trkpt>
      <trkpt lat="47.26673" lon="-1.62321">
        <ele>36</ele>
        <time>2019-09-30T13:39:11.000Z</time>
      </trkpt>
      <trkpt lat="47.26675" lon="-1.62324">
        <ele>36</ele>
        <time>2019-09-30T13:39:12.000Z</time>
      </trkpt>
      <trkpt lat="47.26678" lon="-1.62328">
        <ele>36</ele>
        <time>2019-09-30T13:39:13.000Z</time>
      </trkpt>
      <trkpt lat="47.26679" lon="-1.62332">
        <ele>36</ele>
        <time>2019-09-30T13:39:14.000Z</time>
      </trkpt>
      <trkpt lat="47.26679" lon="-1.62337">
        <ele>36</ele>
        <time>2019-09-30T13:39:15.000Z</time>
      </trkpt>
      <trkpt lat="47.2668" lon="-1.62341">
        <ele>37</ele>
        <time>2019-09-30T13:39:16.000Z</time>
      </trkpt>
      <trkpt lat="47.2668" lon="-1.62345">
        <ele>37</ele>
        <time>2019-09-30T13:39:17.000Z</time>
      </trkpt>
      <trkpt lat="47.2668" lon="-1.62349">
        <ele>37</ele>
        <time>2019-09-30T13:39:18.000Z</time>
      </trkpt>
      <trkpt lat="47.26679" lon="-1.62353">
        <ele>37</ele>
        <time>2019-09-30T13:39:19.000Z</time>
      </trkpt>
      <trkpt lat="47.26678" lon="-1.62356">
        <ele>37</ele>
        <time>2019-09-30T13:39:20.000Z</time>
      </trkpt>
      <trkpt lat="47.26678" lon="-1.6236">
        <ele>37</ele>
        <time>2019-09-30T13:39:21.000Z</time>
      </trkpt>
      <trkpt lat="47.26677" lon="-1.62364">
        <ele>37</ele>
        <time>2019-09-30T13:39:22.000Z</time>
      </trkpt>
      <trkpt lat="47.26677" lon="-1.62368">
        <ele>37</ele>
        <time>2019-09-30T13:39:23.000Z</time>
      </trkpt>
      <trkpt lat="47.26677" lon="-1.62372">
        <ele>37</ele>
        <time>2019-09-30T13:39:24.000Z</time>
      </trkpt>
      <trkpt lat="47.26677" lon="-1.62376">
        <ele>37</ele>
        <time>2019-09-30T13:39:25.000Z</time>
      </trkpt>
      <trkpt lat="47.26678" lon="-1.62381">
        <ele>37</ele>
        <time>2019-09-30T13:39:26.000Z</time>
      </trkpt>
      <trkpt lat="47.26679" lon="-1.62385">
        <ele>37</ele>
        <time>2019-09-30T13:39:27.000Z</time>
      </trkpt>
      <trkpt lat="47.26679" lon="-1.62389">
        <ele>37</ele>
        <time>2019-09-30T13:39:28.000Z</time>
      </trkpt>
      <trkpt lat="47.26679" lon="-1.62392">
        <ele>37</ele>
        <time>2019-09-30T13:39:29.000Z</time>
      </trkpt>
      <trkpt lat="47.26678" lon="-1.62395">
        <ele>37</ele>
        <time>2019-09-30T13:39:30.000Z</time>
      </trkpt>
      <trkpt lat="47.26678" lon="-1.62396">
        <ele>37</ele>
        <time>2019-09-30T13:39:31.000Z</time>
      </trkpt>
      <trkpt lat="47.26678" lon="-1.62398">
        <ele>37</ele>
        <time>2019-09-30T13:39:32.000Z</time>
      </trkpt>
      <trkpt lat="47.26677" lon="-1.62399">
        <ele>37</ele>
        <time>2019-09-30T13:39:33.000Z</time>
      </trkpt>
      <trkpt lat="47.26676" lon="-1.624">
        <ele>37</ele>
        <time>2019-09-30T13:39:34.000Z</time>
      </trkpt>
      <trkpt lat="47.26675" lon="-1.62401">
        <ele>37</ele>
        <time>2019-09-30T13:39:35.000Z</time>
      </trkpt>
      <trkpt lat="47.26674" lon="-1.62401">
        <ele>37</ele>
        <time>2019-09-30T13:39:36.000Z</time>
      </trkpt>
      <trkpt lat="47.26673" lon="-1.62401">
        <ele>37</ele>
        <time>2019-09-30T13:39:37.000Z</time>
      </trkpt>
      <trkpt lat="47.26672" lon="-1.62401">
        <ele>37</ele>
        <time>2019-09-30T13:39:38.000Z</time>
      </trkpt>
      <trkpt lat="47.26671" lon="-1.624">
        <ele>37</ele>
        <time>2019-09-30T13:39:39.000Z</time>
      </trkpt>
      <trkpt lat="47.26669" lon="-1.624">
        <ele>37</ele>
        <time>2019-09-30T13:39:40.000Z</time>
      </trkpt>
      <trkpt lat="47.26668" lon="-1.624">
        <ele>37</ele>
        <time>2019-09-30T13:39:41.000Z</time>
      </trkpt>
      <trkpt lat="47.26667" lon="-1.624">
        <ele>38</ele>
        <time>2019-09-30T13:39:42.000Z</time>
      </trkpt>
      <trkpt lat="47.26666" lon="-1.62399">
        <ele>38</ele>
        <time>2019-09-30T13:39:43.000Z</time>
      </trkpt>
      <trkpt lat="47.26665" lon="-1.62398">
        <ele>38</ele>
        <time>2019-09-30T13:39:44.000Z</time>
      </trkpt>
      <trkpt lat="47.26664" lon="-1.62397">
        <ele>38</ele>
        <time>2019-09-30T13:39:45.000Z</time>
      </trkpt>
      <trkpt lat="47.26663" lon="-1.62396">
        <ele>38</ele>
        <time>2019-09-30T13:39:46.000Z</time>
      </trkpt>
      <trkpt lat="47.26662" lon="-1.62395">
        <ele>38</ele>
        <time>2019-09-30T13:39:47.000Z</time>
      </trkpt>
      <trkpt lat="47.26661" lon="-1.62394">
        <ele>39</ele>
        <time>2019-09-30T13:39:48.000Z</time>
      </trkpt>
      <trkpt lat="47.2666" lon="-1.62393">
        <ele>39</ele>
        <time>2019-09-30T13:39:49.000Z</time>
      </trkpt>
      <trkpt lat="47.26658" lon="-1.62393">
        <ele>39</ele>
        <time>2019-09-30T13:39:50.000Z</time>
      </trkpt>
      <trkpt lat="47.26656" lon="-1.62392">
        <ele>39</ele>
        <time>2019-09-30T13:39:51.000Z</time>
      </trkpt>
      <trkpt lat="47.26655" lon="-1.62391">
        <ele>39</ele>
        <time>2019-09-30T13:39:52.000Z</time>
      </trkpt>
      <trkpt lat="47.26653" lon="-1.62389">
        <ele>39</ele>
        <time>2019-09-30T13:39:53.000Z</time>
      </trkpt>
      <trkpt lat="47.26651" lon="-1.62388">
        <ele>39</ele>
        <time>2019-09-30T13:39:54.000Z</time>
      </trkpt>
      <trkpt lat="47.26649" lon="-1.62387">
        <ele>39</ele>
        <time>2019-09-30T13:39:55.000Z</time>
      </trkpt>
      <trkpt lat="47.26646" lon="-1.62385">
        <ele>39</ele>
        <time>2019-09-30T13:39:56.000Z</time>
      </trkpt>
      <trkpt lat="47.26644" lon="-1.62384">
        <ele>40</ele>
        <time>2019-09-30T13:39:57.000Z</time>
      </trkpt>
      <trkpt lat="47.26642" lon="-1.62382">
        <ele>40</ele>
        <time>2019-09-30T13:39:58.000Z</time>
      </trkpt>
      <trkpt lat="47.26641" lon="-1.62381">
        <ele>40</ele>
        <time>2019-09-30T13:39:59.000Z</time>
      </trkpt>
      <trkpt lat="47.2664" lon="-1.6238">
        <ele>40</ele>
        <time>2019-09-30T13:40:00.000Z</time>
      </trkpt>
      <trkpt lat="47.26639" lon="-1.62381">
        <ele>40</ele>
        <time>2019-09-30T13:40:01.000Z</time>
      </trkpt>
      <trkpt lat="47.26637" lon="-1.62382">
        <ele>40</ele>
        <time>2019-09-30T13:40:02.000Z</time>
      </trkpt>
      <trkpt lat="47.26635" lon="-1.62383">
        <ele>41</ele>
        <time>2019-09-30T13:40:03.000Z</time>
      </trkpt>
      <trkpt lat="47.26634" lon="-1.62383">
        <ele>41</ele>
        <time>2019-09-30T13:40:04.000Z</time>
      </trkpt>
      <trkpt lat="47.26632" lon="-1.62384">
        <ele>41</ele>
        <time>2019-09-30T13:40:05.000Z</time>
      </trkpt>
      <trkpt lat="47.26631" lon="-1.62384">
        <ele>41</ele>
        <time>2019-09-30T13:40:06.000Z</time>
      </trkpt>
      <trkpt lat="47.2663" lon="-1.62385">
        <ele>41</ele>
        <time>2019-09-30T13:40:07.000Z</time>
      </trkpt>
      <trkpt lat="47.26628" lon="-1.62387">
        <ele>41</ele>
        <time>2019-09-30T13:40:08.000Z</time>
      </trkpt>
      <trkpt lat="47.26625" lon="-1.62388">
        <ele>42</ele>
        <time>2019-09-30T13:40:09.000Z</time>
      </trkpt>
      <trkpt lat="47.26623" lon="-1.6239">
        <ele>42</ele>
        <time>2019-09-30T13:40:10.000Z</time>
      </trkpt>
      <trkpt lat="47.26621" lon="-1.62393">
        <ele>42</ele>
        <time>2019-09-30T13:40:11.000Z</time>
      </trkpt>
      <trkpt lat="47.26619" lon="-1.62395">
        <ele>42</ele>
        <time>2019-09-30T13:40:12.000Z</time>
      </trkpt>
      <trkpt lat="47.26618" lon="-1.62399">
        <ele>42</ele>
        <time>2019-09-30T13:40:13.000Z</time>
      </trkpt>
      <trkpt lat="47.26617" lon="-1.62401">
        <ele>42</ele>
        <time>2019-09-30T13:40:14.000Z</time>
      </trkpt>
      <trkpt lat="47.26615" lon="-1.62403">
        <ele>42</ele>
        <time>2019-09-30T13:40:15.000Z</time>
      </trkpt>
      <trkpt lat="47.26612" lon="-1.62405">
        <ele>43</ele>
        <time>2019-09-30T13:40:16.000Z</time>
      </trkpt>
      <trkpt lat="47.2661" lon="-1.62407">
        <ele>43</ele>
        <time>2019-09-30T13:40:17.000Z</time>
      </trkpt>
      <trkpt lat="47.26609" lon="-1.62409">
        <ele>43</ele>
        <time>2019-09-30T13:40:18.000Z</time>
      </trkpt>
      <trkpt lat="47.26607" lon="-1.62411">
        <ele>43</ele>
        <time>2019-09-30T13:40:19.000Z</time>
      </trkpt>
      <trkpt lat="47.26605" lon="-1.62413">
        <ele>43</ele>
        <time>2019-09-30T13:40:20.000Z</time>
      </trkpt>
      <trkpt lat="47.26604" lon="-1.62414">
        <ele>44</ele>
        <time>2019-09-30T13:40:21.000Z</time>
      </trkpt>
      <trkpt lat="47.26603" lon="-1.62415">
        <ele>44</ele>
        <time>2019-09-30T13:40:22.000Z</time>
      </trkpt>
      <trkpt lat="47.26602" lon="-1.62414">
        <ele>44</ele>
        <time>2019-09-30T13:40:23.000Z</time>
      </trkpt>
      <trkpt lat="47.266" lon="-1.62413">
        <ele>45</ele>
        <time>2019-09-30T13:40:24.000Z</time>
      </trkpt>
      <trkpt lat="47.26598" lon="-1.62414">
        <ele>45</ele>
        <time>2019-09-30T13:40:25.000Z</time>
      </trkpt>
      <trkpt lat="47.26596" lon="-1.62414">
        <ele>45</ele>
        <time>2019-09-30T13:40:26.000Z</time>
      </trkpt>
      <trkpt lat="47.26594" lon="-1.62415">
        <ele>45</ele>
        <time>2019-09-30T13:40:27.000Z</time>
      </trkpt>
      <trkpt lat="47.26591" lon="-1.62415">
        <ele>46</ele>
        <time>2019-09-30T13:40:28.000Z</time>
      </trkpt>
      <trkpt lat="47.26589" lon="-1.62418">
        <ele>46</ele>
        <time>2019-09-30T13:40:29.000Z</time>
      </trkpt>
      <trkpt lat="47.26587" lon="-1.6242">
        <ele>46</ele>
        <time>2019-09-30T13:40:30.000Z</time>
      </trkpt>
      <trkpt lat="47.26585" lon="-1.62423">
        <ele>46</ele>
        <time>2019-09-30T13:40:31.000Z</time>
      </trkpt>
      <trkpt lat="47.26584" lon="-1.62426">
        <ele>46</ele>
        <time>2019-09-30T13:40:32.000Z</time>
      </trkpt>
      <trkpt lat="47.26582" lon="-1.62429">
        <ele>47</ele>
        <time>2019-09-30T13:40:33.000Z</time>
      </trkpt>
      <trkpt lat="47.26581" lon="-1.62433">
        <ele>47</ele>
        <time>2019-09-30T13:40:34.000Z</time>
      </trkpt>
      <trkpt lat="47.2658" lon="-1.62436">
        <ele>47</ele>
        <time>2019-09-30T13:40:35.000Z</time>
      </trkpt>
      <trkpt lat="47.2658" lon="-1.6244">
        <ele>47</ele>
        <time>2019-09-30T13:40:36.000Z</time>
      </trkpt>
      <trkpt lat="47.2658" lon="-1.62444">
        <ele>47</ele>
        <time>2019-09-30T13:40:37.000Z</time>
      </trkpt>
      <trkpt lat="47.2658" lon="-1.62448">
        <ele>47</ele>
        <time>2019-09-30T13:40:38.000Z</time>
      </trkpt>
      <trkpt lat="47.2658" lon="-1.62452">
        <ele>47</ele>
        <time>2019-09-30T13:40:39.000Z</time>
      </trkpt>
      <trkpt lat="47.26579" lon="-1.62456">
        <ele>47</ele>
        <time>2019-09-30T13:40:40.000Z</time>
      </trkpt>
      <trkpt lat="47.26579" lon="-1.62459">
        <ele>47</ele>
        <time>2019-09-30T13:40:41.000Z</time>
      </trkpt>
      <trkpt lat="47.26581" lon="-1.62462">
        <ele>47</ele>
        <time>2019-09-30T13:40:42.000Z</time>
      </trkpt>
      <trkpt lat="47.26582" lon="-1.62466">
        <ele>47</ele>
        <time>2019-09-30T13:40:43.000Z</time>
      </trkpt>
      <trkpt lat="47.26584" lon="-1.6247">
        <ele>47</ele>
        <time>2019-09-30T13:40:44.000Z</time>
      </trkpt>
      <trkpt lat="47.26586" lon="-1.62475">
        <ele>47</ele>
        <time>2019-09-30T13:40:45.000Z</time>
      </trkpt>
      <trkpt lat="47.26586" lon="-1.6248">
        <ele>47</ele>
        <time>2019-09-30T13:40:46.000Z</time>
      </trkpt>
      <trkpt lat="47.26585" lon="-1.62484">
        <ele>47</ele>
        <time>2019-09-30T13:40:47.000Z</time>
      </trkpt>
      <trkpt lat="47.26584" lon="-1.62487">
        <ele>47</ele>
        <time>2019-09-30T13:40:48.000Z</time>
      </trkpt>
      <trkpt lat="47.26585" lon="-1.6249">
        <ele>47</ele>
        <time>2019-09-30T13:40:49.000Z</time>
      </trkpt>
      <trkpt lat="47.26586" lon="-1.62493">
        <ele>47</ele>
        <time>2019-09-30T13:40:50.000Z</time>
      </trkpt>
      <trkpt lat="47.26588" lon="-1.62496">
        <ele>47</ele>
        <time>2019-09-30T13:40:51.000Z</time>
      </trkpt>
      <trkpt lat="47.2659" lon="-1.62499">
        <ele>47</ele>
        <time>2019-09-30T13:40:52.000Z</time>
      </trkpt>
      <trkpt lat="47.26592" lon="-1.62502">
        <ele>46</ele>
        <time>2019-09-30T13:40:53.000Z</time>
      </trkpt>
      <trkpt lat="47.26594" lon="-1.62503">
        <ele>46</ele>
        <time>2019-09-30T13:40:54.000Z</time>
      </trkpt>
      <trkpt lat="47.26597" lon="-1.62504">
        <ele>46</ele>
        <time>2019-09-30T13:40:55.000Z</time>
      </trkpt>
      <trkpt lat="47.266" lon="-1.62506">
        <ele>46</ele>
        <time>2019-09-30T13:40:56.000Z</time>
      </trkpt>
      <trkpt lat="47.26603" lon="-1.62507">
        <ele>46</ele>
        <time>2019-09-30T13:40:57.000Z</time>
      </trkpt>
      <trkpt lat="47.26606" lon="-1.62509">
        <ele>47</ele>
        <time>2019-09-30T13:40:58.000Z</time>
      </trkpt>
      <trkpt lat="47.26609" lon="-1.6251">
        <ele>47</ele>
        <time>2019-09-30T13:40:59.000Z</time>
      </trkpt>
      <trkpt lat="47.26611" lon="-1.62509">
        <ele>47</ele>
        <time>2019-09-30T13:41:00.000Z</time>
      </trkpt>
      <trkpt lat="47.26614" lon="-1.62508">
        <ele>47</ele>
        <time>2019-09-30T13:41:01.000Z</time>
      </trkpt>
      <trkpt lat="47.26616" lon="-1.62509">
        <ele>47</ele>
        <time>2019-09-30T13:41:02.000Z</time>
      </trkpt>
      <trkpt lat="47.26619" lon="-1.62509">
        <ele>47</ele>
        <time>2019-09-30T13:41:03.000Z</time>
      </trkpt>
      <trkpt lat="47.26622" lon="-1.62509">
        <ele>47</ele>
        <time>2019-09-30T13:41:04.000Z</time>
      </trkpt>
      <trkpt lat="47.26625" lon="-1.62509">
        <ele>47</ele>
        <time>2019-09-30T13:41:05.000Z</time>
      </trkpt>
      <trkpt lat="47.26627" lon="-1.62508">
        <ele>47</ele>
        <time>2019-09-30T13:41:06.000Z</time>
      </trkpt>
      <trkpt lat="47.2663" lon="-1.62508">
        <ele>47</ele>
        <time>2019-09-30T13:41:07.000Z</time>
      </trkpt>
      <trkpt lat="47.26631" lon="-1.62509">
        <ele>46</ele>
        <time>2019-09-30T13:41:08.000Z</time>
      </trkpt>
      <trkpt lat="47.26634" lon="-1.62509">
        <ele>46</ele>
        <time>2019-09-30T13:41:09.000Z</time>
      </trkpt>
      <trkpt lat="47.26637" lon="-1.62509">
        <ele>46</ele>
        <time>2019-09-30T13:41:10.000Z</time>
      </trkpt>
      <trkpt lat="47.2664" lon="-1.62509">
        <ele>46</ele>
        <time>2019-09-30T13:41:11.000Z</time>
      </trkpt>
      <trkpt lat="47.26643" lon="-1.62511">
        <ele>46</ele>
        <time>2019-09-30T13:41:12.000Z</time>
      </trkpt>
      <trkpt lat="47.26646" lon="-1.62512">
        <ele>46</ele>
        <time>2019-09-30T13:41:13.000Z</time>
      </trkpt>
      <trkpt lat="47.2665" lon="-1.62513">
        <ele>46</ele>
        <time>2019-09-30T13:41:14.000Z</time>
      </trkpt>
      <trkpt lat="47.26653" lon="-1.62512">
        <ele>46</ele>
        <time>2019-09-30T13:41:15.000Z</time>
      </trkpt>
      <trkpt lat="47.26655" lon="-1.62509">
        <ele>46</ele>
        <time>2019-09-30T13:41:16.000Z</time>
      </trkpt>
      <trkpt lat="47.26656" lon="-1.62507">
        <ele>46</ele>
        <time>2019-09-30T13:41:17.000Z</time>
      </trkpt>
      <trkpt lat="47.26657" lon="-1.62503">
        <ele>45</ele>
        <time>2019-09-30T13:41:18.000Z</time>
      </trkpt>
      <trkpt lat="47.26658" lon="-1.62499">
        <ele>45</ele>
        <time>2019-09-30T13:41:19.000Z</time>
      </trkpt>
      <trkpt lat="47.26659" lon="-1.62495">
        <ele>45</ele>
        <time>2019-09-30T13:41:20.000Z</time>
      </trkpt>
      <trkpt lat="47.26658" lon="-1.62489">
        <ele>45</ele>
        <time>2019-09-30T13:41:21.000Z</time>
      </trkpt>
      <trkpt lat="47.26659" lon="-1.62485">
        <ele>45</ele>
        <time>2019-09-30T13:41:22.000Z</time>
      </trkpt>
      <trkpt lat="47.2666" lon="-1.62481">
        <ele>45</ele>
        <time>2019-09-30T13:41:23.000Z</time>
      </trkpt>
      <trkpt lat="47.26661" lon="-1.62479">
        <ele>45</ele>
        <time>2019-09-30T13:41:24.000Z</time>
      </trkpt>
      <trkpt lat="47.26663" lon="-1.62478">
        <ele>45</ele>
        <time>2019-09-30T13:41:25.000Z</time>
      </trkpt>
      <trkpt lat="47.26666" lon="-1.62478">
        <ele>45</ele>
        <time>2019-09-30T13:41:26.000Z</time>
      </trkpt>
      <trkpt lat="47.26668" lon="-1.6248">
        <ele>45</ele>
        <time>2019-09-30T13:41:27.000Z</time>
      </trkpt>
      <trkpt lat="47.2667" lon="-1.62481">
        <ele>45</ele>
        <time>2019-09-30T13:41:28.000Z</time>
      </trkpt>
      <trkpt lat="47.26672" lon="-1.62483">
        <ele>44</ele>
        <time>2019-09-30T13:41:29.000Z</time>
      </trkpt>
      <trkpt lat="47.26675" lon="-1.62483">
        <ele>44</ele>
        <time>2019-09-30T13:41:30.000Z</time>
      </trkpt>
      <trkpt lat="47.26677" lon="-1.62484">
        <ele>44</ele>
        <time>2019-09-30T13:41:31.000Z</time>
      </trkpt>
      <trkpt lat="47.2668" lon="-1.62484">
        <ele>44</ele>
        <time>2019-09-30T13:41:32.000Z</time>
      </trkpt>
      <trkpt lat="47.26683" lon="-1.62486">
        <ele>44</ele>
        <time>2019-09-30T13:41:33.000Z</time>
      </trkpt>
      <trkpt lat="47.26684" lon="-1.62488">
        <ele>44</ele>
        <time>2019-09-30T13:41:34.000Z</time>
      </trkpt>
      <trkpt lat="47.26685" lon="-1.6249">
        <ele>44</ele>
        <time>2019-09-30T13:41:35.000Z</time>
      </trkpt>
      <trkpt lat="47.26685" lon="-1.62491">
        <ele>43</ele>
        <time>2019-09-30T13:41:36.000Z</time>
      </trkpt>
      <trkpt lat="47.26685" lon="-1.62492">
        <ele>43</ele>
        <time>2019-09-30T13:41:37.000Z</time>
      </trkpt>
      <trkpt lat="47.26685" lon="-1.62494">
        <ele>43</ele>
        <time>2019-09-30T13:41:38.000Z</time>
      </trkpt>
      <trkpt lat="47.26685" lon="-1.62497">
        <ele>43</ele>
        <time>2019-09-30T13:41:39.000Z</time>
      </trkpt>
      <trkpt lat="47.26685" lon="-1.62499">
        <ele>43</ele>
        <time>2019-09-30T13:41:40.000Z</time>
      </trkpt>
      <trkpt lat="47.26685" lon="-1.62502">
        <ele>42</ele>
        <time>2019-09-30T13:41:41.000Z</time>
      </trkpt>
      <trkpt lat="47.26684" lon="-1.62504">
        <ele>42</ele>
        <time>2019-09-30T13:41:42.000Z</time>
      </trkpt>
      <trkpt lat="47.26684" lon="-1.62506">
        <ele>42</ele>
        <time>2019-09-30T13:41:43.000Z</time>
      </trkpt>
      <trkpt lat="47.26684" lon="-1.62508">
        <ele>42</ele>
        <time>2019-09-30T13:41:44.000Z</time>
      </trkpt>
      <trkpt lat="47.26684" lon="-1.6251">
        <ele>42</ele>
        <time>2019-09-30T13:41:45.000Z</time>
      </trkpt>
      <trkpt lat="47.26685" lon="-1.62512">
        <ele>42</ele>
        <time>2019-09-30T13:41:46.000Z</time>
      </trkpt>
      <trkpt lat="47.26686" lon="-1.62514">
        <ele>42</ele>
        <time>2019-09-30T13:41:47.000Z</time>
      </trkpt>
      <trkpt lat="47.26687" lon="-1.62516">
        <ele>42</ele>
        <time>2019-09-30T13:41:48.000Z</time>
      </trkpt>
      <trkpt lat="47.26688" lon="-1.62518">
        <ele>42</ele>
        <time>2019-09-30T13:41:49.000Z</time>
      </trkpt>
      <trkpt lat="47.26691" lon="-1.62521">
        <ele>42</ele>
        <time>2019-09-30T13:41:50.000Z</time>
      </trkpt>
      <trkpt lat="47.26693" lon="-1.62524">
        <ele>42</ele>
        <time>2019-09-30T13:41:51.000Z</time>
      </trkpt>
      <trkpt lat="47.26695" lon="-1.62528">
        <ele>42</ele>
        <time>2019-09-30T13:41:52.000Z</time>
      </trkpt>
      <trkpt lat="47.26697" lon="-1.62531">
        <ele>42</ele>
        <time>2019-09-30T13:41:53.000Z</time>
      </trkpt>
      <trkpt lat="47.26697" lon="-1.62535">
        <ele>42</ele>
        <time>2019-09-30T13:41:54.000Z</time>
      </trkpt>
      <trkpt lat="47.26697" lon="-1.62538">
        <ele>42</ele>
        <time>2019-09-30T13:41:55.000Z</time>
      </trkpt>
      <trkpt lat="47.26697" lon="-1.62541">
        <ele>42</ele>
        <time>2019-09-30T13:41:56.000Z</time>
      </trkpt>
      <trkpt lat="47.26696" lon="-1.62544">
        <ele>42</ele>
        <time>2019-09-30T13:41:57.000Z</time>
      </trkpt>
      <trkpt lat="47.26696" lon="-1.62548">
        <ele>42</ele>
        <time>2019-09-30T13:41:58.000Z</time>
      </trkpt>
      <trkpt lat="47.26696" lon="-1.62552">
        <ele>42</ele>
        <time>2019-09-30T13:41:59.000Z</time>
      </trkpt>
      <trkpt lat="47.26697" lon="-1.62555">
        <ele>42</ele>
        <time>2019-09-30T13:42:00.000Z</time>
      </trkpt>
      <trkpt lat="47.26699" lon="-1.62558">
        <ele>42</ele>
        <time>2019-09-30T13:42:01.000Z</time>
      </trkpt>
      <trkpt lat="47.26701" lon="-1.62561">
        <ele>42</ele>
        <time>2019-09-30T13:42:02.000Z</time>
      </trkpt>
      <trkpt lat="47.26702" lon="-1.62564">
        <ele>41</ele>
        <time>2019-09-30T13:42:03.000Z</time>
      </trkpt>
      <trkpt lat="47.26704" lon="-1.62568">
        <ele>41</ele>
        <time>2019-09-30T13:42:04.000Z</time>
      </trkpt>
      <trkpt lat="47.26706" lon="-1.62572">
        <ele>41</ele>
        <time>2019-09-30T13:42:05.000Z</time>
      </trkpt>
      <trkpt lat="47.26707" lon="-1.62575">
        <ele>41</ele>
        <time>2019-09-30T13:42:06.000Z</time>
      </trkpt>
      <trkpt lat="47.26709" lon="-1.62578">
        <ele>41</ele>
        <time>2019-09-30T13:42:07.000Z</time>
      </trkpt>
      <trkpt lat="47.26711" lon="-1.6258">
        <ele>41</ele>
        <time>2019-09-30T13:42:08.000Z</time>
      </trkpt>
      <trkpt lat="47.26711" lon="-1.62582">
        <ele>40</ele>
        <time>2019-09-30T13:42:09.000Z</time>
      </trkpt>
      <trkpt lat="47.26712" lon="-1.62583">
        <ele>40</ele>
        <time>2019-09-30T13:42:10.000Z</time>
      </trkpt>
      <trkpt lat="47.26713" lon="-1.62584">
        <ele>40</ele>
        <time>2019-09-30T13:42:11.000Z</time>
      </trkpt>
      <trkpt lat="47.26714" lon="-1.62585">
        <ele>39</ele>
        <time>2019-09-30T13:42:12.000Z</time>
      </trkpt>
      <trkpt lat="47.26715" lon="-1.62587">
        <ele>39</ele>
        <time>2019-09-30T13:42:13.000Z</time>
      </trkpt>
      <trkpt lat="47.26716" lon="-1.62591">
        <ele>39</ele>
        <time>2019-09-30T13:42:14.000Z</time>
      </trkpt>
      <trkpt lat="47.26718" lon="-1.62594">
        <ele>39</ele>
        <time>2019-09-30T13:42:15.000Z</time>
      </trkpt>
      <trkpt lat="47.26719" lon="-1.62597">
        <ele>39</ele>
        <time>2019-09-30T13:42:16.000Z</time>
      </trkpt>
      <trkpt lat="47.2672" lon="-1.62599">
        <ele>38</ele>
        <time>2019-09-30T13:42:17.000Z</time>
      </trkpt>
      <trkpt lat="47.2672" lon="-1.626">
        <ele>38</ele>
        <time>2019-09-30T13:42:18.000Z</time>
      </trkpt>
      <trkpt lat="47.2672" lon="-1.626">
        <ele>38</ele>
        <time>2019-09-30T13:42:19.000Z</time>
      </trkpt>
      <trkpt lat="47.2672" lon="-1.62601">
        <ele>38</ele>
        <time>2019-09-30T13:42:20.000Z</time>
      </trkpt>
      <trkpt lat="47.26721" lon="-1.62602">
        <ele>38</ele>
        <time>2019-09-30T13:42:21.000Z</time>
      </trkpt>
      <trkpt lat="47.26721" lon="-1.62602">
        <ele>38</ele>
        <time>2019-09-30T13:42:22.000Z</time>
      </trkpt>
      <trkpt lat="47.26725" lon="-1.62612">
        <ele>37</ele>
        <time>2019-09-30T13:42:23.000Z</time>
      </trkpt>
      <trkpt lat="47.26724" lon="-1.62615">
        <ele>37</ele>
        <time>2019-09-30T13:42:24.000Z</time>
      </trkpt>
      <trkpt lat="47.26724" lon="-1.62615">
        <ele>37</ele>
        <time>2019-09-30T13:42:25.000Z</time>
      </trkpt>
      <trkpt lat="47.26723" lon="-1.62616">
        <ele>37</ele>
        <time>2019-09-30T13:42:26.000Z</time>
      </trkpt>
      <trkpt lat="47.26724" lon="-1.62617">
        <ele>37</ele>
        <time>2019-09-30T13:42:27.000Z</time>
      </trkpt>
      <trkpt lat="47.26726" lon="-1.62621">
        <ele>37</ele>
        <time>2019-09-30T13:42:28.000Z</time>
      </trkpt>
      <trkpt lat="47.26726" lon="-1.62623">
        <ele>37</ele>
        <time>2019-09-30T13:42:29.000Z</time>
      </trkpt>
      <trkpt lat="47.26726" lon="-1.62625">
        <ele>37</ele>
        <time>2019-09-30T13:42:30.000Z</time>
      </trkpt>
      <trkpt lat="47.26726" lon="-1.62629">
        <ele>37</ele>
        <time>2019-09-30T13:42:31.000Z</time>
      </trkpt>
      <trkpt lat="47.26726" lon="-1.62633">
        <ele>37</ele>
        <time>2019-09-30T13:42:32.000Z</time>
      </trkpt>
      <trkpt lat="47.26726" lon="-1.62636">
        <ele>37</ele>
        <time>2019-09-30T13:42:33.000Z</time>
      </trkpt>
      <trkpt lat="47.26726" lon="-1.62636">
        <ele>37</ele>
        <time>2019-09-30T13:42:34.000Z</time>
      </trkpt>
      <trkpt lat="47.26726" lon="-1.62641">
        <ele>37</ele>
        <time>2019-09-30T13:42:35.000Z</time>
      </trkpt>
      <trkpt lat="47.26726" lon="-1.62641">
        <ele>37</ele>
        <time>2019-09-30T13:42:36.000Z</time>
      </trkpt>
      <trkpt lat="47.26724" lon="-1.62645">
        <ele>36</ele>
        <time>2019-09-30T13:42:37.000Z</time>
      </trkpt>
      <trkpt lat="47.26723" lon="-1.62647">
        <ele>36</ele>
        <time>2019-09-30T13:42:38.000Z</time>
      </trkpt>
      <trkpt lat="47.26723" lon="-1.62647">
        <ele>36</ele>
        <time>2019-09-30T13:42:39.000Z</time>
      </trkpt>
      <trkpt lat="47.26722" lon="-1.62649">
        <ele>36</ele>
        <time>2019-09-30T13:42:40.000Z</time>
      </trkpt>
      <trkpt lat="47.2672" lon="-1.62653">
        <ele>36</ele>
        <time>2019-09-30T13:42:41.000Z</time>
      </trkpt>
      <trkpt lat="47.2672" lon="-1.62653">
        <ele>36</ele>
        <time>2019-09-30T13:42:42.000Z</time>
      </trkpt>
      <trkpt lat="47.2672" lon="-1.62654">
        <ele>36</ele>
        <time>2019-09-30T13:42:43.000Z</time>
      </trkpt>
      <trkpt lat="47.2672" lon="-1.62655">
        <ele>36</ele>
        <time>2019-09-30T13:42:44.000Z</time>
      </trkpt>
      <trkpt lat="47.2672" lon="-1.62656">
        <ele>36</ele>
        <time>2019-09-30T13:42:45.000Z</time>
      </trkpt>
      <trkpt lat="47.2672" lon="-1.62656">
        <ele>36</ele>
        <time>2019-09-30T13:42:46.000Z</time>
      </trkpt>
      <trkpt lat="47.2672" lon="-1.62657">
        <ele>36</ele>
        <time>2019-09-30T13:42:47.000Z</time>
      </trkpt>
      <trkpt lat="47.26723" lon="-1.62668">
        <ele>35</ele>
        <time>2019-09-30T13:42:48.000Z</time>
      </trkpt>
      <trkpt lat="47.26725" lon="-1.6267">
        <ele>35</ele>
        <time>2019-09-30T13:42:49.000Z</time>
      </trkpt>
      <trkpt lat="47.26725" lon="-1.6267">
        <ele>35</ele>
        <time>2019-09-30T13:42:50.000Z</time>
      </trkpt>
      <trkpt lat="47.26726" lon="-1.62673">
        <ele>35</ele>
        <time>2019-09-30T13:42:51.000Z</time>
      </trkpt>
      <trkpt lat="47.26726" lon="-1.62676">
        <ele>35</ele>
        <time>2019-09-30T13:42:52.000Z</time>
      </trkpt>
      <trkpt lat="47.26726" lon="-1.62679">
        <ele>35</ele>
        <time>2019-09-30T13:42:53.000Z</time>
      </trkpt>
      <trkpt lat="47.26726" lon="-1.62682">
        <ele>35</ele>
        <time>2019-09-30T13:42:54.000Z</time>
      </trkpt>
      <trkpt lat="47.26726" lon="-1.62685">
        <ele>35</ele>
        <time>2019-09-30T13:42:55.000Z</time>
      </trkpt>
      <trkpt lat="47.26726" lon="-1.6269">
        <ele>35</ele>
        <time>2019-09-30T13:42:56.000Z</time>
      </trkpt>
      <trkpt lat="47.26726" lon="-1.62691">
        <ele>35</ele>
        <time>2019-09-30T13:42:57.000Z</time>
      </trkpt>
      <trkpt lat="47.26726" lon="-1.62691">
        <ele>35</ele>
        <time>2019-09-30T13:42:58.000Z</time>
      </trkpt>
      <trkpt lat="47.26725" lon="-1.62693">
        <ele>35</ele>
        <time>2019-09-30T13:42:59.000Z</time>
      </trkpt>
      <trkpt lat="47.26725" lon="-1.62696">
        <ele>35</ele>
        <time>2019-09-30T13:43:00.000Z</time>
      </trkpt>
      <trkpt lat="47.26725" lon="-1.62696">
        <ele>35</ele>
        <time>2019-09-30T13:43:01.000Z</time>
      </trkpt>
      <trkpt lat="47.26726" lon="-1.62697">
        <ele>35</ele>
        <time>2019-09-30T13:43:02.000Z</time>
      </trkpt>
      <trkpt lat="47.26727" lon="-1.62704">
        <ele>35</ele>
        <time>2019-09-30T13:43:03.000Z</time>
      </trkpt>
      <trkpt lat="47.26727" lon="-1.62704">
        <ele>35</ele>
        <time>2019-09-30T13:43:04.000Z</time>
      </trkpt>
      <trkpt lat="47.26729" lon="-1.62712">
        <ele>35</ele>
        <time>2019-09-30T13:43:05.000Z</time>
      </trkpt>
      <trkpt lat="47.26729" lon="-1.62715">
        <ele>35</ele>
        <time>2019-09-30T13:43:06.000Z</time>
      </trkpt>
      <trkpt lat="47.26729" lon="-1.62715">
        <ele>35</ele>
        <time>2019-09-30T13:43:07.000Z</time>
      </trkpt>
      <trkpt lat="47.2673" lon="-1.6272">
        <ele>35</ele>
        <time>2019-09-30T13:43:08.000Z</time>
      </trkpt>
      <trkpt lat="47.26729" lon="-1.62722">
        <ele>35</ele>
        <time>2019-09-30T13:43:09.000Z</time>
      </trkpt>
      <trkpt lat="47.26729" lon="-1.62722">
        <ele>35</ele>
        <time>2019-09-30T13:43:10.000Z</time>
      </trkpt>
      <trkpt lat="47.26729" lon="-1.62723">
        <ele>35</ele>
        <time>2019-09-30T13:43:11.000Z</time>
      </trkpt>
      <trkpt lat="47.26729" lon="-1.62724">
        <ele>35</ele>
        <time>2019-09-30T13:43:12.000Z</time>
      </trkpt>
      <trkpt lat="47.26729" lon="-1.62725">
        <ele>35</ele>
        <time>2019-09-30T13:43:13.000Z</time>
      </trkpt>
      <trkpt lat="47.26729" lon="-1.62726">
        <ele>35</ele>
        <time>2019-09-30T13:43:14.000Z</time>
      </trkpt>
      <trkpt lat="47.2673" lon="-1.62729">
        <ele>35</ele>
        <time>2019-09-30T13:43:15.000Z</time>
      </trkpt>
      <trkpt lat="47.2673" lon="-1.62731">
        <ele>35</ele>
        <time>2019-09-30T13:43:16.000Z</time>
      </trkpt>
      <trkpt lat="47.2673" lon="-1.62733">
        <ele>35</ele>
        <time>2019-09-30T13:43:17.000Z</time>
      </trkpt>
      <trkpt lat="47.2673" lon="-1.62734">
        <ele>35</ele>
        <time>2019-09-30T13:43:18.000Z</time>
      </trkpt>
      <trkpt lat="47.26731" lon="-1.62737">
        <ele>35</ele>
        <time>2019-09-30T13:43:19.000Z</time>
      </trkpt>
      <trkpt lat="47.26732" lon="-1.62739">
        <ele>35</ele>
        <time>2019-09-30T13:43:20.000Z</time>
      </trkpt>
      <trkpt lat="47.26733" lon="-1.62745">
        <ele>35</ele>
        <time>2019-09-30T13:43:21.000Z</time>
      </trkpt>
      <trkpt lat="47.26733" lon="-1.62745">
        <ele>35</ele>
        <time>2019-09-30T13:43:22.000Z</time>
      </trkpt>
      <trkpt lat="47.26733" lon="-1.62748">
        <ele>35</ele>
        <time>2019-09-30T13:43:23.000Z</time>
      </trkpt>
      <trkpt lat="47.26732" lon="-1.62752">
        <ele>35</ele>
        <time>2019-09-30T13:43:24.000Z</time>
      </trkpt>
      <trkpt lat="47.26732" lon="-1.62754">
        <ele>35</ele>
        <time>2019-09-30T13:43:25.000Z</time>
      </trkpt>
      <trkpt lat="47.26732" lon="-1.62756">
        <ele>35</ele>
        <time>2019-09-30T13:43:26.000Z</time>
      </trkpt>
      <trkpt lat="47.26732" lon="-1.62758">
        <ele>35</ele>
        <time>2019-09-30T13:43:27.000Z</time>
      </trkpt>
      <trkpt lat="47.26733" lon="-1.62761">
        <ele>35</ele>
        <time>2019-09-30T13:43:28.000Z</time>
      </trkpt>
      <trkpt lat="47.26734" lon="-1.62763">
        <ele>35</ele>
        <time>2019-09-30T13:43:29.000Z</time>
      </trkpt>
      <trkpt lat="47.26735" lon="-1.62766">
        <ele>35</ele>
        <time>2019-09-30T13:43:30.000Z</time>
      </trkpt>
      <trkpt lat="47.26737" lon="-1.62768">
        <ele>34</ele>
        <time>2019-09-30T13:43:31.000Z</time>
      </trkpt>
      <trkpt lat="47.26739" lon="-1.6277">
        <ele>34</ele>
        <time>2019-09-30T13:43:32.000Z</time>
      </trkpt>
      <trkpt lat="47.26741" lon="-1.62773">
        <ele>34</ele>
        <time>2019-09-30T13:43:33.000Z</time>
      </trkpt>
      <trkpt lat="47.26741" lon="-1.62777">
        <ele>34</ele>
        <time>2019-09-30T13:43:34.000Z</time>
      </trkpt>
      <trkpt lat="47.26743" lon="-1.62786">
        <ele>34</ele>
        <time>2019-09-30T13:43:35.000Z</time>
      </trkpt>
      <trkpt lat="47.26744" lon="-1.62791">
        <ele>34</ele>
        <time>2019-09-30T13:43:36.000Z</time>
      </trkpt>
      <trkpt lat="47.26744" lon="-1.62791">
        <ele>34</ele>
        <time>2019-09-30T13:43:37.000Z</time>
      </trkpt>
      <trkpt lat="47.26746" lon="-1.62798">
        <ele>34</ele>
        <time>2019-09-30T13:43:38.000Z</time>
      </trkpt>
      <trkpt lat="47.26748" lon="-1.62813">
        <ele>33</ele>
        <time>2019-09-30T13:43:39.000Z</time>
      </trkpt>
      <trkpt lat="47.26748" lon="-1.62813">
        <ele>33</ele>
        <time>2019-09-30T13:43:40.000Z</time>
      </trkpt>
      <trkpt lat="47.26748" lon="-1.62819">
        <ele>33</ele>
        <time>2019-09-30T13:43:41.000Z</time>
      </trkpt>
      <trkpt lat="47.26748" lon="-1.62824">
        <ele>32</ele>
        <time>2019-09-30T13:43:42.000Z</time>
      </trkpt>
      <trkpt lat="47.26749" lon="-1.62828">
        <ele>32</ele>
        <time>2019-09-30T13:43:43.000Z</time>
      </trkpt>
      <trkpt lat="47.26752" lon="-1.62838">
        <ele>31</ele>
        <time>2019-09-30T13:43:44.000Z</time>
      </trkpt>
      <trkpt lat="47.26752" lon="-1.62838">
        <ele>31</ele>
        <time>2019-09-30T13:43:45.000Z</time>
      </trkpt>
      <trkpt lat="47.26755" lon="-1.62849">
        <ele>31</ele>
        <time>2019-09-30T13:43:46.000Z</time>
      </trkpt>
      <trkpt lat="47.26755" lon="-1.62853">
        <ele>31</ele>
        <time>2019-09-30T13:43:47.000Z</time>
      </trkpt>
      <trkpt lat="47.26756" lon="-1.62856">
        <ele>30</ele>
        <time>2019-09-30T13:43:48.000Z</time>
      </trkpt>
      <trkpt lat="47.26755" lon="-1.62859">
        <ele>30</ele>
        <time>2019-09-30T13:43:49.000Z</time>
      </trkpt>
      <trkpt lat="47.26755" lon="-1.62862">
        <ele>30</ele>
        <time>2019-09-30T13:43:50.000Z</time>
      </trkpt>
      <trkpt lat="47.26755" lon="-1.62862">
        <ele>30</ele>
        <time>2019-09-30T13:43:51.000Z</time>
      </trkpt>
      <trkpt lat="47.26755" lon="-1.62871">
        <ele>30</ele>
        <time>2019-09-30T13:43:52.000Z</time>
      </trkpt>
      <trkpt lat="47.26756" lon="-1.62875">
        <ele>29</ele>
        <time>2019-09-30T13:43:53.000Z</time>
      </trkpt>
      <trkpt lat="47.26757" lon="-1.6288">
        <ele>29</ele>
        <time>2019-09-30T13:43:54.000Z</time>
      </trkpt>
      <trkpt lat="47.26757" lon="-1.62883">
        <ele>29</ele>
        <time>2019-09-30T13:43:55.000Z</time>
      </trkpt>
      <trkpt lat="47.26757" lon="-1.62883">
        <ele>29</ele>
        <time>2019-09-30T13:43:56.000Z</time>
      </trkpt>
      <trkpt lat="47.26757" lon="-1.62887">
        <ele>29</ele>
        <time>2019-09-30T13:43:57.000Z</time>
      </trkpt>
      <trkpt lat="47.26756" lon="-1.62893">
        <ele>29</ele>
        <time>2019-09-30T13:43:58.000Z</time>
      </trkpt>
      <trkpt lat="47.26756" lon="-1.62893">
        <ele>29</ele>
        <time>2019-09-30T13:43:59.000Z</time>
      </trkpt>
      <trkpt lat="47.26754" lon="-1.62897">
        <ele>28</ele>
        <time>2019-09-30T13:44:00.000Z</time>
      </trkpt>
      <trkpt lat="47.2675" lon="-1.62905">
        <ele>28</ele>
        <time>2019-09-30T13:44:01.000Z</time>
      </trkpt>
      <trkpt lat="47.26748" lon="-1.62909">
        <ele>27</ele>
        <time>2019-09-30T13:44:02.000Z</time>
      </trkpt>
      <trkpt lat="47.26746" lon="-1.62913">
        <ele>27</ele>
        <time>2019-09-30T13:44:03.000Z</time>
      </trkpt>
      <trkpt lat="47.26745" lon="-1.62917">
        <ele>27</ele>
        <time>2019-09-30T13:44:04.000Z</time>
      </trkpt>
      <trkpt lat="47.26745" lon="-1.62917">
        <ele>27</ele>
        <time>2019-09-30T13:44:05.000Z</time>
      </trkpt>
      <trkpt lat="47.26742" lon="-1.62925">
        <ele>27</ele>
        <time>2019-09-30T13:44:06.000Z</time>
      </trkpt>
      <trkpt lat="47.26742" lon="-1.62925">
        <ele>27</ele>
        <time>2019-09-30T13:44:07.000Z</time>
      </trkpt>
      <trkpt lat="47.26742" lon="-1.6293">
        <ele>26</ele>
        <time>2019-09-30T13:44:08.000Z</time>
      </trkpt>
      <trkpt lat="47.26741" lon="-1.62935">
        <ele>26</ele>
        <time>2019-09-30T13:44:09.000Z</time>
      </trkpt>
      <trkpt lat="47.26741" lon="-1.6294">
        <ele>26</ele>
        <time>2019-09-30T13:44:10.000Z</time>
      </trkpt>
      <trkpt lat="47.2674" lon="-1.62944">
        <ele>26</ele>
        <time>2019-09-30T13:44:11.000Z</time>
      </trkpt>
      <trkpt lat="47.2674" lon="-1.62948">
        <ele>26</ele>
        <time>2019-09-30T13:44:12.000Z</time>
      </trkpt>
      <trkpt lat="47.2674" lon="-1.62952">
        <ele>25</ele>
        <time>2019-09-30T13:44:13.000Z</time>
      </trkpt>
      <trkpt lat="47.2674" lon="-1.62957">
        <ele>25</ele>
        <time>2019-09-30T13:44:14.000Z</time>
      </trkpt>
      <trkpt lat="47.26738" lon="-1.62962">
        <ele>25</ele>
        <time>2019-09-30T13:44:15.000Z</time>
      </trkpt>
      <trkpt lat="47.26737" lon="-1.62967">
        <ele>25</ele>
        <time>2019-09-30T13:44:16.000Z</time>
      </trkpt>
      <trkpt lat="47.26735" lon="-1.62972">
        <ele>25</ele>
        <time>2019-09-30T13:44:17.000Z</time>
      </trkpt>
      <trkpt lat="47.26734" lon="-1.62977">
        <ele>25</ele>
        <time>2019-09-30T13:44:18.000Z</time>
      </trkpt>
      <trkpt lat="47.26733" lon="-1.62981">
        <ele>25</ele>
        <time>2019-09-30T13:44:19.000Z</time>
      </trkpt>
      <trkpt lat="47.26732" lon="-1.62985">
        <ele>26</ele>
        <time>2019-09-30T13:44:20.000Z</time>
      </trkpt>
      <trkpt lat="47.26731" lon="-1.62989">
        <ele>26</ele>
        <time>2019-09-30T13:44:21.000Z</time>
      </trkpt>
      <trkpt lat="47.2673" lon="-1.62992">
        <ele>26</ele>
        <time>2019-09-30T13:44:22.000Z</time>
      </trkpt>
      <trkpt lat="47.2673" lon="-1.62996">
        <ele>26</ele>
        <time>2019-09-30T13:44:23.000Z</time>
      </trkpt>
      <trkpt lat="47.26731" lon="-1.63">
        <ele>26</ele>
        <time>2019-09-30T13:44:24.000Z</time>
      </trkpt>
      <trkpt lat="47.26731" lon="-1.63004">
        <ele>26</ele>
        <time>2019-09-30T13:44:25.000Z</time>
      </trkpt>
      <trkpt lat="47.26731" lon="-1.63008">
        <ele>26</ele>
        <time>2019-09-30T13:44:26.000Z</time>
      </trkpt>
      <trkpt lat="47.26731" lon="-1.63011">
        <ele>26</ele>
        <time>2019-09-30T13:44:27.000Z</time>
      </trkpt>
      <trkpt lat="47.26731" lon="-1.63013">
        <ele>27</ele>
        <time>2019-09-30T13:44:28.000Z</time>
      </trkpt>
      <trkpt lat="47.26732" lon="-1.63016">
        <ele>27</ele>
        <time>2019-09-30T13:44:29.000Z</time>
      </trkpt>
      <trkpt lat="47.26734" lon="-1.6302">
        <ele>27</ele>
        <time>2019-09-30T13:44:30.000Z</time>
      </trkpt>
      <trkpt lat="47.26735" lon="-1.63025">
        <ele>27</ele>
        <time>2019-09-30T13:44:31.000Z</time>
      </trkpt>
      <trkpt lat="47.26737" lon="-1.6303">
        <ele>27</ele>
        <time>2019-09-30T13:44:32.000Z</time>
      </trkpt>
      <trkpt lat="47.26745" lon="-1.6304">
        <ele>27</ele>
        <time>2019-09-30T13:44:33.000Z</time>
      </trkpt>
      <trkpt lat="47.26745" lon="-1.6304">
        <ele>27</ele>
        <time>2019-09-30T13:44:34.000Z</time>
      </trkpt>
      <trkpt lat="47.26749" lon="-1.63044">
        <ele>27</ele>
        <time>2019-09-30T13:44:35.000Z</time>
      </trkpt>
      <trkpt lat="47.26757" lon="-1.6305">
        <ele>27</ele>
        <time>2019-09-30T13:44:36.000Z</time>
      </trkpt>
      <trkpt lat="47.2676" lon="-1.63053">
        <ele>27</ele>
        <time>2019-09-30T13:44:37.000Z</time>
      </trkpt>
      <trkpt lat="47.2676" lon="-1.63053">
        <ele>27</ele>
        <time>2019-09-30T13:44:38.000Z</time>
      </trkpt>
      <trkpt lat="47.26765" lon="-1.63058">
        <ele>27</ele>
        <time>2019-09-30T13:44:39.000Z</time>
      </trkpt>
      <trkpt lat="47.26768" lon="-1.6306">
        <ele>27</ele>
        <time>2019-09-30T13:44:40.000Z</time>
      </trkpt>
      <trkpt lat="47.26772" lon="-1.63061">
        <ele>27</ele>
        <time>2019-09-30T13:44:41.000Z</time>
      </trkpt>
      <trkpt lat="47.26772" lon="-1.63061">
        <ele>27</ele>
        <time>2019-09-30T13:44:42.000Z</time>
      </trkpt>
      <trkpt lat="47.26776" lon="-1.63061">
        <ele>27</ele>
        <time>2019-09-30T13:44:43.000Z</time>
      </trkpt>
      <trkpt lat="47.26778" lon="-1.63062">
        <ele>26</ele>
        <time>2019-09-30T13:44:44.000Z</time>
      </trkpt>
      <trkpt lat="47.2678" lon="-1.63061">
        <ele>26</ele>
        <time>2019-09-30T13:44:45.000Z</time>
      </trkpt>
      <trkpt lat="47.26782" lon="-1.6306">
        <ele>26</ele>
        <time>2019-09-30T13:44:46.000Z</time>
      </trkpt>
      <trkpt lat="47.26784" lon="-1.63058">
        <ele>26</ele>
        <time>2019-09-30T13:44:47.000Z</time>
      </trkpt>
      <trkpt lat="47.26787" lon="-1.63057">
        <ele>25</ele>
        <time>2019-09-30T13:44:48.000Z</time>
      </trkpt>
      <trkpt lat="47.2679" lon="-1.63057">
        <ele>25</ele>
        <time>2019-09-30T13:44:49.000Z</time>
      </trkpt>
      <trkpt lat="47.2679" lon="-1.63057">
        <ele>25</ele>
        <time>2019-09-30T13:44:50.000Z</time>
      </trkpt>
      <trkpt lat="47.26793" lon="-1.63058">
        <ele>25</ele>
        <time>2019-09-30T13:44:51.000Z</time>
      </trkpt>
      <trkpt lat="47.26799" lon="-1.63059">
        <ele>24</ele>
        <time>2019-09-30T13:44:52.000Z</time>
      </trkpt>
      <trkpt lat="47.26799" lon="-1.63059">
        <ele>24</ele>
        <time>2019-09-30T13:44:53.000Z</time>
      </trkpt>
      <trkpt lat="47.26802" lon="-1.6306">
        <ele>24</ele>
        <time>2019-09-30T13:44:54.000Z</time>
      </trkpt>
      <trkpt lat="47.26807" lon="-1.63061">
        <ele>23</ele>
        <time>2019-09-30T13:44:55.000Z</time>
      </trkpt>
      <trkpt lat="47.26807" lon="-1.63061">
        <ele>23</ele>
        <time>2019-09-30T13:44:56.000Z</time>
      </trkpt>
      <trkpt lat="47.26809" lon="-1.63064">
        <ele>23</ele>
        <time>2019-09-30T13:44:57.000Z</time>
      </trkpt>
      <trkpt lat="47.2681" lon="-1.63067">
        <ele>23</ele>
        <time>2019-09-30T13:44:58.000Z</time>
      </trkpt>
      <trkpt lat="47.2681" lon="-1.63073">
        <ele>22</ele>
        <time>2019-09-30T13:44:59.000Z</time>
      </trkpt>
      <trkpt lat="47.2681" lon="-1.63076">
        <ele>22</ele>
        <time>2019-09-30T13:45:00.000Z</time>
      </trkpt>
      <trkpt lat="47.2681" lon="-1.63076">
        <ele>22</ele>
        <time>2019-09-30T13:45:01.000Z</time>
      </trkpt>
      <trkpt lat="47.26812" lon="-1.63077">
        <ele>22</ele>
        <time>2019-09-30T13:45:02.000Z</time>
      </trkpt>
      <trkpt lat="47.26816" lon="-1.63079">
        <ele>22</ele>
        <time>2019-09-30T13:45:03.000Z</time>
      </trkpt>
      <trkpt lat="47.26818" lon="-1.6308">
        <ele>22</ele>
        <time>2019-09-30T13:45:04.000Z</time>
      </trkpt>
      <trkpt lat="47.26818" lon="-1.6308">
        <ele>22</ele>
        <time>2019-09-30T13:45:05.000Z</time>
      </trkpt>
      <trkpt lat="47.2682" lon="-1.63081">
        <ele>22</ele>
        <time>2019-09-30T13:45:06.000Z</time>
      </trkpt>
      <trkpt lat="47.26821" lon="-1.63083">
        <ele>22</ele>
        <time>2019-09-30T13:45:07.000Z</time>
      </trkpt>
      <trkpt lat="47.26822" lon="-1.63085">
        <ele>22</ele>
        <time>2019-09-30T13:45:08.000Z</time>
      </trkpt>
      <trkpt lat="47.26823" lon="-1.63089">
        <ele>22</ele>
        <time>2019-09-30T13:45:09.000Z</time>
      </trkpt>
      <trkpt lat="47.26822" lon="-1.63094">
        <ele>23</ele>
        <time>2019-09-30T13:45:10.000Z</time>
      </trkpt>
      <trkpt lat="47.26822" lon="-1.63094">
        <ele>23</ele>
        <time>2019-09-30T13:45:11.000Z</time>
      </trkpt>
      <trkpt lat="47.26821" lon="-1.63097">
        <ele>23</ele>
        <time>2019-09-30T13:45:12.000Z</time>
      </trkpt>
      <trkpt lat="47.26819" lon="-1.63101">
        <ele>24</ele>
        <time>2019-09-30T13:45:13.000Z</time>
      </trkpt>
      <trkpt lat="47.26819" lon="-1.63101">
        <ele>24</ele>
        <time>2019-09-30T13:45:14.000Z</time>
      </trkpt>
      <trkpt lat="47.26818" lon="-1.63103">
        <ele>24</ele>
        <time>2019-09-30T13:45:15.000Z</time>
      </trkpt>
      <trkpt lat="47.26817" lon="-1.63106">
        <ele>24</ele>
        <time>2019-09-30T13:45:16.000Z</time>
      </trkpt>
      <trkpt lat="47.26817" lon="-1.63109">
        <ele>24</ele>
        <time>2019-09-30T13:45:17.000Z</time>
      </trkpt>
      <trkpt lat="47.26817" lon="-1.63113">
        <ele>25</ele>
        <time>2019-09-30T13:45:18.000Z</time>
      </trkpt>
      <trkpt lat="47.26817" lon="-1.63116">
        <ele>25</ele>
        <time>2019-09-30T13:45:19.000Z</time>
      </trkpt>
      <trkpt lat="47.26817" lon="-1.63116">
        <ele>25</ele>
        <time>2019-09-30T13:45:20.000Z</time>
      </trkpt>
      <trkpt lat="47.26816" lon="-1.63118">
        <ele>25</ele>
        <time>2019-09-30T13:45:21.000Z</time>
      </trkpt>
      <trkpt lat="47.26816" lon="-1.63121">
        <ele>25</ele>
        <time>2019-09-30T13:45:22.000Z</time>
      </trkpt>
      <trkpt lat="47.26815" lon="-1.63126">
        <ele>25</ele>
        <time>2019-09-30T13:45:23.000Z</time>
      </trkpt>
      <trkpt lat="47.26815" lon="-1.63126">
        <ele>25</ele>
        <time>2019-09-30T13:45:24.000Z</time>
      </trkpt>
      <trkpt lat="47.26812" lon="-1.63126">
        <ele>25</ele>
        <time>2019-09-30T13:45:25.000Z</time>
      </trkpt>
      <trkpt lat="47.26811" lon="-1.63125">
        <ele>25</ele>
        <time>2019-09-30T13:45:26.000Z</time>
      </trkpt>
      <trkpt lat="47.26811" lon="-1.63125">
        <ele>25</ele>
        <time>2019-09-30T13:45:27.000Z</time>
      </trkpt>
      <trkpt lat="47.2681" lon="-1.63124">
        <ele>25</ele>
        <time>2019-09-30T13:45:28.000Z</time>
      </trkpt>
      <trkpt lat="47.26809" lon="-1.63122">
        <ele>25</ele>
        <time>2019-09-30T13:45:29.000Z</time>
      </trkpt>
      <trkpt lat="47.26809" lon="-1.63122">
        <ele>25</ele>
        <time>2019-09-30T13:45:30.000Z</time>
      </trkpt>
      <trkpt lat="47.26808" lon="-1.63123">
        <ele>25</ele>
        <time>2019-09-30T13:45:31.000Z</time>
      </trkpt>
      <trkpt lat="47.26805" lon="-1.63124">
        <ele>26</ele>
        <time>2019-09-30T13:45:32.000Z</time>
      </trkpt>
      <trkpt lat="47.26803" lon="-1.63124">
        <ele>26</ele>
        <time>2019-09-30T13:45:33.000Z</time>
      </trkpt>
      <trkpt lat="47.26803" lon="-1.63124">
        <ele>26</ele>
        <time>2019-09-30T13:45:34.000Z</time>
      </trkpt>
      <trkpt lat="47.26801" lon="-1.63122">
        <ele>26</ele>
        <time>2019-09-30T13:45:35.000Z</time>
      </trkpt>
      <trkpt lat="47.26799" lon="-1.6312">
        <ele>26</ele>
        <time>2019-09-30T13:45:36.000Z</time>
      </trkpt>
      <trkpt lat="47.26799" lon="-1.6312">
        <ele>26</ele>
        <time>2019-09-30T13:45:37.000Z</time>
      </trkpt>
      <trkpt lat="47.26798" lon="-1.63119">
        <ele>26</ele>
        <time>2019-09-30T13:45:38.000Z</time>
      </trkpt>
      <trkpt lat="47.26797" lon="-1.63118">
        <ele>26</ele>
        <time>2019-09-30T13:45:39.000Z</time>
      </trkpt>
      <trkpt lat="47.26795" lon="-1.63117">
        <ele>27</ele>
        <time>2019-09-30T13:45:40.000Z</time>
      </trkpt>
      <trkpt lat="47.26792" lon="-1.63115">
        <ele>27</ele>
        <time>2019-09-30T13:45:41.000Z</time>
      </trkpt>
      <trkpt lat="47.26791" lon="-1.63114">
        <ele>27</ele>
        <time>2019-09-30T13:45:42.000Z</time>
      </trkpt>
      <trkpt lat="47.26791" lon="-1.63114">
        <ele>27</ele>
        <time>2019-09-30T13:45:43.000Z</time>
      </trkpt>
      <trkpt lat="47.26788" lon="-1.63114">
        <ele>28</ele>
        <time>2019-09-30T13:45:44.000Z</time>
      </trkpt>
      <trkpt lat="47.26788" lon="-1.63114">
        <ele>28</ele>
        <time>2019-09-30T13:45:45.000Z</time>
      </trkpt>
      <trkpt lat="47.26784" lon="-1.63114">
        <ele>28</ele>
        <time>2019-09-30T13:45:46.000Z</time>
      </trkpt>
      <trkpt lat="47.26784" lon="-1.63114">
        <ele>28</ele>
        <time>2019-09-30T13:45:47.000Z</time>
      </trkpt>
      <trkpt lat="47.26782" lon="-1.63113">
        <ele>29</ele>
        <time>2019-09-30T13:45:48.000Z</time>
      </trkpt>
      <trkpt lat="47.26782" lon="-1.63113">
        <ele>29</ele>
        <time>2019-09-30T13:45:49.000Z</time>
      </trkpt>
      <trkpt lat="47.2678" lon="-1.63113">
        <ele>29</ele>
        <time>2019-09-30T13:45:50.000Z</time>
      </trkpt>
      <trkpt lat="47.26779" lon="-1.63113">
        <ele>30</ele>
        <time>2019-09-30T13:45:51.000Z</time>
      </trkpt>
      <trkpt lat="47.26777" lon="-1.63112">
        <ele>30</ele>
        <time>2019-09-30T13:45:52.000Z</time>
      </trkpt>
      <trkpt lat="47.26776" lon="-1.63111">
        <ele>30</ele>
        <time>2019-09-30T13:45:53.000Z</time>
      </trkpt>
      <trkpt lat="47.26772" lon="-1.6311">
        <ele>30</ele>
        <time>2019-09-30T13:45:54.000Z</time>
      </trkpt>
      <trkpt lat="47.26771" lon="-1.63109">
        <ele>31</ele>
        <time>2019-09-30T13:45:55.000Z</time>
      </trkpt>
      <trkpt lat="47.26771" lon="-1.63109">
        <ele>31</ele>
        <time>2019-09-30T13:45:56.000Z</time>
      </trkpt>
      <trkpt lat="47.26766" lon="-1.63107">
        <ele>31</ele>
        <time>2019-09-30T13:45:57.000Z</time>
      </trkpt>
      <trkpt lat="47.26766" lon="-1.63107">
        <ele>31</ele>
        <time>2019-09-30T13:45:58.000Z</time>
      </trkpt>
      <trkpt lat="47.26762" lon="-1.63106">
        <ele>32</ele>
        <time>2019-09-30T13:45:59.000Z</time>
      </trkpt>
      <trkpt lat="47.26762" lon="-1.63106">
        <ele>32</ele>
        <time>2019-09-30T13:46:00.000Z</time>
      </trkpt>
      <trkpt lat="47.2676" lon="-1.63104">
        <ele>32</ele>
        <time>2019-09-30T13:46:01.000Z</time>
      </trkpt>
      <trkpt lat="47.26758" lon="-1.63102">
        <ele>32</ele>
        <time>2019-09-30T13:46:02.000Z</time>
      </trkpt>
      <trkpt lat="47.26754" lon="-1.63098">
        <ele>33</ele>
        <time>2019-09-30T13:46:03.000Z</time>
      </trkpt>
      <trkpt lat="47.26754" lon="-1.63098">
        <ele>33</ele>
        <time>2019-09-30T13:46:04.000Z</time>
      </trkpt>
      <trkpt lat="47.26752" lon="-1.63096">
        <ele>34</ele>
        <time>2019-09-30T13:46:05.000Z</time>
      </trkpt>
      <trkpt lat="47.2675" lon="-1.63094">
        <ele>34</ele>
        <time>2019-09-30T13:46:06.000Z</time>
      </trkpt>
      <trkpt lat="47.26749" lon="-1.63091">
        <ele>34</ele>
        <time>2019-09-30T13:46:07.000Z</time>
      </trkpt>
      <trkpt lat="47.26748" lon="-1.63089">
        <ele>35</ele>
        <time>2019-09-30T13:46:08.000Z</time>
      </trkpt>
      <trkpt lat="47.26746" lon="-1.63086">
        <ele>35</ele>
        <time>2019-09-30T13:46:09.000Z</time>
      </trkpt>
      <trkpt lat="47.26744" lon="-1.63084">
        <ele>35</ele>
        <time>2019-09-30T13:46:10.000Z</time>
      </trkpt>
      <trkpt lat="47.26742" lon="-1.6308">
        <ele>36</ele>
        <time>2019-09-30T13:46:11.000Z</time>
      </trkpt>
      <trkpt lat="47.26741" lon="-1.63077">
        <ele>36</ele>
        <time>2019-09-30T13:46:12.000Z</time>
      </trkpt>
      <trkpt lat="47.26738" lon="-1.63071">
        <ele>36</ele>
        <time>2019-09-30T13:46:13.000Z</time>
      </trkpt>
      <trkpt lat="47.26738" lon="-1.63071">
        <ele>36</ele>
        <time>2019-09-30T13:46:14.000Z</time>
      </trkpt>
      <trkpt lat="47.26737" lon="-1.63068">
        <ele>37</ele>
        <time>2019-09-30T13:46:15.000Z</time>
      </trkpt>
      <trkpt lat="47.26735" lon="-1.63064">
        <ele>37</ele>
        <time>2019-09-30T13:46:16.000Z</time>
      </trkpt>
      <trkpt lat="47.26732" lon="-1.63057">
        <ele>37</ele>
        <time>2019-09-30T13:46:17.000Z</time>
      </trkpt>
      <trkpt lat="47.26732" lon="-1.63057">
        <ele>37</ele>
        <time>2019-09-30T13:46:18.000Z</time>
      </trkpt>
      <trkpt lat="47.2673" lon="-1.63053">
        <ele>38</ele>
        <time>2019-09-30T13:46:19.000Z</time>
      </trkpt>
      <trkpt lat="47.26729" lon="-1.63049">
        <ele>38</ele>
        <time>2019-09-30T13:46:20.000Z</time>
      </trkpt>
      <trkpt lat="47.26725" lon="-1.63042">
        <ele>38</ele>
        <time>2019-09-30T13:46:21.000Z</time>
      </trkpt>
      <trkpt lat="47.26723" lon="-1.63041">
        <ele>38</ele>
        <time>2019-09-30T13:46:22.000Z</time>
      </trkpt>
      <trkpt lat="47.26723" lon="-1.63041">
        <ele>38</ele>
        <time>2019-09-30T13:46:23.000Z</time>
      </trkpt>
      <trkpt lat="47.26721" lon="-1.63041">
        <ele>38</ele>
        <time>2019-09-30T13:46:24.000Z</time>
      </trkpt>
      <trkpt lat="47.26718" lon="-1.63042">
        <ele>38</ele>
        <time>2019-09-30T13:46:25.000Z</time>
      </trkpt>
      <trkpt lat="47.26718" lon="-1.63042">
        <ele>38</ele>
        <time>2019-09-30T13:46:26.000Z</time>
      </trkpt>
      <trkpt lat="47.26718" lon="-1.63044">
        <ele>39</ele>
        <time>2019-09-30T13:46:27.000Z</time>
      </trkpt>
      <trkpt lat="47.26718" lon="-1.63046">
        <ele>39</ele>
        <time>2019-09-30T13:46:28.000Z</time>
      </trkpt>
      <trkpt lat="47.26717" lon="-1.63051">
        <ele>39</ele>
        <time>2019-09-30T13:46:29.000Z</time>
      </trkpt>
      <trkpt lat="47.26717" lon="-1.63051">
        <ele>39</ele>
        <time>2019-09-30T13:46:30.000Z</time>
      </trkpt>
      <trkpt lat="47.26718" lon="-1.63054">
        <ele>39</ele>
        <time>2019-09-30T13:46:31.000Z</time>
      </trkpt>
      <trkpt lat="47.26717" lon="-1.63057">
        <ele>40</ele>
        <time>2019-09-30T13:46:32.000Z</time>
      </trkpt>
      <trkpt lat="47.26716" lon="-1.6306">
        <ele>40</ele>
        <time>2019-09-30T13:46:33.000Z</time>
      </trkpt>
      <trkpt lat="47.26714" lon="-1.63062">
        <ele>40</ele>
        <time>2019-09-30T13:46:34.000Z</time>
      </trkpt>
      <trkpt lat="47.26713" lon="-1.63064">
        <ele>40</ele>
        <time>2019-09-30T13:46:35.000Z</time>
      </trkpt>
      <trkpt lat="47.26712" lon="-1.63066">
        <ele>40</ele>
        <time>2019-09-30T13:46:36.000Z</time>
      </trkpt>
      <trkpt lat="47.26711" lon="-1.63069">
        <ele>40</ele>
        <time>2019-09-30T13:46:37.000Z</time>
      </trkpt>
      <trkpt lat="47.26712" lon="-1.63071">
        <ele>40</ele>
        <time>2019-09-30T13:46:38.000Z</time>
      </trkpt>
      <trkpt lat="47.26713" lon="-1.63075">
        <ele>40</ele>
        <time>2019-09-30T13:46:39.000Z</time>
      </trkpt>
      <trkpt lat="47.26714" lon="-1.63079">
        <ele>39</ele>
        <time>2019-09-30T13:46:40.000Z</time>
      </trkpt>
      <trkpt lat="47.26716" lon="-1.63084">
        <ele>39</ele>
        <time>2019-09-30T13:46:41.000Z</time>
      </trkpt>
      <trkpt lat="47.26718" lon="-1.63088">
        <ele>39</ele>
        <time>2019-09-30T13:46:42.000Z</time>
      </trkpt>
      <trkpt lat="47.26721" lon="-1.63091">
        <ele>39</ele>
        <time>2019-09-30T13:46:43.000Z</time>
      </trkpt>
      <trkpt lat="47.26724" lon="-1.63095">
        <ele>39</ele>
        <time>2019-09-30T13:46:44.000Z</time>
      </trkpt>
      <trkpt lat="47.26726" lon="-1.63099">
        <ele>39</ele>
        <time>2019-09-30T13:46:45.000Z</time>
      </trkpt>
      <trkpt lat="47.26729" lon="-1.63103">
        <ele>39</ele>
        <time>2019-09-30T13:46:46.000Z</time>
      </trkpt>
      <trkpt lat="47.26731" lon="-1.63106">
        <ele>39</ele>
        <time>2019-09-30T13:46:47.000Z</time>
      </trkpt>
      <trkpt lat="47.26734" lon="-1.6311">
        <ele>39</ele>
        <time>2019-09-30T13:46:48.000Z</time>
      </trkpt>
      <trkpt lat="47.26738" lon="-1.63113">
        <ele>39</ele>
        <time>2019-09-30T13:46:49.000Z</time>
      </trkpt>
      <trkpt lat="47.2674" lon="-1.63117">
        <ele>38</ele>
        <time>2019-09-30T13:46:50.000Z</time>
      </trkpt>
      <trkpt lat="47.26743" lon="-1.6312">
        <ele>38</ele>
        <time>2019-09-30T13:46:51.000Z</time>
      </trkpt>
      <trkpt lat="47.26746" lon="-1.63123">
        <ele>38</ele>
        <time>2019-09-30T13:46:52.000Z</time>
      </trkpt>
      <trkpt lat="47.26748" lon="-1.63126">
        <ele>38</ele>
        <time>2019-09-30T13:46:53.000Z</time>
      </trkpt>
      <trkpt lat="47.26751" lon="-1.63128">
        <ele>38</ele>
        <time>2019-09-30T13:46:54.000Z</time>
      </trkpt>
      <trkpt lat="47.26754" lon="-1.6313">
        <ele>38</ele>
        <time>2019-09-30T13:46:55.000Z</time>
      </trkpt>
      <trkpt lat="47.26757" lon="-1.63132">
        <ele>37</ele>
        <time>2019-09-30T13:46:56.000Z</time>
      </trkpt>
      <trkpt lat="47.26761" lon="-1.63134">
        <ele>37</ele>
        <time>2019-09-30T13:46:57.000Z</time>
      </trkpt>
      <trkpt lat="47.26764" lon="-1.63136">
        <ele>37</ele>
        <time>2019-09-30T13:46:58.000Z</time>
      </trkpt>
      <trkpt lat="47.26767" lon="-1.63137">
        <ele>37</ele>
        <time>2019-09-30T13:46:59.000Z</time>
      </trkpt>
      <trkpt lat="47.26769" lon="-1.63139">
        <ele>37</ele>
        <time>2019-09-30T13:47:00.000Z</time>
      </trkpt>
      <trkpt lat="47.26772" lon="-1.63139">
        <ele>36</ele>
        <time>2019-09-30T13:47:01.000Z</time>
      </trkpt>
      <trkpt lat="47.26775" lon="-1.63141">
        <ele>36</ele>
        <time>2019-09-30T13:47:02.000Z</time>
      </trkpt>
      <trkpt lat="47.26779" lon="-1.63142">
        <ele>36</ele>
        <time>2019-09-30T13:47:03.000Z</time>
      </trkpt>
      <trkpt lat="47.26782" lon="-1.63142">
        <ele>36</ele>
        <time>2019-09-30T13:47:04.000Z</time>
      </trkpt>
      <trkpt lat="47.26784" lon="-1.63143">
        <ele>36</ele>
        <time>2019-09-30T13:47:05.000Z</time>
      </trkpt>
      <trkpt lat="47.26787" lon="-1.63146">
        <ele>35</ele>
        <time>2019-09-30T13:47:06.000Z</time>
      </trkpt>
      <trkpt lat="47.2679" lon="-1.63148">
        <ele>35</ele>
        <time>2019-09-30T13:47:07.000Z</time>
      </trkpt>
      <trkpt lat="47.26793" lon="-1.6315">
        <ele>35</ele>
        <time>2019-09-30T13:47:08.000Z</time>
      </trkpt>
      <trkpt lat="47.26796" lon="-1.6315">
        <ele>35</ele>
        <time>2019-09-30T13:47:09.000Z</time>
      </trkpt>
      <trkpt lat="47.26799" lon="-1.6315">
        <ele>35</ele>
        <time>2019-09-30T13:47:10.000Z</time>
      </trkpt>
      <trkpt lat="47.268" lon="-1.63151">
        <ele>34</ele>
        <time>2019-09-30T13:47:11.000Z</time>
      </trkpt>
      <trkpt lat="47.26802" lon="-1.63152">
        <ele>34</ele>
        <time>2019-09-30T13:47:12.000Z</time>
      </trkpt>
      <trkpt lat="47.26804" lon="-1.63151">
        <ele>34</ele>
        <time>2019-09-30T13:47:13.000Z</time>
      </trkpt>
      <trkpt lat="47.26806" lon="-1.63151">
        <ele>34</ele>
        <time>2019-09-30T13:47:14.000Z</time>
      </trkpt>
      <trkpt lat="47.26808" lon="-1.6315">
        <ele>33</ele>
        <time>2019-09-30T13:47:15.000Z</time>
      </trkpt>
      <trkpt lat="47.26811" lon="-1.63152">
        <ele>33</ele>
        <time>2019-09-30T13:47:16.000Z</time>
      </trkpt>
      <trkpt lat="47.26814" lon="-1.63155">
        <ele>33</ele>
        <time>2019-09-30T13:47:17.000Z</time>
      </trkpt>
      <trkpt lat="47.26818" lon="-1.63157">
        <ele>32</ele>
        <time>2019-09-30T13:47:18.000Z</time>
      </trkpt>
      <trkpt lat="47.26822" lon="-1.6316">
        <ele>32</ele>
        <time>2019-09-30T13:47:19.000Z</time>
      </trkpt>
      <trkpt lat="47.26827" lon="-1.63163">
        <ele>32</ele>
        <time>2019-09-30T13:47:20.000Z</time>
      </trkpt>
      <trkpt lat="47.26831" lon="-1.63166">
        <ele>32</ele>
        <time>2019-09-30T13:47:21.000Z</time>
      </trkpt>
      <trkpt lat="47.26834" lon="-1.63169">
        <ele>32</ele>
        <time>2019-09-30T13:47:22.000Z</time>
      </trkpt>
      <trkpt lat="47.26836" lon="-1.63172">
        <ele>31</ele>
        <time>2019-09-30T13:47:23.000Z</time>
      </trkpt>
      <trkpt lat="47.26839" lon="-1.63175">
        <ele>31</ele>
        <time>2019-09-30T13:47:24.000Z</time>
      </trkpt>
      <trkpt lat="47.26842" lon="-1.63178">
        <ele>31</ele>
        <time>2019-09-30T13:47:25.000Z</time>
      </trkpt>
      <trkpt lat="47.26845" lon="-1.6318">
        <ele>30</ele>
        <time>2019-09-30T13:47:26.000Z</time>
      </trkpt>
      <trkpt lat="47.26848" lon="-1.63183">
        <ele>30</ele>
        <time>2019-09-30T13:47:27.000Z</time>
      </trkpt>
      <trkpt lat="47.26852" lon="-1.63184">
        <ele>30</ele>
        <time>2019-09-30T13:47:28.000Z</time>
      </trkpt>
      <trkpt lat="47.26856" lon="-1.63186">
        <ele>30</ele>
        <time>2019-09-30T13:47:29.000Z</time>
      </trkpt>
      <trkpt lat="47.26859" lon="-1.63188">
        <ele>30</ele>
        <time>2019-09-30T13:47:30.000Z</time>
      </trkpt>
      <trkpt lat="47.26861" lon="-1.63189">
        <ele>29</ele>
        <time>2019-09-30T13:47:31.000Z</time>
      </trkpt>
      <trkpt lat="47.26863" lon="-1.63191">
        <ele>29</ele>
        <time>2019-09-30T13:47:32.000Z</time>
      </trkpt>
      <trkpt lat="47.26864" lon="-1.63192">
        <ele>29</ele>
        <time>2019-09-30T13:47:33.000Z</time>
      </trkpt>
      <trkpt lat="47.26866" lon="-1.63195">
        <ele>29</ele>
        <time>2019-09-30T13:47:34.000Z</time>
      </trkpt>
      <trkpt lat="47.26867" lon="-1.63198">
        <ele>28</ele>
        <time>2019-09-30T13:47:35.000Z</time>
      </trkpt>
      <trkpt lat="47.2687" lon="-1.63202">
        <ele>28</ele>
        <time>2019-09-30T13:47:36.000Z</time>
      </trkpt>
      <trkpt lat="47.26872" lon="-1.63204">
        <ele>28</ele>
        <time>2019-09-30T13:47:37.000Z</time>
      </trkpt>
      <trkpt lat="47.26874" lon="-1.63204">
        <ele>28</ele>
        <time>2019-09-30T13:47:38.000Z</time>
      </trkpt>
      <trkpt lat="47.26877" lon="-1.63206">
        <ele>28</ele>
        <time>2019-09-30T13:47:39.000Z</time>
      </trkpt>
      <trkpt lat="47.26879" lon="-1.63208">
        <ele>27</ele>
        <time>2019-09-30T13:47:40.000Z</time>
      </trkpt>
      <trkpt lat="47.26884" lon="-1.63213">
        <ele>27</ele>
        <time>2019-09-30T13:47:41.000Z</time>
      </trkpt>
      <trkpt lat="47.26884" lon="-1.63213">
        <ele>27</ele>
        <time>2019-09-30T13:47:42.000Z</time>
      </trkpt>
      <trkpt lat="47.26885" lon="-1.63215">
        <ele>27</ele>
        <time>2019-09-30T13:47:43.000Z</time>
      </trkpt>
      <trkpt lat="47.26887" lon="-1.63217">
        <ele>27</ele>
        <time>2019-09-30T13:47:44.000Z</time>
      </trkpt>
      <trkpt lat="47.26887" lon="-1.6322">
        <ele>26</ele>
        <time>2019-09-30T13:47:45.000Z</time>
      </trkpt>
      <trkpt lat="47.26886" lon="-1.63221">
        <ele>26</ele>
        <time>2019-09-30T13:47:46.000Z</time>
      </trkpt>
      <trkpt lat="47.26884" lon="-1.6322">
        <ele>26</ele>
        <time>2019-09-30T13:47:47.000Z</time>
      </trkpt>
      <trkpt lat="47.26883" lon="-1.63219">
        <ele>25</ele>
        <time>2019-09-30T13:47:48.000Z</time>
      </trkpt>
      <trkpt lat="47.26881" lon="-1.63217">
        <ele>25</ele>
        <time>2019-09-30T13:47:49.000Z</time>
      </trkpt>
      <trkpt lat="47.2688" lon="-1.63216">
        <ele>25</ele>
        <time>2019-09-30T13:47:50.000Z</time>
      </trkpt>
      <trkpt lat="47.26878" lon="-1.63214">
        <ele>25</ele>
        <time>2019-09-30T13:47:51.000Z</time>
      </trkpt>
      <trkpt lat="47.26877" lon="-1.63212">
        <ele>24</ele>
        <time>2019-09-30T13:47:52.000Z</time>
      </trkpt>
      <trkpt lat="47.26875" lon="-1.63213">
        <ele>24</ele>
        <time>2019-09-30T13:47:53.000Z</time>
      </trkpt>
      <trkpt lat="47.26874" lon="-1.63214">
        <ele>24</ele>
        <time>2019-09-30T13:47:54.000Z</time>
      </trkpt>
      <trkpt lat="47.26872" lon="-1.63215">
        <ele>23</ele>
        <time>2019-09-30T13:47:55.000Z</time>
      </trkpt>
      <trkpt lat="47.26871" lon="-1.63216">
        <ele>23</ele>
        <time>2019-09-30T13:47:56.000Z</time>
      </trkpt>
      <trkpt lat="47.26869" lon="-1.63217">
        <ele>23</ele>
        <time>2019-09-30T13:47:57.000Z</time>
      </trkpt>
      <trkpt lat="47.26868" lon="-1.63218">
        <ele>23</ele>
        <time>2019-09-30T13:47:58.000Z</time>
      </trkpt>
      <trkpt lat="47.26866" lon="-1.63219">
        <ele>23</ele>
        <time>2019-09-30T13:47:59.000Z</time>
      </trkpt>
      <trkpt lat="47.26864" lon="-1.63221">
        <ele>23</ele>
        <time>2019-09-30T13:48:00.000Z</time>
      </trkpt>
      <trkpt lat="47.26862" lon="-1.63225">
        <ele>23</ele>
        <time>2019-09-30T13:48:01.000Z</time>
      </trkpt>
      <trkpt lat="47.2686" lon="-1.63232">
        <ele>23</ele>
        <time>2019-09-30T13:48:02.000Z</time>
      </trkpt>
      <trkpt lat="47.2686" lon="-1.63232">
        <ele>23</ele>
        <time>2019-09-30T13:48:03.000Z</time>
      </trkpt>
      <trkpt lat="47.26859" lon="-1.63237">
        <ele>23</ele>
        <time>2019-09-30T13:48:04.000Z</time>
      </trkpt>
      <trkpt lat="47.26859" lon="-1.63237">
        <ele>23</ele>
        <time>2019-09-30T13:48:05.000Z</time>
      </trkpt>
      <trkpt lat="47.26857" lon="-1.63241">
        <ele>22</ele>
        <time>2019-09-30T13:48:06.000Z</time>
      </trkpt>
      <trkpt lat="47.26855" lon="-1.63246">
        <ele>22</ele>
        <time>2019-09-30T13:48:07.000Z</time>
      </trkpt>
      <trkpt lat="47.26855" lon="-1.6325">
        <ele>22</ele>
        <time>2019-09-30T13:48:08.000Z</time>
      </trkpt>
      <trkpt lat="47.26854" lon="-1.63254">
        <ele>22</ele>
        <time>2019-09-30T13:48:09.000Z</time>
      </trkpt>
      <trkpt lat="47.26853" lon="-1.63257">
        <ele>22</ele>
        <time>2019-09-30T13:48:10.000Z</time>
      </trkpt>
      <trkpt lat="47.26852" lon="-1.63261">
        <ele>22</ele>
        <time>2019-09-30T13:48:11.000Z</time>
      </trkpt>
      <trkpt lat="47.26851" lon="-1.63265">
        <ele>22</ele>
        <time>2019-09-30T13:48:12.000Z</time>
      </trkpt>
      <trkpt lat="47.2685" lon="-1.63268">
        <ele>21</ele>
        <time>2019-09-30T13:48:13.000Z</time>
      </trkpt>
      <trkpt lat="47.26849" lon="-1.63272">
        <ele>21</ele>
        <time>2019-09-30T13:48:14.000Z</time>
      </trkpt>
      <trkpt lat="47.26849" lon="-1.63279">
        <ele>21</ele>
        <time>2019-09-30T13:48:15.000Z</time>
      </trkpt>
      <trkpt lat="47.26849" lon="-1.63279">
        <ele>21</ele>
        <time>2019-09-30T13:48:16.000Z</time>
      </trkpt>
      <trkpt lat="47.2685" lon="-1.63282">
        <ele>21</ele>
        <time>2019-09-30T13:48:17.000Z</time>
      </trkpt>
      <trkpt lat="47.26851" lon="-1.63285">
        <ele>21</ele>
        <time>2019-09-30T13:48:18.000Z</time>
      </trkpt>
      <trkpt lat="47.26851" lon="-1.63288">
        <ele>21</ele>
        <time>2019-09-30T13:48:19.000Z</time>
      </trkpt>
      <trkpt lat="47.2685" lon="-1.63292">
        <ele>21</ele>
        <time>2019-09-30T13:48:20.000Z</time>
      </trkpt>
      <trkpt lat="47.2685" lon="-1.63294">
        <ele>21</ele>
        <time>2019-09-30T13:48:21.000Z</time>
      </trkpt>
      <trkpt lat="47.26848" lon="-1.63295">
        <ele>21</ele>
        <time>2019-09-30T13:48:22.000Z</time>
      </trkpt>
      <trkpt lat="47.26846" lon="-1.63301">
        <ele>21</ele>
        <time>2019-09-30T13:48:23.000Z</time>
      </trkpt>
      <trkpt lat="47.26846" lon="-1.63301">
        <ele>21</ele>
        <time>2019-09-30T13:48:24.000Z</time>
      </trkpt>
      <trkpt lat="47.26847" lon="-1.63304">
        <ele>21</ele>
        <time>2019-09-30T13:48:25.000Z</time>
      </trkpt>
      <trkpt lat="47.26848" lon="-1.63306">
        <ele>21</ele>
        <time>2019-09-30T13:48:26.000Z</time>
      </trkpt>
      <trkpt lat="47.2685" lon="-1.63309">
        <ele>21</ele>
        <time>2019-09-30T13:48:27.000Z</time>
      </trkpt>
      <trkpt lat="47.26853" lon="-1.63316">
        <ele>20</ele>
        <time>2019-09-30T13:48:28.000Z</time>
      </trkpt>
      <trkpt lat="47.26853" lon="-1.63316">
        <ele>20</ele>
        <time>2019-09-30T13:48:29.000Z</time>
      </trkpt>
      <trkpt lat="47.26855" lon="-1.63319">
        <ele>20</ele>
        <time>2019-09-30T13:48:30.000Z</time>
      </trkpt>
      <trkpt lat="47.26856" lon="-1.63323">
        <ele>20</ele>
        <time>2019-09-30T13:48:31.000Z</time>
      </trkpt>
      <trkpt lat="47.26855" lon="-1.63328">
        <ele>20</ele>
        <time>2019-09-30T13:48:32.000Z</time>
      </trkpt>
      <trkpt lat="47.26855" lon="-1.63328">
        <ele>20</ele>
        <time>2019-09-30T13:48:33.000Z</time>
      </trkpt>
      <trkpt lat="47.26854" lon="-1.63332">
        <ele>20</ele>
        <time>2019-09-30T13:48:34.000Z</time>
      </trkpt>
      <trkpt lat="47.26854" lon="-1.63336">
        <ele>19</ele>
        <time>2019-09-30T13:48:35.000Z</time>
      </trkpt>
      <trkpt lat="47.26855" lon="-1.6334">
        <ele>19</ele>
        <time>2019-09-30T13:48:36.000Z</time>
      </trkpt>
      <trkpt lat="47.26855" lon="-1.63344">
        <ele>19</ele>
        <time>2019-09-30T13:48:37.000Z</time>
      </trkpt>
      <trkpt lat="47.26854" lon="-1.63349">
        <ele>19</ele>
        <time>2019-09-30T13:48:38.000Z</time>
      </trkpt>
      <trkpt lat="47.26855" lon="-1.63353">
        <ele>19</ele>
        <time>2019-09-30T13:48:39.000Z</time>
      </trkpt>
      <trkpt lat="47.26857" lon="-1.63358">
        <ele>19</ele>
        <time>2019-09-30T13:48:40.000Z</time>
      </trkpt>
      <trkpt lat="47.26859" lon="-1.63361">
        <ele>19</ele>
        <time>2019-09-30T13:48:41.000Z</time>
      </trkpt>
      <trkpt lat="47.26862" lon="-1.63364">
        <ele>19</ele>
        <time>2019-09-30T13:48:42.000Z</time>
      </trkpt>
      <trkpt lat="47.26864" lon="-1.63366">
        <ele>19</ele>
        <time>2019-09-30T13:48:43.000Z</time>
      </trkpt>
      <trkpt lat="47.26866" lon="-1.63369">
        <ele>19</ele>
        <time>2019-09-30T13:48:44.000Z</time>
      </trkpt>
      <trkpt lat="47.26868" lon="-1.63372">
        <ele>19</ele>
        <time>2019-09-30T13:48:45.000Z</time>
      </trkpt>
      <trkpt lat="47.26869" lon="-1.63376">
        <ele>19</ele>
        <time>2019-09-30T13:48:46.000Z</time>
      </trkpt>
      <trkpt lat="47.2687" lon="-1.63381">
        <ele>19</ele>
        <time>2019-09-30T13:48:47.000Z</time>
      </trkpt>
      <trkpt lat="47.2687" lon="-1.63385">
        <ele>19</ele>
        <time>2019-09-30T13:48:48.000Z</time>
      </trkpt>
      <trkpt lat="47.26871" lon="-1.63394">
        <ele>19</ele>
        <time>2019-09-30T13:48:49.000Z</time>
      </trkpt>
      <trkpt lat="47.26871" lon="-1.63394">
        <ele>19</ele>
        <time>2019-09-30T13:48:50.000Z</time>
      </trkpt>
      <trkpt lat="47.26871" lon="-1.63399">
        <ele>20</ele>
        <time>2019-09-30T13:48:51.000Z</time>
      </trkpt>
      <trkpt lat="47.26871" lon="-1.63405">
        <ele>20</ele>
        <time>2019-09-30T13:48:52.000Z</time>
      </trkpt>
      <trkpt lat="47.2687" lon="-1.63411">
        <ele>20</ele>
        <time>2019-09-30T13:48:53.000Z</time>
      </trkpt>
      <trkpt lat="47.26869" lon="-1.63416">
        <ele>20</ele>
        <time>2019-09-30T13:48:54.000Z</time>
      </trkpt>
      <trkpt lat="47.26868" lon="-1.63421">
        <ele>20</ele>
        <time>2019-09-30T13:48:55.000Z</time>
      </trkpt>
      <trkpt lat="47.26867" lon="-1.63431">
        <ele>20</ele>
        <time>2019-09-30T13:48:56.000Z</time>
      </trkpt>
      <trkpt lat="47.26867" lon="-1.63431">
        <ele>20</ele>
        <time>2019-09-30T13:48:57.000Z</time>
      </trkpt>
      <trkpt lat="47.26865" lon="-1.63435">
        <ele>20</ele>
        <time>2019-09-30T13:48:58.000Z</time>
      </trkpt>
      <trkpt lat="47.26864" lon="-1.6344">
        <ele>20</ele>
        <time>2019-09-30T13:48:59.000Z</time>
      </trkpt>
      <trkpt lat="47.26863" lon="-1.63445">
        <ele>20</ele>
        <time>2019-09-30T13:49:00.000Z</time>
      </trkpt>
      <trkpt lat="47.26862" lon="-1.63449">
        <ele>20</ele>
        <time>2019-09-30T13:49:01.000Z</time>
      </trkpt>
      <trkpt lat="47.2686" lon="-1.63454">
        <ele>20</ele>
        <time>2019-09-30T13:49:02.000Z</time>
      </trkpt>
      <trkpt lat="47.26859" lon="-1.63458">
        <ele>20</ele>
        <time>2019-09-30T13:49:03.000Z</time>
      </trkpt>
      <trkpt lat="47.26857" lon="-1.63463">
        <ele>20</ele>
        <time>2019-09-30T13:49:04.000Z</time>
      </trkpt>
      <trkpt lat="47.26856" lon="-1.63468">
        <ele>20</ele>
        <time>2019-09-30T13:49:05.000Z</time>
      </trkpt>
      <trkpt lat="47.26856" lon="-1.63473">
        <ele>20</ele>
        <time>2019-09-30T13:49:06.000Z</time>
      </trkpt>
      <trkpt lat="47.26855" lon="-1.63478">
        <ele>20</ele>
        <time>2019-09-30T13:49:07.000Z</time>
      </trkpt>
      <trkpt lat="47.26853" lon="-1.63482">
        <ele>20</ele>
        <time>2019-09-30T13:49:08.000Z</time>
      </trkpt>
      <trkpt lat="47.26851" lon="-1.63486">
        <ele>20</ele>
        <time>2019-09-30T13:49:09.000Z</time>
      </trkpt>
      <trkpt lat="47.26849" lon="-1.6349">
        <ele>20</ele>
        <time>2019-09-30T13:49:10.000Z</time>
      </trkpt>
      <trkpt lat="47.26848" lon="-1.63495">
        <ele>20</ele>
        <time>2019-09-30T13:49:11.000Z</time>
      </trkpt>
      <trkpt lat="47.26846" lon="-1.635">
        <ele>20</ele>
        <time>2019-09-30T13:49:12.000Z</time>
      </trkpt>
      <trkpt lat="47.26845" lon="-1.63505">
        <ele>20</ele>
        <time>2019-09-30T13:49:13.000Z</time>
      </trkpt>
      <trkpt lat="47.26843" lon="-1.6351">
        <ele>20</ele>
        <time>2019-09-30T13:49:14.000Z</time>
      </trkpt>
      <trkpt lat="47.26842" lon="-1.63515">
        <ele>20</ele>
        <time>2019-09-30T13:49:15.000Z</time>
      </trkpt>
      <trkpt lat="47.2684" lon="-1.6352">
        <ele>20</ele>
        <time>2019-09-30T13:49:16.000Z</time>
      </trkpt>
      <trkpt lat="47.26838" lon="-1.63525">
        <ele>20</ele>
        <time>2019-09-30T13:49:17.000Z</time>
      </trkpt>
      <trkpt lat="47.26835" lon="-1.6353">
        <ele>20</ele>
        <time>2019-09-30T13:49:18.000Z</time>
      </trkpt>
      <trkpt lat="47.26833" lon="-1.63535">
        <ele>20</ele>
        <time>2019-09-30T13:49:19.000Z</time>
      </trkpt>
      <trkpt lat="47.26831" lon="-1.6354">
        <ele>20</ele>
        <time>2019-09-30T13:49:20.000Z</time>
      </trkpt>
      <trkpt lat="47.26829" lon="-1.63544">
        <ele>20</ele>
        <time>2019-09-30T13:49:21.000Z</time>
      </trkpt>
      <trkpt lat="47.26827" lon="-1.63549">
        <ele>20</ele>
        <time>2019-09-30T13:49:22.000Z</time>
      </trkpt>
      <trkpt lat="47.26825" lon="-1.63554">
        <ele>20</ele>
        <time>2019-09-30T13:49:23.000Z</time>
      </trkpt>
      <trkpt lat="47.26823" lon="-1.63559">
        <ele>20</ele>
        <time>2019-09-30T13:49:24.000Z</time>
      </trkpt>
      <trkpt lat="47.26822" lon="-1.63564">
        <ele>20</ele>
        <time>2019-09-30T13:49:25.000Z</time>
      </trkpt>
      <trkpt lat="47.2682" lon="-1.63568">
        <ele>20</ele>
        <time>2019-09-30T13:49:26.000Z</time>
      </trkpt>
      <trkpt lat="47.26819" lon="-1.63573">
        <ele>20</ele>
        <time>2019-09-30T13:49:27.000Z</time>
      </trkpt>
      <trkpt lat="47.26817" lon="-1.63577">
        <ele>20</ele>
        <time>2019-09-30T13:49:28.000Z</time>
      </trkpt>
      <trkpt lat="47.26814" lon="-1.63581">
        <ele>20</ele>
        <time>2019-09-30T13:49:29.000Z</time>
      </trkpt>
      <trkpt lat="47.26812" lon="-1.63586">
        <ele>20</ele>
        <time>2019-09-30T13:49:30.000Z</time>
      </trkpt>
      <trkpt lat="47.26809" lon="-1.63591">
        <ele>20</ele>
        <time>2019-09-30T13:49:31.000Z</time>
      </trkpt>
      <trkpt lat="47.26806" lon="-1.63595">
        <ele>20</ele>
        <time>2019-09-30T13:49:32.000Z</time>
      </trkpt>
      <trkpt lat="47.26803" lon="-1.63599">
        <ele>20</ele>
        <time>2019-09-30T13:49:33.000Z</time>
      </trkpt>
      <trkpt lat="47.26799" lon="-1.63603">
        <ele>20</ele>
        <time>2019-09-30T13:49:34.000Z</time>
      </trkpt>
      <trkpt lat="47.26795" lon="-1.63605">
        <ele>20</ele>
        <time>2019-09-30T13:49:35.000Z</time>
      </trkpt>
      <trkpt lat="47.26791" lon="-1.63609">
        <ele>20</ele>
        <time>2019-09-30T13:49:36.000Z</time>
      </trkpt>
      <trkpt lat="47.26788" lon="-1.63612">
        <ele>19</ele>
        <time>2019-09-30T13:49:37.000Z</time>
      </trkpt>
      <trkpt lat="47.26784" lon="-1.63615">
        <ele>19</ele>
        <time>2019-09-30T13:49:38.000Z</time>
      </trkpt>
      <trkpt lat="47.26781" lon="-1.63619">
        <ele>19</ele>
        <time>2019-09-30T13:49:39.000Z</time>
      </trkpt>
      <trkpt lat="47.26779" lon="-1.63623">
        <ele>20</ele>
        <time>2019-09-30T13:49:40.000Z</time>
      </trkpt>
      <trkpt lat="47.26776" lon="-1.63627">
        <ele>20</ele>
        <time>2019-09-30T13:49:41.000Z</time>
      </trkpt>
      <trkpt lat="47.26774" lon="-1.6363">
        <ele>20</ele>
        <time>2019-09-30T13:49:42.000Z</time>
      </trkpt>
      <trkpt lat="47.26772" lon="-1.63633">
        <ele>20</ele>
        <time>2019-09-30T13:49:43.000Z</time>
      </trkpt>
      <trkpt lat="47.26771" lon="-1.63636">
        <ele>20</ele>
        <time>2019-09-30T13:49:44.000Z</time>
      </trkpt>
      <trkpt lat="47.2677" lon="-1.63637">
        <ele>20</ele>
        <time>2019-09-30T13:49:45.000Z</time>
      </trkpt>
      <trkpt lat="47.26769" lon="-1.6364">
        <ele>20</ele>
        <time>2019-09-30T13:49:46.000Z</time>
      </trkpt>
      <trkpt lat="47.26769" lon="-1.63642">
        <ele>21</ele>
        <time>2019-09-30T13:49:47.000Z</time>
      </trkpt>
      <trkpt lat="47.26768" lon="-1.63646">
        <ele>21</ele>
        <time>2019-09-30T13:49:48.000Z</time>
      </trkpt>
      <trkpt lat="47.26768" lon="-1.6365">
        <ele>21</ele>
        <time>2019-09-30T13:49:49.000Z</time>
      </trkpt>
      <trkpt lat="47.26767" lon="-1.63654">
        <ele>21</ele>
        <time>2019-09-30T13:49:50.000Z</time>
      </trkpt>
      <trkpt lat="47.26766" lon="-1.63659">
        <ele>21</ele>
        <time>2019-09-30T13:49:51.000Z</time>
      </trkpt>
      <trkpt lat="47.26764" lon="-1.63664">
        <ele>21</ele>
        <time>2019-09-30T13:49:52.000Z</time>
      </trkpt>
      <trkpt lat="47.26761" lon="-1.6367">
        <ele>21</ele>
        <time>2019-09-30T13:49:53.000Z</time>
      </trkpt>
      <trkpt lat="47.26757" lon="-1.63677">
        <ele>21</ele>
        <time>2019-09-30T13:49:54.000Z</time>
      </trkpt>
      <trkpt lat="47.26753" lon="-1.63685">
        <ele>21</ele>
        <time>2019-09-30T13:49:55.000Z</time>
      </trkpt>
      <trkpt lat="47.2675" lon="-1.63694">
        <ele>21</ele>
        <time>2019-09-30T13:49:56.000Z</time>
      </trkpt>
      <trkpt lat="47.26746" lon="-1.63704">
        <ele>21</ele>
        <time>2019-09-30T13:49:57.000Z</time>
      </trkpt>
      <trkpt lat="47.26744" lon="-1.63713">
        <ele>21</ele>
        <time>2019-09-30T13:49:58.000Z</time>
      </trkpt>
      <trkpt lat="47.26741" lon="-1.63723">
        <ele>21</ele>
        <time>2019-09-30T13:49:59.000Z</time>
      </trkpt>
      <trkpt lat="47.26739" lon="-1.63732">
        <ele>21</ele>
        <time>2019-09-30T13:50:00.000Z</time>
      </trkpt>
      <trkpt lat="47.26737" lon="-1.63742">
        <ele>21</ele>
        <time>2019-09-30T13:50:01.000Z</time>
      </trkpt>
      <trkpt lat="47.26735" lon="-1.63752">
        <ele>20</ele>
        <time>2019-09-30T13:50:02.000Z</time>
      </trkpt>
      <trkpt lat="47.26734" lon="-1.63761">
        <ele>20</ele>
        <time>2019-09-30T13:50:03.000Z</time>
      </trkpt>
      <trkpt lat="47.26733" lon="-1.6377">
        <ele>20</ele>
        <time>2019-09-30T13:50:04.000Z</time>
      </trkpt>
      <trkpt lat="47.26732" lon="-1.63778">
        <ele>20</ele>
        <time>2019-09-30T13:50:05.000Z</time>
      </trkpt>
      <trkpt lat="47.26731" lon="-1.63785">
        <ele>20</ele>
        <time>2019-09-30T13:50:06.000Z</time>
      </trkpt>
      <trkpt lat="47.26731" lon="-1.63792">
        <ele>20</ele>
        <time>2019-09-30T13:50:07.000Z</time>
      </trkpt>
      <trkpt lat="47.26731" lon="-1.63798">
        <ele>20</ele>
        <time>2019-09-30T13:50:08.000Z</time>
      </trkpt>
      <trkpt lat="47.2673" lon="-1.63805">
        <ele>20</ele>
        <time>2019-09-30T13:50:09.000Z</time>
      </trkpt>
      <trkpt lat="47.2673" lon="-1.63811">
        <ele>19</ele>
        <time>2019-09-30T13:50:10.000Z</time>
      </trkpt>
      <trkpt lat="47.26729" lon="-1.63817">
        <ele>20</ele>
        <time>2019-09-30T13:50:11.000Z</time>
      </trkpt>
      <trkpt lat="47.26729" lon="-1.63822">
        <ele>20</ele>
        <time>2019-09-30T13:50:12.000Z</time>
      </trkpt>
      <trkpt lat="47.26728" lon="-1.63828">
        <ele>20</ele>
        <time>2019-09-30T13:50:13.000Z</time>
      </trkpt>
      <trkpt lat="47.26728" lon="-1.63833">
        <ele>20</ele>
        <time>2019-09-30T13:50:14.000Z</time>
      </trkpt>
      <trkpt lat="47.26727" lon="-1.63839">
        <ele>20</ele>
        <time>2019-09-30T13:50:15.000Z</time>
      </trkpt>
      <trkpt lat="47.26726" lon="-1.63845">
        <ele>20</ele>
        <time>2019-09-30T13:50:16.000Z</time>
      </trkpt>
      <trkpt lat="47.26725" lon="-1.6385">
        <ele>20</ele>
        <time>2019-09-30T13:50:17.000Z</time>
      </trkpt>
      <trkpt lat="47.26724" lon="-1.63856">
        <ele>20</ele>
        <time>2019-09-30T13:50:18.000Z</time>
      </trkpt>
      <trkpt lat="47.26722" lon="-1.63862">
        <ele>20</ele>
        <time>2019-09-30T13:50:19.000Z</time>
      </trkpt>
      <trkpt lat="47.26721" lon="-1.63868">
        <ele>20</ele>
        <time>2019-09-30T13:50:20.000Z</time>
      </trkpt>
      <trkpt lat="47.2672" lon="-1.63874">
        <ele>19</ele>
        <time>2019-09-30T13:50:21.000Z</time>
      </trkpt>
      <trkpt lat="47.2672" lon="-1.63879">
        <ele>19</ele>
        <time>2019-09-30T13:50:22.000Z</time>
      </trkpt>
      <trkpt lat="47.26719" lon="-1.63885">
        <ele>19</ele>
        <time>2019-09-30T13:50:23.000Z</time>
      </trkpt>
      <trkpt lat="47.26719" lon="-1.63891">
        <ele>19</ele>
        <time>2019-09-30T13:50:24.000Z</time>
      </trkpt>
      <trkpt lat="47.2672" lon="-1.63895">
        <ele>19</ele>
        <time>2019-09-30T13:50:25.000Z</time>
      </trkpt>
      <trkpt lat="47.26721" lon="-1.63898">
        <ele>19</ele>
        <time>2019-09-30T13:50:26.000Z</time>
      </trkpt>
      <trkpt lat="47.26722" lon="-1.639">
        <ele>19</ele>
        <time>2019-09-30T13:50:27.000Z</time>
      </trkpt>
      <trkpt lat="47.26723" lon="-1.63901">
        <ele>19</ele>
        <time>2019-09-30T13:50:28.000Z</time>
      </trkpt>
      <trkpt lat="47.26724" lon="-1.63903">
        <ele>19</ele>
        <time>2019-09-30T13:50:29.000Z</time>
      </trkpt>
      <trkpt lat="47.26724" lon="-1.63905">
        <ele>19</ele>
        <time>2019-09-30T13:50:30.000Z</time>
      </trkpt>
      <trkpt lat="47.26724" lon="-1.63908">
        <ele>19</ele>
        <time>2019-09-30T13:50:31.000Z</time>
      </trkpt>
      <trkpt lat="47.26725" lon="-1.6391">
        <ele>19</ele>
        <time>2019-09-30T13:50:32.000Z</time>
      </trkpt>
      <trkpt lat="47.26726" lon="-1.63912">
        <ele>20</ele>
        <time>2019-09-30T13:50:33.000Z</time>
      </trkpt>
      <trkpt lat="47.26727" lon="-1.63916">
        <ele>20</ele>
        <time>2019-09-30T13:50:34.000Z</time>
      </trkpt>
      <trkpt lat="47.26728" lon="-1.63918">
        <ele>20</ele>
        <time>2019-09-30T13:50:35.000Z</time>
      </trkpt>
      <trkpt lat="47.2673" lon="-1.63921">
        <ele>21</ele>
        <time>2019-09-30T13:50:36.000Z</time>
      </trkpt>
      <trkpt lat="47.26731" lon="-1.63924">
        <ele>21</ele>
        <time>2019-09-30T13:50:37.000Z</time>
      </trkpt>
      <trkpt lat="47.26733" lon="-1.63927">
        <ele>21</ele>
        <time>2019-09-30T13:50:38.000Z</time>
      </trkpt>
      <trkpt lat="47.26734" lon="-1.63929">
        <ele>21</ele>
        <time>2019-09-30T13:50:39.000Z</time>
      </trkpt>
      <trkpt lat="47.26735" lon="-1.63931">
        <ele>22</ele>
        <time>2019-09-30T13:50:40.000Z</time>
      </trkpt>
      <trkpt lat="47.26737" lon="-1.63933">
        <ele>22</ele>
        <time>2019-09-30T13:50:41.000Z</time>
      </trkpt>
      <trkpt lat="47.26739" lon="-1.63935">
        <ele>22</ele>
        <time>2019-09-30T13:50:42.000Z</time>
      </trkpt>
      <trkpt lat="47.26741" lon="-1.63937">
        <ele>22</ele>
        <time>2019-09-30T13:50:43.000Z</time>
      </trkpt>
      <trkpt lat="47.26743" lon="-1.63938">
        <ele>23</ele>
        <time>2019-09-30T13:50:44.000Z</time>
      </trkpt>
      <trkpt lat="47.26745" lon="-1.6394">
        <ele>23</ele>
        <time>2019-09-30T13:50:45.000Z</time>
      </trkpt>
      <trkpt lat="47.26748" lon="-1.63941">
        <ele>23</ele>
        <time>2019-09-30T13:50:46.000Z</time>
      </trkpt>
      <trkpt lat="47.2675" lon="-1.63942">
        <ele>24</ele>
        <time>2019-09-30T13:50:47.000Z</time>
      </trkpt>
      <trkpt lat="47.26753" lon="-1.63944">
        <ele>24</ele>
        <time>2019-09-30T13:50:48.000Z</time>
      </trkpt>
      <trkpt lat="47.26756" lon="-1.63945">
        <ele>24</ele>
        <time>2019-09-30T13:50:49.000Z</time>
      </trkpt>
      <trkpt lat="47.26759" lon="-1.63945">
        <ele>24</ele>
        <time>2019-09-30T13:50:50.000Z</time>
      </trkpt>
      <trkpt lat="47.26761" lon="-1.63946">
        <ele>25</ele>
        <time>2019-09-30T13:50:51.000Z</time>
      </trkpt>
      <trkpt lat="47.26763" lon="-1.63945">
        <ele>25</ele>
        <time>2019-09-30T13:50:52.000Z</time>
      </trkpt>
      <trkpt lat="47.26764" lon="-1.63944">
        <ele>25</ele>
        <time>2019-09-30T13:50:53.000Z</time>
      </trkpt>
      <trkpt lat="47.26766" lon="-1.63943">
        <ele>26</ele>
        <time>2019-09-30T13:50:54.000Z</time>
      </trkpt>
      <trkpt lat="47.26768" lon="-1.63942">
        <ele>26</ele>
        <time>2019-09-30T13:50:55.000Z</time>
      </trkpt>
      <trkpt lat="47.26769" lon="-1.63941">
        <ele>26</ele>
        <time>2019-09-30T13:50:56.000Z</time>
      </trkpt>
      <trkpt lat="47.26772" lon="-1.63939">
        <ele>26</ele>
        <time>2019-09-30T13:50:57.000Z</time>
      </trkpt>
      <trkpt lat="47.26774" lon="-1.63939">
        <ele>27</ele>
        <time>2019-09-30T13:50:58.000Z</time>
      </trkpt>
      <trkpt lat="47.26776" lon="-1.63938">
        <ele>27</ele>
        <time>2019-09-30T13:50:59.000Z</time>
      </trkpt>
      <trkpt lat="47.26778" lon="-1.63936">
        <ele>27</ele>
        <time>2019-09-30T13:51:00.000Z</time>
      </trkpt>
      <trkpt lat="47.2678" lon="-1.63935">
        <ele>27</ele>
        <time>2019-09-30T13:51:01.000Z</time>
      </trkpt>
      <trkpt lat="47.26782" lon="-1.63934">
        <ele>28</ele>
        <time>2019-09-30T13:51:02.000Z</time>
      </trkpt>
      <trkpt lat="47.26783" lon="-1.63932">
        <ele>28</ele>
        <time>2019-09-30T13:51:03.000Z</time>
      </trkpt>
      <trkpt lat="47.26785" lon="-1.6393">
        <ele>28</ele>
        <time>2019-09-30T13:51:04.000Z</time>
      </trkpt>
      <trkpt lat="47.26786" lon="-1.63928">
        <ele>28</ele>
        <time>2019-09-30T13:51:05.000Z</time>
      </trkpt>
      <trkpt lat="47.26788" lon="-1.63926">
        <ele>29</ele>
        <time>2019-09-30T13:51:06.000Z</time>
      </trkpt>
      <trkpt lat="47.2679" lon="-1.63924">
        <ele>29</ele>
        <time>2019-09-30T13:51:07.000Z</time>
      </trkpt>
      <trkpt lat="47.26791" lon="-1.63922">
        <ele>29</ele>
        <time>2019-09-30T13:51:08.000Z</time>
      </trkpt>
      <trkpt lat="47.26792" lon="-1.6392">
        <ele>29</ele>
        <time>2019-09-30T13:51:09.000Z</time>
      </trkpt>
      <trkpt lat="47.26793" lon="-1.63918">
        <ele>30</ele>
        <time>2019-09-30T13:51:10.000Z</time>
      </trkpt>
      <trkpt lat="47.26794" lon="-1.63915">
        <ele>30</ele>
        <time>2019-09-30T13:51:11.000Z</time>
      </trkpt>
      <trkpt lat="47.26796" lon="-1.63913">
        <ele>30</ele>
        <time>2019-09-30T13:51:12.000Z</time>
      </trkpt>
      <trkpt lat="47.26798" lon="-1.63912">
        <ele>30</ele>
        <time>2019-09-30T13:51:13.000Z</time>
      </trkpt>
      <trkpt lat="47.26801" lon="-1.63911">
        <ele>31</ele>
        <time>2019-09-30T13:51:14.000Z</time>
      </trkpt>
      <trkpt lat="47.26803" lon="-1.6391">
        <ele>31</ele>
        <time>2019-09-30T13:51:15.000Z</time>
      </trkpt>
      <trkpt lat="47.26806" lon="-1.63907">
        <ele>31</ele>
        <time>2019-09-30T13:51:16.000Z</time>
      </trkpt>
      <trkpt lat="47.26808" lon="-1.63906">
        <ele>32</ele>
        <time>2019-09-30T13:51:17.000Z</time>
      </trkpt>
      <trkpt lat="47.26811" lon="-1.63904">
        <ele>32</ele>
        <time>2019-09-30T13:51:18.000Z</time>
      </trkpt>
      <trkpt lat="47.26814" lon="-1.63902">
        <ele>32</ele>
        <time>2019-09-30T13:51:19.000Z</time>
      </trkpt>
      <trkpt lat="47.26817" lon="-1.63899">
        <ele>33</ele>
        <time>2019-09-30T13:51:20.000Z</time>
      </trkpt>
      <trkpt lat="47.26819" lon="-1.63896">
        <ele>33</ele>
        <time>2019-09-30T13:51:21.000Z</time>
      </trkpt>
      <trkpt lat="47.26821" lon="-1.63893">
        <ele>34</ele>
        <time>2019-09-30T13:51:22.000Z</time>
      </trkpt>
      <trkpt lat="47.26824" lon="-1.6389">
        <ele>34</ele>
        <time>2019-09-30T13:51:23.000Z</time>
      </trkpt>
      <trkpt lat="47.26826" lon="-1.63887">
        <ele>34</ele>
        <time>2019-09-30T13:51:24.000Z</time>
      </trkpt>
      <trkpt lat="47.26828" lon="-1.63885">
        <ele>35</ele>
        <time>2019-09-30T13:51:25.000Z</time>
      </trkpt>
      <trkpt lat="47.2683" lon="-1.63883">
        <ele>35</ele>
        <time>2019-09-30T13:51:26.000Z</time>
      </trkpt>
      <trkpt lat="47.26832" lon="-1.63881">
        <ele>35</ele>
        <time>2019-09-30T13:51:27.000Z</time>
      </trkpt>
      <trkpt lat="47.26834" lon="-1.63878">
        <ele>36</ele>
        <time>2019-09-30T13:51:28.000Z</time>
      </trkpt>
      <trkpt lat="47.26835" lon="-1.63875">
        <ele>36</ele>
        <time>2019-09-30T13:51:29.000Z</time>
      </trkpt>
      <trkpt lat="47.26837" lon="-1.63873">
        <ele>36</ele>
        <time>2019-09-30T13:51:30.000Z</time>
      </trkpt>
      <trkpt lat="47.26838" lon="-1.6387">
        <ele>37</ele>
        <time>2019-09-30T13:51:31.000Z</time>
      </trkpt>
      <trkpt lat="47.2684" lon="-1.63867">
        <ele>37</ele>
        <time>2019-09-30T13:51:32.000Z</time>
      </trkpt>
      <trkpt lat="47.26842" lon="-1.63865">
        <ele>37</ele>
        <time>2019-09-30T13:51:33.000Z</time>
      </trkpt>
      <trkpt lat="47.26844" lon="-1.63862">
        <ele>38</ele>
        <time>2019-09-30T13:51:34.000Z</time>
      </trkpt>
      <trkpt lat="47.26846" lon="-1.63859">
        <ele>38</ele>
        <time>2019-09-30T13:51:35.000Z</time>
      </trkpt>
      <trkpt lat="47.26848" lon="-1.63856">
        <ele>38</ele>
        <time>2019-09-30T13:51:36.000Z</time>
      </trkpt>
      <trkpt lat="47.2685" lon="-1.63854">
        <ele>39</ele>
        <time>2019-09-30T13:51:37.000Z</time>
      </trkpt>
      <trkpt lat="47.26852" lon="-1.63852">
        <ele>39</ele>
        <time>2019-09-30T13:51:38.000Z</time>
      </trkpt>
      <trkpt lat="47.26854" lon="-1.63849">
        <ele>39</ele>
        <time>2019-09-30T13:51:39.000Z</time>
      </trkpt>
      <trkpt lat="47.26856" lon="-1.63846">
        <ele>39</ele>
        <time>2019-09-30T13:51:40.000Z</time>
      </trkpt>
      <trkpt lat="47.26859" lon="-1.63844">
        <ele>39</ele>
        <time>2019-09-30T13:51:41.000Z</time>
      </trkpt>
      <trkpt lat="47.26861" lon="-1.63841">
        <ele>40</ele>
        <time>2019-09-30T13:51:42.000Z</time>
      </trkpt>
      <trkpt lat="47.26864" lon="-1.63839">
        <ele>40</ele>
        <time>2019-09-30T13:51:43.000Z</time>
      </trkpt>
      <trkpt lat="47.26867" lon="-1.63839">
        <ele>40</ele>
        <time>2019-09-30T13:51:44.000Z</time>
      </trkpt>
      <trkpt lat="47.2687" lon="-1.63839">
        <ele>40</ele>
        <time>2019-09-30T13:51:45.000Z</time>
      </trkpt>
      <trkpt lat="47.26873" lon="-1.63841">
        <ele>39</ele>
        <time>2019-09-30T13:51:46.000Z</time>
      </trkpt>
      <trkpt lat="47.26875" lon="-1.63844">
        <ele>39</ele>
        <time>2019-09-30T13:51:47.000Z</time>
      </trkpt>
      <trkpt lat="47.26876" lon="-1.63848">
        <ele>39</ele>
        <time>2019-09-30T13:51:48.000Z</time>
      </trkpt>
      <trkpt lat="47.26877" lon="-1.63851">
        <ele>39</ele>
        <time>2019-09-30T13:51:49.000Z</time>
      </trkpt>
      <trkpt lat="47.26878" lon="-1.63855">
        <ele>39</ele>
        <time>2019-09-30T13:51:50.000Z</time>
      </trkpt>
      <trkpt lat="47.26881" lon="-1.63858">
        <ele>39</ele>
        <time>2019-09-30T13:51:51.000Z</time>
      </trkpt>
      <trkpt lat="47.26883" lon="-1.63861">
        <ele>39</ele>
        <time>2019-09-30T13:51:52.000Z</time>
      </trkpt>
      <trkpt lat="47.26886" lon="-1.63862">
        <ele>40</ele>
        <time>2019-09-30T13:51:53.000Z</time>
      </trkpt>
      <trkpt lat="47.26889" lon="-1.63864">
        <ele>40</ele>
        <time>2019-09-30T13:51:54.000Z</time>
      </trkpt>
      <trkpt lat="47.26891" lon="-1.63866">
        <ele>40</ele>
        <time>2019-09-30T13:51:55.000Z</time>
      </trkpt>
      <trkpt lat="47.26893" lon="-1.63868">
        <ele>40</ele>
        <time>2019-09-30T13:51:56.000Z</time>
      </trkpt>
      <trkpt lat="47.26895" lon="-1.6387">
        <ele>41</ele>
        <time>2019-09-30T13:51:57.000Z</time>
      </trkpt>
      <trkpt lat="47.26897" lon="-1.63873">
        <ele>41</ele>
        <time>2019-09-30T13:51:58.000Z</time>
      </trkpt>
      <trkpt lat="47.26898" lon="-1.63877">
        <ele>41</ele>
        <time>2019-09-30T13:51:59.000Z</time>
      </trkpt>
      <trkpt lat="47.26899" lon="-1.6388">
        <ele>41</ele>
        <time>2019-09-30T13:52:00.000Z</time>
      </trkpt>
      <trkpt lat="47.26898" lon="-1.63883">
        <ele>41</ele>
        <time>2019-09-30T13:52:01.000Z</time>
      </trkpt>
      <trkpt lat="47.26897" lon="-1.63885">
        <ele>41</ele>
        <time>2019-09-30T13:52:02.000Z</time>
      </trkpt>
      <trkpt lat="47.26895" lon="-1.63887">
        <ele>41</ele>
        <time>2019-09-30T13:52:03.000Z</time>
      </trkpt>
      <trkpt lat="47.26893" lon="-1.63889">
        <ele>42</ele>
        <time>2019-09-30T13:52:04.000Z</time>
      </trkpt>
      <trkpt lat="47.26891" lon="-1.63892">
        <ele>42</ele>
        <time>2019-09-30T13:52:05.000Z</time>
      </trkpt>
      <trkpt lat="47.2689" lon="-1.63894">
        <ele>42</ele>
        <time>2019-09-30T13:52:06.000Z</time>
      </trkpt>
      <trkpt lat="47.2689" lon="-1.63896">
        <ele>42</ele>
        <time>2019-09-30T13:52:07.000Z</time>
      </trkpt>
      <trkpt lat="47.2689" lon="-1.63899">
        <ele>42</ele>
        <time>2019-09-30T13:52:08.000Z</time>
      </trkpt>
      <trkpt lat="47.26889" lon="-1.63902">
        <ele>42</ele>
        <time>2019-09-30T13:52:09.000Z</time>
      </trkpt>
      <trkpt lat="47.26888" lon="-1.63905">
        <ele>42</ele>
        <time>2019-09-30T13:52:10.000Z</time>
      </trkpt>
      <trkpt lat="47.26889" lon="-1.63908">
        <ele>42</ele>
        <time>2019-09-30T13:52:11.000Z</time>
      </trkpt>
      <trkpt lat="47.26891" lon="-1.63911">
        <ele>42</ele>
        <time>2019-09-30T13:52:12.000Z</time>
      </trkpt>
      <trkpt lat="47.26893" lon="-1.63915">
        <ele>42</ele>
        <time>2019-09-30T13:52:13.000Z</time>
      </trkpt>
      <trkpt lat="47.26895" lon="-1.63917">
        <ele>42</ele>
        <time>2019-09-30T13:52:14.000Z</time>
      </trkpt>
      <trkpt lat="47.26897" lon="-1.63919">
        <ele>42</ele>
        <time>2019-09-30T13:52:15.000Z</time>
      </trkpt>
      <trkpt lat="47.26898" lon="-1.63923">
        <ele>42</ele>
        <time>2019-09-30T13:52:16.000Z</time>
      </trkpt>
      <trkpt lat="47.26899" lon="-1.63926">
        <ele>42</ele>
        <time>2019-09-30T13:52:17.000Z</time>
      </trkpt>
      <trkpt lat="47.269" lon="-1.63931">
        <ele>42</ele>
        <time>2019-09-30T13:52:18.000Z</time>
      </trkpt>
      <trkpt lat="47.26899" lon="-1.63936">
        <ele>42</ele>
        <time>2019-09-30T13:52:19.000Z</time>
      </trkpt>
      <trkpt lat="47.269" lon="-1.63941">
        <ele>42</ele>
        <time>2019-09-30T13:52:20.000Z</time>
      </trkpt>
      <trkpt lat="47.26902" lon="-1.63943">
        <ele>42</ele>
        <time>2019-09-30T13:52:21.000Z</time>
      </trkpt>
      <trkpt lat="47.26903" lon="-1.63946">
        <ele>42</ele>
        <time>2019-09-30T13:52:22.000Z</time>
      </trkpt>
      <trkpt lat="47.26903" lon="-1.63949">
        <ele>41</ele>
        <time>2019-09-30T13:52:23.000Z</time>
      </trkpt>
      <trkpt lat="47.26904" lon="-1.63954">
        <ele>41</ele>
        <time>2019-09-30T13:52:24.000Z</time>
      </trkpt>
      <trkpt lat="47.26904" lon="-1.6396">
        <ele>41</ele>
        <time>2019-09-30T13:52:25.000Z</time>
      </trkpt>
      <trkpt lat="47.26905" lon="-1.63967">
        <ele>41</ele>
        <time>2019-09-30T13:52:26.000Z</time>
      </trkpt>
      <trkpt lat="47.26906" lon="-1.63974">
        <ele>40</ele>
        <time>2019-09-30T13:52:27.000Z</time>
      </trkpt>
      <trkpt lat="47.26909" lon="-1.6398">
        <ele>40</ele>
        <time>2019-09-30T13:52:28.000Z</time>
      </trkpt>
      <trkpt lat="47.26912" lon="-1.63985">
        <ele>40</ele>
        <time>2019-09-30T13:52:29.000Z</time>
      </trkpt>
      <trkpt lat="47.26915" lon="-1.63988">
        <ele>40</ele>
        <time>2019-09-30T13:52:30.000Z</time>
      </trkpt>
      <trkpt lat="47.26917" lon="-1.63989">
        <ele>39</ele>
        <time>2019-09-30T13:52:31.000Z</time>
      </trkpt>
      <trkpt lat="47.26918" lon="-1.63992">
        <ele>39</ele>
        <time>2019-09-30T13:52:32.000Z</time>
      </trkpt>
      <trkpt lat="47.2692" lon="-1.63995">
        <ele>39</ele>
        <time>2019-09-30T13:52:33.000Z</time>
      </trkpt>
      <trkpt lat="47.26921" lon="-1.63998">
        <ele>39</ele>
        <time>2019-09-30T13:52:34.000Z</time>
      </trkpt>
      <trkpt lat="47.26922" lon="-1.64">
        <ele>38</ele>
        <time>2019-09-30T13:52:35.000Z</time>
      </trkpt>
      <trkpt lat="47.26922" lon="-1.64002">
        <ele>38</ele>
        <time>2019-09-30T13:52:36.000Z</time>
      </trkpt>
      <trkpt lat="47.26921" lon="-1.64004">
        <ele>38</ele>
        <time>2019-09-30T13:52:37.000Z</time>
      </trkpt>
      <trkpt lat="47.26921" lon="-1.64007">
        <ele>38</ele>
        <time>2019-09-30T13:52:38.000Z</time>
      </trkpt>
      <trkpt lat="47.26921" lon="-1.64009">
        <ele>38</ele>
        <time>2019-09-30T13:52:39.000Z</time>
      </trkpt>
      <trkpt lat="47.2692" lon="-1.64012">
        <ele>37</ele>
        <time>2019-09-30T13:52:40.000Z</time>
      </trkpt>
      <trkpt lat="47.26919" lon="-1.64015">
        <ele>37</ele>
        <time>2019-09-30T13:52:41.000Z</time>
      </trkpt>
      <trkpt lat="47.26919" lon="-1.64018">
        <ele>37</ele>
        <time>2019-09-30T13:52:42.000Z</time>
      </trkpt>
      <trkpt lat="47.26921" lon="-1.64021">
        <ele>37</ele>
        <time>2019-09-30T13:52:43.000Z</time>
      </trkpt>
      <trkpt lat="47.26922" lon="-1.64023">
        <ele>37</ele>
        <time>2019-09-30T13:52:44.000Z</time>
      </trkpt>
      <trkpt lat="47.26924" lon="-1.64025">
        <ele>37</ele>
        <time>2019-09-30T13:52:45.000Z</time>
      </trkpt>
      <trkpt lat="47.26925" lon="-1.64028">
        <ele>37</ele>
        <time>2019-09-30T13:52:46.000Z</time>
      </trkpt>
      <trkpt lat="47.26928" lon="-1.64031">
        <ele>37</ele>
        <time>2019-09-30T13:52:47.000Z</time>
      </trkpt>
      <trkpt lat="47.2693" lon="-1.64033">
        <ele>37</ele>
        <time>2019-09-30T13:52:48.000Z</time>
      </trkpt>
      <trkpt lat="47.26933" lon="-1.64035">
        <ele>37</ele>
        <time>2019-09-30T13:52:49.000Z</time>
      </trkpt>
      <trkpt lat="47.26936" lon="-1.64037">
        <ele>37</ele>
        <time>2019-09-30T13:52:50.000Z</time>
      </trkpt>
      <trkpt lat="47.26939" lon="-1.64037">
        <ele>37</ele>
        <time>2019-09-30T13:52:51.000Z</time>
      </trkpt>
      <trkpt lat="47.2694" lon="-1.64038">
        <ele>37</ele>
        <time>2019-09-30T13:52:52.000Z</time>
      </trkpt>
      <trkpt lat="47.26942" lon="-1.6404">
        <ele>37</ele>
        <time>2019-09-30T13:52:53.000Z</time>
      </trkpt>
      <trkpt lat="47.26943" lon="-1.64042">
        <ele>37</ele>
        <time>2019-09-30T13:52:54.000Z</time>
      </trkpt>
      <trkpt lat="47.26944" lon="-1.64045">
        <ele>36</ele>
        <time>2019-09-30T13:52:55.000Z</time>
      </trkpt>
      <trkpt lat="47.26945" lon="-1.64048">
        <ele>36</ele>
        <time>2019-09-30T13:52:56.000Z</time>
      </trkpt>
      <trkpt lat="47.26945" lon="-1.6405">
        <ele>36</ele>
        <time>2019-09-30T13:52:57.000Z</time>
      </trkpt>
      <trkpt lat="47.26944" lon="-1.64053">
        <ele>36</ele>
        <time>2019-09-30T13:52:58.000Z</time>
      </trkpt>
      <trkpt lat="47.26944" lon="-1.64056">
        <ele>36</ele>
        <time>2019-09-30T13:52:59.000Z</time>
      </trkpt>
      <trkpt lat="47.26943" lon="-1.64059">
        <ele>37</ele>
        <time>2019-09-30T13:53:00.000Z</time>
      </trkpt>
      <trkpt lat="47.26943" lon="-1.64062">
        <ele>37</ele>
        <time>2019-09-30T13:53:01.000Z</time>
      </trkpt>
      <trkpt lat="47.26944" lon="-1.64064">
        <ele>37</ele>
        <time>2019-09-30T13:53:02.000Z</time>
      </trkpt>
      <trkpt lat="47.26944" lon="-1.64065">
        <ele>37</ele>
        <time>2019-09-30T13:53:03.000Z</time>
      </trkpt>
      <trkpt lat="47.26945" lon="-1.64067">
        <ele>37</ele>
        <time>2019-09-30T13:53:04.000Z</time>
      </trkpt>
      <trkpt lat="47.26947" lon="-1.64069">
        <ele>37</ele>
        <time>2019-09-30T13:53:05.000Z</time>
      </trkpt>
      <trkpt lat="47.26949" lon="-1.64072">
        <ele>37</ele>
        <time>2019-09-30T13:53:06.000Z</time>
      </trkpt>
      <trkpt lat="47.26951" lon="-1.64075">
        <ele>37</ele>
        <time>2019-09-30T13:53:07.000Z</time>
      </trkpt>
      <trkpt lat="47.26953" lon="-1.64078">
        <ele>37</ele>
        <time>2019-09-30T13:53:08.000Z</time>
      </trkpt>
      <trkpt lat="47.26954" lon="-1.6408">
        <ele>37</ele>
        <time>2019-09-30T13:53:09.000Z</time>
      </trkpt>
      <trkpt lat="47.26956" lon="-1.64082">
        <ele>37</ele>
        <time>2019-09-30T13:53:10.000Z</time>
      </trkpt>
      <trkpt lat="47.26958" lon="-1.64084">
        <ele>37</ele>
        <time>2019-09-30T13:53:11.000Z</time>
      </trkpt>
      <trkpt lat="47.26961" lon="-1.64087">
        <ele>38</ele>
        <time>2019-09-30T13:53:12.000Z</time>
      </trkpt>
      <trkpt lat="47.26963" lon="-1.64089">
        <ele>38</ele>
        <time>2019-09-30T13:53:13.000Z</time>
      </trkpt>
      <trkpt lat="47.26965" lon="-1.64091">
        <ele>38</ele>
        <time>2019-09-30T13:53:14.000Z</time>
      </trkpt>
      <trkpt lat="47.26967" lon="-1.64093">
        <ele>38</ele>
        <time>2019-09-30T13:53:15.000Z</time>
      </trkpt>
      <trkpt lat="47.26969" lon="-1.64096">
        <ele>38</ele>
        <time>2019-09-30T13:53:16.000Z</time>
      </trkpt>
      <trkpt lat="47.26971" lon="-1.64099">
        <ele>38</ele>
        <time>2019-09-30T13:53:17.000Z</time>
      </trkpt>
      <trkpt lat="47.26974" lon="-1.64101">
        <ele>38</ele>
        <time>2019-09-30T13:53:18.000Z</time>
      </trkpt>
      <trkpt lat="47.26976" lon="-1.64104">
        <ele>38</ele>
        <time>2019-09-30T13:53:19.000Z</time>
      </trkpt>
      <trkpt lat="47.26979" lon="-1.64106">
        <ele>38</ele>
        <time>2019-09-30T13:53:20.000Z</time>
      </trkpt>
      <trkpt lat="47.26981" lon="-1.64107">
        <ele>38</ele>
        <time>2019-09-30T13:53:21.000Z</time>
      </trkpt>
      <trkpt lat="47.26983" lon="-1.64109">
        <ele>38</ele>
        <time>2019-09-30T13:53:22.000Z</time>
      </trkpt>
      <trkpt lat="47.26986" lon="-1.64111">
        <ele>39</ele>
        <time>2019-09-30T13:53:23.000Z</time>
      </trkpt>
      <trkpt lat="47.26988" lon="-1.64114">
        <ele>39</ele>
        <time>2019-09-30T13:53:24.000Z</time>
      </trkpt>
      <trkpt lat="47.26989" lon="-1.64116">
        <ele>39</ele>
        <time>2019-09-30T13:53:25.000Z</time>
      </trkpt>
      <trkpt lat="47.26991" lon="-1.64118">
        <ele>39</ele>
        <time>2019-09-30T13:53:26.000Z</time>
      </trkpt>
      <trkpt lat="47.26993" lon="-1.6412">
        <ele>39</ele>
        <time>2019-09-30T13:53:27.000Z</time>
      </trkpt>
      <trkpt lat="47.26994" lon="-1.64121">
        <ele>39</ele>
        <time>2019-09-30T13:53:28.000Z</time>
      </trkpt>
      <trkpt lat="47.26995" lon="-1.64123">
        <ele>39</ele>
        <time>2019-09-30T13:53:29.000Z</time>
      </trkpt>
      <trkpt lat="47.26995" lon="-1.64124">
        <ele>39</ele>
        <time>2019-09-30T13:53:30.000Z</time>
      </trkpt>
      <trkpt lat="47.26995" lon="-1.64125">
        <ele>39</ele>
        <time>2019-09-30T13:53:31.000Z</time>
      </trkpt>
      <trkpt lat="47.26995" lon="-1.64127">
        <ele>39</ele>
        <time>2019-09-30T13:53:32.000Z</time>
      </trkpt>
      <trkpt lat="47.26994" lon="-1.64129">
        <ele>39</ele>
        <time>2019-09-30T13:53:33.000Z</time>
      </trkpt>
      <trkpt lat="47.26994" lon="-1.64131">
        <ele>39</ele>
        <time>2019-09-30T13:53:34.000Z</time>
      </trkpt>
      <trkpt lat="47.26992" lon="-1.64133">
        <ele>39</ele>
        <time>2019-09-30T13:53:35.000Z</time>
      </trkpt>
      <trkpt lat="47.26991" lon="-1.64136">
        <ele>40</ele>
        <time>2019-09-30T13:53:36.000Z</time>
      </trkpt>
      <trkpt lat="47.26989" lon="-1.64139">
        <ele>40</ele>
        <time>2019-09-30T13:53:37.000Z</time>
      </trkpt>
      <trkpt lat="47.26987" lon="-1.64142">
        <ele>40</ele>
        <time>2019-09-30T13:53:38.000Z</time>
      </trkpt>
      <trkpt lat="47.26985" lon="-1.64147">
        <ele>40</ele>
        <time>2019-09-30T13:53:39.000Z</time>
      </trkpt>
      <trkpt lat="47.26984" lon="-1.64152">
        <ele>40</ele>
        <time>2019-09-30T13:53:40.000Z</time>
      </trkpt>
      <trkpt lat="47.26984" lon="-1.64157">
        <ele>40</ele>
        <time>2019-09-30T13:53:41.000Z</time>
      </trkpt>
      <trkpt lat="47.26983" lon="-1.64162">
        <ele>40</ele>
        <time>2019-09-30T13:53:42.000Z</time>
      </trkpt>
      <trkpt lat="47.26981" lon="-1.64168">
        <ele>39</ele>
        <time>2019-09-30T13:53:43.000Z</time>
      </trkpt>
      <trkpt lat="47.2698" lon="-1.64174">
        <ele>39</ele>
        <time>2019-09-30T13:53:44.000Z</time>
      </trkpt>
      <trkpt lat="47.26981" lon="-1.64181">
        <ele>39</ele>
        <time>2019-09-30T13:53:45.000Z</time>
      </trkpt>
      <trkpt lat="47.26982" lon="-1.64188">
        <ele>39</ele>
        <time>2019-09-30T13:53:46.000Z</time>
      </trkpt>
      <trkpt lat="47.26984" lon="-1.64193">
        <ele>39</ele>
        <time>2019-09-30T13:53:47.000Z</time>
      </trkpt>
      <trkpt lat="47.26987" lon="-1.64196">
        <ele>39</ele>
        <time>2019-09-30T13:53:48.000Z</time>
      </trkpt>
      <trkpt lat="47.26989" lon="-1.64199">
        <ele>39</ele>
        <time>2019-09-30T13:53:49.000Z</time>
      </trkpt>
      <trkpt lat="47.26992" lon="-1.64202">
        <ele>39</ele>
        <time>2019-09-30T13:53:50.000Z</time>
      </trkpt>
      <trkpt lat="47.26994" lon="-1.64206">
        <ele>39</ele>
        <time>2019-09-30T13:53:51.000Z</time>
      </trkpt>
      <trkpt lat="47.26997" lon="-1.6421">
        <ele>39</ele>
        <time>2019-09-30T13:53:52.000Z</time>
      </trkpt>
      <trkpt lat="47.26999" lon="-1.64215">
        <ele>39</ele>
        <time>2019-09-30T13:53:53.000Z</time>
      </trkpt>
      <trkpt lat="47.27002" lon="-1.6422">
        <ele>39</ele>
        <time>2019-09-30T13:53:54.000Z</time>
      </trkpt>
      <trkpt lat="47.27004" lon="-1.64224">
        <ele>39</ele>
        <time>2019-09-30T13:53:55.000Z</time>
      </trkpt>
      <trkpt lat="47.27006" lon="-1.64229">
        <ele>39</ele>
        <time>2019-09-30T13:53:56.000Z</time>
      </trkpt>
      <trkpt lat="47.27006" lon="-1.64234">
        <ele>39</ele>
        <time>2019-09-30T13:53:57.000Z</time>
      </trkpt>
      <trkpt lat="47.27007" lon="-1.64239">
        <ele>39</ele>
        <time>2019-09-30T13:53:58.000Z</time>
      </trkpt>
      <trkpt lat="47.27007" lon="-1.64243">
        <ele>39</ele>
        <time>2019-09-30T13:53:59.000Z</time>
      </trkpt>
      <trkpt lat="47.27007" lon="-1.64248">
        <ele>39</ele>
        <time>2019-09-30T13:54:00.000Z</time>
      </trkpt>
      <trkpt lat="47.27008" lon="-1.64252">
        <ele>39</ele>
        <time>2019-09-30T13:54:01.000Z</time>
      </trkpt>
      <trkpt lat="47.27009" lon="-1.64257">
        <ele>39</ele>
        <time>2019-09-30T13:54:02.000Z</time>
      </trkpt>
      <trkpt lat="47.27011" lon="-1.64261">
        <ele>39</ele>
        <time>2019-09-30T13:54:03.000Z</time>
      </trkpt>
      <trkpt lat="47.27014" lon="-1.64267">
        <ele>40</ele>
        <time>2019-09-30T13:54:04.000Z</time>
      </trkpt>
      <trkpt lat="47.27015" lon="-1.64271">
        <ele>40</ele>
        <time>2019-09-30T13:54:05.000Z</time>
      </trkpt>
      <trkpt lat="47.27015" lon="-1.64275">
        <ele>40</ele>
        <time>2019-09-30T13:54:06.000Z</time>
      </trkpt>
      <trkpt lat="47.27016" lon="-1.6428">
        <ele>39</ele>
        <time>2019-09-30T13:54:07.000Z</time>
      </trkpt>
      <trkpt lat="47.27016" lon="-1.64284">
        <ele>39</ele>
        <time>2019-09-30T13:54:08.000Z</time>
      </trkpt>
      <trkpt lat="47.27015" lon="-1.6429">
        <ele>39</ele>
        <time>2019-09-30T13:54:09.000Z</time>
      </trkpt>
      <trkpt lat="47.27013" lon="-1.64294">
        <ele>39</ele>
        <time>2019-09-30T13:54:10.000Z</time>
      </trkpt>
      <trkpt lat="47.27012" lon="-1.64299">
        <ele>39</ele>
        <time>2019-09-30T13:54:11.000Z</time>
      </trkpt>
      <trkpt lat="47.27012" lon="-1.64303">
        <ele>39</ele>
        <time>2019-09-30T13:54:12.000Z</time>
      </trkpt>
      <trkpt lat="47.27012" lon="-1.64307">
        <ele>38</ele>
        <time>2019-09-30T13:54:13.000Z</time>
      </trkpt>
      <trkpt lat="47.27013" lon="-1.6431">
        <ele>38</ele>
        <time>2019-09-30T13:54:14.000Z</time>
      </trkpt>
      <trkpt lat="47.27015" lon="-1.64314">
        <ele>38</ele>
        <time>2019-09-30T13:54:15.000Z</time>
      </trkpt>
      <trkpt lat="47.27016" lon="-1.64317">
        <ele>38</ele>
        <time>2019-09-30T13:54:16.000Z</time>
      </trkpt>
      <trkpt lat="47.27015" lon="-1.64321">
        <ele>38</ele>
        <time>2019-09-30T13:54:17.000Z</time>
      </trkpt>
      <trkpt lat="47.27015" lon="-1.64325">
        <ele>37</ele>
        <time>2019-09-30T13:54:18.000Z</time>
      </trkpt>
      <trkpt lat="47.27016" lon="-1.64331">
        <ele>37</ele>
        <time>2019-09-30T13:54:19.000Z</time>
      </trkpt>
      <trkpt lat="47.27017" lon="-1.64337">
        <ele>37</ele>
        <time>2019-09-30T13:54:20.000Z</time>
      </trkpt>
      <trkpt lat="47.27019" lon="-1.64343">
        <ele>37</ele>
        <time>2019-09-30T13:54:21.000Z</time>
      </trkpt>
      <trkpt lat="47.2702" lon="-1.64348">
        <ele>37</ele>
        <time>2019-09-30T13:54:22.000Z</time>
      </trkpt>
      <trkpt lat="47.2702" lon="-1.64354">
        <ele>37</ele>
        <time>2019-09-30T13:54:23.000Z</time>
      </trkpt>
      <trkpt lat="47.2702" lon="-1.64359">
        <ele>37</ele>
        <time>2019-09-30T13:54:24.000Z</time>
      </trkpt>
      <trkpt lat="47.27019" lon="-1.64364">
        <ele>37</ele>
        <time>2019-09-30T13:54:25.000Z</time>
      </trkpt>
      <trkpt lat="47.27018" lon="-1.6437">
        <ele>37</ele>
        <time>2019-09-30T13:54:26.000Z</time>
      </trkpt>
      <trkpt lat="47.27017" lon="-1.64375">
        <ele>37</ele>
        <time>2019-09-30T13:54:27.000Z</time>
      </trkpt>
      <trkpt lat="47.27016" lon="-1.64381">
        <ele>36</ele>
        <time>2019-09-30T13:54:28.000Z</time>
      </trkpt>
      <trkpt lat="47.27015" lon="-1.64386">
        <ele>36</ele>
        <time>2019-09-30T13:54:29.000Z</time>
      </trkpt>
      <trkpt lat="47.27014" lon="-1.64392">
        <ele>36</ele>
        <time>2019-09-30T13:54:30.000Z</time>
      </trkpt>
      <trkpt lat="47.27013" lon="-1.64397">
        <ele>36</ele>
        <time>2019-09-30T13:54:31.000Z</time>
      </trkpt>
      <trkpt lat="47.27013" lon="-1.64403">
        <ele>36</ele>
        <time>2019-09-30T13:54:32.000Z</time>
      </trkpt>
      <trkpt lat="47.27014" lon="-1.64408">
        <ele>36</ele>
        <time>2019-09-30T13:54:33.000Z</time>
      </trkpt>
      <trkpt lat="47.27015" lon="-1.64413">
        <ele>35</ele>
        <time>2019-09-30T13:54:34.000Z</time>
      </trkpt>
      <trkpt lat="47.27017" lon="-1.64419">
        <ele>35</ele>
        <time>2019-09-30T13:54:35.000Z</time>
      </trkpt>
      <trkpt lat="47.27019" lon="-1.64425">
        <ele>35</ele>
        <time>2019-09-30T13:54:36.000Z</time>
      </trkpt>
      <trkpt lat="47.27022" lon="-1.6443">
        <ele>35</ele>
        <time>2019-09-30T13:54:37.000Z</time>
      </trkpt>
      <trkpt lat="47.27025" lon="-1.64435">
        <ele>35</ele>
        <time>2019-09-30T13:54:38.000Z</time>
      </trkpt>
      <trkpt lat="47.27028" lon="-1.64439">
        <ele>34</ele>
        <time>2019-09-30T13:54:39.000Z</time>
      </trkpt>
      <trkpt lat="47.27031" lon="-1.64443">
        <ele>34</ele>
        <time>2019-09-30T13:54:40.000Z</time>
      </trkpt>
      <trkpt lat="47.27033" lon="-1.64446">
        <ele>34</ele>
        <time>2019-09-30T13:54:41.000Z</time>
      </trkpt>
      <trkpt lat="47.27035" lon="-1.64449">
        <ele>34</ele>
        <time>2019-09-30T13:54:42.000Z</time>
      </trkpt>
      <trkpt lat="47.27038" lon="-1.64452">
        <ele>34</ele>
        <time>2019-09-30T13:54:43.000Z</time>
      </trkpt>
      <trkpt lat="47.27039" lon="-1.64455">
        <ele>35</ele>
        <time>2019-09-30T13:54:44.000Z</time>
      </trkpt>
      <trkpt lat="47.27041" lon="-1.64457">
        <ele>35</ele>
        <time>2019-09-30T13:54:45.000Z</time>
      </trkpt>
      <trkpt lat="47.27043" lon="-1.6446">
        <ele>35</ele>
        <time>2019-09-30T13:54:46.000Z</time>
      </trkpt>
      <trkpt lat="47.27045" lon="-1.64464">
        <ele>35</ele>
        <time>2019-09-30T13:54:47.000Z</time>
      </trkpt>
      <trkpt lat="47.27047" lon="-1.64466">
        <ele>35</ele>
        <time>2019-09-30T13:54:48.000Z</time>
      </trkpt>
      <trkpt lat="47.27049" lon="-1.64468">
        <ele>35</ele>
        <time>2019-09-30T13:54:49.000Z</time>
      </trkpt>
      <trkpt lat="47.27051" lon="-1.64471">
        <ele>35</ele>
        <time>2019-09-30T13:54:50.000Z</time>
      </trkpt>
      <trkpt lat="47.27052" lon="-1.64473">
        <ele>35</ele>
        <time>2019-09-30T13:54:51.000Z</time>
      </trkpt>
      <trkpt lat="47.27054" lon="-1.64475">
        <ele>35</ele>
        <time>2019-09-30T13:54:52.000Z</time>
      </trkpt>
      <trkpt lat="47.27056" lon="-1.64476">
        <ele>35</ele>
        <time>2019-09-30T13:54:53.000Z</time>
      </trkpt>
      <trkpt lat="47.27057" lon="-1.64478">
        <ele>35</ele>
        <time>2019-09-30T13:54:54.000Z</time>
      </trkpt>
      <trkpt lat="47.27059" lon="-1.6448">
        <ele>35</ele>
        <time>2019-09-30T13:54:55.000Z</time>
      </trkpt>
      <trkpt lat="47.27061" lon="-1.64483">
        <ele>35</ele>
        <time>2019-09-30T13:54:56.000Z</time>
      </trkpt>
      <trkpt lat="47.27062" lon="-1.64485">
        <ele>34</ele>
        <time>2019-09-30T13:54:57.000Z</time>
      </trkpt>
      <trkpt lat="47.27064" lon="-1.64486">
        <ele>34</ele>
        <time>2019-09-30T13:54:58.000Z</time>
      </trkpt>
      <trkpt lat="47.27065" lon="-1.64488">
        <ele>34</ele>
        <time>2019-09-30T13:54:59.000Z</time>
      </trkpt>
      <trkpt lat="47.27066" lon="-1.64491">
        <ele>34</ele>
        <time>2019-09-30T13:55:00.000Z</time>
      </trkpt>
      <trkpt lat="47.27067" lon="-1.64493">
        <ele>34</ele>
        <time>2019-09-30T13:55:01.000Z</time>
      </trkpt>
      <trkpt lat="47.27068" lon="-1.64494">
        <ele>34</ele>
        <time>2019-09-30T13:55:02.000Z</time>
      </trkpt>
      <trkpt lat="47.27069" lon="-1.64496">
        <ele>34</ele>
        <time>2019-09-30T13:55:03.000Z</time>
      </trkpt>
      <trkpt lat="47.2707" lon="-1.64498">
        <ele>35</ele>
        <time>2019-09-30T13:55:04.000Z</time>
      </trkpt>
      <trkpt lat="47.27072" lon="-1.64499">
        <ele>35</ele>
        <time>2019-09-30T13:55:05.000Z</time>
      </trkpt>
      <trkpt lat="47.27073" lon="-1.64501">
        <ele>35</ele>
        <time>2019-09-30T13:55:06.000Z</time>
      </trkpt>
      <trkpt lat="47.27074" lon="-1.64503">
        <ele>35</ele>
        <time>2019-09-30T13:55:07.000Z</time>
      </trkpt>
      <trkpt lat="47.27076" lon="-1.64505">
        <ele>35</ele>
        <time>2019-09-30T13:55:08.000Z</time>
      </trkpt>
      <trkpt lat="47.27077" lon="-1.64506">
        <ele>35</ele>
        <time>2019-09-30T13:55:09.000Z</time>
      </trkpt>
      <trkpt lat="47.27078" lon="-1.64507">
        <ele>35</ele>
        <time>2019-09-30T13:55:10.000Z</time>
      </trkpt>
      <trkpt lat="47.2708" lon="-1.64509">
        <ele>35</ele>
        <time>2019-09-30T13:55:11.000Z</time>
      </trkpt>
      <trkpt lat="47.27081" lon="-1.64509">
        <ele>35</ele>
        <time>2019-09-30T13:55:12.000Z</time>
      </trkpt>
      <trkpt lat="47.27082" lon="-1.6451">
        <ele>35</ele>
        <time>2019-09-30T13:55:13.000Z</time>
      </trkpt>
      <trkpt lat="47.27083" lon="-1.64512">
        <ele>35</ele>
        <time>2019-09-30T13:55:14.000Z</time>
      </trkpt>
      <trkpt lat="47.27085" lon="-1.64513">
        <ele>36</ele>
        <time>2019-09-30T13:55:15.000Z</time>
      </trkpt>
      <trkpt lat="47.27086" lon="-1.64514">
        <ele>36</ele>
        <time>2019-09-30T13:55:16.000Z</time>
      </trkpt>
      <trkpt lat="47.27087" lon="-1.64514">
        <ele>36</ele>
        <time>2019-09-30T13:55:17.000Z</time>
      </trkpt>
      <trkpt lat="47.27088" lon="-1.64512">
        <ele>36</ele>
        <time>2019-09-30T13:55:18.000Z</time>
      </trkpt>
      <trkpt lat="47.27089" lon="-1.64511">
        <ele>36</ele>
        <time>2019-09-30T13:55:19.000Z</time>
      </trkpt>
      <trkpt lat="47.27089" lon="-1.64509">
        <ele>36</ele>
        <time>2019-09-30T13:55:20.000Z</time>
      </trkpt>
      <trkpt lat="47.27089" lon="-1.64506">
        <ele>36</ele>
        <time>2019-09-30T13:55:21.000Z</time>
      </trkpt>
      <trkpt lat="47.2709" lon="-1.64504">
        <ele>36</ele>
        <time>2019-09-30T13:55:22.000Z</time>
      </trkpt>
      <trkpt lat="47.27091" lon="-1.64502">
        <ele>36</ele>
        <time>2019-09-30T13:55:23.000Z</time>
      </trkpt>
      <trkpt lat="47.27092" lon="-1.645">
        <ele>37</ele>
        <time>2019-09-30T13:55:24.000Z</time>
      </trkpt>
      <trkpt lat="47.27092" lon="-1.64499">
        <ele>37</ele>
        <time>2019-09-30T13:55:25.000Z</time>
      </trkpt>
      <trkpt lat="47.27092" lon="-1.64497">
        <ele>37</ele>
        <time>2019-09-30T13:55:26.000Z</time>
      </trkpt>
      <trkpt lat="47.27093" lon="-1.64495">
        <ele>37</ele>
        <time>2019-09-30T13:55:27.000Z</time>
      </trkpt>
      <trkpt lat="47.27094" lon="-1.64493">
        <ele>38</ele>
        <time>2019-09-30T13:55:28.000Z</time>
      </trkpt>
      <trkpt lat="47.27095" lon="-1.64491">
        <ele>38</ele>
        <time>2019-09-30T13:55:29.000Z</time>
      </trkpt>
      <trkpt lat="47.27095" lon="-1.64488">
        <ele>38</ele>
        <time>2019-09-30T13:55:30.000Z</time>
      </trkpt>
      <trkpt lat="47.27096" lon="-1.64484">
        <ele>38</ele>
        <time>2019-09-30T13:55:31.000Z</time>
      </trkpt>
      <trkpt lat="47.27097" lon="-1.64481">
        <ele>38</ele>
        <time>2019-09-30T13:55:32.000Z</time>
      </trkpt>
      <trkpt lat="47.27097" lon="-1.64478">
        <ele>39</ele>
        <time>2019-09-30T13:55:33.000Z</time>
      </trkpt>
      <trkpt lat="47.27098" lon="-1.64475">
        <ele>39</ele>
        <time>2019-09-30T13:55:34.000Z</time>
      </trkpt>
      <trkpt lat="47.27098" lon="-1.64473">
        <ele>39</ele>
        <time>2019-09-30T13:55:35.000Z</time>
      </trkpt>
      <trkpt lat="47.27099" lon="-1.64472">
        <ele>39</ele>
        <time>2019-09-30T13:55:36.000Z</time>
      </trkpt>
      <trkpt lat="47.27099" lon="-1.6447">
        <ele>40</ele>
        <time>2019-09-30T13:55:37.000Z</time>
      </trkpt>
      <trkpt lat="47.271" lon="-1.64469">
        <ele>40</ele>
        <time>2019-09-30T13:55:38.000Z</time>
      </trkpt>
      <trkpt lat="47.271" lon="-1.64467">
        <ele>40</ele>
        <time>2019-09-30T13:55:39.000Z</time>
      </trkpt>
      <trkpt lat="47.27101" lon="-1.64465">
        <ele>40</ele>
        <time>2019-09-30T13:55:40.000Z</time>
      </trkpt>
      <trkpt lat="47.27102" lon="-1.64462">
        <ele>40</ele>
        <time>2019-09-30T13:55:41.000Z</time>
      </trkpt>
      <trkpt lat="47.27102" lon="-1.64459">
        <ele>40</ele>
        <time>2019-09-30T13:55:42.000Z</time>
      </trkpt>
      <trkpt lat="47.27102" lon="-1.64455">
        <ele>40</ele>
        <time>2019-09-30T13:55:43.000Z</time>
      </trkpt>
      <trkpt lat="47.27102" lon="-1.64451">
        <ele>40</ele>
        <time>2019-09-30T13:55:44.000Z</time>
      </trkpt>
      <trkpt lat="47.27102" lon="-1.64447">
        <ele>41</ele>
        <time>2019-09-30T13:55:45.000Z</time>
      </trkpt>
      <trkpt lat="47.27103" lon="-1.64445">
        <ele>41</ele>
        <time>2019-09-30T13:55:46.000Z</time>
      </trkpt>
      <trkpt lat="47.27105" lon="-1.64442">
        <ele>41</ele>
        <time>2019-09-30T13:55:47.000Z</time>
      </trkpt>
      <trkpt lat="47.27106" lon="-1.64439">
        <ele>41</ele>
        <time>2019-09-30T13:55:48.000Z</time>
      </trkpt>
      <trkpt lat="47.27106" lon="-1.64434">
        <ele>41</ele>
        <time>2019-09-30T13:55:49.000Z</time>
      </trkpt>
      <trkpt lat="47.27106" lon="-1.6443">
        <ele>42</ele>
        <time>2019-09-30T13:55:50.000Z</time>
      </trkpt>
      <trkpt lat="47.27106" lon="-1.64427">
        <ele>42</ele>
        <time>2019-09-30T13:55:51.000Z</time>
      </trkpt>
      <trkpt lat="47.27107" lon="-1.64423">
        <ele>42</ele>
        <time>2019-09-30T13:55:52.000Z</time>
      </trkpt>
      <trkpt lat="47.27107" lon="-1.6442">
        <ele>42</ele>
        <time>2019-09-30T13:55:53.000Z</time>
      </trkpt>
      <trkpt lat="47.27108" lon="-1.64415">
        <ele>42</ele>
        <time>2019-09-30T13:55:54.000Z</time>
      </trkpt>
      <trkpt lat="47.27109" lon="-1.64411">
        <ele>42</ele>
        <time>2019-09-30T13:55:55.000Z</time>
      </trkpt>
      <trkpt lat="47.27109" lon="-1.64407">
        <ele>42</ele>
        <time>2019-09-30T13:55:56.000Z</time>
      </trkpt>
      <trkpt lat="47.2711" lon="-1.64402">
        <ele>43</ele>
        <time>2019-09-30T13:55:57.000Z</time>
      </trkpt>
      <trkpt lat="47.27111" lon="-1.64399">
        <ele>43</ele>
        <time>2019-09-30T13:55:58.000Z</time>
      </trkpt>
      <trkpt lat="47.27112" lon="-1.64396">
        <ele>43</ele>
        <time>2019-09-30T13:55:59.000Z</time>
      </trkpt>
      <trkpt lat="47.27113" lon="-1.64392">
        <ele>43</ele>
        <time>2019-09-30T13:56:00.000Z</time>
      </trkpt>
      <trkpt lat="47.27112" lon="-1.64389">
        <ele>43</ele>
        <time>2019-09-30T13:56:01.000Z</time>
      </trkpt>
      <trkpt lat="47.27112" lon="-1.64386">
        <ele>43</ele>
        <time>2019-09-30T13:56:02.000Z</time>
      </trkpt>
      <trkpt lat="47.27111" lon="-1.64383">
        <ele>43</ele>
        <time>2019-09-30T13:56:03.000Z</time>
      </trkpt>
      <trkpt lat="47.27109" lon="-1.6438">
        <ele>43</ele>
        <time>2019-09-30T13:56:04.000Z</time>
      </trkpt>
      <trkpt lat="47.27109" lon="-1.64376">
        <ele>43</ele>
        <time>2019-09-30T13:56:05.000Z</time>
      </trkpt>
      <trkpt lat="47.27109" lon="-1.64372">
        <ele>43</ele>
        <time>2019-09-30T13:56:06.000Z</time>
      </trkpt>
      <trkpt lat="47.27109" lon="-1.64368">
        <ele>43</ele>
        <time>2019-09-30T13:56:07.000Z</time>
      </trkpt>
      <trkpt lat="47.2711" lon="-1.64365">
        <ele>43</ele>
        <time>2019-09-30T13:56:08.000Z</time>
      </trkpt>
      <trkpt lat="47.2711" lon="-1.64363">
        <ele>43</ele>
        <time>2019-09-30T13:56:09.000Z</time>
      </trkpt>
      <trkpt lat="47.27111" lon="-1.64362">
        <ele>43</ele>
        <time>2019-09-30T13:56:10.000Z</time>
      </trkpt>
      <trkpt lat="47.27113" lon="-1.64362">
        <ele>43</ele>
        <time>2019-09-30T13:56:11.000Z</time>
      </trkpt>
      <trkpt lat="47.27115" lon="-1.6436">
        <ele>43</ele>
        <time>2019-09-30T13:56:12.000Z</time>
      </trkpt>
      <trkpt lat="47.27116" lon="-1.64359">
        <ele>43</ele>
        <time>2019-09-30T13:56:13.000Z</time>
      </trkpt>
      <trkpt lat="47.27118" lon="-1.64357">
        <ele>43</ele>
        <time>2019-09-30T13:56:14.000Z</time>
      </trkpt>
      <trkpt lat="47.27119" lon="-1.64356">
        <ele>43</ele>
        <time>2019-09-30T13:56:15.000Z</time>
      </trkpt>
      <trkpt lat="47.2712" lon="-1.64353">
        <ele>43</ele>
        <time>2019-09-30T13:56:16.000Z</time>
      </trkpt>
      <trkpt lat="47.27121" lon="-1.64351">
        <ele>43</ele>
        <time>2019-09-30T13:56:17.000Z</time>
      </trkpt>
      <trkpt lat="47.27122" lon="-1.64349">
        <ele>43</ele>
        <time>2019-09-30T13:56:18.000Z</time>
      </trkpt>
      <trkpt lat="47.27122" lon="-1.64346">
        <ele>43</ele>
        <time>2019-09-30T13:56:19.000Z</time>
      </trkpt>
      <trkpt lat="47.27123" lon="-1.64344">
        <ele>43</ele>
        <time>2019-09-30T13:56:20.000Z</time>
      </trkpt>
      <trkpt lat="47.27123" lon="-1.64342">
        <ele>43</ele>
        <time>2019-09-30T13:56:21.000Z</time>
      </trkpt>
      <trkpt lat="47.27122" lon="-1.64339">
        <ele>43</ele>
        <time>2019-09-30T13:56:22.000Z</time>
      </trkpt>
      <trkpt lat="47.27122" lon="-1.64337">
        <ele>43</ele>
        <time>2019-09-30T13:56:23.000Z</time>
      </trkpt>
      <trkpt lat="47.27122" lon="-1.64335">
        <ele>43</ele>
        <time>2019-09-30T13:56:24.000Z</time>
      </trkpt>
      <trkpt lat="47.27121" lon="-1.64333">
        <ele>44</ele>
        <time>2019-09-30T13:56:25.000Z</time>
      </trkpt>
      <trkpt lat="47.2712" lon="-1.6433">
        <ele>44</ele>
        <time>2019-09-30T13:56:26.000Z</time>
      </trkpt>
      <trkpt lat="47.27118" lon="-1.64329">
        <ele>44</ele>
        <time>2019-09-30T13:56:27.000Z</time>
      </trkpt>
      <trkpt lat="47.27117" lon="-1.64328">
        <ele>44</ele>
        <time>2019-09-30T13:56:28.000Z</time>
      </trkpt>
      <trkpt lat="47.27115" lon="-1.64327">
        <ele>44</ele>
        <time>2019-09-30T13:56:29.000Z</time>
      </trkpt>
      <trkpt lat="47.27115" lon="-1.64326">
        <ele>44</ele>
        <time>2019-09-30T13:56:30.000Z</time>
      </trkpt>
      <trkpt lat="47.27114" lon="-1.64325">
        <ele>44</ele>
        <time>2019-09-30T13:56:31.000Z</time>
      </trkpt>
      <trkpt lat="47.27112" lon="-1.64323">
        <ele>45</ele>
        <time>2019-09-30T13:56:32.000Z</time>
      </trkpt>
      <trkpt lat="47.27112" lon="-1.64321">
        <ele>45</ele>
        <time>2019-09-30T13:56:33.000Z</time>
      </trkpt>
      <trkpt lat="47.27111" lon="-1.64319">
        <ele>45</ele>
        <time>2019-09-30T13:56:34.000Z</time>
      </trkpt>
      <trkpt lat="47.2711" lon="-1.64316">
        <ele>45</ele>
        <time>2019-09-30T13:56:35.000Z</time>
      </trkpt>
      <trkpt lat="47.27109" lon="-1.64313">
        <ele>45</ele>
        <time>2019-09-30T13:56:36.000Z</time>
      </trkpt>
      <trkpt lat="47.27108" lon="-1.6431">
        <ele>45</ele>
        <time>2019-09-30T13:56:37.000Z</time>
      </trkpt>
      <trkpt lat="47.27108" lon="-1.64307">
        <ele>45</ele>
        <time>2019-09-30T13:56:38.000Z</time>
      </trkpt>
      <trkpt lat="47.27107" lon="-1.64304">
        <ele>45</ele>
        <time>2019-09-30T13:56:39.000Z</time>
      </trkpt>
      <trkpt lat="47.27105" lon="-1.64303">
        <ele>45</ele>
        <time>2019-09-30T13:56:40.000Z</time>
      </trkpt>
      <trkpt lat="47.27104" lon="-1.64301">
        <ele>46</ele>
        <time>2019-09-30T13:56:41.000Z</time>
      </trkpt>
      <trkpt lat="47.27103" lon="-1.64299">
        <ele>46</ele>
        <time>2019-09-30T13:56:42.000Z</time>
      </trkpt>
      <trkpt lat="47.27103" lon="-1.64295">
        <ele>46</ele>
        <time>2019-09-30T13:56:43.000Z</time>
      </trkpt>
      <trkpt lat="47.27102" lon="-1.64292">
        <ele>46</ele>
        <time>2019-09-30T13:56:44.000Z</time>
      </trkpt>
      <trkpt lat="47.27101" lon="-1.64288">
        <ele>46</ele>
        <time>2019-09-30T13:56:45.000Z</time>
      </trkpt>
      <trkpt lat="47.27101" lon="-1.64284">
        <ele>46</ele>
        <time>2019-09-30T13:56:46.000Z</time>
      </trkpt>
      <trkpt lat="47.271" lon="-1.64281">
        <ele>47</ele>
        <time>2019-09-30T13:56:47.000Z</time>
      </trkpt>
      <trkpt lat="47.27099" lon="-1.64277">
        <ele>47</ele>
        <time>2019-09-30T13:56:48.000Z</time>
      </trkpt>
      <trkpt lat="47.27097" lon="-1.64274">
        <ele>47</ele>
        <time>2019-09-30T13:56:49.000Z</time>
      </trkpt>
      <trkpt lat="47.27095" lon="-1.64271">
        <ele>47</ele>
        <time>2019-09-30T13:56:50.000Z</time>
      </trkpt>
      <trkpt lat="47.27093" lon="-1.64268">
        <ele>47</ele>
        <time>2019-09-30T13:56:51.000Z</time>
      </trkpt>
      <trkpt lat="47.27092" lon="-1.64265">
        <ele>47</ele>
        <time>2019-09-30T13:56:52.000Z</time>
      </trkpt>
      <trkpt lat="47.27091" lon="-1.64263">
        <ele>47</ele>
        <time>2019-09-30T13:56:53.000Z</time>
      </trkpt>
      <trkpt lat="47.27089" lon="-1.64261">
        <ele>47</ele>
        <time>2019-09-30T13:56:54.000Z</time>
      </trkpt>
      <trkpt lat="47.27086" lon="-1.64259">
        <ele>48</ele>
        <time>2019-09-30T13:56:55.000Z</time>
      </trkpt>
      <trkpt lat="47.27083" lon="-1.64256">
        <ele>48</ele>
        <time>2019-09-30T13:56:56.000Z</time>
      </trkpt>
      <trkpt lat="47.2708" lon="-1.64253">
        <ele>48</ele>
        <time>2019-09-30T13:56:57.000Z</time>
      </trkpt>
      <trkpt lat="47.27077" lon="-1.6425">
        <ele>48</ele>
        <time>2019-09-30T13:56:58.000Z</time>
      </trkpt>
      <trkpt lat="47.27074" lon="-1.64247">
        <ele>48</ele>
        <time>2019-09-30T13:56:59.000Z</time>
      </trkpt>
      <trkpt lat="47.27071" lon="-1.64246">
        <ele>48</ele>
        <time>2019-09-30T13:57:00.000Z</time>
      </trkpt>
      <trkpt lat="47.27068" lon="-1.64242">
        <ele>48</ele>
        <time>2019-09-30T13:57:01.000Z</time>
      </trkpt>
      <trkpt lat="47.27065" lon="-1.64238">
        <ele>48</ele>
        <time>2019-09-30T13:57:02.000Z</time>
      </trkpt>
      <trkpt lat="47.27064" lon="-1.64233">
        <ele>48</ele>
        <time>2019-09-30T13:57:03.000Z</time>
      </trkpt>
      <trkpt lat="47.27062" lon="-1.64228">
        <ele>48</ele>
        <time>2019-09-30T13:57:04.000Z</time>
      </trkpt>
      <trkpt lat="47.2706" lon="-1.64223">
        <ele>48</ele>
        <time>2019-09-30T13:57:05.000Z</time>
      </trkpt>
      <trkpt lat="47.27059" lon="-1.64217">
        <ele>48</ele>
        <time>2019-09-30T13:57:06.000Z</time>
      </trkpt>
      <trkpt lat="47.27057" lon="-1.64212">
        <ele>48</ele>
        <time>2019-09-30T13:57:07.000Z</time>
      </trkpt>
      <trkpt lat="47.27055" lon="-1.64207">
        <ele>48</ele>
        <time>2019-09-30T13:57:08.000Z</time>
      </trkpt>
      <trkpt lat="47.27053" lon="-1.64203">
        <ele>48</ele>
        <time>2019-09-30T13:57:09.000Z</time>
      </trkpt>
      <trkpt lat="47.27051" lon="-1.64199">
        <ele>48</ele>
        <time>2019-09-30T13:57:10.000Z</time>
      </trkpt>
      <trkpt lat="47.27049" lon="-1.64196">
        <ele>48</ele>
        <time>2019-09-30T13:57:11.000Z</time>
      </trkpt>
      <trkpt lat="47.27047" lon="-1.6419">
        <ele>48</ele>
        <time>2019-09-30T13:57:12.000Z</time>
      </trkpt>
      <trkpt lat="47.27045" lon="-1.64185">
        <ele>48</ele>
        <time>2019-09-30T13:57:13.000Z</time>
      </trkpt>
      <trkpt lat="47.27042" lon="-1.6418">
        <ele>48</ele>
        <time>2019-09-30T13:57:14.000Z</time>
      </trkpt>
      <trkpt lat="47.27039" lon="-1.64177">
        <ele>48</ele>
        <time>2019-09-30T13:57:15.000Z</time>
      </trkpt>
      <trkpt lat="47.27036" lon="-1.64174">
        <ele>48</ele>
        <time>2019-09-30T13:57:16.000Z</time>
      </trkpt>
      <trkpt lat="47.27033" lon="-1.64172">
        <ele>48</ele>
        <time>2019-09-30T13:57:17.000Z</time>
      </trkpt>
      <trkpt lat="47.2703" lon="-1.6417">
        <ele>48</ele>
        <time>2019-09-30T13:57:18.000Z</time>
      </trkpt>
      <trkpt lat="47.27028" lon="-1.64166">
        <ele>48</ele>
        <time>2019-09-30T13:57:19.000Z</time>
      </trkpt>
      <trkpt lat="47.27026" lon="-1.64161">
        <ele>48</ele>
        <time>2019-09-30T13:57:20.000Z</time>
      </trkpt>
      <trkpt lat="47.27023" lon="-1.64157">
        <ele>48</ele>
        <time>2019-09-30T13:57:21.000Z</time>
      </trkpt>
      <trkpt lat="47.27022" lon="-1.64151">
        <ele>48</ele>
        <time>2019-09-30T13:57:22.000Z</time>
      </trkpt>
      <trkpt lat="47.27021" lon="-1.64147">
        <ele>48</ele>
        <time>2019-09-30T13:57:23.000Z</time>
      </trkpt>
      <trkpt lat="47.2702" lon="-1.64142">
        <ele>48</ele>
        <time>2019-09-30T13:57:24.000Z</time>
      </trkpt>
      <trkpt lat="47.27019" lon="-1.64137">
        <ele>48</ele>
        <time>2019-09-30T13:57:25.000Z</time>
      </trkpt>
      <trkpt lat="47.27018" lon="-1.64132">
        <ele>48</ele>
        <time>2019-09-30T13:57:26.000Z</time>
      </trkpt>
      <trkpt lat="47.27017" lon="-1.64127">
        <ele>49</ele>
        <time>2019-09-30T13:57:27.000Z</time>
      </trkpt>
      <trkpt lat="47.27017" lon="-1.64123">
        <ele>49</ele>
        <time>2019-09-30T13:57:28.000Z</time>
      </trkpt>
      <trkpt lat="47.27018" lon="-1.6412">
        <ele>49</ele>
        <time>2019-09-30T13:57:29.000Z</time>
      </trkpt>
      <trkpt lat="47.27019" lon="-1.64116">
        <ele>49</ele>
        <time>2019-09-30T13:57:30.000Z</time>
      </trkpt>
      <trkpt lat="47.2702" lon="-1.64112">
        <ele>49</ele>
        <time>2019-09-30T13:57:31.000Z</time>
      </trkpt>
      <trkpt lat="47.27021" lon="-1.64109">
        <ele>49</ele>
        <time>2019-09-30T13:57:32.000Z</time>
      </trkpt>
      <trkpt lat="47.27022" lon="-1.64104">
        <ele>49</ele>
        <time>2019-09-30T13:57:33.000Z</time>
      </trkpt>
      <trkpt lat="47.27023" lon="-1.641">
        <ele>49</ele>
        <time>2019-09-30T13:57:34.000Z</time>
      </trkpt>
      <trkpt lat="47.27024" lon="-1.64098">
        <ele>49</ele>
        <time>2019-09-30T13:57:35.000Z</time>
      </trkpt>
      <trkpt lat="47.27025" lon="-1.64096">
        <ele>49</ele>
        <time>2019-09-30T13:57:36.000Z</time>
      </trkpt>
      <trkpt lat="47.27027" lon="-1.64095">
        <ele>49</ele>
        <time>2019-09-30T13:57:37.000Z</time>
      </trkpt>
      <trkpt lat="47.27028" lon="-1.64093">
        <ele>49</ele>
        <time>2019-09-30T13:57:38.000Z</time>
      </trkpt>
      <trkpt lat="47.27029" lon="-1.6409">
        <ele>49</ele>
        <time>2019-09-30T13:57:39.000Z</time>
      </trkpt>
      <trkpt lat="47.27029" lon="-1.64086">
        <ele>49</ele>
        <time>2019-09-30T13:57:40.000Z</time>
      </trkpt>
      <trkpt lat="47.2703" lon="-1.64081">
        <ele>50</ele>
        <time>2019-09-30T13:57:41.000Z</time>
      </trkpt>
      <trkpt lat="47.27032" lon="-1.64078">
        <ele>50</ele>
        <time>2019-09-30T13:57:42.000Z</time>
      </trkpt>
      <trkpt lat="47.27033" lon="-1.64075">
        <ele>50</ele>
        <time>2019-09-30T13:57:43.000Z</time>
      </trkpt>
      <trkpt lat="47.27035" lon="-1.64071">
        <ele>50</ele>
        <time>2019-09-30T13:57:44.000Z</time>
      </trkpt>
      <trkpt lat="47.27036" lon="-1.64068">
        <ele>50</ele>
        <time>2019-09-30T13:57:45.000Z</time>
      </trkpt>
      <trkpt lat="47.27038" lon="-1.64065">
        <ele>50</ele>
        <time>2019-09-30T13:57:46.000Z</time>
      </trkpt>
      <trkpt lat="47.27039" lon="-1.64063">
        <ele>50</ele>
        <time>2019-09-30T13:57:47.000Z</time>
      </trkpt>
      <trkpt lat="47.27041" lon="-1.6406">
        <ele>50</ele>
        <time>2019-09-30T13:57:48.000Z</time>
      </trkpt>
      <trkpt lat="47.27042" lon="-1.64054">
        <ele>50</ele>
        <time>2019-09-30T13:57:49.000Z</time>
      </trkpt>
      <trkpt lat="47.27042" lon="-1.64048">
        <ele>50</ele>
        <time>2019-09-30T13:57:50.000Z</time>
      </trkpt>
      <trkpt lat="47.27042" lon="-1.64041">
        <ele>50</ele>
        <time>2019-09-30T13:57:51.000Z</time>
      </trkpt>
      <trkpt lat="47.27042" lon="-1.64035">
        <ele>50</ele>
        <time>2019-09-30T13:57:52.000Z</time>
      </trkpt>
      <trkpt lat="47.27041" lon="-1.64028">
        <ele>50</ele>
        <time>2019-09-30T13:57:53.000Z</time>
      </trkpt>
      <trkpt lat="47.27041" lon="-1.64022">
        <ele>50</ele>
        <time>2019-09-30T13:57:54.000Z</time>
      </trkpt>
      <trkpt lat="47.27042" lon="-1.64016">
        <ele>49</ele>
        <time>2019-09-30T13:57:55.000Z</time>
      </trkpt>
      <trkpt lat="47.27042" lon="-1.64011">
        <ele>49</ele>
        <time>2019-09-30T13:57:56.000Z</time>
      </trkpt>
      <trkpt lat="47.27042" lon="-1.64005">
        <ele>49</ele>
        <time>2019-09-30T13:57:57.000Z</time>
      </trkpt>
      <trkpt lat="47.27042" lon="-1.64">
        <ele>49</ele>
        <time>2019-09-30T13:57:58.000Z</time>
      </trkpt>
      <trkpt lat="47.27043" lon="-1.63994">
        <ele>49</ele>
        <time>2019-09-30T13:57:59.000Z</time>
      </trkpt>
      <trkpt lat="47.27043" lon="-1.6399">
        <ele>49</ele>
        <time>2019-09-30T13:58:00.000Z</time>
      </trkpt>
      <trkpt lat="47.27044" lon="-1.63985">
        <ele>49</ele>
        <time>2019-09-30T13:58:01.000Z</time>
      </trkpt>
      <trkpt lat="47.27045" lon="-1.6398">
        <ele>49</ele>
        <time>2019-09-30T13:58:02.000Z</time>
      </trkpt>
      <trkpt lat="47.27047" lon="-1.63974">
        <ele>49</ele>
        <time>2019-09-30T13:58:03.000Z</time>
      </trkpt>
      <trkpt lat="47.27047" lon="-1.63969">
        <ele>49</ele>
        <time>2019-09-30T13:58:04.000Z</time>
      </trkpt>
      <trkpt lat="47.27048" lon="-1.63963">
        <ele>49</ele>
        <time>2019-09-30T13:58:05.000Z</time>
      </trkpt>
      <trkpt lat="47.27049" lon="-1.63958">
        <ele>49</ele>
        <time>2019-09-30T13:58:06.000Z</time>
      </trkpt>
      <trkpt lat="47.27048" lon="-1.63952">
        <ele>49</ele>
        <time>2019-09-30T13:58:07.000Z</time>
      </trkpt>
      <trkpt lat="47.27048" lon="-1.63946">
        <ele>49</ele>
        <time>2019-09-30T13:58:08.000Z</time>
      </trkpt>
      <trkpt lat="47.27048" lon="-1.6394">
        <ele>49</ele>
        <time>2019-09-30T13:58:09.000Z</time>
      </trkpt>
      <trkpt lat="47.27048" lon="-1.63935">
        <ele>49</ele>
        <time>2019-09-30T13:58:10.000Z</time>
      </trkpt>
      <trkpt lat="47.27049" lon="-1.63929">
        <ele>49</ele>
        <time>2019-09-30T13:58:11.000Z</time>
      </trkpt>
      <trkpt lat="47.2705" lon="-1.63924">
        <ele>49</ele>
        <time>2019-09-30T13:58:12.000Z</time>
      </trkpt>
      <trkpt lat="47.27051" lon="-1.63919">
        <ele>49</ele>
        <time>2019-09-30T13:58:13.000Z</time>
      </trkpt>
      <trkpt lat="47.27053" lon="-1.63915">
        <ele>49</ele>
        <time>2019-09-30T13:58:14.000Z</time>
      </trkpt>
      <trkpt lat="47.27056" lon="-1.63911">
        <ele>49</ele>
        <time>2019-09-30T13:58:15.000Z</time>
      </trkpt>
      <trkpt lat="47.27059" lon="-1.63908">
        <ele>49</ele>
        <time>2019-09-30T13:58:16.000Z</time>
      </trkpt>
      <trkpt lat="47.27062" lon="-1.63906">
        <ele>49</ele>
        <time>2019-09-30T13:58:17.000Z</time>
      </trkpt>
      <trkpt lat="47.27064" lon="-1.63903">
        <ele>49</ele>
        <time>2019-09-30T13:58:18.000Z</time>
      </trkpt>
      <trkpt lat="47.27067" lon="-1.63898">
        <ele>49</ele>
        <time>2019-09-30T13:58:19.000Z</time>
      </trkpt>
      <trkpt lat="47.27068" lon="-1.63893">
        <ele>49</ele>
        <time>2019-09-30T13:58:20.000Z</time>
      </trkpt>
      <trkpt lat="47.27069" lon="-1.63888">
        <ele>49</ele>
        <time>2019-09-30T13:58:21.000Z</time>
      </trkpt>
      <trkpt lat="47.27069" lon="-1.63883">
        <ele>49</ele>
        <time>2019-09-30T13:58:22.000Z</time>
      </trkpt>
      <trkpt lat="47.27069" lon="-1.63878">
        <ele>49</ele>
        <time>2019-09-30T13:58:23.000Z</time>
      </trkpt>
      <trkpt lat="47.27068" lon="-1.63873">
        <ele>49</ele>
        <time>2019-09-30T13:58:24.000Z</time>
      </trkpt>
      <trkpt lat="47.27068" lon="-1.63869">
        <ele>49</ele>
        <time>2019-09-30T13:58:25.000Z</time>
      </trkpt>
      <trkpt lat="47.27068" lon="-1.63865">
        <ele>49</ele>
        <time>2019-09-30T13:58:26.000Z</time>
      </trkpt>
      <trkpt lat="47.27068" lon="-1.63861">
        <ele>49</ele>
        <time>2019-09-30T13:58:27.000Z</time>
      </trkpt>
      <trkpt lat="47.27067" lon="-1.63857">
        <ele>49</ele>
        <time>2019-09-30T13:58:28.000Z</time>
      </trkpt>
      <trkpt lat="47.27067" lon="-1.63852">
        <ele>49</ele>
        <time>2019-09-30T13:58:29.000Z</time>
      </trkpt>
      <trkpt lat="47.27067" lon="-1.63846">
        <ele>49</ele>
        <time>2019-09-30T13:58:30.000Z</time>
      </trkpt>
      <trkpt lat="47.27066" lon="-1.6384">
        <ele>49</ele>
        <time>2019-09-30T13:58:31.000Z</time>
      </trkpt>
      <trkpt lat="47.27066" lon="-1.63834">
        <ele>49</ele>
        <time>2019-09-30T13:58:32.000Z</time>
      </trkpt>
      <trkpt lat="47.27066" lon="-1.63828">
        <ele>48</ele>
        <time>2019-09-30T13:58:33.000Z</time>
      </trkpt>
      <trkpt lat="47.27066" lon="-1.63821">
        <ele>48</ele>
        <time>2019-09-30T13:58:34.000Z</time>
      </trkpt>
      <trkpt lat="47.27065" lon="-1.63815">
        <ele>48</ele>
        <time>2019-09-30T13:58:35.000Z</time>
      </trkpt>
      <trkpt lat="47.27065" lon="-1.63809">
        <ele>48</ele>
        <time>2019-09-30T13:58:36.000Z</time>
      </trkpt>
      <trkpt lat="47.27065" lon="-1.63802">
        <ele>48</ele>
        <time>2019-09-30T13:58:37.000Z</time>
      </trkpt>
      <trkpt lat="47.27064" lon="-1.63795">
        <ele>48</ele>
        <time>2019-09-30T13:58:38.000Z</time>
      </trkpt>
      <trkpt lat="47.27064" lon="-1.63789">
        <ele>47</ele>
        <time>2019-09-30T13:58:39.000Z</time>
      </trkpt>
      <trkpt lat="47.27064" lon="-1.63782">
        <ele>47</ele>
        <time>2019-09-30T13:58:40.000Z</time>
      </trkpt>
      <trkpt lat="47.27064" lon="-1.63776">
        <ele>47</ele>
        <time>2019-09-30T13:58:41.000Z</time>
      </trkpt>
      <trkpt lat="47.27064" lon="-1.63769">
        <ele>47</ele>
        <time>2019-09-30T13:58:42.000Z</time>
      </trkpt>
      <trkpt lat="47.27063" lon="-1.63762">
        <ele>47</ele>
        <time>2019-09-30T13:58:43.000Z</time>
      </trkpt>
      <trkpt lat="47.27064" lon="-1.63755">
        <ele>47</ele>
        <time>2019-09-30T13:58:44.000Z</time>
      </trkpt>
      <trkpt lat="47.27064" lon="-1.63748">
        <ele>47</ele>
        <time>2019-09-30T13:58:45.000Z</time>
      </trkpt>
      <trkpt lat="47.27064" lon="-1.63742">
        <ele>47</ele>
        <time>2019-09-30T13:58:46.000Z</time>
      </trkpt>
      <trkpt lat="47.27064" lon="-1.63735">
        <ele>47</ele>
        <time>2019-09-30T13:58:47.000Z</time>
      </trkpt>
      <trkpt lat="47.27065" lon="-1.63728">
        <ele>47</ele>
        <time>2019-09-30T13:58:48.000Z</time>
      </trkpt>
      <trkpt lat="47.27065" lon="-1.63721">
        <ele>47</ele>
        <time>2019-09-30T13:58:49.000Z</time>
      </trkpt>
      <trkpt lat="47.27066" lon="-1.63715">
        <ele>47</ele>
        <time>2019-09-30T13:58:50.000Z</time>
      </trkpt>
      <trkpt lat="47.27067" lon="-1.63708">
        <ele>47</ele>
        <time>2019-09-30T13:58:51.000Z</time>
      </trkpt>
      <trkpt lat="47.27068" lon="-1.63701">
        <ele>47</ele>
        <time>2019-09-30T13:58:52.000Z</time>
      </trkpt>
      <trkpt lat="47.27069" lon="-1.63693">
        <ele>47</ele>
        <time>2019-09-30T13:58:53.000Z</time>
      </trkpt>
      <trkpt lat="47.2707" lon="-1.63686">
        <ele>47</ele>
        <time>2019-09-30T13:58:54.000Z</time>
      </trkpt>
      <trkpt lat="47.27071" lon="-1.6368">
        <ele>47</ele>
        <time>2019-09-30T13:58:55.000Z</time>
      </trkpt>
      <trkpt lat="47.27073" lon="-1.63674">
        <ele>47</ele>
        <time>2019-09-30T13:58:56.000Z</time>
      </trkpt>
      <trkpt lat="47.27074" lon="-1.63668">
        <ele>47</ele>
        <time>2019-09-30T13:58:57.000Z</time>
      </trkpt>
      <trkpt lat="47.27075" lon="-1.63663">
        <ele>47</ele>
        <time>2019-09-30T13:58:58.000Z</time>
      </trkpt>
      <trkpt lat="47.27076" lon="-1.63658">
        <ele>47</ele>
        <time>2019-09-30T13:58:59.000Z</time>
      </trkpt>
      <trkpt lat="47.27077" lon="-1.63653">
        <ele>47</ele>
        <time>2019-09-30T13:59:00.000Z</time>
      </trkpt>
      <trkpt lat="47.27077" lon="-1.63648">
        <ele>48</ele>
        <time>2019-09-30T13:59:01.000Z</time>
      </trkpt>
      <trkpt lat="47.27078" lon="-1.63643">
        <ele>48</ele>
        <time>2019-09-30T13:59:02.000Z</time>
      </trkpt>
      <trkpt lat="47.27079" lon="-1.63638">
        <ele>48</ele>
        <time>2019-09-30T13:59:03.000Z</time>
      </trkpt>
      <trkpt lat="47.2708" lon="-1.63632">
        <ele>48</ele>
        <time>2019-09-30T13:59:04.000Z</time>
      </trkpt>
      <trkpt lat="47.27081" lon="-1.63627">
        <ele>49</ele>
        <time>2019-09-30T13:59:05.000Z</time>
      </trkpt>
      <trkpt lat="47.27082" lon="-1.63621">
        <ele>49</ele>
        <time>2019-09-30T13:59:06.000Z</time>
      </trkpt>
      <trkpt lat="47.27083" lon="-1.63616">
        <ele>49</ele>
        <time>2019-09-30T13:59:07.000Z</time>
      </trkpt>
      <trkpt lat="47.27084" lon="-1.63611">
        <ele>49</ele>
        <time>2019-09-30T13:59:08.000Z</time>
      </trkpt>
      <trkpt lat="47.27084" lon="-1.63607">
        <ele>49</ele>
        <time>2019-09-30T13:59:09.000Z</time>
      </trkpt>
      <trkpt lat="47.27086" lon="-1.63603">
        <ele>49</ele>
        <time>2019-09-30T13:59:10.000Z</time>
      </trkpt>
      <trkpt lat="47.27087" lon="-1.63599">
        <ele>50</ele>
        <time>2019-09-30T13:59:11.000Z</time>
      </trkpt>
      <trkpt lat="47.27088" lon="-1.63595">
        <ele>50</ele>
        <time>2019-09-30T13:59:12.000Z</time>
      </trkpt>
      <trkpt lat="47.27089" lon="-1.6359">
        <ele>50</ele>
        <time>2019-09-30T13:59:13.000Z</time>
      </trkpt>
      <trkpt lat="47.27089" lon="-1.63587">
        <ele>50</ele>
        <time>2019-09-30T13:59:14.000Z</time>
      </trkpt>
      <trkpt lat="47.2709" lon="-1.63582">
        <ele>50</ele>
        <time>2019-09-30T13:59:15.000Z</time>
      </trkpt>
      <trkpt lat="47.27091" lon="-1.63578">
        <ele>50</ele>
        <time>2019-09-30T13:59:16.000Z</time>
      </trkpt>
      <trkpt lat="47.27092" lon="-1.63573">
        <ele>51</ele>
        <time>2019-09-30T13:59:17.000Z</time>
      </trkpt>
      <trkpt lat="47.27093" lon="-1.63567">
        <ele>51</ele>
        <time>2019-09-30T13:59:18.000Z</time>
      </trkpt>
      <trkpt lat="47.27094" lon="-1.6356">
        <ele>51</ele>
        <time>2019-09-30T13:59:19.000Z</time>
      </trkpt>
      <trkpt lat="47.27094" lon="-1.63554">
        <ele>51</ele>
        <time>2019-09-30T13:59:20.000Z</time>
      </trkpt>
      <trkpt lat="47.27094" lon="-1.63546">
        <ele>50</ele>
        <time>2019-09-30T13:59:21.000Z</time>
      </trkpt>
      <trkpt lat="47.27095" lon="-1.63538">
        <ele>50</ele>
        <time>2019-09-30T13:59:22.000Z</time>
      </trkpt>
      <trkpt lat="47.27095" lon="-1.63529">
        <ele>50</ele>
        <time>2019-09-30T13:59:23.000Z</time>
      </trkpt>
      <trkpt lat="47.27095" lon="-1.6352">
        <ele>49</ele>
        <time>2019-09-30T13:59:24.000Z</time>
      </trkpt>
      <trkpt lat="47.27095" lon="-1.6351">
        <ele>49</ele>
        <time>2019-09-30T13:59:25.000Z</time>
      </trkpt>
      <trkpt lat="47.27094" lon="-1.635">
        <ele>48</ele>
        <time>2019-09-30T13:59:26.000Z</time>
      </trkpt>
      <trkpt lat="47.27093" lon="-1.6349">
        <ele>48</ele>
        <time>2019-09-30T13:59:27.000Z</time>
      </trkpt>
      <trkpt lat="47.27092" lon="-1.63479">
        <ele>47</ele>
        <time>2019-09-30T13:59:28.000Z</time>
      </trkpt>
      <trkpt lat="47.27091" lon="-1.63468">
        <ele>46</ele>
        <time>2019-09-30T13:59:29.000Z</time>
      </trkpt>
      <trkpt lat="47.2709" lon="-1.63458">
        <ele>46</ele>
        <time>2019-09-30T13:59:30.000Z</time>
      </trkpt>
      <trkpt lat="47.27087" lon="-1.63449">
        <ele>45</ele>
        <time>2019-09-30T13:59:31.000Z</time>
      </trkpt>
      <trkpt lat="47.27084" lon="-1.63442">
        <ele>45</ele>
        <time>2019-09-30T13:59:32.000Z</time>
      </trkpt>
      <trkpt lat="47.2708" lon="-1.63437">
        <ele>44</ele>
        <time>2019-09-30T13:59:33.000Z</time>
      </trkpt>
      <trkpt lat="47.27076" lon="-1.63432">
        <ele>44</ele>
        <time>2019-09-30T13:59:34.000Z</time>
      </trkpt>
      <trkpt lat="47.2707" lon="-1.6343">
        <ele>43</ele>
        <time>2019-09-30T13:59:35.000Z</time>
      </trkpt>
      <trkpt lat="47.27065" lon="-1.63427">
        <ele>43</ele>
        <time>2019-09-30T13:59:36.000Z</time>
      </trkpt>
      <trkpt lat="47.2706" lon="-1.63425">
        <ele>42</ele>
        <time>2019-09-30T13:59:37.000Z</time>
      </trkpt>
      <trkpt lat="47.27056" lon="-1.63425">
        <ele>42</ele>
        <time>2019-09-30T13:59:38.000Z</time>
      </trkpt>
      <trkpt lat="47.27051" lon="-1.63425">
        <ele>42</ele>
        <time>2019-09-30T13:59:39.000Z</time>
      </trkpt>
      <trkpt lat="47.27046" lon="-1.63424">
        <ele>41</ele>
        <time>2019-09-30T13:59:40.000Z</time>
      </trkpt>
      <trkpt lat="47.27041" lon="-1.63424">
        <ele>41</ele>
        <time>2019-09-30T13:59:41.000Z</time>
      </trkpt>
      <trkpt lat="47.27037" lon="-1.63425">
        <ele>41</ele>
        <time>2019-09-30T13:59:42.000Z</time>
      </trkpt>
      <trkpt lat="47.27033" lon="-1.63428">
        <ele>40</ele>
        <time>2019-09-30T13:59:43.000Z</time>
      </trkpt>
      <trkpt lat="47.27031" lon="-1.63431">
        <ele>40</ele>
        <time>2019-09-30T13:59:44.000Z</time>
      </trkpt>
      <trkpt lat="47.2703" lon="-1.63432">
        <ele>40</ele>
        <time>2019-09-30T13:59:45.000Z</time>
      </trkpt>
      <trkpt lat="47.2703" lon="-1.63432">
        <ele>40</ele>
        <time>2019-09-30T13:59:46.000Z</time>
      </trkpt>
      <trkpt lat="47.27029" lon="-1.63431">
        <ele>40</ele>
        <time>2019-09-30T13:59:47.000Z</time>
      </trkpt>
      <trkpt lat="47.27029" lon="-1.63431">
        <ele>40</ele>
        <time>2019-09-30T13:59:48.000Z</time>
      </trkpt>
      <trkpt lat="47.27029" lon="-1.63431">
        <ele>40</ele>
        <time>2019-09-30T13:59:49.000Z</time>
      </trkpt>
      <trkpt lat="47.27025" lon="-1.63429">
        <ele>41</ele>
        <time>2019-09-30T13:59:50.000Z</time>
      </trkpt>
      <trkpt lat="47.27025" lon="-1.63429">
        <ele>41</ele>
        <time>2019-09-30T13:59:51.000Z</time>
      </trkpt>
    </trkseg>
  </trk>
</gpx>